<?xml version="1.0" encoding="UTF-8" standalone="no" ?>
<gpx xmlns="http://www.topografix.com/GPX/1/1" xmlns:xsi="http://www.w3.org/2001/XMLSchema-instance" xsi:schemaLocation="http://www.topografix.com/GPX/1/1 http://www.topografix.com/GPX/1/1/gpx.xsd" version="1.1" creator="VisuGPX - https://www.visugpx.com">
  <metadata>
    <name>83-Me-St Tropez</name>
    <desc><![CDATA[83-Me-St Tropez : le chemin des douaniers
2023-05-24]]></desc>
  </metadata>
  <trk>
    <name><![CDATA[2023-05-24-Me-St Trop]]></name>
    <extensions>
      <line xmlns="http://www.topografix.com/GPX/gpx_style/0/2">
        <width>4</width>
      </line>
    </extensions>
    <trkseg>
      <trkpt lat="43.26505" lon="6.66584">
        <ele>13.8</ele>
        <time>2023-05-24T07:41:34.000Z</time>
      </trkpt>
      <trkpt lat="43.26505" lon="6.66584">
        <ele>13.8</ele>
        <time>2023-05-24T07:41:35.000Z</time>
      </trkpt>
      <trkpt lat="43.26509" lon="6.66588">
        <ele>13.1</ele>
        <time>2023-05-24T07:42:15.000Z</time>
      </trkpt>
      <trkpt lat="43.26504" lon="6.66587">
        <ele>13.5</ele>
        <time>2023-05-24T07:42:46.000Z</time>
      </trkpt>
      <trkpt lat="43.2651" lon="6.66589">
        <ele>13.1</ele>
        <time>2023-05-24T07:43:34.000Z</time>
      </trkpt>
      <trkpt lat="43.26507" lon="6.66584">
        <ele>13.9</ele>
        <time>2023-05-24T07:43:52.000Z</time>
      </trkpt>
      <trkpt lat="43.26503" lon="6.66584">
        <ele>14.2</ele>
        <time>2023-05-24T07:44:35.000Z</time>
      </trkpt>
      <trkpt lat="43.26498" lon="6.66585">
        <ele>14</ele>
        <time>2023-05-24T07:44:54.000Z</time>
      </trkpt>
      <trkpt lat="43.26503" lon="6.66587">
        <ele>14</ele>
        <time>2023-05-24T07:46:13.000Z</time>
      </trkpt>
      <trkpt lat="43.26501" lon="6.66593">
        <ele>13.4</ele>
        <time>2023-05-24T07:49:01.000Z</time>
      </trkpt>
      <trkpt lat="43.26502" lon="6.66587">
        <ele>13.2</ele>
        <time>2023-05-24T07:49:37.000Z</time>
      </trkpt>
      <trkpt lat="43.26506" lon="6.66584">
        <ele>12.8</ele>
        <time>2023-05-24T07:49:51.000Z</time>
      </trkpt>
      <trkpt lat="43.26511" lon="6.66582">
        <ele>12.7</ele>
        <time>2023-05-24T07:49:57.000Z</time>
      </trkpt>
      <trkpt lat="43.26516" lon="6.66581">
        <ele>12.5</ele>
        <time>2023-05-24T07:50:03.000Z</time>
      </trkpt>
      <trkpt lat="43.26521" lon="6.66581">
        <ele>11.9</ele>
        <time>2023-05-24T07:50:22.000Z</time>
      </trkpt>
      <trkpt lat="43.26524" lon="6.66587">
        <ele>11.7</ele>
        <time>2023-05-24T07:50:40.000Z</time>
      </trkpt>
      <trkpt lat="43.26526" lon="6.66593">
        <ele>11.7</ele>
        <time>2023-05-24T07:51:04.000Z</time>
      </trkpt>
      <trkpt lat="43.26529" lon="6.66598">
        <ele>11.9</ele>
        <time>2023-05-24T07:51:11.000Z</time>
      </trkpt>
      <trkpt lat="43.26532" lon="6.66605">
        <ele>11.8</ele>
        <time>2023-05-24T07:51:16.000Z</time>
      </trkpt>
      <trkpt lat="43.26535" lon="6.6661">
        <ele>11.7</ele>
        <time>2023-05-24T07:51:21.000Z</time>
      </trkpt>
      <trkpt lat="43.26538" lon="6.66615">
        <ele>11.6</ele>
        <time>2023-05-24T07:51:27.000Z</time>
      </trkpt>
      <trkpt lat="43.26542" lon="6.66619">
        <ele>11.6</ele>
        <time>2023-05-24T07:51:32.000Z</time>
      </trkpt>
      <trkpt lat="43.26546" lon="6.66625">
        <ele>11.6</ele>
        <time>2023-05-24T07:51:37.000Z</time>
      </trkpt>
      <trkpt lat="43.2655" lon="6.66628">
        <ele>11.5</ele>
        <time>2023-05-24T07:51:42.000Z</time>
      </trkpt>
      <trkpt lat="43.26555" lon="6.66631">
        <ele>11.5</ele>
        <time>2023-05-24T07:51:47.000Z</time>
      </trkpt>
      <trkpt lat="43.2656" lon="6.66635">
        <ele>11.5</ele>
        <time>2023-05-24T07:51:52.000Z</time>
      </trkpt>
      <trkpt lat="43.26565" lon="6.66639">
        <ele>11.5</ele>
        <time>2023-05-24T07:51:57.000Z</time>
      </trkpt>
      <trkpt lat="43.26569" lon="6.66643">
        <ele>11.5</ele>
        <time>2023-05-24T07:52:02.000Z</time>
      </trkpt>
      <trkpt lat="43.26573" lon="6.66647">
        <ele>11.5</ele>
        <time>2023-05-24T07:52:07.000Z</time>
      </trkpt>
      <trkpt lat="43.26576" lon="6.66651">
        <ele>11.5</ele>
        <time>2023-05-24T07:52:11.000Z</time>
      </trkpt>
      <trkpt lat="43.2658" lon="6.66656">
        <ele>11.4</ele>
        <time>2023-05-24T07:52:16.000Z</time>
      </trkpt>
      <trkpt lat="43.26584" lon="6.66662">
        <ele>11.4</ele>
        <time>2023-05-24T07:52:22.000Z</time>
      </trkpt>
      <trkpt lat="43.26586" lon="6.66667">
        <ele>11.4</ele>
        <time>2023-05-24T07:52:27.000Z</time>
      </trkpt>
      <trkpt lat="43.26587" lon="6.66673">
        <ele>11.5</ele>
        <time>2023-05-24T07:52:32.000Z</time>
      </trkpt>
      <trkpt lat="43.26589" lon="6.66679">
        <ele>11.5</ele>
        <time>2023-05-24T07:52:37.000Z</time>
      </trkpt>
      <trkpt lat="43.2659" lon="6.66686">
        <ele>11.6</ele>
        <time>2023-05-24T07:52:43.000Z</time>
      </trkpt>
      <trkpt lat="43.26594" lon="6.66691">
        <ele>11.6</ele>
        <time>2023-05-24T07:52:48.000Z</time>
      </trkpt>
      <trkpt lat="43.26595" lon="6.66699">
        <ele>11.6</ele>
        <time>2023-05-24T07:52:53.000Z</time>
      </trkpt>
      <trkpt lat="43.26597" lon="6.66705">
        <ele>11.6</ele>
        <time>2023-05-24T07:52:57.000Z</time>
      </trkpt>
      <trkpt lat="43.266" lon="6.6671">
        <ele>11.6</ele>
        <time>2023-05-24T07:53:02.000Z</time>
      </trkpt>
      <trkpt lat="43.26598" lon="6.66717">
        <ele>11.6</ele>
        <time>2023-05-24T07:53:08.000Z</time>
      </trkpt>
      <trkpt lat="43.26597" lon="6.66724">
        <ele>11.6</ele>
        <time>2023-05-24T07:53:13.000Z</time>
      </trkpt>
      <trkpt lat="43.26598" lon="6.6673">
        <ele>11.6</ele>
        <time>2023-05-24T07:53:17.000Z</time>
      </trkpt>
      <trkpt lat="43.26602" lon="6.66735">
        <ele>11.6</ele>
        <time>2023-05-24T07:53:21.000Z</time>
      </trkpt>
      <trkpt lat="43.26606" lon="6.66739">
        <ele>11.6</ele>
        <time>2023-05-24T07:53:25.000Z</time>
      </trkpt>
      <trkpt lat="43.2661" lon="6.66742">
        <ele>11.6</ele>
        <time>2023-05-24T07:53:32.000Z</time>
      </trkpt>
      <trkpt lat="43.26611" lon="6.66748">
        <ele>11.6</ele>
        <time>2023-05-24T07:53:41.000Z</time>
      </trkpt>
      <trkpt lat="43.26614" lon="6.66754">
        <ele>11.6</ele>
        <time>2023-05-24T07:53:47.000Z</time>
      </trkpt>
      <trkpt lat="43.26618" lon="6.6676">
        <ele>11.6</ele>
        <time>2023-05-24T07:53:51.000Z</time>
      </trkpt>
      <trkpt lat="43.26622" lon="6.66765">
        <ele>11.6</ele>
        <time>2023-05-24T07:53:55.000Z</time>
      </trkpt>
      <trkpt lat="43.26626" lon="6.66767">
        <ele>11.6</ele>
        <time>2023-05-24T07:53:59.000Z</time>
      </trkpt>
      <trkpt lat="43.2663" lon="6.66771">
        <ele>11.6</ele>
        <time>2023-05-24T07:54:03.000Z</time>
      </trkpt>
      <trkpt lat="43.26633" lon="6.66776">
        <ele>11.6</ele>
        <time>2023-05-24T07:54:07.000Z</time>
      </trkpt>
      <trkpt lat="43.26636" lon="6.66783">
        <ele>11.6</ele>
        <time>2023-05-24T07:54:12.000Z</time>
      </trkpt>
      <trkpt lat="43.2664" lon="6.66787">
        <ele>11.6</ele>
        <time>2023-05-24T07:54:17.000Z</time>
      </trkpt>
      <trkpt lat="43.26644" lon="6.66791">
        <ele>11.6</ele>
        <time>2023-05-24T07:54:21.000Z</time>
      </trkpt>
      <trkpt lat="43.26649" lon="6.66794">
        <ele>11.6</ele>
        <time>2023-05-24T07:54:26.000Z</time>
      </trkpt>
      <trkpt lat="43.26653" lon="6.66798">
        <ele>11.6</ele>
        <time>2023-05-24T07:54:30.000Z</time>
      </trkpt>
      <trkpt lat="43.26658" lon="6.66802">
        <ele>11.6</ele>
        <time>2023-05-24T07:54:35.000Z</time>
      </trkpt>
      <trkpt lat="43.26663" lon="6.66806">
        <ele>11.6</ele>
        <time>2023-05-24T07:54:39.000Z</time>
      </trkpt>
      <trkpt lat="43.26667" lon="6.6681">
        <ele>11.7</ele>
        <time>2023-05-24T07:54:43.000Z</time>
      </trkpt>
      <trkpt lat="43.2667" lon="6.66814">
        <ele>11.8</ele>
        <time>2023-05-24T07:54:47.000Z</time>
      </trkpt>
      <trkpt lat="43.26675" lon="6.66818">
        <ele>11.8</ele>
        <time>2023-05-24T07:54:52.000Z</time>
      </trkpt>
      <trkpt lat="43.26678" lon="6.66823">
        <ele>11.9</ele>
        <time>2023-05-24T07:54:58.000Z</time>
      </trkpt>
      <trkpt lat="43.26681" lon="6.66829">
        <ele>11.9</ele>
        <time>2023-05-24T07:55:02.000Z</time>
      </trkpt>
      <trkpt lat="43.26684" lon="6.66834">
        <ele>11.9</ele>
        <time>2023-05-24T07:55:06.000Z</time>
      </trkpt>
      <trkpt lat="43.26687" lon="6.66838">
        <ele>11.9</ele>
        <time>2023-05-24T07:55:10.000Z</time>
      </trkpt>
      <trkpt lat="43.2669" lon="6.66843">
        <ele>11.9</ele>
        <time>2023-05-24T07:55:14.000Z</time>
      </trkpt>
      <trkpt lat="43.26694" lon="6.66849">
        <ele>11.9</ele>
        <time>2023-05-24T07:55:18.000Z</time>
      </trkpt>
      <trkpt lat="43.26697" lon="6.66853">
        <ele>11.9</ele>
        <time>2023-05-24T07:55:21.000Z</time>
      </trkpt>
      <trkpt lat="43.26701" lon="6.66856">
        <ele>11.9</ele>
        <time>2023-05-24T07:55:25.000Z</time>
      </trkpt>
      <trkpt lat="43.26706" lon="6.66859">
        <ele>11.9</ele>
        <time>2023-05-24T07:55:30.000Z</time>
      </trkpt>
      <trkpt lat="43.26711" lon="6.66862">
        <ele>11.8</ele>
        <time>2023-05-24T07:55:34.000Z</time>
      </trkpt>
      <trkpt lat="43.26715" lon="6.66866">
        <ele>11.7</ele>
        <time>2023-05-24T07:55:38.000Z</time>
      </trkpt>
      <trkpt lat="43.26718" lon="6.66871">
        <ele>11.5</ele>
        <time>2023-05-24T07:55:42.000Z</time>
      </trkpt>
      <trkpt lat="43.26722" lon="6.66876">
        <ele>11.5</ele>
        <time>2023-05-24T07:55:46.000Z</time>
      </trkpt>
      <trkpt lat="43.26723" lon="6.66882">
        <ele>11.5</ele>
        <time>2023-05-24T07:55:50.000Z</time>
      </trkpt>
      <trkpt lat="43.26725" lon="6.66888">
        <ele>11.5</ele>
        <time>2023-05-24T07:55:54.000Z</time>
      </trkpt>
      <trkpt lat="43.26728" lon="6.66893">
        <ele>11.5</ele>
        <time>2023-05-24T07:55:59.000Z</time>
      </trkpt>
      <trkpt lat="43.26731" lon="6.66899">
        <ele>11.6</ele>
        <time>2023-05-24T07:56:05.000Z</time>
      </trkpt>
      <trkpt lat="43.26735" lon="6.66903">
        <ele>12.1</ele>
        <time>2023-05-24T07:56:39.000Z</time>
      </trkpt>
      <trkpt lat="43.26739" lon="6.66909">
        <ele>12.1</ele>
        <time>2023-05-24T07:56:44.000Z</time>
      </trkpt>
      <trkpt lat="43.26744" lon="6.66913">
        <ele>12.2</ele>
        <time>2023-05-24T07:56:49.000Z</time>
      </trkpt>
      <trkpt lat="43.26748" lon="6.66916">
        <ele>12.2</ele>
        <time>2023-05-24T07:56:54.000Z</time>
      </trkpt>
      <trkpt lat="43.26753" lon="6.66919">
        <ele>12.3</ele>
        <time>2023-05-24T07:56:59.000Z</time>
      </trkpt>
      <trkpt lat="43.26757" lon="6.66922">
        <ele>12.3</ele>
        <time>2023-05-24T07:57:05.000Z</time>
      </trkpt>
      <trkpt lat="43.26761" lon="6.66925">
        <ele>12.3</ele>
        <time>2023-05-24T07:57:09.000Z</time>
      </trkpt>
      <trkpt lat="43.26766" lon="6.66927">
        <ele>12.2</ele>
        <time>2023-05-24T07:57:13.000Z</time>
      </trkpt>
      <trkpt lat="43.2677" lon="6.6693">
        <ele>12.1</ele>
        <time>2023-05-24T07:57:18.000Z</time>
      </trkpt>
      <trkpt lat="43.26773" lon="6.66936">
        <ele>12.1</ele>
        <time>2023-05-24T07:57:23.000Z</time>
      </trkpt>
      <trkpt lat="43.26776" lon="6.66941">
        <ele>12</ele>
        <time>2023-05-24T07:57:28.000Z</time>
      </trkpt>
      <trkpt lat="43.26781" lon="6.66945">
        <ele>12</ele>
        <time>2023-05-24T07:57:33.000Z</time>
      </trkpt>
      <trkpt lat="43.26785" lon="6.66949">
        <ele>12</ele>
        <time>2023-05-24T07:57:38.000Z</time>
      </trkpt>
      <trkpt lat="43.2679" lon="6.66952">
        <ele>12</ele>
        <time>2023-05-24T07:57:43.000Z</time>
      </trkpt>
      <trkpt lat="43.26794" lon="6.66955">
        <ele>12</ele>
        <time>2023-05-24T07:57:49.000Z</time>
      </trkpt>
      <trkpt lat="43.26799" lon="6.66958">
        <ele>12</ele>
        <time>2023-05-24T07:58:04.000Z</time>
      </trkpt>
      <trkpt lat="43.26803" lon="6.66961">
        <ele>12.1</ele>
        <time>2023-05-24T07:58:09.000Z</time>
      </trkpt>
      <trkpt lat="43.26808" lon="6.6696">
        <ele>12.1</ele>
        <time>2023-05-24T07:58:15.000Z</time>
      </trkpt>
      <trkpt lat="43.26812" lon="6.66956">
        <ele>12.1</ele>
        <time>2023-05-24T07:58:21.000Z</time>
      </trkpt>
      <trkpt lat="43.26817" lon="6.66955">
        <ele>12</ele>
        <time>2023-05-24T07:58:27.000Z</time>
      </trkpt>
      <trkpt lat="43.26821" lon="6.66956">
        <ele>12</ele>
        <time>2023-05-24T07:58:42.000Z</time>
      </trkpt>
      <trkpt lat="43.26826" lon="6.66957">
        <ele>11.9</ele>
        <time>2023-05-24T07:59:01.000Z</time>
      </trkpt>
      <trkpt lat="43.26831" lon="6.66958">
        <ele>11.8</ele>
        <time>2023-05-24T07:59:11.000Z</time>
      </trkpt>
      <trkpt lat="43.26834" lon="6.66962">
        <ele>11.6</ele>
        <time>2023-05-24T07:59:32.000Z</time>
      </trkpt>
      <trkpt lat="43.26839" lon="6.66965">
        <ele>11.4</ele>
        <time>2023-05-24T07:59:46.000Z</time>
      </trkpt>
      <trkpt lat="43.26844" lon="6.66964">
        <ele>11.3</ele>
        <time>2023-05-24T07:59:53.000Z</time>
      </trkpt>
      <trkpt lat="43.26849" lon="6.66967">
        <ele>11.3</ele>
        <time>2023-05-24T08:00:01.000Z</time>
      </trkpt>
      <trkpt lat="43.26854" lon="6.66967">
        <ele>11.3</ele>
        <time>2023-05-24T08:00:06.000Z</time>
      </trkpt>
      <trkpt lat="43.26858" lon="6.66967">
        <ele>11.4</ele>
        <time>2023-05-24T08:00:21.000Z</time>
      </trkpt>
      <trkpt lat="43.26863" lon="6.66968">
        <ele>11.4</ele>
        <time>2023-05-24T08:00:29.000Z</time>
      </trkpt>
      <trkpt lat="43.26868" lon="6.66968">
        <ele>11.4</ele>
        <time>2023-05-24T08:00:33.000Z</time>
      </trkpt>
      <trkpt lat="43.26872" lon="6.66967">
        <ele>11.3</ele>
        <time>2023-05-24T08:00:38.000Z</time>
      </trkpt>
      <trkpt lat="43.26874" lon="6.66962">
        <ele>11.3</ele>
        <time>2023-05-24T08:00:43.000Z</time>
      </trkpt>
      <trkpt lat="43.26879" lon="6.66963">
        <ele>11.3</ele>
        <time>2023-05-24T08:00:49.000Z</time>
      </trkpt>
      <trkpt lat="43.26883" lon="6.66966">
        <ele>11.3</ele>
        <time>2023-05-24T08:00:53.000Z</time>
      </trkpt>
      <trkpt lat="43.26888" lon="6.66967">
        <ele>11.3</ele>
        <time>2023-05-24T08:00:59.000Z</time>
      </trkpt>
      <trkpt lat="43.26894" lon="6.66969">
        <ele>11.3</ele>
        <time>2023-05-24T08:01:05.000Z</time>
      </trkpt>
      <trkpt lat="43.26899" lon="6.66969">
        <ele>11.2</ele>
        <time>2023-05-24T08:01:10.000Z</time>
      </trkpt>
      <trkpt lat="43.26904" lon="6.66972">
        <ele>11.2</ele>
        <time>2023-05-24T08:01:15.000Z</time>
      </trkpt>
      <trkpt lat="43.26908" lon="6.66974">
        <ele>11.2</ele>
        <time>2023-05-24T08:01:21.000Z</time>
      </trkpt>
      <trkpt lat="43.26912" lon="6.66978">
        <ele>11.9</ele>
        <time>2023-05-24T08:02:43.000Z</time>
      </trkpt>
      <trkpt lat="43.26917" lon="6.66979">
        <ele>12.2</ele>
        <time>2023-05-24T08:02:51.000Z</time>
      </trkpt>
      <trkpt lat="43.2692" lon="6.66983">
        <ele>12.3</ele>
        <time>2023-05-24T08:02:59.000Z</time>
      </trkpt>
      <trkpt lat="43.26925" lon="6.66985">
        <ele>12.3</ele>
        <time>2023-05-24T08:03:07.000Z</time>
      </trkpt>
      <trkpt lat="43.2693" lon="6.66986">
        <ele>12.3</ele>
        <time>2023-05-24T08:03:12.000Z</time>
      </trkpt>
      <trkpt lat="43.26934" lon="6.66988">
        <ele>12.1</ele>
        <time>2023-05-24T08:03:17.000Z</time>
      </trkpt>
      <trkpt lat="43.2694" lon="6.66989">
        <ele>11.9</ele>
        <time>2023-05-24T08:03:23.000Z</time>
      </trkpt>
      <trkpt lat="43.26945" lon="6.66991">
        <ele>11.9</ele>
        <time>2023-05-24T08:03:29.000Z</time>
      </trkpt>
      <trkpt lat="43.2695" lon="6.66993">
        <ele>11.8</ele>
        <time>2023-05-24T08:03:35.000Z</time>
      </trkpt>
      <trkpt lat="43.26955" lon="6.66995">
        <ele>11.8</ele>
        <time>2023-05-24T08:03:41.000Z</time>
      </trkpt>
      <trkpt lat="43.26959" lon="6.66993">
        <ele>11.7</ele>
        <time>2023-05-24T08:03:47.000Z</time>
      </trkpt>
      <trkpt lat="43.26964" lon="6.6699">
        <ele>11.7</ele>
        <time>2023-05-24T08:03:54.000Z</time>
      </trkpt>
      <trkpt lat="43.26968" lon="6.66993">
        <ele>12</ele>
        <time>2023-05-24T08:04:17.000Z</time>
      </trkpt>
      <trkpt lat="43.26973" lon="6.66991">
        <ele>12.3</ele>
        <time>2023-05-24T08:05:05.000Z</time>
      </trkpt>
      <trkpt lat="43.26978" lon="6.6699">
        <ele>12.3</ele>
        <time>2023-05-24T08:05:32.000Z</time>
      </trkpt>
      <trkpt lat="43.26982" lon="6.66993">
        <ele>12.7</ele>
        <time>2023-05-24T08:05:46.000Z</time>
      </trkpt>
      <trkpt lat="43.26987" lon="6.66992">
        <ele>12.8</ele>
        <time>2023-05-24T08:05:52.000Z</time>
      </trkpt>
      <trkpt lat="43.26991" lon="6.66989">
        <ele>12.9</ele>
        <time>2023-05-24T08:05:57.000Z</time>
      </trkpt>
      <trkpt lat="43.26996" lon="6.66987">
        <ele>13</ele>
        <time>2023-05-24T08:06:02.000Z</time>
      </trkpt>
      <trkpt lat="43.27001" lon="6.66985">
        <ele>13</ele>
        <time>2023-05-24T08:06:07.000Z</time>
      </trkpt>
      <trkpt lat="43.27006" lon="6.66984">
        <ele>13.1</ele>
        <time>2023-05-24T08:06:12.000Z</time>
      </trkpt>
      <trkpt lat="43.27011" lon="6.66983">
        <ele>13.3</ele>
        <time>2023-05-24T08:06:19.000Z</time>
      </trkpt>
      <trkpt lat="43.27016" lon="6.66982">
        <ele>13.5</ele>
        <time>2023-05-24T08:06:24.000Z</time>
      </trkpt>
      <trkpt lat="43.2702" lon="6.66982">
        <ele>13.6</ele>
        <time>2023-05-24T08:06:30.000Z</time>
      </trkpt>
      <trkpt lat="43.27025" lon="6.66983">
        <ele>13.7</ele>
        <time>2023-05-24T08:06:35.000Z</time>
      </trkpt>
      <trkpt lat="43.27029" lon="6.6698">
        <ele>13.7</ele>
        <time>2023-05-24T08:06:39.000Z</time>
      </trkpt>
      <trkpt lat="43.27034" lon="6.66981">
        <ele>13.7</ele>
        <time>2023-05-24T08:06:44.000Z</time>
      </trkpt>
      <trkpt lat="43.27038" lon="6.66983">
        <ele>13.8</ele>
        <time>2023-05-24T08:06:48.000Z</time>
      </trkpt>
      <trkpt lat="43.27043" lon="6.66986">
        <ele>14</ele>
        <time>2023-05-24T08:06:53.000Z</time>
      </trkpt>
      <trkpt lat="43.27048" lon="6.66989">
        <ele>14.1</ele>
        <time>2023-05-24T08:06:58.000Z</time>
      </trkpt>
      <trkpt lat="43.27053" lon="6.66992">
        <ele>14.2</ele>
        <time>2023-05-24T08:07:02.000Z</time>
      </trkpt>
      <trkpt lat="43.27058" lon="6.66995">
        <ele>14.2</ele>
        <time>2023-05-24T08:07:06.000Z</time>
      </trkpt>
      <trkpt lat="43.27063" lon="6.66998">
        <ele>14.2</ele>
        <time>2023-05-24T08:07:11.000Z</time>
      </trkpt>
      <trkpt lat="43.27067" lon="6.67001">
        <ele>14.2</ele>
        <time>2023-05-24T08:07:17.000Z</time>
      </trkpt>
      <trkpt lat="43.27071" lon="6.67003">
        <ele>14.2</ele>
        <time>2023-05-24T08:07:22.000Z</time>
      </trkpt>
      <trkpt lat="43.27077" lon="6.67006">
        <ele>14.2</ele>
        <time>2023-05-24T08:07:27.000Z</time>
      </trkpt>
      <trkpt lat="43.27081" lon="6.67008">
        <ele>14.1</ele>
        <time>2023-05-24T08:07:32.000Z</time>
      </trkpt>
      <trkpt lat="43.27085" lon="6.6701">
        <ele>14.1</ele>
        <time>2023-05-24T08:07:36.000Z</time>
      </trkpt>
      <trkpt lat="43.27091" lon="6.67008">
        <ele>14.1</ele>
        <time>2023-05-24T08:07:40.000Z</time>
      </trkpt>
      <trkpt lat="43.27096" lon="6.67007">
        <ele>14.2</ele>
        <time>2023-05-24T08:07:44.000Z</time>
      </trkpt>
      <trkpt lat="43.27101" lon="6.67005">
        <ele>14.4</ele>
        <time>2023-05-24T08:07:48.000Z</time>
      </trkpt>
      <trkpt lat="43.27107" lon="6.67002">
        <ele>14.7</ele>
        <time>2023-05-24T08:07:52.000Z</time>
      </trkpt>
      <trkpt lat="43.27112" lon="6.67">
        <ele>14.9</ele>
        <time>2023-05-24T08:07:56.000Z</time>
      </trkpt>
      <trkpt lat="43.27118" lon="6.66998">
        <ele>15</ele>
        <time>2023-05-24T08:08:00.000Z</time>
      </trkpt>
      <trkpt lat="43.27123" lon="6.66996">
        <ele>15.1</ele>
        <time>2023-05-24T08:08:04.000Z</time>
      </trkpt>
      <trkpt lat="43.27127" lon="6.66994">
        <ele>15.2</ele>
        <time>2023-05-24T08:08:07.000Z</time>
      </trkpt>
      <trkpt lat="43.27132" lon="6.66992">
        <ele>15.3</ele>
        <time>2023-05-24T08:08:11.000Z</time>
      </trkpt>
      <trkpt lat="43.27137" lon="6.6699">
        <ele>15.3</ele>
        <time>2023-05-24T08:08:15.000Z</time>
      </trkpt>
      <trkpt lat="43.27142" lon="6.66988">
        <ele>15.4</ele>
        <time>2023-05-24T08:08:20.000Z</time>
      </trkpt>
      <trkpt lat="43.27147" lon="6.66986">
        <ele>15.4</ele>
        <time>2023-05-24T08:08:25.000Z</time>
      </trkpt>
      <trkpt lat="43.27152" lon="6.66986">
        <ele>15.1</ele>
        <time>2023-05-24T08:09:06.000Z</time>
      </trkpt>
      <trkpt lat="43.27157" lon="6.66985">
        <ele>15.1</ele>
        <time>2023-05-24T08:09:11.000Z</time>
      </trkpt>
      <trkpt lat="43.27162" lon="6.66983">
        <ele>15.1</ele>
        <time>2023-05-24T08:09:17.000Z</time>
      </trkpt>
      <trkpt lat="43.27167" lon="6.66981">
        <ele>15.1</ele>
        <time>2023-05-24T08:09:22.000Z</time>
      </trkpt>
      <trkpt lat="43.27171" lon="6.66979">
        <ele>15.1</ele>
        <time>2023-05-24T08:09:28.000Z</time>
      </trkpt>
      <trkpt lat="43.27176" lon="6.66979">
        <ele>15.7</ele>
        <time>2023-05-24T08:09:46.000Z</time>
      </trkpt>
      <trkpt lat="43.27181" lon="6.66977">
        <ele>15.7</ele>
        <time>2023-05-24T08:10:03.000Z</time>
      </trkpt>
      <trkpt lat="43.27186" lon="6.66974">
        <ele>15.7</ele>
        <time>2023-05-24T08:10:08.000Z</time>
      </trkpt>
      <trkpt lat="43.2719" lon="6.66972">
        <ele>15.7</ele>
        <time>2023-05-24T08:10:13.000Z</time>
      </trkpt>
      <trkpt lat="43.27195" lon="6.66969">
        <ele>15.7</ele>
        <time>2023-05-24T08:10:19.000Z</time>
      </trkpt>
      <trkpt lat="43.272" lon="6.6697">
        <ele>15.7</ele>
        <time>2023-05-24T08:10:24.000Z</time>
      </trkpt>
      <trkpt lat="43.27205" lon="6.66968">
        <ele>15.6</ele>
        <time>2023-05-24T08:10:30.000Z</time>
      </trkpt>
      <trkpt lat="43.2721" lon="6.66966">
        <ele>15.4</ele>
        <time>2023-05-24T08:10:40.000Z</time>
      </trkpt>
      <trkpt lat="43.27215" lon="6.66968">
        <ele>15.4</ele>
        <time>2023-05-24T08:10:44.000Z</time>
      </trkpt>
      <trkpt lat="43.2722" lon="6.66969">
        <ele>15.4</ele>
        <time>2023-05-24T08:10:49.000Z</time>
      </trkpt>
      <trkpt lat="43.27224" lon="6.66971">
        <ele>15.4</ele>
        <time>2023-05-24T08:10:54.000Z</time>
      </trkpt>
      <trkpt lat="43.27228" lon="6.66972">
        <ele>15.4</ele>
        <time>2023-05-24T08:10:58.000Z</time>
      </trkpt>
      <trkpt lat="43.27233" lon="6.66975">
        <ele>15.4</ele>
        <time>2023-05-24T08:11:03.000Z</time>
      </trkpt>
      <trkpt lat="43.27237" lon="6.66976">
        <ele>15.4</ele>
        <time>2023-05-24T08:11:07.000Z</time>
      </trkpt>
      <trkpt lat="43.27243" lon="6.66977">
        <ele>15.4</ele>
        <time>2023-05-24T08:11:12.000Z</time>
      </trkpt>
      <trkpt lat="43.27248" lon="6.66977">
        <ele>15.4</ele>
        <time>2023-05-24T08:11:17.000Z</time>
      </trkpt>
      <trkpt lat="43.27253" lon="6.66978">
        <ele>15.4</ele>
        <time>2023-05-24T08:11:22.000Z</time>
      </trkpt>
      <trkpt lat="43.27259" lon="6.66978">
        <ele>15.4</ele>
        <time>2023-05-24T08:11:27.000Z</time>
      </trkpt>
      <trkpt lat="43.27264" lon="6.66977">
        <ele>15.5</ele>
        <time>2023-05-24T08:11:32.000Z</time>
      </trkpt>
      <trkpt lat="43.27269" lon="6.66975">
        <ele>15.5</ele>
        <time>2023-05-24T08:11:40.000Z</time>
      </trkpt>
      <trkpt lat="43.27274" lon="6.66975">
        <ele>15.6</ele>
        <time>2023-05-24T08:11:45.000Z</time>
      </trkpt>
      <trkpt lat="43.27279" lon="6.66975">
        <ele>15.6</ele>
        <time>2023-05-24T08:11:49.000Z</time>
      </trkpt>
      <trkpt lat="43.27284" lon="6.66974">
        <ele>15.7</ele>
        <time>2023-05-24T08:11:54.000Z</time>
      </trkpt>
      <trkpt lat="43.2729" lon="6.66973">
        <ele>15.7</ele>
        <time>2023-05-24T08:11:59.000Z</time>
      </trkpt>
      <trkpt lat="43.27294" lon="6.66972">
        <ele>15.8</ele>
        <time>2023-05-24T08:12:03.000Z</time>
      </trkpt>
      <trkpt lat="43.273" lon="6.6697">
        <ele>15.8</ele>
        <time>2023-05-24T08:12:08.000Z</time>
      </trkpt>
      <trkpt lat="43.27305" lon="6.66968">
        <ele>15.9</ele>
        <time>2023-05-24T08:12:12.000Z</time>
      </trkpt>
      <trkpt lat="43.2731" lon="6.66966">
        <ele>15.9</ele>
        <time>2023-05-24T08:12:16.000Z</time>
      </trkpt>
      <trkpt lat="43.27315" lon="6.66966">
        <ele>15.9</ele>
        <time>2023-05-24T08:12:20.000Z</time>
      </trkpt>
      <trkpt lat="43.2732" lon="6.66965">
        <ele>16</ele>
        <time>2023-05-24T08:12:25.000Z</time>
      </trkpt>
      <trkpt lat="43.27325" lon="6.66964">
        <ele>16</ele>
        <time>2023-05-24T08:12:33.000Z</time>
      </trkpt>
      <trkpt lat="43.27329" lon="6.66963">
        <ele>16.1</ele>
        <time>2023-05-24T08:12:38.000Z</time>
      </trkpt>
      <trkpt lat="43.27335" lon="6.66962">
        <ele>15.9</ele>
        <time>2023-05-24T08:12:43.000Z</time>
      </trkpt>
      <trkpt lat="43.2734" lon="6.66961">
        <ele>15.9</ele>
        <time>2023-05-24T08:12:48.000Z</time>
      </trkpt>
      <trkpt lat="43.27345" lon="6.6696">
        <ele>15.8</ele>
        <time>2023-05-24T08:12:52.000Z</time>
      </trkpt>
      <trkpt lat="43.27349" lon="6.66959">
        <ele>15.8</ele>
        <time>2023-05-24T08:12:56.000Z</time>
      </trkpt>
      <trkpt lat="43.27354" lon="6.66959">
        <ele>15.8</ele>
        <time>2023-05-24T08:13:01.000Z</time>
      </trkpt>
      <trkpt lat="43.2736" lon="6.66958">
        <ele>15.7</ele>
        <time>2023-05-24T08:13:06.000Z</time>
      </trkpt>
      <trkpt lat="43.27365" lon="6.66958">
        <ele>15.7</ele>
        <time>2023-05-24T08:13:11.000Z</time>
      </trkpt>
      <trkpt lat="43.2737" lon="6.66959">
        <ele>15.7</ele>
        <time>2023-05-24T08:13:16.000Z</time>
      </trkpt>
      <trkpt lat="43.27375" lon="6.66959">
        <ele>15.6</ele>
        <time>2023-05-24T08:13:21.000Z</time>
      </trkpt>
      <trkpt lat="43.27379" lon="6.6696">
        <ele>15.6</ele>
        <time>2023-05-24T08:13:26.000Z</time>
      </trkpt>
      <trkpt lat="43.27385" lon="6.66962">
        <ele>15.6</ele>
        <time>2023-05-24T08:13:31.000Z</time>
      </trkpt>
      <trkpt lat="43.27389" lon="6.66965">
        <ele>15.6</ele>
        <time>2023-05-24T08:13:35.000Z</time>
      </trkpt>
      <trkpt lat="43.27394" lon="6.66968">
        <ele>15.6</ele>
        <time>2023-05-24T08:13:40.000Z</time>
      </trkpt>
      <trkpt lat="43.27399" lon="6.6697">
        <ele>15.6</ele>
        <time>2023-05-24T08:13:46.000Z</time>
      </trkpt>
      <trkpt lat="43.27404" lon="6.66972">
        <ele>15.6</ele>
        <time>2023-05-24T08:13:51.000Z</time>
      </trkpt>
      <trkpt lat="43.27409" lon="6.66974">
        <ele>15.6</ele>
        <time>2023-05-24T08:13:55.000Z</time>
      </trkpt>
      <trkpt lat="43.27413" lon="6.66974">
        <ele>15.6</ele>
        <time>2023-05-24T08:13:59.000Z</time>
      </trkpt>
      <trkpt lat="43.27418" lon="6.66974">
        <ele>15.6</ele>
        <time>2023-05-24T08:14:04.000Z</time>
      </trkpt>
      <trkpt lat="43.27422" lon="6.66973">
        <ele>15.6</ele>
        <time>2023-05-24T08:14:09.000Z</time>
      </trkpt>
      <trkpt lat="43.27428" lon="6.66973">
        <ele>15.8</ele>
        <time>2023-05-24T08:14:14.000Z</time>
      </trkpt>
      <trkpt lat="43.27433" lon="6.66973">
        <ele>16</ele>
        <time>2023-05-24T08:14:18.000Z</time>
      </trkpt>
      <trkpt lat="43.27438" lon="6.66974">
        <ele>16.3</ele>
        <time>2023-05-24T08:14:22.000Z</time>
      </trkpt>
      <trkpt lat="43.27442" lon="6.66974">
        <ele>16.4</ele>
        <time>2023-05-24T08:14:26.000Z</time>
      </trkpt>
      <trkpt lat="43.27447" lon="6.66974">
        <ele>16.7</ele>
        <time>2023-05-24T08:14:31.000Z</time>
      </trkpt>
      <trkpt lat="43.27452" lon="6.66974">
        <ele>17</ele>
        <time>2023-05-24T08:14:36.000Z</time>
      </trkpt>
      <trkpt lat="43.27457" lon="6.66976">
        <ele>17.2</ele>
        <time>2023-05-24T08:14:41.000Z</time>
      </trkpt>
      <trkpt lat="43.27461" lon="6.66979">
        <ele>17.5</ele>
        <time>2023-05-24T08:14:46.000Z</time>
      </trkpt>
      <trkpt lat="43.27464" lon="6.66984">
        <ele>17.8</ele>
        <time>2023-05-24T08:14:51.000Z</time>
      </trkpt>
      <trkpt lat="43.27467" lon="6.6699">
        <ele>18.3</ele>
        <time>2023-05-24T08:14:56.000Z</time>
      </trkpt>
      <trkpt lat="43.2747" lon="6.66994">
        <ele>18.6</ele>
        <time>2023-05-24T08:15:00.000Z</time>
      </trkpt>
      <trkpt lat="43.2747" lon="6.67002">
        <ele>18.8</ele>
        <time>2023-05-24T08:15:04.000Z</time>
      </trkpt>
      <trkpt lat="43.27471" lon="6.67008">
        <ele>19</ele>
        <time>2023-05-24T08:15:08.000Z</time>
      </trkpt>
      <trkpt lat="43.27472" lon="6.67015">
        <ele>19.3</ele>
        <time>2023-05-24T08:15:13.000Z</time>
      </trkpt>
      <trkpt lat="43.27474" lon="6.67022">
        <ele>19.7</ele>
        <time>2023-05-24T08:15:18.000Z</time>
      </trkpt>
      <trkpt lat="43.27475" lon="6.67029">
        <ele>20.2</ele>
        <time>2023-05-24T08:15:23.000Z</time>
      </trkpt>
      <trkpt lat="43.27478" lon="6.67035">
        <ele>20.8</ele>
        <time>2023-05-24T08:15:28.000Z</time>
      </trkpt>
      <trkpt lat="43.27483" lon="6.67037">
        <ele>21.2</ele>
        <time>2023-05-24T08:15:32.000Z</time>
      </trkpt>
      <trkpt lat="43.27489" lon="6.67038">
        <ele>21.6</ele>
        <time>2023-05-24T08:15:37.000Z</time>
      </trkpt>
      <trkpt lat="43.27493" lon="6.67038">
        <ele>21.8</ele>
        <time>2023-05-24T08:15:41.000Z</time>
      </trkpt>
      <trkpt lat="43.27499" lon="6.67038">
        <ele>22</ele>
        <time>2023-05-24T08:15:46.000Z</time>
      </trkpt>
      <trkpt lat="43.27504" lon="6.67038">
        <ele>22.3</ele>
        <time>2023-05-24T08:15:50.000Z</time>
      </trkpt>
      <trkpt lat="43.27509" lon="6.6704">
        <ele>22.6</ele>
        <time>2023-05-24T08:15:57.000Z</time>
      </trkpt>
      <trkpt lat="43.27513" lon="6.67037">
        <ele>22.6</ele>
        <time>2023-05-24T08:16:02.000Z</time>
      </trkpt>
      <trkpt lat="43.27519" lon="6.67034">
        <ele>22.5</ele>
        <time>2023-05-24T08:16:05.000Z</time>
      </trkpt>
      <trkpt lat="43.27523" lon="6.67031">
        <ele>22.5</ele>
        <time>2023-05-24T08:16:08.000Z</time>
      </trkpt>
      <trkpt lat="43.27528" lon="6.67027">
        <ele>22.2</ele>
        <time>2023-05-24T08:16:12.000Z</time>
      </trkpt>
      <trkpt lat="43.27533" lon="6.67024">
        <ele>21.9</ele>
        <time>2023-05-24T08:16:16.000Z</time>
      </trkpt>
      <trkpt lat="43.27535" lon="6.67018">
        <ele>21.4</ele>
        <time>2023-05-24T08:16:21.000Z</time>
      </trkpt>
      <trkpt lat="43.27539" lon="6.67013">
        <ele>20.5</ele>
        <time>2023-05-24T08:16:28.000Z</time>
      </trkpt>
      <trkpt lat="43.2754" lon="6.67006">
        <ele>19.9</ele>
        <time>2023-05-24T08:16:32.000Z</time>
      </trkpt>
      <trkpt lat="43.27543" lon="6.67001">
        <ele>19.3</ele>
        <time>2023-05-24T08:16:36.000Z</time>
      </trkpt>
      <trkpt lat="43.27544" lon="6.66994">
        <ele>18.8</ele>
        <time>2023-05-24T08:16:40.000Z</time>
      </trkpt>
      <trkpt lat="43.27545" lon="6.66988">
        <ele>18.3</ele>
        <time>2023-05-24T08:16:45.000Z</time>
      </trkpt>
      <trkpt lat="43.27548" lon="6.66982">
        <ele>17.3</ele>
        <time>2023-05-24T08:16:56.000Z</time>
      </trkpt>
      <trkpt lat="43.27552" lon="6.66982">
        <ele>16.5</ele>
        <time>2023-05-24T08:17:05.000Z</time>
      </trkpt>
      <trkpt lat="43.27555" lon="6.66976">
        <ele>15.7</ele>
        <time>2023-05-24T08:17:14.000Z</time>
      </trkpt>
      <trkpt lat="43.27551" lon="6.66973">
        <ele>15.2</ele>
        <time>2023-05-24T08:17:18.000Z</time>
      </trkpt>
      <trkpt lat="43.27547" lon="6.66969">
        <ele>13.8</ele>
        <time>2023-05-24T08:17:29.000Z</time>
      </trkpt>
      <trkpt lat="43.27544" lon="6.66964">
        <ele>13</ele>
        <time>2023-05-24T08:17:40.000Z</time>
      </trkpt>
      <trkpt lat="43.27549" lon="6.66967">
        <ele>12.6</ele>
        <time>2023-05-24T08:17:56.000Z</time>
      </trkpt>
      <trkpt lat="43.27554" lon="6.66969">
        <ele>12.5</ele>
        <time>2023-05-24T08:18:04.000Z</time>
      </trkpt>
      <trkpt lat="43.27558" lon="6.66968">
        <ele>12.1</ele>
        <time>2023-05-24T08:18:18.000Z</time>
      </trkpt>
      <trkpt lat="43.27562" lon="6.66964">
        <ele>11.9</ele>
        <time>2023-05-24T08:18:35.000Z</time>
      </trkpt>
      <trkpt lat="43.27566" lon="6.66962">
        <ele>11.8</ele>
        <time>2023-05-24T08:18:51.000Z</time>
      </trkpt>
      <trkpt lat="43.2757" lon="6.66958">
        <ele>11.8</ele>
        <time>2023-05-24T08:19:15.000Z</time>
      </trkpt>
      <trkpt lat="43.27572" lon="6.66952">
        <ele>11.8</ele>
        <time>2023-05-24T08:19:25.000Z</time>
      </trkpt>
      <trkpt lat="43.27574" lon="6.66947">
        <ele>11.8</ele>
        <time>2023-05-24T08:19:31.000Z</time>
      </trkpt>
      <trkpt lat="43.27578" lon="6.66943">
        <ele>11.8</ele>
        <time>2023-05-24T08:19:39.000Z</time>
      </trkpt>
      <trkpt lat="43.27582" lon="6.6694">
        <ele>11.8</ele>
        <time>2023-05-24T08:19:48.000Z</time>
      </trkpt>
      <trkpt lat="43.27587" lon="6.66939">
        <ele>11.9</ele>
        <time>2023-05-24T08:19:54.000Z</time>
      </trkpt>
      <trkpt lat="43.27591" lon="6.66938">
        <ele>12.3</ele>
        <time>2023-05-24T08:20:02.000Z</time>
      </trkpt>
      <trkpt lat="43.27596" lon="6.66937">
        <ele>12.6</ele>
        <time>2023-05-24T08:20:08.000Z</time>
      </trkpt>
      <trkpt lat="43.276" lon="6.66939">
        <ele>12.8</ele>
        <time>2023-05-24T08:20:14.000Z</time>
      </trkpt>
      <trkpt lat="43.27604" lon="6.66944">
        <ele>13.5</ele>
        <time>2023-05-24T08:20:22.000Z</time>
      </trkpt>
      <trkpt lat="43.27607" lon="6.66949">
        <ele>14.1</ele>
        <time>2023-05-24T08:20:31.000Z</time>
      </trkpt>
      <trkpt lat="43.27611" lon="6.66952">
        <ele>14</ele>
        <time>2023-05-24T08:20:37.000Z</time>
      </trkpt>
      <trkpt lat="43.27615" lon="6.66955">
        <ele>14.9</ele>
        <time>2023-05-24T08:20:49.000Z</time>
      </trkpt>
      <trkpt lat="43.27616" lon="6.66962">
        <ele>13.3</ele>
        <time>2023-05-24T08:21:14.000Z</time>
      </trkpt>
      <trkpt lat="43.27617" lon="6.66968">
        <ele>12.7</ele>
        <time>2023-05-24T08:21:23.000Z</time>
      </trkpt>
      <trkpt lat="43.27618" lon="6.66974">
        <ele>12.9</ele>
        <time>2023-05-24T08:21:36.000Z</time>
      </trkpt>
      <trkpt lat="43.27617" lon="6.6698">
        <ele>13</ele>
        <time>2023-05-24T08:21:46.000Z</time>
      </trkpt>
      <trkpt lat="43.2762" lon="6.66985">
        <ele>12.9</ele>
        <time>2023-05-24T08:21:54.000Z</time>
      </trkpt>
      <trkpt lat="43.27624" lon="6.6699">
        <ele>12.9</ele>
        <time>2023-05-24T08:22:09.000Z</time>
      </trkpt>
      <trkpt lat="43.27625" lon="6.66996">
        <ele>13.6</ele>
        <time>2023-05-24T08:22:20.000Z</time>
      </trkpt>
      <trkpt lat="43.27628" lon="6.67001">
        <ele>13.7</ele>
        <time>2023-05-24T08:22:38.000Z</time>
      </trkpt>
      <trkpt lat="43.27627" lon="6.67007">
        <ele>13.7</ele>
        <time>2023-05-24T08:22:52.000Z</time>
      </trkpt>
      <trkpt lat="43.27628" lon="6.67014">
        <ele>13.3</ele>
        <time>2023-05-24T08:23:00.000Z</time>
      </trkpt>
      <trkpt lat="43.27628" lon="6.67021">
        <ele>12.8</ele>
        <time>2023-05-24T08:23:06.000Z</time>
      </trkpt>
      <trkpt lat="43.27629" lon="6.67029">
        <ele>12.5</ele>
        <time>2023-05-24T08:23:13.000Z</time>
      </trkpt>
      <trkpt lat="43.2763" lon="6.67036">
        <ele>12.8</ele>
        <time>2023-05-24T08:23:18.000Z</time>
      </trkpt>
      <trkpt lat="43.2763" lon="6.67043">
        <ele>12.8</ele>
        <time>2023-05-24T08:23:23.000Z</time>
      </trkpt>
      <trkpt lat="43.27631" lon="6.67049">
        <ele>12.7</ele>
        <time>2023-05-24T08:23:27.000Z</time>
      </trkpt>
      <trkpt lat="43.27632" lon="6.67056">
        <ele>12.6</ele>
        <time>2023-05-24T08:23:32.000Z</time>
      </trkpt>
      <trkpt lat="43.27635" lon="6.67061">
        <ele>12.5</ele>
        <time>2023-05-24T08:23:38.000Z</time>
      </trkpt>
      <trkpt lat="43.2764" lon="6.67062">
        <ele>12.5</ele>
        <time>2023-05-24T08:23:45.000Z</time>
      </trkpt>
      <trkpt lat="43.27641" lon="6.67068">
        <ele>13</ele>
        <time>2023-05-24T08:24:05.000Z</time>
      </trkpt>
      <trkpt lat="43.27643" lon="6.67074">
        <ele>14.3</ele>
        <time>2023-05-24T08:24:19.000Z</time>
      </trkpt>
      <trkpt lat="43.27647" lon="6.67078">
        <ele>14.7</ele>
        <time>2023-05-24T08:24:24.000Z</time>
      </trkpt>
      <trkpt lat="43.2765" lon="6.67083">
        <ele>15.2</ele>
        <time>2023-05-24T08:24:29.000Z</time>
      </trkpt>
      <trkpt lat="43.27654" lon="6.67088">
        <ele>15.8</ele>
        <time>2023-05-24T08:24:36.000Z</time>
      </trkpt>
      <trkpt lat="43.27657" lon="6.67092">
        <ele>16.3</ele>
        <time>2023-05-24T08:24:45.000Z</time>
      </trkpt>
      <trkpt lat="43.27661" lon="6.67097">
        <ele>16.6</ele>
        <time>2023-05-24T08:24:50.000Z</time>
      </trkpt>
      <trkpt lat="43.27664" lon="6.67101">
        <ele>16.9</ele>
        <time>2023-05-24T08:24:55.000Z</time>
      </trkpt>
      <trkpt lat="43.27668" lon="6.67106">
        <ele>17.1</ele>
        <time>2023-05-24T08:25:00.000Z</time>
      </trkpt>
      <trkpt lat="43.27672" lon="6.6711">
        <ele>17.2</ele>
        <time>2023-05-24T08:25:04.000Z</time>
      </trkpt>
      <trkpt lat="43.27674" lon="6.67116">
        <ele>17.3</ele>
        <time>2023-05-24T08:25:10.000Z</time>
      </trkpt>
      <trkpt lat="43.27678" lon="6.6712">
        <ele>17.4</ele>
        <time>2023-05-24T08:25:15.000Z</time>
      </trkpt>
      <trkpt lat="43.27682" lon="6.67126">
        <ele>17.3</ele>
        <time>2023-05-24T08:25:20.000Z</time>
      </trkpt>
      <trkpt lat="43.27685" lon="6.67132">
        <ele>17.3</ele>
        <time>2023-05-24T08:25:25.000Z</time>
      </trkpt>
      <trkpt lat="43.27688" lon="6.67137">
        <ele>17.1</ele>
        <time>2023-05-24T08:25:31.000Z</time>
      </trkpt>
      <trkpt lat="43.27687" lon="6.67143">
        <ele>16.8</ele>
        <time>2023-05-24T08:25:38.000Z</time>
      </trkpt>
      <trkpt lat="43.27689" lon="6.67152">
        <ele>14</ele>
        <time>2023-05-24T08:25:49.000Z</time>
      </trkpt>
      <trkpt lat="43.27685" lon="6.67161">
        <ele>13</ele>
        <time>2023-05-24T08:25:57.000Z</time>
      </trkpt>
      <trkpt lat="43.27683" lon="6.6717">
        <ele>13</ele>
        <time>2023-05-24T08:26:05.000Z</time>
      </trkpt>
      <trkpt lat="43.27665" lon="6.67177">
        <ele>13.5</ele>
        <time>2023-05-24T08:26:10.000Z</time>
      </trkpt>
      <trkpt lat="43.27674" lon="6.67176">
        <ele>13.5</ele>
        <time>2023-05-24T08:26:12.000Z</time>
      </trkpt>
      <trkpt lat="43.2768" lon="6.67177">
        <ele>13.5</ele>
        <time>2023-05-24T08:26:14.000Z</time>
      </trkpt>
      <trkpt lat="43.27685" lon="6.67177">
        <ele>13.8</ele>
        <time>2023-05-24T08:26:17.000Z</time>
      </trkpt>
      <trkpt lat="43.2769" lon="6.67181">
        <ele>14.4</ele>
        <time>2023-05-24T08:26:23.000Z</time>
      </trkpt>
      <trkpt lat="43.27694" lon="6.67185">
        <ele>14.6</ele>
        <time>2023-05-24T08:26:27.000Z</time>
      </trkpt>
      <trkpt lat="43.27692" lon="6.67191">
        <ele>14.8</ele>
        <time>2023-05-24T08:26:35.000Z</time>
      </trkpt>
      <trkpt lat="43.27694" lon="6.67197">
        <ele>15.1</ele>
        <time>2023-05-24T08:26:43.000Z</time>
      </trkpt>
      <trkpt lat="43.27699" lon="6.67197">
        <ele>15</ele>
        <time>2023-05-24T08:26:50.000Z</time>
      </trkpt>
      <trkpt lat="43.27702" lon="6.67202">
        <ele>15.5</ele>
        <time>2023-05-24T08:26:56.000Z</time>
      </trkpt>
      <trkpt lat="43.27701" lon="6.67209">
        <ele>15.6</ele>
        <time>2023-05-24T08:27:01.000Z</time>
      </trkpt>
      <trkpt lat="43.27701" lon="6.67215">
        <ele>15.7</ele>
        <time>2023-05-24T08:27:06.000Z</time>
      </trkpt>
      <trkpt lat="43.27704" lon="6.67223">
        <ele>15</ele>
        <time>2023-05-24T08:27:12.000Z</time>
      </trkpt>
      <trkpt lat="43.27708" lon="6.67229">
        <ele>16.1</ele>
        <time>2023-05-24T08:27:19.000Z</time>
      </trkpt>
      <trkpt lat="43.27712" lon="6.67234">
        <ele>16.2</ele>
        <time>2023-05-24T08:27:23.000Z</time>
      </trkpt>
      <trkpt lat="43.27715" lon="6.67239">
        <ele>16.3</ele>
        <time>2023-05-24T08:27:27.000Z</time>
      </trkpt>
      <trkpt lat="43.27718" lon="6.67245">
        <ele>16.5</ele>
        <time>2023-05-24T08:27:32.000Z</time>
      </trkpt>
      <trkpt lat="43.27719" lon="6.67252">
        <ele>16.6</ele>
        <time>2023-05-24T08:27:38.000Z</time>
      </trkpt>
      <trkpt lat="43.27719" lon="6.67258">
        <ele>16.5</ele>
        <time>2023-05-24T08:27:44.000Z</time>
      </trkpt>
      <trkpt lat="43.2772" lon="6.67265">
        <ele>16</ele>
        <time>2023-05-24T08:27:50.000Z</time>
      </trkpt>
      <trkpt lat="43.27722" lon="6.67271">
        <ele>15.5</ele>
        <time>2023-05-24T08:28:00.000Z</time>
      </trkpt>
      <trkpt lat="43.27723" lon="6.67277">
        <ele>14</ele>
        <time>2023-05-24T08:28:13.000Z</time>
      </trkpt>
      <trkpt lat="43.27724" lon="6.67283">
        <ele>13.3</ele>
        <time>2023-05-24T08:28:20.000Z</time>
      </trkpt>
      <trkpt lat="43.27727" lon="6.67288">
        <ele>12.9</ele>
        <time>2023-05-24T08:28:26.000Z</time>
      </trkpt>
      <trkpt lat="43.27731" lon="6.67293">
        <ele>12.6</ele>
        <time>2023-05-24T08:28:31.000Z</time>
      </trkpt>
      <trkpt lat="43.27733" lon="6.67299">
        <ele>12.5</ele>
        <time>2023-05-24T08:28:37.000Z</time>
      </trkpt>
      <trkpt lat="43.27735" lon="6.67304">
        <ele>12.7</ele>
        <time>2023-05-24T08:28:45.000Z</time>
      </trkpt>
      <trkpt lat="43.27734" lon="6.67311">
        <ele>13.1</ele>
        <time>2023-05-24T08:28:54.000Z</time>
      </trkpt>
      <trkpt lat="43.27736" lon="6.67317">
        <ele>13.2</ele>
        <time>2023-05-24T08:29:00.000Z</time>
      </trkpt>
      <trkpt lat="43.27738" lon="6.67324">
        <ele>13.3</ele>
        <time>2023-05-24T08:29:09.000Z</time>
      </trkpt>
      <trkpt lat="43.27739" lon="6.67329">
        <ele>13.4</ele>
        <time>2023-05-24T08:29:16.000Z</time>
      </trkpt>
      <trkpt lat="43.27742" lon="6.67335">
        <ele>13.5</ele>
        <time>2023-05-24T08:29:21.000Z</time>
      </trkpt>
      <trkpt lat="43.27743" lon="6.67341">
        <ele>14</ele>
        <time>2023-05-24T08:29:34.000Z</time>
      </trkpt>
      <trkpt lat="43.27746" lon="6.67346">
        <ele>14.4</ele>
        <time>2023-05-24T08:29:42.000Z</time>
      </trkpt>
      <trkpt lat="43.27749" lon="6.67351">
        <ele>14.8</ele>
        <time>2023-05-24T08:29:49.000Z</time>
      </trkpt>
      <trkpt lat="43.2775" lon="6.67358">
        <ele>15.2</ele>
        <time>2023-05-24T08:30:01.000Z</time>
      </trkpt>
      <trkpt lat="43.27749" lon="6.67365">
        <ele>15.3</ele>
        <time>2023-05-24T08:30:08.000Z</time>
      </trkpt>
      <trkpt lat="43.27749" lon="6.67371">
        <ele>15.4</ele>
        <time>2023-05-24T08:30:15.000Z</time>
      </trkpt>
      <trkpt lat="43.27746" lon="6.67375">
        <ele>15.4</ele>
        <time>2023-05-24T08:30:21.000Z</time>
      </trkpt>
      <trkpt lat="43.27744" lon="6.67381">
        <ele>15.4</ele>
        <time>2023-05-24T08:30:25.000Z</time>
      </trkpt>
      <trkpt lat="43.27744" lon="6.67388">
        <ele>15.3</ele>
        <time>2023-05-24T08:30:30.000Z</time>
      </trkpt>
      <trkpt lat="43.27743" lon="6.67395">
        <ele>15.3</ele>
        <time>2023-05-24T08:30:35.000Z</time>
      </trkpt>
      <trkpt lat="43.27742" lon="6.67402">
        <ele>15</ele>
        <time>2023-05-24T08:30:41.000Z</time>
      </trkpt>
      <trkpt lat="43.27743" lon="6.67408">
        <ele>14.9</ele>
        <time>2023-05-24T08:30:48.000Z</time>
      </trkpt>
      <trkpt lat="43.27745" lon="6.67414">
        <ele>14.6</ele>
        <time>2023-05-24T08:30:57.000Z</time>
      </trkpt>
      <trkpt lat="43.27747" lon="6.6742">
        <ele>14.2</ele>
        <time>2023-05-24T08:31:08.000Z</time>
      </trkpt>
      <trkpt lat="43.27748" lon="6.67426">
        <ele>11.9</ele>
        <time>2023-05-24T08:32:52.000Z</time>
      </trkpt>
      <trkpt lat="43.2775" lon="6.67433">
        <ele>12.1</ele>
        <time>2023-05-24T08:33:04.000Z</time>
      </trkpt>
      <trkpt lat="43.27754" lon="6.67435">
        <ele>12.4</ele>
        <time>2023-05-24T08:33:13.000Z</time>
      </trkpt>
      <trkpt lat="43.27758" lon="6.67438">
        <ele>12.6</ele>
        <time>2023-05-24T08:33:19.000Z</time>
      </trkpt>
      <trkpt lat="43.27761" lon="6.67444">
        <ele>12.7</ele>
        <time>2023-05-24T08:33:24.000Z</time>
      </trkpt>
      <trkpt lat="43.27763" lon="6.67449">
        <ele>13</ele>
        <time>2023-05-24T08:33:29.000Z</time>
      </trkpt>
      <trkpt lat="43.27763" lon="6.67456">
        <ele>13.3</ele>
        <time>2023-05-24T08:33:34.000Z</time>
      </trkpt>
      <trkpt lat="43.27761" lon="6.67463">
        <ele>13.5</ele>
        <time>2023-05-24T08:33:40.000Z</time>
      </trkpt>
      <trkpt lat="43.27761" lon="6.6747">
        <ele>13.8</ele>
        <time>2023-05-24T08:33:47.000Z</time>
      </trkpt>
      <trkpt lat="43.27762" lon="6.67478">
        <ele>14.3</ele>
        <time>2023-05-24T08:33:55.000Z</time>
      </trkpt>
      <trkpt lat="43.27763" lon="6.67485">
        <ele>14.5</ele>
        <time>2023-05-24T08:34:00.000Z</time>
      </trkpt>
      <trkpt lat="43.27767" lon="6.6749">
        <ele>14.7</ele>
        <time>2023-05-24T08:34:08.000Z</time>
      </trkpt>
      <trkpt lat="43.27772" lon="6.67491">
        <ele>14.6</ele>
        <time>2023-05-24T08:34:14.000Z</time>
      </trkpt>
      <trkpt lat="43.27776" lon="6.67496">
        <ele>14.5</ele>
        <time>2023-05-24T08:34:19.000Z</time>
      </trkpt>
      <trkpt lat="43.27779" lon="6.67502">
        <ele>14.4</ele>
        <time>2023-05-24T08:34:24.000Z</time>
      </trkpt>
      <trkpt lat="43.27781" lon="6.67507">
        <ele>14.3</ele>
        <time>2023-05-24T08:34:32.000Z</time>
      </trkpt>
      <trkpt lat="43.27784" lon="6.67512">
        <ele>14.9</ele>
        <time>2023-05-24T08:36:10.000Z</time>
      </trkpt>
      <trkpt lat="43.27787" lon="6.67518">
        <ele>15.2</ele>
        <time>2023-05-24T08:36:18.000Z</time>
      </trkpt>
      <trkpt lat="43.27791" lon="6.67522">
        <ele>15.4</ele>
        <time>2023-05-24T08:36:22.000Z</time>
      </trkpt>
      <trkpt lat="43.27795" lon="6.67527">
        <ele>15.5</ele>
        <time>2023-05-24T08:36:27.000Z</time>
      </trkpt>
      <trkpt lat="43.27798" lon="6.67533">
        <ele>15.7</ele>
        <time>2023-05-24T08:36:32.000Z</time>
      </trkpt>
      <trkpt lat="43.27801" lon="6.67539">
        <ele>16</ele>
        <time>2023-05-24T08:36:37.000Z</time>
      </trkpt>
      <trkpt lat="43.27805" lon="6.67543">
        <ele>16.1</ele>
        <time>2023-05-24T08:36:42.000Z</time>
      </trkpt>
      <trkpt lat="43.27809" lon="6.67548">
        <ele>16.2</ele>
        <time>2023-05-24T08:36:48.000Z</time>
      </trkpt>
      <trkpt lat="43.27813" lon="6.67551">
        <ele>16.2</ele>
        <time>2023-05-24T08:36:53.000Z</time>
      </trkpt>
      <trkpt lat="43.27815" lon="6.67558">
        <ele>16.1</ele>
        <time>2023-05-24T08:37:00.000Z</time>
      </trkpt>
      <trkpt lat="43.27816" lon="6.67564">
        <ele>15.7</ele>
        <time>2023-05-24T08:37:05.000Z</time>
      </trkpt>
      <trkpt lat="43.27815" lon="6.67571">
        <ele>15.5</ele>
        <time>2023-05-24T08:37:11.000Z</time>
      </trkpt>
      <trkpt lat="43.27815" lon="6.67577">
        <ele>15.4</ele>
        <time>2023-05-24T08:37:17.000Z</time>
      </trkpt>
      <trkpt lat="43.27818" lon="6.67583">
        <ele>15.4</ele>
        <time>2023-05-24T08:37:22.000Z</time>
      </trkpt>
      <trkpt lat="43.27822" lon="6.67587">
        <ele>15.7</ele>
        <time>2023-05-24T08:37:28.000Z</time>
      </trkpt>
      <trkpt lat="43.27827" lon="6.67587">
        <ele>15.9</ele>
        <time>2023-05-24T08:37:34.000Z</time>
      </trkpt>
      <trkpt lat="43.27831" lon="6.67591">
        <ele>15.9</ele>
        <time>2023-05-24T08:37:40.000Z</time>
      </trkpt>
      <trkpt lat="43.27831" lon="6.67598">
        <ele>16</ele>
        <time>2023-05-24T08:37:46.000Z</time>
      </trkpt>
      <trkpt lat="43.27827" lon="6.67601">
        <ele>16.5</ele>
        <time>2023-05-24T08:38:33.000Z</time>
      </trkpt>
      <trkpt lat="43.27827" lon="6.67608">
        <ele>16.5</ele>
        <time>2023-05-24T08:38:40.000Z</time>
      </trkpt>
      <trkpt lat="43.27828" lon="6.67616">
        <ele>16.6</ele>
        <time>2023-05-24T08:38:45.000Z</time>
      </trkpt>
      <trkpt lat="43.27829" lon="6.67623">
        <ele>16.7</ele>
        <time>2023-05-24T08:38:50.000Z</time>
      </trkpt>
      <trkpt lat="43.27829" lon="6.67629">
        <ele>16.8</ele>
        <time>2023-05-24T08:38:55.000Z</time>
      </trkpt>
      <trkpt lat="43.27828" lon="6.67636">
        <ele>17.1</ele>
        <time>2023-05-24T08:39:00.000Z</time>
      </trkpt>
      <trkpt lat="43.27827" lon="6.67642">
        <ele>17.2</ele>
        <time>2023-05-24T08:39:18.000Z</time>
      </trkpt>
      <trkpt lat="43.27827" lon="6.67649">
        <ele>17.4</ele>
        <time>2023-05-24T08:39:24.000Z</time>
      </trkpt>
      <trkpt lat="43.27828" lon="6.67656">
        <ele>17.6</ele>
        <time>2023-05-24T08:39:30.000Z</time>
      </trkpt>
      <trkpt lat="43.27829" lon="6.67663">
        <ele>17.7</ele>
        <time>2023-05-24T08:39:36.000Z</time>
      </trkpt>
      <trkpt lat="43.27828" lon="6.67669">
        <ele>17.9</ele>
        <time>2023-05-24T08:39:46.000Z</time>
      </trkpt>
      <trkpt lat="43.27829" lon="6.67675">
        <ele>17.5</ele>
        <time>2023-05-24T08:39:55.000Z</time>
      </trkpt>
      <trkpt lat="43.27827" lon="6.67681">
        <ele>17</ele>
        <time>2023-05-24T08:40:00.000Z</time>
      </trkpt>
      <trkpt lat="43.27824" lon="6.67687">
        <ele>16.6</ele>
        <time>2023-05-24T08:40:05.000Z</time>
      </trkpt>
      <trkpt lat="43.2782" lon="6.6769">
        <ele>16.2</ele>
        <time>2023-05-24T08:40:11.000Z</time>
      </trkpt>
      <trkpt lat="43.27816" lon="6.67692">
        <ele>16.1</ele>
        <time>2023-05-24T08:40:17.000Z</time>
      </trkpt>
      <trkpt lat="43.27812" lon="6.67695">
        <ele>16.4</ele>
        <time>2023-05-24T08:40:24.000Z</time>
      </trkpt>
      <trkpt lat="43.27807" lon="6.67698">
        <ele>17.3</ele>
        <time>2023-05-24T08:40:32.000Z</time>
      </trkpt>
      <trkpt lat="43.27803" lon="6.67699">
        <ele>18.2</ele>
        <time>2023-05-24T08:40:40.000Z</time>
      </trkpt>
      <trkpt lat="43.27801" lon="6.67705">
        <ele>19.1</ele>
        <time>2023-05-24T08:40:46.000Z</time>
      </trkpt>
      <trkpt lat="43.27799" lon="6.67712">
        <ele>19.6</ele>
        <time>2023-05-24T08:40:51.000Z</time>
      </trkpt>
      <trkpt lat="43.278" lon="6.67718">
        <ele>20.1</ele>
        <time>2023-05-24T08:40:58.000Z</time>
      </trkpt>
      <trkpt lat="43.27805" lon="6.67721">
        <ele>20.2</ele>
        <time>2023-05-24T08:41:02.000Z</time>
      </trkpt>
      <trkpt lat="43.2781" lon="6.67723">
        <ele>20.3</ele>
        <time>2023-05-24T08:41:06.000Z</time>
      </trkpt>
      <trkpt lat="43.27814" lon="6.67724">
        <ele>20.2</ele>
        <time>2023-05-24T08:41:10.000Z</time>
      </trkpt>
      <trkpt lat="43.27819" lon="6.67727">
        <ele>20.1</ele>
        <time>2023-05-24T08:41:14.000Z</time>
      </trkpt>
      <trkpt lat="43.27823" lon="6.6773">
        <ele>19.6</ele>
        <time>2023-05-24T08:41:21.000Z</time>
      </trkpt>
      <trkpt lat="43.27827" lon="6.67733">
        <ele>18.8</ele>
        <time>2023-05-24T08:41:29.000Z</time>
      </trkpt>
      <trkpt lat="43.27833" lon="6.67733">
        <ele>17.6</ele>
        <time>2023-05-24T08:41:39.000Z</time>
      </trkpt>
      <trkpt lat="43.27838" lon="6.67736">
        <ele>17</ele>
        <time>2023-05-24T08:41:44.000Z</time>
      </trkpt>
      <trkpt lat="43.27843" lon="6.67738">
        <ele>16.5</ele>
        <time>2023-05-24T08:41:49.000Z</time>
      </trkpt>
      <trkpt lat="43.27846" lon="6.67743">
        <ele>16.2</ele>
        <time>2023-05-24T08:41:56.000Z</time>
      </trkpt>
      <trkpt lat="43.27846" lon="6.6775">
        <ele>16.4</ele>
        <time>2023-05-24T08:42:03.000Z</time>
      </trkpt>
      <trkpt lat="43.27846" lon="6.67757">
        <ele>16.7</ele>
        <time>2023-05-24T08:42:09.000Z</time>
      </trkpt>
      <trkpt lat="43.27846" lon="6.67763">
        <ele>17</ele>
        <time>2023-05-24T08:42:15.000Z</time>
      </trkpt>
      <trkpt lat="43.27848" lon="6.6777">
        <ele>17.3</ele>
        <time>2023-05-24T08:42:20.000Z</time>
      </trkpt>
      <trkpt lat="43.27849" lon="6.67777">
        <ele>17.6</ele>
        <time>2023-05-24T08:42:25.000Z</time>
      </trkpt>
      <trkpt lat="43.27851" lon="6.67784">
        <ele>17.8</ele>
        <time>2023-05-24T08:42:30.000Z</time>
      </trkpt>
      <trkpt lat="43.27854" lon="6.67788">
        <ele>17.9</ele>
        <time>2023-05-24T08:42:34.000Z</time>
      </trkpt>
      <trkpt lat="43.27857" lon="6.67794">
        <ele>18.2</ele>
        <time>2023-05-24T08:42:41.000Z</time>
      </trkpt>
      <trkpt lat="43.2786" lon="6.67799">
        <ele>18.6</ele>
        <time>2023-05-24T08:42:48.000Z</time>
      </trkpt>
      <trkpt lat="43.27863" lon="6.67805">
        <ele>19</ele>
        <time>2023-05-24T08:42:56.000Z</time>
      </trkpt>
      <trkpt lat="43.27864" lon="6.67812">
        <ele>19.7</ele>
        <time>2023-05-24T08:43:02.000Z</time>
      </trkpt>
      <trkpt lat="43.27864" lon="6.67818">
        <ele>20</ele>
        <time>2023-05-24T08:43:07.000Z</time>
      </trkpt>
      <trkpt lat="43.27863" lon="6.67825">
        <ele>20.4</ele>
        <time>2023-05-24T08:43:13.000Z</time>
      </trkpt>
      <trkpt lat="43.27861" lon="6.67831">
        <ele>20.6</ele>
        <time>2023-05-24T08:43:20.000Z</time>
      </trkpt>
      <trkpt lat="43.27859" lon="6.67837">
        <ele>20.9</ele>
        <time>2023-05-24T08:43:27.000Z</time>
      </trkpt>
      <trkpt lat="43.27855" lon="6.67841">
        <ele>21.4</ele>
        <time>2023-05-24T08:43:33.000Z</time>
      </trkpt>
      <trkpt lat="43.27851" lon="6.67845">
        <ele>21.7</ele>
        <time>2023-05-24T08:43:39.000Z</time>
      </trkpt>
      <trkpt lat="43.27847" lon="6.67848">
        <ele>21.8</ele>
        <time>2023-05-24T08:43:48.000Z</time>
      </trkpt>
      <trkpt lat="43.27842" lon="6.67852">
        <ele>21.6</ele>
        <time>2023-05-24T08:43:56.000Z</time>
      </trkpt>
      <trkpt lat="43.27837" lon="6.67854">
        <ele>21</ele>
        <time>2023-05-24T08:44:03.000Z</time>
      </trkpt>
      <trkpt lat="43.27833" lon="6.67857">
        <ele>20.3</ele>
        <time>2023-05-24T08:44:10.000Z</time>
      </trkpt>
      <trkpt lat="43.27829" lon="6.6786">
        <ele>20</ele>
        <time>2023-05-24T08:44:15.000Z</time>
      </trkpt>
      <trkpt lat="43.27824" lon="6.67863">
        <ele>19.8</ele>
        <time>2023-05-24T08:44:20.000Z</time>
      </trkpt>
      <trkpt lat="43.2782" lon="6.67864">
        <ele>19.5</ele>
        <time>2023-05-24T08:44:26.000Z</time>
      </trkpt>
      <trkpt lat="43.27815" lon="6.67865">
        <ele>19.2</ele>
        <time>2023-05-24T08:44:31.000Z</time>
      </trkpt>
      <trkpt lat="43.2781" lon="6.67864">
        <ele>18.9</ele>
        <time>2023-05-24T08:44:36.000Z</time>
      </trkpt>
      <trkpt lat="43.27805" lon="6.67864">
        <ele>18.7</ele>
        <time>2023-05-24T08:44:40.000Z</time>
      </trkpt>
      <trkpt lat="43.278" lon="6.67864">
        <ele>18.4</ele>
        <time>2023-05-24T08:44:46.000Z</time>
      </trkpt>
      <trkpt lat="43.27795" lon="6.67865">
        <ele>18.2</ele>
        <time>2023-05-24T08:44:51.000Z</time>
      </trkpt>
      <trkpt lat="43.2779" lon="6.67865">
        <ele>18</ele>
        <time>2023-05-24T08:44:57.000Z</time>
      </trkpt>
      <trkpt lat="43.27785" lon="6.67863">
        <ele>17.9</ele>
        <time>2023-05-24T08:45:02.000Z</time>
      </trkpt>
      <trkpt lat="43.27781" lon="6.67863">
        <ele>17.7</ele>
        <time>2023-05-24T08:45:08.000Z</time>
      </trkpt>
      <trkpt lat="43.27776" lon="6.67862">
        <ele>17.1</ele>
        <time>2023-05-24T08:45:18.000Z</time>
      </trkpt>
      <trkpt lat="43.27771" lon="6.6786">
        <ele>16.6</ele>
        <time>2023-05-24T08:45:22.000Z</time>
      </trkpt>
      <trkpt lat="43.27767" lon="6.67857">
        <ele>16.2</ele>
        <time>2023-05-24T08:45:26.000Z</time>
      </trkpt>
      <trkpt lat="43.27762" lon="6.67855">
        <ele>15.8</ele>
        <time>2023-05-24T08:45:31.000Z</time>
      </trkpt>
      <trkpt lat="43.27757" lon="6.67853">
        <ele>15.3</ele>
        <time>2023-05-24T08:45:37.000Z</time>
      </trkpt>
      <trkpt lat="43.27753" lon="6.67848">
        <ele>15.2</ele>
        <time>2023-05-24T08:45:43.000Z</time>
      </trkpt>
      <trkpt lat="43.27749" lon="6.67844">
        <ele>15.1</ele>
        <time>2023-05-24T08:45:49.000Z</time>
      </trkpt>
      <trkpt lat="43.27744" lon="6.67843">
        <ele>15</ele>
        <time>2023-05-24T08:45:54.000Z</time>
      </trkpt>
      <trkpt lat="43.27739" lon="6.67846">
        <ele>15</ele>
        <time>2023-05-24T08:45:59.000Z</time>
      </trkpt>
      <trkpt lat="43.27735" lon="6.6785">
        <ele>14.9</ele>
        <time>2023-05-24T08:46:05.000Z</time>
      </trkpt>
      <trkpt lat="43.27735" lon="6.67856">
        <ele>15.1</ele>
        <time>2023-05-24T08:46:14.000Z</time>
      </trkpt>
      <trkpt lat="43.27734" lon="6.67862">
        <ele>15.1</ele>
        <time>2023-05-24T08:46:20.000Z</time>
      </trkpt>
      <trkpt lat="43.27735" lon="6.67869">
        <ele>15.2</ele>
        <time>2023-05-24T08:46:25.000Z</time>
      </trkpt>
      <trkpt lat="43.27737" lon="6.67877">
        <ele>15.3</ele>
        <time>2023-05-24T08:46:30.000Z</time>
      </trkpt>
      <trkpt lat="43.27738" lon="6.67884">
        <ele>15.5</ele>
        <time>2023-05-24T08:46:38.000Z</time>
      </trkpt>
      <trkpt lat="43.27739" lon="6.67891">
        <ele>15.6</ele>
        <time>2023-05-24T08:46:43.000Z</time>
      </trkpt>
      <trkpt lat="43.27738" lon="6.67898">
        <ele>15.7</ele>
        <time>2023-05-24T08:46:47.000Z</time>
      </trkpt>
      <trkpt lat="43.27736" lon="6.67904">
        <ele>15.5</ele>
        <time>2023-05-24T08:46:51.000Z</time>
      </trkpt>
      <trkpt lat="43.27734" lon="6.67909">
        <ele>15.4</ele>
        <time>2023-05-24T08:46:55.000Z</time>
      </trkpt>
      <trkpt lat="43.27732" lon="6.67916">
        <ele>15.3</ele>
        <time>2023-05-24T08:46:59.000Z</time>
      </trkpt>
      <trkpt lat="43.27731" lon="6.67923">
        <ele>15.1</ele>
        <time>2023-05-24T08:47:04.000Z</time>
      </trkpt>
      <trkpt lat="43.2773" lon="6.6793">
        <ele>14.9</ele>
        <time>2023-05-24T08:47:09.000Z</time>
      </trkpt>
      <trkpt lat="43.27728" lon="6.67936">
        <ele>14.8</ele>
        <time>2023-05-24T08:47:13.000Z</time>
      </trkpt>
      <trkpt lat="43.27729" lon="6.67943">
        <ele>14.8</ele>
        <time>2023-05-24T08:47:18.000Z</time>
      </trkpt>
      <trkpt lat="43.27733" lon="6.67948">
        <ele>14.6</ele>
        <time>2023-05-24T08:47:23.000Z</time>
      </trkpt>
      <trkpt lat="43.27734" lon="6.67954">
        <ele>14.4</ele>
        <time>2023-05-24T08:47:28.000Z</time>
      </trkpt>
      <trkpt lat="43.27735" lon="6.67961">
        <ele>14.2</ele>
        <time>2023-05-24T08:47:33.000Z</time>
      </trkpt>
      <trkpt lat="43.27734" lon="6.67967">
        <ele>14</ele>
        <time>2023-05-24T08:47:41.000Z</time>
      </trkpt>
      <trkpt lat="43.27735" lon="6.67973">
        <ele>14.3</ele>
        <time>2023-05-24T08:47:47.000Z</time>
      </trkpt>
      <trkpt lat="43.27731" lon="6.67977">
        <ele>14.6</ele>
        <time>2023-05-24T08:47:52.000Z</time>
      </trkpt>
      <trkpt lat="43.27727" lon="6.6798">
        <ele>14.8</ele>
        <time>2023-05-24T08:47:58.000Z</time>
      </trkpt>
      <trkpt lat="43.27723" lon="6.67981">
        <ele>15.7</ele>
        <time>2023-05-24T08:48:09.000Z</time>
      </trkpt>
      <trkpt lat="43.27718" lon="6.67981">
        <ele>15.7</ele>
        <time>2023-05-24T08:48:33.000Z</time>
      </trkpt>
      <trkpt lat="43.27716" lon="6.67987">
        <ele>15.7</ele>
        <time>2023-05-24T08:48:47.000Z</time>
      </trkpt>
      <trkpt lat="43.27711" lon="6.67988">
        <ele>15.1</ele>
        <time>2023-05-24T08:48:55.000Z</time>
      </trkpt>
      <trkpt lat="43.27706" lon="6.67988">
        <ele>14.8</ele>
        <time>2023-05-24T08:49:02.000Z</time>
      </trkpt>
      <trkpt lat="43.27703" lon="6.67993">
        <ele>14.5</ele>
        <time>2023-05-24T08:49:12.000Z</time>
      </trkpt>
      <trkpt lat="43.27698" lon="6.67994">
        <ele>15.2</ele>
        <time>2023-05-24T08:49:46.000Z</time>
      </trkpt>
      <trkpt lat="43.27694" lon="6.67997">
        <ele>16.1</ele>
        <time>2023-05-24T08:50:24.000Z</time>
      </trkpt>
      <trkpt lat="43.27691" lon="6.68002">
        <ele>15.7</ele>
        <time>2023-05-24T08:50:58.000Z</time>
      </trkpt>
      <trkpt lat="43.27687" lon="6.68005">
        <ele>15.5</ele>
        <time>2023-05-24T08:51:10.000Z</time>
      </trkpt>
      <trkpt lat="43.27685" lon="6.6801">
        <ele>16.4</ele>
        <time>2023-05-24T08:51:24.000Z</time>
      </trkpt>
      <trkpt lat="43.27684" lon="6.68017">
        <ele>16.7</ele>
        <time>2023-05-24T08:51:30.000Z</time>
      </trkpt>
      <trkpt lat="43.27682" lon="6.68023">
        <ele>17.3</ele>
        <time>2023-05-24T08:51:38.000Z</time>
      </trkpt>
      <trkpt lat="43.27677" lon="6.68022">
        <ele>18.4</ele>
        <time>2023-05-24T08:51:48.000Z</time>
      </trkpt>
      <trkpt lat="43.27673" lon="6.68026">
        <ele>20</ele>
        <time>2023-05-24T08:51:57.000Z</time>
      </trkpt>
      <trkpt lat="43.2767" lon="6.68031">
        <ele>20.6</ele>
        <time>2023-05-24T08:52:02.000Z</time>
      </trkpt>
      <trkpt lat="43.27665" lon="6.68035">
        <ele>21.4</ele>
        <time>2023-05-24T08:52:08.000Z</time>
      </trkpt>
      <trkpt lat="43.27661" lon="6.68038">
        <ele>21.9</ele>
        <time>2023-05-24T08:52:14.000Z</time>
      </trkpt>
      <trkpt lat="43.27656" lon="6.68039">
        <ele>22.4</ele>
        <time>2023-05-24T08:52:21.000Z</time>
      </trkpt>
      <trkpt lat="43.27652" lon="6.68041">
        <ele>22.8</ele>
        <time>2023-05-24T08:52:27.000Z</time>
      </trkpt>
      <trkpt lat="43.27648" lon="6.68038">
        <ele>23.1</ele>
        <time>2023-05-24T08:52:40.000Z</time>
      </trkpt>
      <trkpt lat="43.27644" lon="6.68042">
        <ele>22.4</ele>
        <time>2023-05-24T08:52:50.000Z</time>
      </trkpt>
      <trkpt lat="43.2764" lon="6.68046">
        <ele>21.8</ele>
        <time>2023-05-24T08:52:56.000Z</time>
      </trkpt>
      <trkpt lat="43.27636" lon="6.6805">
        <ele>21.3</ele>
        <time>2023-05-24T08:53:00.000Z</time>
      </trkpt>
      <trkpt lat="43.27631" lon="6.68054">
        <ele>20.7</ele>
        <time>2023-05-24T08:53:05.000Z</time>
      </trkpt>
      <trkpt lat="43.27628" lon="6.68057">
        <ele>20.3</ele>
        <time>2023-05-24T08:53:09.000Z</time>
      </trkpt>
      <trkpt lat="43.27623" lon="6.68062">
        <ele>20</ele>
        <time>2023-05-24T08:53:14.000Z</time>
      </trkpt>
      <trkpt lat="43.27619" lon="6.68066">
        <ele>19.9</ele>
        <time>2023-05-24T08:53:19.000Z</time>
      </trkpt>
      <trkpt lat="43.27617" lon="6.68073">
        <ele>19.9</ele>
        <time>2023-05-24T08:53:24.000Z</time>
      </trkpt>
      <trkpt lat="43.27615" lon="6.68079">
        <ele>20.2</ele>
        <time>2023-05-24T08:53:28.000Z</time>
      </trkpt>
      <trkpt lat="43.27612" lon="6.68085">
        <ele>20.5</ele>
        <time>2023-05-24T08:53:33.000Z</time>
      </trkpt>
      <trkpt lat="43.27608" lon="6.68088">
        <ele>20.7</ele>
        <time>2023-05-24T08:53:38.000Z</time>
      </trkpt>
      <trkpt lat="43.27603" lon="6.6809">
        <ele>20.9</ele>
        <time>2023-05-24T08:53:43.000Z</time>
      </trkpt>
      <trkpt lat="43.27599" lon="6.68094">
        <ele>21.3</ele>
        <time>2023-05-24T08:53:49.000Z</time>
      </trkpt>
      <trkpt lat="43.27596" lon="6.68099">
        <ele>22.2</ele>
        <time>2023-05-24T08:54:00.000Z</time>
      </trkpt>
      <trkpt lat="43.27596" lon="6.68106">
        <ele>20.7</ele>
        <time>2023-05-24T08:54:47.000Z</time>
      </trkpt>
      <trkpt lat="43.27596" lon="6.68112">
        <ele>19.7</ele>
        <time>2023-05-24T08:55:02.000Z</time>
      </trkpt>
      <trkpt lat="43.27593" lon="6.68118">
        <ele>18.4</ele>
        <time>2023-05-24T08:55:13.000Z</time>
      </trkpt>
      <trkpt lat="43.27597" lon="6.68122">
        <ele>15.6</ele>
        <time>2023-05-24T08:55:30.000Z</time>
      </trkpt>
      <trkpt lat="43.27601" lon="6.68119">
        <ele>14.6</ele>
        <time>2023-05-24T08:55:36.000Z</time>
      </trkpt>
      <trkpt lat="43.27599" lon="6.68125">
        <ele>12.4</ele>
        <time>2023-05-24T08:55:55.000Z</time>
      </trkpt>
      <trkpt lat="43.27594" lon="6.68125">
        <ele>12.2</ele>
        <time>2023-05-24T08:56:02.000Z</time>
      </trkpt>
      <trkpt lat="43.2759" lon="6.68125">
        <ele>12.5</ele>
        <time>2023-05-24T08:56:09.000Z</time>
      </trkpt>
      <trkpt lat="43.27585" lon="6.68127">
        <ele>12.9</ele>
        <time>2023-05-24T08:56:20.000Z</time>
      </trkpt>
      <trkpt lat="43.27581" lon="6.6813">
        <ele>13.4</ele>
        <time>2023-05-24T08:56:44.000Z</time>
      </trkpt>
      <trkpt lat="43.27576" lon="6.68133">
        <ele>13.4</ele>
        <time>2023-05-24T08:56:55.000Z</time>
      </trkpt>
      <trkpt lat="43.27572" lon="6.68135">
        <ele>13.3</ele>
        <time>2023-05-24T08:57:18.000Z</time>
      </trkpt>
      <trkpt lat="43.27568" lon="6.68138">
        <ele>13.3</ele>
        <time>2023-05-24T08:57:46.000Z</time>
      </trkpt>
      <trkpt lat="43.27564" lon="6.6814">
        <ele>12.5</ele>
        <time>2023-05-24T08:58:02.000Z</time>
      </trkpt>
      <trkpt lat="43.27563" lon="6.68147">
        <ele>12.7</ele>
        <time>2023-05-24T08:58:21.000Z</time>
      </trkpt>
      <trkpt lat="43.27558" lon="6.68145">
        <ele>12.9</ele>
        <time>2023-05-24T08:58:30.000Z</time>
      </trkpt>
      <trkpt lat="43.27557" lon="6.68151">
        <ele>13.7</ele>
        <time>2023-05-24T08:58:42.000Z</time>
      </trkpt>
      <trkpt lat="43.27554" lon="6.68157">
        <ele>13.6</ele>
        <time>2023-05-24T08:58:57.000Z</time>
      </trkpt>
      <trkpt lat="43.2755" lon="6.68161">
        <ele>13</ele>
        <time>2023-05-24T08:59:08.000Z</time>
      </trkpt>
      <trkpt lat="43.27545" lon="6.68163">
        <ele>12.5</ele>
        <time>2023-05-24T08:59:15.000Z</time>
      </trkpt>
      <trkpt lat="43.27541" lon="6.6816">
        <ele>11.9</ele>
        <time>2023-05-24T08:59:26.000Z</time>
      </trkpt>
      <trkpt lat="43.27538" lon="6.68155">
        <ele>11.1</ele>
        <time>2023-05-24T09:00:00.000Z</time>
      </trkpt>
      <trkpt lat="43.27534" lon="6.68153">
        <ele>11.6</ele>
        <time>2023-05-24T09:01:09.000Z</time>
      </trkpt>
      <trkpt lat="43.27529" lon="6.68155">
        <ele>11.4</ele>
        <time>2023-05-24T09:01:25.000Z</time>
      </trkpt>
      <trkpt lat="43.27526" lon="6.68161">
        <ele>11.4</ele>
        <time>2023-05-24T09:01:35.000Z</time>
      </trkpt>
      <trkpt lat="43.27522" lon="6.68162">
        <ele>12.8</ele>
        <time>2023-05-24T09:02:35.000Z</time>
      </trkpt>
      <trkpt lat="43.27517" lon="6.68161">
        <ele>14.2</ele>
        <time>2023-05-24T09:02:54.000Z</time>
      </trkpt>
      <trkpt lat="43.27514" lon="6.68156">
        <ele>16</ele>
        <time>2023-05-24T09:03:11.000Z</time>
      </trkpt>
      <trkpt lat="43.2751" lon="6.68158">
        <ele>17</ele>
        <time>2023-05-24T09:03:47.000Z</time>
      </trkpt>
      <trkpt lat="43.27512" lon="6.68164">
        <ele>17</ele>
        <time>2023-05-24T09:04:58.000Z</time>
      </trkpt>
      <trkpt lat="43.27508" lon="6.68161">
        <ele>17</ele>
        <time>2023-05-24T09:05:20.000Z</time>
      </trkpt>
      <trkpt lat="43.27512" lon="6.68166">
        <ele>18.2</ele>
        <time>2023-05-24T09:09:21.000Z</time>
      </trkpt>
      <trkpt lat="43.27508" lon="6.68162">
        <ele>17.9</ele>
        <time>2023-05-24T09:09:44.000Z</time>
      </trkpt>
      <trkpt lat="43.27506" lon="6.68168">
        <ele>17.2</ele>
        <time>2023-05-24T09:14:38.000Z</time>
      </trkpt>
      <trkpt lat="43.27502" lon="6.68169">
        <ele>16.8</ele>
        <time>2023-05-24T09:15:26.000Z</time>
      </trkpt>
      <trkpt lat="43.27499" lon="6.68175">
        <ele>16.5</ele>
        <time>2023-05-24T09:15:33.000Z</time>
      </trkpt>
      <trkpt lat="43.27494" lon="6.68176">
        <ele>16</ele>
        <time>2023-05-24T09:15:40.000Z</time>
      </trkpt>
      <trkpt lat="43.27489" lon="6.68178">
        <ele>15.7</ele>
        <time>2023-05-24T09:15:45.000Z</time>
      </trkpt>
      <trkpt lat="43.27484" lon="6.6818">
        <ele>15.5</ele>
        <time>2023-05-24T09:15:50.000Z</time>
      </trkpt>
      <trkpt lat="43.27479" lon="6.68184">
        <ele>15.4</ele>
        <time>2023-05-24T09:15:55.000Z</time>
      </trkpt>
      <trkpt lat="43.27475" lon="6.68187">
        <ele>15.1</ele>
        <time>2023-05-24T09:16:00.000Z</time>
      </trkpt>
      <trkpt lat="43.27471" lon="6.6819">
        <ele>14.8</ele>
        <time>2023-05-24T09:16:06.000Z</time>
      </trkpt>
      <trkpt lat="43.27467" lon="6.68194">
        <ele>14.8</ele>
        <time>2023-05-24T09:16:11.000Z</time>
      </trkpt>
      <trkpt lat="43.27462" lon="6.68197">
        <ele>14.8</ele>
        <time>2023-05-24T09:16:16.000Z</time>
      </trkpt>
      <trkpt lat="43.27459" lon="6.68202">
        <ele>14.8</ele>
        <time>2023-05-24T09:16:20.000Z</time>
      </trkpt>
      <trkpt lat="43.27456" lon="6.68207">
        <ele>14.8</ele>
        <time>2023-05-24T09:16:24.000Z</time>
      </trkpt>
      <trkpt lat="43.27453" lon="6.68212">
        <ele>15</ele>
        <time>2023-05-24T09:16:28.000Z</time>
      </trkpt>
      <trkpt lat="43.2745" lon="6.68218">
        <ele>15.2</ele>
        <time>2023-05-24T09:16:33.000Z</time>
      </trkpt>
      <trkpt lat="43.27446" lon="6.68223">
        <ele>15.3</ele>
        <time>2023-05-24T09:16:38.000Z</time>
      </trkpt>
      <trkpt lat="43.27443" lon="6.68229">
        <ele>15.3</ele>
        <time>2023-05-24T09:16:42.000Z</time>
      </trkpt>
      <trkpt lat="43.2744" lon="6.68234">
        <ele>15.3</ele>
        <time>2023-05-24T09:16:47.000Z</time>
      </trkpt>
      <trkpt lat="43.27437" lon="6.68239">
        <ele>14.8</ele>
        <time>2023-05-24T09:17:19.000Z</time>
      </trkpt>
      <trkpt lat="43.27435" lon="6.68246">
        <ele>14.8</ele>
        <time>2023-05-24T09:17:50.000Z</time>
      </trkpt>
      <trkpt lat="43.27434" lon="6.68253">
        <ele>14.9</ele>
        <time>2023-05-24T09:17:55.000Z</time>
      </trkpt>
      <trkpt lat="43.27433" lon="6.6826">
        <ele>14.9</ele>
        <time>2023-05-24T09:18:00.000Z</time>
      </trkpt>
      <trkpt lat="43.27433" lon="6.68267">
        <ele>14.9</ele>
        <time>2023-05-24T09:18:08.000Z</time>
      </trkpt>
      <trkpt lat="43.2743" lon="6.68271">
        <ele>14.9</ele>
        <time>2023-05-24T09:18:16.000Z</time>
      </trkpt>
      <trkpt lat="43.27429" lon="6.68278">
        <ele>15</ele>
        <time>2023-05-24T09:18:24.000Z</time>
      </trkpt>
      <trkpt lat="43.2743" lon="6.68285">
        <ele>15.1</ele>
        <time>2023-05-24T09:18:30.000Z</time>
      </trkpt>
      <trkpt lat="43.27428" lon="6.68291">
        <ele>15.1</ele>
        <time>2023-05-24T09:18:35.000Z</time>
      </trkpt>
      <trkpt lat="43.27427" lon="6.68298">
        <ele>15.1</ele>
        <time>2023-05-24T09:18:40.000Z</time>
      </trkpt>
      <trkpt lat="43.27426" lon="6.68304">
        <ele>15.1</ele>
        <time>2023-05-24T09:18:45.000Z</time>
      </trkpt>
      <trkpt lat="43.27422" lon="6.68309">
        <ele>15.2</ele>
        <time>2023-05-24T09:18:50.000Z</time>
      </trkpt>
      <trkpt lat="43.27418" lon="6.68311">
        <ele>15.2</ele>
        <time>2023-05-24T09:18:54.000Z</time>
      </trkpt>
      <trkpt lat="43.27413" lon="6.68312">
        <ele>15.2</ele>
        <time>2023-05-24T09:18:58.000Z</time>
      </trkpt>
      <trkpt lat="43.27409" lon="6.68316">
        <ele>15.2</ele>
        <time>2023-05-24T09:19:03.000Z</time>
      </trkpt>
      <trkpt lat="43.27405" lon="6.6832">
        <ele>14.9</ele>
        <time>2023-05-24T09:19:08.000Z</time>
      </trkpt>
      <trkpt lat="43.27402" lon="6.68326">
        <ele>14.4</ele>
        <time>2023-05-24T09:19:15.000Z</time>
      </trkpt>
      <trkpt lat="43.27398" lon="6.68329">
        <ele>14</ele>
        <time>2023-05-24T09:19:20.000Z</time>
      </trkpt>
      <trkpt lat="43.27393" lon="6.68332">
        <ele>13.7</ele>
        <time>2023-05-24T09:19:24.000Z</time>
      </trkpt>
      <trkpt lat="43.2739" lon="6.68337">
        <ele>13.5</ele>
        <time>2023-05-24T09:19:28.000Z</time>
      </trkpt>
      <trkpt lat="43.27387" lon="6.68343">
        <ele>13.2</ele>
        <time>2023-05-24T09:19:32.000Z</time>
      </trkpt>
      <trkpt lat="43.27384" lon="6.68349">
        <ele>12.8</ele>
        <time>2023-05-24T09:19:37.000Z</time>
      </trkpt>
      <trkpt lat="43.27382" lon="6.68354">
        <ele>12.7</ele>
        <time>2023-05-24T09:19:42.000Z</time>
      </trkpt>
      <trkpt lat="43.27379" lon="6.6836">
        <ele>12.8</ele>
        <time>2023-05-24T09:19:51.000Z</time>
      </trkpt>
      <trkpt lat="43.27376" lon="6.68365">
        <ele>13.1</ele>
        <time>2023-05-24T09:20:01.000Z</time>
      </trkpt>
      <trkpt lat="43.27372" lon="6.68369">
        <ele>13.8</ele>
        <time>2023-05-24T09:20:14.000Z</time>
      </trkpt>
      <trkpt lat="43.27367" lon="6.6837">
        <ele>14.1</ele>
        <time>2023-05-24T09:20:21.000Z</time>
      </trkpt>
      <trkpt lat="43.27362" lon="6.68371">
        <ele>14.3</ele>
        <time>2023-05-24T09:20:26.000Z</time>
      </trkpt>
      <trkpt lat="43.27357" lon="6.68374">
        <ele>14.4</ele>
        <time>2023-05-24T09:20:31.000Z</time>
      </trkpt>
      <trkpt lat="43.27354" lon="6.6838">
        <ele>14.5</ele>
        <time>2023-05-24T09:20:36.000Z</time>
      </trkpt>
      <trkpt lat="43.27351" lon="6.68384">
        <ele>14.8</ele>
        <time>2023-05-24T09:20:40.000Z</time>
      </trkpt>
      <trkpt lat="43.27347" lon="6.68389">
        <ele>15.1</ele>
        <time>2023-05-24T09:20:46.000Z</time>
      </trkpt>
      <trkpt lat="43.27343" lon="6.68393">
        <ele>15.3</ele>
        <time>2023-05-24T09:20:53.000Z</time>
      </trkpt>
      <trkpt lat="43.27339" lon="6.68398">
        <ele>15.4</ele>
        <time>2023-05-24T09:20:58.000Z</time>
      </trkpt>
      <trkpt lat="43.27339" lon="6.68405">
        <ele>15.5</ele>
        <time>2023-05-24T09:21:04.000Z</time>
      </trkpt>
      <trkpt lat="43.27341" lon="6.68411">
        <ele>15.5</ele>
        <time>2023-05-24T09:21:09.000Z</time>
      </trkpt>
      <trkpt lat="43.27344" lon="6.68416">
        <ele>15.5</ele>
        <time>2023-05-24T09:21:13.000Z</time>
      </trkpt>
      <trkpt lat="43.27348" lon="6.68422">
        <ele>15.4</ele>
        <time>2023-05-24T09:21:18.000Z</time>
      </trkpt>
      <trkpt lat="43.27352" lon="6.68426">
        <ele>15</ele>
        <time>2023-05-24T09:21:26.000Z</time>
      </trkpt>
      <trkpt lat="43.27355" lon="6.68432">
        <ele>14.8</ele>
        <time>2023-05-24T09:21:32.000Z</time>
      </trkpt>
      <trkpt lat="43.27354" lon="6.68439">
        <ele>14.6</ele>
        <time>2023-05-24T09:21:38.000Z</time>
      </trkpt>
      <trkpt lat="43.27353" lon="6.68445">
        <ele>14.4</ele>
        <time>2023-05-24T09:21:43.000Z</time>
      </trkpt>
      <trkpt lat="43.27352" lon="6.68452">
        <ele>14.3</ele>
        <time>2023-05-24T09:21:52.000Z</time>
      </trkpt>
      <trkpt lat="43.27352" lon="6.68459">
        <ele>14</ele>
        <time>2023-05-24T09:22:00.000Z</time>
      </trkpt>
      <trkpt lat="43.2735" lon="6.68465">
        <ele>13.5</ele>
        <time>2023-05-24T09:22:05.000Z</time>
      </trkpt>
      <trkpt lat="43.27346" lon="6.68469">
        <ele>13.1</ele>
        <time>2023-05-24T09:22:11.000Z</time>
      </trkpt>
      <trkpt lat="43.27342" lon="6.68472">
        <ele>13.1</ele>
        <time>2023-05-24T09:22:20.000Z</time>
      </trkpt>
      <trkpt lat="43.27338" lon="6.68475">
        <ele>14</ele>
        <time>2023-05-24T09:22:30.000Z</time>
      </trkpt>
      <trkpt lat="43.27334" lon="6.68479">
        <ele>14.8</ele>
        <time>2023-05-24T09:22:36.000Z</time>
      </trkpt>
      <trkpt lat="43.27329" lon="6.68481">
        <ele>15.8</ele>
        <time>2023-05-24T09:22:42.000Z</time>
      </trkpt>
      <trkpt lat="43.27324" lon="6.68484">
        <ele>16.4</ele>
        <time>2023-05-24T09:22:48.000Z</time>
      </trkpt>
      <trkpt lat="43.27319" lon="6.68486">
        <ele>16.7</ele>
        <time>2023-05-24T09:22:53.000Z</time>
      </trkpt>
      <trkpt lat="43.27315" lon="6.6849">
        <ele>17.3</ele>
        <time>2023-05-24T09:22:59.000Z</time>
      </trkpt>
      <trkpt lat="43.27312" lon="6.68496">
        <ele>17.8</ele>
        <time>2023-05-24T09:23:05.000Z</time>
      </trkpt>
      <trkpt lat="43.27308" lon="6.68499">
        <ele>18.1</ele>
        <time>2023-05-24T09:23:11.000Z</time>
      </trkpt>
      <trkpt lat="43.27305" lon="6.68505">
        <ele>18.2</ele>
        <time>2023-05-24T09:23:17.000Z</time>
      </trkpt>
      <trkpt lat="43.27302" lon="6.68511">
        <ele>18.3</ele>
        <time>2023-05-24T09:23:22.000Z</time>
      </trkpt>
      <trkpt lat="43.27301" lon="6.68518">
        <ele>18.1</ele>
        <time>2023-05-24T09:23:29.000Z</time>
      </trkpt>
      <trkpt lat="43.27304" lon="6.68524">
        <ele>17.2</ele>
        <time>2023-05-24T09:23:47.000Z</time>
      </trkpt>
      <trkpt lat="43.27307" lon="6.68529">
        <ele>16.5</ele>
        <time>2023-05-24T09:23:54.000Z</time>
      </trkpt>
      <trkpt lat="43.27309" lon="6.68535">
        <ele>15.7</ele>
        <time>2023-05-24T09:24:01.000Z</time>
      </trkpt>
      <trkpt lat="43.27308" lon="6.68542">
        <ele>15.3</ele>
        <time>2023-05-24T09:24:08.000Z</time>
      </trkpt>
      <trkpt lat="43.27307" lon="6.68547">
        <ele>15.3</ele>
        <time>2023-05-24T09:24:16.000Z</time>
      </trkpt>
      <trkpt lat="43.27308" lon="6.68554">
        <ele>14.5</ele>
        <time>2023-05-24T09:24:28.000Z</time>
      </trkpt>
      <trkpt lat="43.27306" lon="6.68561">
        <ele>13.4</ele>
        <time>2023-05-24T09:24:35.000Z</time>
      </trkpt>
      <trkpt lat="43.27304" lon="6.68566">
        <ele>12.7</ele>
        <time>2023-05-24T09:24:39.000Z</time>
      </trkpt>
      <trkpt lat="43.27303" lon="6.68573">
        <ele>12.3</ele>
        <time>2023-05-24T09:24:44.000Z</time>
      </trkpt>
      <trkpt lat="43.27302" lon="6.6858">
        <ele>12.2</ele>
        <time>2023-05-24T09:24:49.000Z</time>
      </trkpt>
      <trkpt lat="43.27303" lon="6.68587">
        <ele>12</ele>
        <time>2023-05-24T09:24:54.000Z</time>
      </trkpt>
      <trkpt lat="43.27304" lon="6.68593">
        <ele>12.1</ele>
        <time>2023-05-24T09:25:00.000Z</time>
      </trkpt>
      <trkpt lat="43.27303" lon="6.68599">
        <ele>12.2</ele>
        <time>2023-05-24T09:25:06.000Z</time>
      </trkpt>
      <trkpt lat="43.27304" lon="6.68605">
        <ele>12.3</ele>
        <time>2023-05-24T09:25:14.000Z</time>
      </trkpt>
      <trkpt lat="43.27307" lon="6.68611">
        <ele>12.5</ele>
        <time>2023-05-24T09:25:22.000Z</time>
      </trkpt>
      <trkpt lat="43.2731" lon="6.68616">
        <ele>12.7</ele>
        <time>2023-05-24T09:25:33.000Z</time>
      </trkpt>
      <trkpt lat="43.27311" lon="6.68622">
        <ele>12.7</ele>
        <time>2023-05-24T09:25:40.000Z</time>
      </trkpt>
      <trkpt lat="43.27312" lon="6.68628">
        <ele>12.5</ele>
        <time>2023-05-24T09:25:51.000Z</time>
      </trkpt>
      <trkpt lat="43.27315" lon="6.68634">
        <ele>13</ele>
        <time>2023-05-24T09:25:59.000Z</time>
      </trkpt>
      <trkpt lat="43.27316" lon="6.6864">
        <ele>13.2</ele>
        <time>2023-05-24T09:26:04.000Z</time>
      </trkpt>
      <trkpt lat="43.27314" lon="6.68647">
        <ele>13.2</ele>
        <time>2023-05-24T09:26:09.000Z</time>
      </trkpt>
      <trkpt lat="43.27314" lon="6.68653">
        <ele>13.2</ele>
        <time>2023-05-24T09:26:14.000Z</time>
      </trkpt>
      <trkpt lat="43.27315" lon="6.68659">
        <ele>13</ele>
        <time>2023-05-24T09:26:25.000Z</time>
      </trkpt>
      <trkpt lat="43.27312" lon="6.68665">
        <ele>12.9</ele>
        <time>2023-05-24T09:26:30.000Z</time>
      </trkpt>
      <trkpt lat="43.27312" lon="6.68672">
        <ele>12.6</ele>
        <time>2023-05-24T09:26:35.000Z</time>
      </trkpt>
      <trkpt lat="43.2731" lon="6.68678">
        <ele>12.3</ele>
        <time>2023-05-24T09:26:42.000Z</time>
      </trkpt>
      <trkpt lat="43.2731" lon="6.68685">
        <ele>12.4</ele>
        <time>2023-05-24T09:26:52.000Z</time>
      </trkpt>
      <trkpt lat="43.27309" lon="6.68692">
        <ele>12.7</ele>
        <time>2023-05-24T09:26:58.000Z</time>
      </trkpt>
      <trkpt lat="43.27306" lon="6.68697">
        <ele>13</ele>
        <time>2023-05-24T09:27:06.000Z</time>
      </trkpt>
      <trkpt lat="43.27303" lon="6.68702">
        <ele>13.3</ele>
        <time>2023-05-24T09:27:12.000Z</time>
      </trkpt>
      <trkpt lat="43.27302" lon="6.68708">
        <ele>13.5</ele>
        <time>2023-05-24T09:27:19.000Z</time>
      </trkpt>
      <trkpt lat="43.27303" lon="6.68715">
        <ele>13.7</ele>
        <time>2023-05-24T09:27:28.000Z</time>
      </trkpt>
      <trkpt lat="43.27303" lon="6.68722">
        <ele>13.9</ele>
        <time>2023-05-24T09:27:35.000Z</time>
      </trkpt>
      <trkpt lat="43.273" lon="6.68727">
        <ele>14.2</ele>
        <time>2023-05-24T09:27:42.000Z</time>
      </trkpt>
      <trkpt lat="43.27298" lon="6.68733">
        <ele>14.4</ele>
        <time>2023-05-24T09:27:47.000Z</time>
      </trkpt>
      <trkpt lat="43.27296" lon="6.68739">
        <ele>14.6</ele>
        <time>2023-05-24T09:27:53.000Z</time>
      </trkpt>
      <trkpt lat="43.27297" lon="6.68745">
        <ele>14.3</ele>
        <time>2023-05-24T09:28:02.000Z</time>
      </trkpt>
      <trkpt lat="43.27298" lon="6.68753">
        <ele>14.1</ele>
        <time>2023-05-24T09:28:07.000Z</time>
      </trkpt>
      <trkpt lat="43.27296" lon="6.6876">
        <ele>13.9</ele>
        <time>2023-05-24T09:28:12.000Z</time>
      </trkpt>
      <trkpt lat="43.27294" lon="6.68767">
        <ele>14</ele>
        <time>2023-05-24T09:28:17.000Z</time>
      </trkpt>
      <trkpt lat="43.27294" lon="6.68774">
        <ele>14.1</ele>
        <time>2023-05-24T09:28:22.000Z</time>
      </trkpt>
      <trkpt lat="43.27291" lon="6.6878">
        <ele>14.2</ele>
        <time>2023-05-24T09:28:27.000Z</time>
      </trkpt>
      <trkpt lat="43.27289" lon="6.68786">
        <ele>14</ele>
        <time>2023-05-24T09:28:32.000Z</time>
      </trkpt>
      <trkpt lat="43.27287" lon="6.68793">
        <ele>14</ele>
        <time>2023-05-24T09:28:37.000Z</time>
      </trkpt>
      <trkpt lat="43.27284" lon="6.68798">
        <ele>14.1</ele>
        <time>2023-05-24T09:28:42.000Z</time>
      </trkpt>
      <trkpt lat="43.27281" lon="6.68803">
        <ele>14.2</ele>
        <time>2023-05-24T09:28:47.000Z</time>
      </trkpt>
      <trkpt lat="43.27279" lon="6.68809">
        <ele>14.3</ele>
        <time>2023-05-24T09:28:51.000Z</time>
      </trkpt>
      <trkpt lat="43.27276" lon="6.68817">
        <ele>14.4</ele>
        <time>2023-05-24T09:28:57.000Z</time>
      </trkpt>
      <trkpt lat="43.27273" lon="6.68823">
        <ele>14.3</ele>
        <time>2023-05-24T09:29:01.000Z</time>
      </trkpt>
      <trkpt lat="43.27274" lon="6.6883">
        <ele>14.2</ele>
        <time>2023-05-24T09:29:06.000Z</time>
      </trkpt>
      <trkpt lat="43.27273" lon="6.68837">
        <ele>14.2</ele>
        <time>2023-05-24T09:29:10.000Z</time>
      </trkpt>
      <trkpt lat="43.2727" lon="6.68843">
        <ele>14.2</ele>
        <time>2023-05-24T09:29:15.000Z</time>
      </trkpt>
      <trkpt lat="43.27267" lon="6.68849">
        <ele>14</ele>
        <time>2023-05-24T09:29:19.000Z</time>
      </trkpt>
      <trkpt lat="43.27266" lon="6.68855">
        <ele>14</ele>
        <time>2023-05-24T09:29:23.000Z</time>
      </trkpt>
      <trkpt lat="43.27264" lon="6.68861">
        <ele>14.1</ele>
        <time>2023-05-24T09:29:27.000Z</time>
      </trkpt>
      <trkpt lat="43.27261" lon="6.68867">
        <ele>14.1</ele>
        <time>2023-05-24T09:29:32.000Z</time>
      </trkpt>
      <trkpt lat="43.27258" lon="6.68873">
        <ele>14.3</ele>
        <time>2023-05-24T09:29:37.000Z</time>
      </trkpt>
      <trkpt lat="43.27256" lon="6.68879">
        <ele>14.7</ele>
        <time>2023-05-24T09:29:42.000Z</time>
      </trkpt>
      <trkpt lat="43.27253" lon="6.68885">
        <ele>14.9</ele>
        <time>2023-05-24T09:29:48.000Z</time>
      </trkpt>
      <trkpt lat="43.2725" lon="6.68889">
        <ele>15.1</ele>
        <time>2023-05-24T09:29:53.000Z</time>
      </trkpt>
      <trkpt lat="43.27245" lon="6.68891">
        <ele>15.2</ele>
        <time>2023-05-24T09:29:58.000Z</time>
      </trkpt>
      <trkpt lat="43.27241" lon="6.68894">
        <ele>15.4</ele>
        <time>2023-05-24T09:30:04.000Z</time>
      </trkpt>
      <trkpt lat="43.2724" lon="6.689">
        <ele>15.7</ele>
        <time>2023-05-24T09:30:30.000Z</time>
      </trkpt>
      <trkpt lat="43.27236" lon="6.68903">
        <ele>15.7</ele>
        <time>2023-05-24T09:30:36.000Z</time>
      </trkpt>
      <trkpt lat="43.27231" lon="6.68906">
        <ele>15.7</ele>
        <time>2023-05-24T09:30:43.000Z</time>
      </trkpt>
      <trkpt lat="43.27226" lon="6.68907">
        <ele>15.7</ele>
        <time>2023-05-24T09:30:47.000Z</time>
      </trkpt>
      <trkpt lat="43.27221" lon="6.68905">
        <ele>15.4</ele>
        <time>2023-05-24T09:30:53.000Z</time>
      </trkpt>
      <trkpt lat="43.27216" lon="6.68904">
        <ele>15</ele>
        <time>2023-05-24T09:31:00.000Z</time>
      </trkpt>
      <trkpt lat="43.27212" lon="6.68907">
        <ele>15</ele>
        <time>2023-05-24T09:31:06.000Z</time>
      </trkpt>
      <trkpt lat="43.27207" lon="6.68907">
        <ele>15.1</ele>
        <time>2023-05-24T09:31:10.000Z</time>
      </trkpt>
      <trkpt lat="43.27202" lon="6.68908">
        <ele>15.1</ele>
        <time>2023-05-24T09:31:14.000Z</time>
      </trkpt>
      <trkpt lat="43.27197" lon="6.68911">
        <ele>15.1</ele>
        <time>2023-05-24T09:31:19.000Z</time>
      </trkpt>
      <trkpt lat="43.27194" lon="6.68916">
        <ele>15.1</ele>
        <time>2023-05-24T09:31:27.000Z</time>
      </trkpt>
      <trkpt lat="43.2719" lon="6.6892">
        <ele>15</ele>
        <time>2023-05-24T09:31:40.000Z</time>
      </trkpt>
      <trkpt lat="43.27187" lon="6.68925">
        <ele>15</ele>
        <time>2023-05-24T09:31:46.000Z</time>
      </trkpt>
      <trkpt lat="43.27186" lon="6.68932">
        <ele>15</ele>
        <time>2023-05-24T09:31:52.000Z</time>
      </trkpt>
      <trkpt lat="43.27184" lon="6.68937">
        <ele>14.9</ele>
        <time>2023-05-24T09:31:56.000Z</time>
      </trkpt>
      <trkpt lat="43.2718" lon="6.68941">
        <ele>15</ele>
        <time>2023-05-24T09:32:00.000Z</time>
      </trkpt>
      <trkpt lat="43.27175" lon="6.68944">
        <ele>15</ele>
        <time>2023-05-24T09:32:04.000Z</time>
      </trkpt>
      <trkpt lat="43.27173" lon="6.68949">
        <ele>15</ele>
        <time>2023-05-24T09:32:08.000Z</time>
      </trkpt>
      <trkpt lat="43.2717" lon="6.68955">
        <ele>15.2</ele>
        <time>2023-05-24T09:32:12.000Z</time>
      </trkpt>
      <trkpt lat="43.27167" lon="6.6896">
        <ele>15.6</ele>
        <time>2023-05-24T09:32:25.000Z</time>
      </trkpt>
      <trkpt lat="43.27163" lon="6.68963">
        <ele>15.6</ele>
        <time>2023-05-24T09:32:44.000Z</time>
      </trkpt>
      <trkpt lat="43.27158" lon="6.68963">
        <ele>15.6</ele>
        <time>2023-05-24T09:32:50.000Z</time>
      </trkpt>
      <trkpt lat="43.27153" lon="6.68965">
        <ele>15.6</ele>
        <time>2023-05-24T09:33:02.000Z</time>
      </trkpt>
      <trkpt lat="43.27149" lon="6.68967">
        <ele>15.8</ele>
        <time>2023-05-24T09:33:10.000Z</time>
      </trkpt>
      <trkpt lat="43.27146" lon="6.68972">
        <ele>16.5</ele>
        <time>2023-05-24T09:33:20.000Z</time>
      </trkpt>
      <trkpt lat="43.27145" lon="6.68978">
        <ele>17.2</ele>
        <time>2023-05-24T09:33:38.000Z</time>
      </trkpt>
      <trkpt lat="43.27142" lon="6.68984">
        <ele>17.3</ele>
        <time>2023-05-24T09:33:48.000Z</time>
      </trkpt>
      <trkpt lat="43.27139" lon="6.68988">
        <ele>17.6</ele>
        <time>2023-05-24T09:33:57.000Z</time>
      </trkpt>
      <trkpt lat="43.27137" lon="6.68995">
        <ele>17.9</ele>
        <time>2023-05-24T09:34:07.000Z</time>
      </trkpt>
      <trkpt lat="43.27134" lon="6.68999">
        <ele>17.9</ele>
        <time>2023-05-24T09:34:12.000Z</time>
      </trkpt>
      <trkpt lat="43.27129" lon="6.69003">
        <ele>17.7</ele>
        <time>2023-05-24T09:34:18.000Z</time>
      </trkpt>
      <trkpt lat="43.27125" lon="6.69006">
        <ele>17.5</ele>
        <time>2023-05-24T09:34:22.000Z</time>
      </trkpt>
      <trkpt lat="43.2712" lon="6.6901">
        <ele>17.3</ele>
        <time>2023-05-24T09:34:27.000Z</time>
      </trkpt>
      <trkpt lat="43.27116" lon="6.69012">
        <ele>17.4</ele>
        <time>2023-05-24T09:34:31.000Z</time>
      </trkpt>
      <trkpt lat="43.27113" lon="6.69016">
        <ele>17.4</ele>
        <time>2023-05-24T09:34:36.000Z</time>
      </trkpt>
      <trkpt lat="43.27113" lon="6.69023">
        <ele>17.3</ele>
        <time>2023-05-24T09:34:45.000Z</time>
      </trkpt>
      <trkpt lat="43.27112" lon="6.6903">
        <ele>16.8</ele>
        <time>2023-05-24T09:34:53.000Z</time>
      </trkpt>
      <trkpt lat="43.2711" lon="6.69037">
        <ele>16.4</ele>
        <time>2023-05-24T09:34:57.000Z</time>
      </trkpt>
      <trkpt lat="43.27109" lon="6.69043">
        <ele>16.1</ele>
        <time>2023-05-24T09:35:02.000Z</time>
      </trkpt>
      <trkpt lat="43.27108" lon="6.69049">
        <ele>15.8</ele>
        <time>2023-05-24T09:35:08.000Z</time>
      </trkpt>
      <trkpt lat="43.27103" lon="6.69052">
        <ele>15.7</ele>
        <time>2023-05-24T09:35:16.000Z</time>
      </trkpt>
      <trkpt lat="43.27099" lon="6.69056">
        <ele>15.7</ele>
        <time>2023-05-24T09:35:23.000Z</time>
      </trkpt>
      <trkpt lat="43.27095" lon="6.69059">
        <ele>15.4</ele>
        <time>2023-05-24T09:35:28.000Z</time>
      </trkpt>
      <trkpt lat="43.27092" lon="6.69065">
        <ele>15.1</ele>
        <time>2023-05-24T09:35:33.000Z</time>
      </trkpt>
      <trkpt lat="43.27089" lon="6.6907">
        <ele>15</ele>
        <time>2023-05-24T09:35:40.000Z</time>
      </trkpt>
      <trkpt lat="43.27087" lon="6.69076">
        <ele>15</ele>
        <time>2023-05-24T09:35:46.000Z</time>
      </trkpt>
      <trkpt lat="43.27082" lon="6.69078">
        <ele>15</ele>
        <time>2023-05-24T09:35:53.000Z</time>
      </trkpt>
      <trkpt lat="43.27077" lon="6.69079">
        <ele>15.2</ele>
        <time>2023-05-24T09:36:00.000Z</time>
      </trkpt>
      <trkpt lat="43.27072" lon="6.69082">
        <ele>15.3</ele>
        <time>2023-05-24T09:36:05.000Z</time>
      </trkpt>
      <trkpt lat="43.27068" lon="6.69087">
        <ele>15.6</ele>
        <time>2023-05-24T09:36:11.000Z</time>
      </trkpt>
      <trkpt lat="43.27066" lon="6.69092">
        <ele>15.8</ele>
        <time>2023-05-24T09:36:17.000Z</time>
      </trkpt>
      <trkpt lat="43.27063" lon="6.69097">
        <ele>15.9</ele>
        <time>2023-05-24T09:36:22.000Z</time>
      </trkpt>
      <trkpt lat="43.27058" lon="6.69097">
        <ele>16</ele>
        <time>2023-05-24T09:36:27.000Z</time>
      </trkpt>
      <trkpt lat="43.27053" lon="6.69101">
        <ele>16</ele>
        <time>2023-05-24T09:36:33.000Z</time>
      </trkpt>
      <trkpt lat="43.27049" lon="6.69105">
        <ele>15.8</ele>
        <time>2023-05-24T09:36:39.000Z</time>
      </trkpt>
      <trkpt lat="43.27045" lon="6.69109">
        <ele>15.7</ele>
        <time>2023-05-24T09:36:45.000Z</time>
      </trkpt>
      <trkpt lat="43.27043" lon="6.69115">
        <ele>15.6</ele>
        <time>2023-05-24T09:36:50.000Z</time>
      </trkpt>
      <trkpt lat="43.27038" lon="6.69118">
        <ele>15.6</ele>
        <time>2023-05-24T09:36:55.000Z</time>
      </trkpt>
      <trkpt lat="43.27035" lon="6.69124">
        <ele>15.5</ele>
        <time>2023-05-24T09:37:00.000Z</time>
      </trkpt>
      <trkpt lat="43.27031" lon="6.69127">
        <ele>15.3</ele>
        <time>2023-05-24T09:37:05.000Z</time>
      </trkpt>
      <trkpt lat="43.27026" lon="6.69131">
        <ele>15.2</ele>
        <time>2023-05-24T09:37:10.000Z</time>
      </trkpt>
      <trkpt lat="43.27021" lon="6.69135">
        <ele>15.1</ele>
        <time>2023-05-24T09:37:15.000Z</time>
      </trkpt>
      <trkpt lat="43.27018" lon="6.69139">
        <ele>15</ele>
        <time>2023-05-24T09:37:19.000Z</time>
      </trkpt>
      <trkpt lat="43.27014" lon="6.69143">
        <ele>14.9</ele>
        <time>2023-05-24T09:37:22.000Z</time>
      </trkpt>
      <trkpt lat="43.2701" lon="6.69147">
        <ele>14.9</ele>
        <time>2023-05-24T09:37:26.000Z</time>
      </trkpt>
      <trkpt lat="43.27005" lon="6.69148">
        <ele>14.7</ele>
        <time>2023-05-24T09:37:31.000Z</time>
      </trkpt>
      <trkpt lat="43.27" lon="6.69148">
        <ele>14.7</ele>
        <time>2023-05-24T09:37:35.000Z</time>
      </trkpt>
      <trkpt lat="43.26997" lon="6.69153">
        <ele>14.6</ele>
        <time>2023-05-24T09:37:40.000Z</time>
      </trkpt>
      <trkpt lat="43.26994" lon="6.69159">
        <ele>14.5</ele>
        <time>2023-05-24T09:37:46.000Z</time>
      </trkpt>
      <trkpt lat="43.2699" lon="6.69163">
        <ele>14.1</ele>
        <time>2023-05-24T09:38:02.000Z</time>
      </trkpt>
      <trkpt lat="43.26986" lon="6.69165">
        <ele>14.6</ele>
        <time>2023-05-24T09:38:17.000Z</time>
      </trkpt>
      <trkpt lat="43.26983" lon="6.6917">
        <ele>14.8</ele>
        <time>2023-05-24T09:38:38.000Z</time>
      </trkpt>
      <trkpt lat="43.26979" lon="6.69173">
        <ele>14.7</ele>
        <time>2023-05-24T09:38:46.000Z</time>
      </trkpt>
      <trkpt lat="43.26974" lon="6.69177">
        <ele>14.7</ele>
        <time>2023-05-24T09:38:52.000Z</time>
      </trkpt>
      <trkpt lat="43.26971" lon="6.69182">
        <ele>14.4</ele>
        <time>2023-05-24T09:38:58.000Z</time>
      </trkpt>
      <trkpt lat="43.26969" lon="6.69187">
        <ele>14.3</ele>
        <time>2023-05-24T09:39:03.000Z</time>
      </trkpt>
      <trkpt lat="43.26964" lon="6.69192">
        <ele>14.2</ele>
        <time>2023-05-24T09:39:10.000Z</time>
      </trkpt>
      <trkpt lat="43.2696" lon="6.69195">
        <ele>14.2</ele>
        <time>2023-05-24T09:39:17.000Z</time>
      </trkpt>
      <trkpt lat="43.26957" lon="6.692">
        <ele>14.1</ele>
        <time>2023-05-24T09:39:24.000Z</time>
      </trkpt>
      <trkpt lat="43.26954" lon="6.69206">
        <ele>14.1</ele>
        <time>2023-05-24T09:39:30.000Z</time>
      </trkpt>
      <trkpt lat="43.2695" lon="6.69211">
        <ele>14.1</ele>
        <time>2023-05-24T09:39:35.000Z</time>
      </trkpt>
      <trkpt lat="43.26948" lon="6.69218">
        <ele>14.1</ele>
        <time>2023-05-24T09:39:40.000Z</time>
      </trkpt>
      <trkpt lat="43.26944" lon="6.69222">
        <ele>14.4</ele>
        <time>2023-05-24T09:39:47.000Z</time>
      </trkpt>
      <trkpt lat="43.26941" lon="6.69226">
        <ele>15</ele>
        <time>2023-05-24T09:39:54.000Z</time>
      </trkpt>
      <trkpt lat="43.26937" lon="6.69229">
        <ele>15.5</ele>
        <time>2023-05-24T09:39:59.000Z</time>
      </trkpt>
      <trkpt lat="43.26933" lon="6.69233">
        <ele>15.9</ele>
        <time>2023-05-24T09:40:04.000Z</time>
      </trkpt>
      <trkpt lat="43.26929" lon="6.69238">
        <ele>16.1</ele>
        <time>2023-05-24T09:40:09.000Z</time>
      </trkpt>
      <trkpt lat="43.26926" lon="6.69242">
        <ele>16.5</ele>
        <time>2023-05-24T09:40:14.000Z</time>
      </trkpt>
      <trkpt lat="43.26923" lon="6.69248">
        <ele>16.6</ele>
        <time>2023-05-24T09:40:19.000Z</time>
      </trkpt>
      <trkpt lat="43.26919" lon="6.69253">
        <ele>16.3</ele>
        <time>2023-05-24T09:40:24.000Z</time>
      </trkpt>
      <trkpt lat="43.26916" lon="6.69258">
        <ele>16.1</ele>
        <time>2023-05-24T09:40:29.000Z</time>
      </trkpt>
      <trkpt lat="43.26912" lon="6.69262">
        <ele>15.8</ele>
        <time>2023-05-24T09:40:34.000Z</time>
      </trkpt>
      <trkpt lat="43.26908" lon="6.69266">
        <ele>15.4</ele>
        <time>2023-05-24T09:40:39.000Z</time>
      </trkpt>
      <trkpt lat="43.26904" lon="6.6927">
        <ele>15.2</ele>
        <time>2023-05-24T09:40:44.000Z</time>
      </trkpt>
      <trkpt lat="43.269" lon="6.69273">
        <ele>15</ele>
        <time>2023-05-24T09:40:49.000Z</time>
      </trkpt>
      <trkpt lat="43.26897" lon="6.69278">
        <ele>14.7</ele>
        <time>2023-05-24T09:40:54.000Z</time>
      </trkpt>
      <trkpt lat="43.26894" lon="6.69283">
        <ele>14.4</ele>
        <time>2023-05-24T09:40:59.000Z</time>
      </trkpt>
      <trkpt lat="43.2689" lon="6.69287">
        <ele>14.4</ele>
        <time>2023-05-24T09:41:05.000Z</time>
      </trkpt>
      <trkpt lat="43.26885" lon="6.69289">
        <ele>14.4</ele>
        <time>2023-05-24T09:41:10.000Z</time>
      </trkpt>
      <trkpt lat="43.2688" lon="6.6929">
        <ele>14.3</ele>
        <time>2023-05-24T09:41:15.000Z</time>
      </trkpt>
      <trkpt lat="43.26874" lon="6.6929">
        <ele>14</ele>
        <time>2023-05-24T09:41:20.000Z</time>
      </trkpt>
      <trkpt lat="43.26869" lon="6.69292">
        <ele>13.7</ele>
        <time>2023-05-24T09:41:25.000Z</time>
      </trkpt>
      <trkpt lat="43.26865" lon="6.69296">
        <ele>13.5</ele>
        <time>2023-05-24T09:41:33.000Z</time>
      </trkpt>
      <trkpt lat="43.26861" lon="6.69301">
        <ele>13.3</ele>
        <time>2023-05-24T09:41:38.000Z</time>
      </trkpt>
      <trkpt lat="43.26856" lon="6.69303">
        <ele>13.1</ele>
        <time>2023-05-24T09:41:42.000Z</time>
      </trkpt>
      <trkpt lat="43.26852" lon="6.69304">
        <ele>12.8</ele>
        <time>2023-05-24T09:41:46.000Z</time>
      </trkpt>
      <trkpt lat="43.26847" lon="6.69307">
        <ele>12.4</ele>
        <time>2023-05-24T09:41:51.000Z</time>
      </trkpt>
      <trkpt lat="43.26843" lon="6.6931">
        <ele>12.1</ele>
        <time>2023-05-24T09:41:56.000Z</time>
      </trkpt>
      <trkpt lat="43.2684" lon="6.69316">
        <ele>12.9</ele>
        <time>2023-05-24T09:42:21.000Z</time>
      </trkpt>
      <trkpt lat="43.26838" lon="6.69321">
        <ele>13.4</ele>
        <time>2023-05-24T09:42:41.000Z</time>
      </trkpt>
      <trkpt lat="43.26835" lon="6.69326">
        <ele>13.5</ele>
        <time>2023-05-24T09:42:47.000Z</time>
      </trkpt>
      <trkpt lat="43.26832" lon="6.69332">
        <ele>13.7</ele>
        <time>2023-05-24T09:42:52.000Z</time>
      </trkpt>
      <trkpt lat="43.26828" lon="6.69338">
        <ele>13.9</ele>
        <time>2023-05-24T09:42:59.000Z</time>
      </trkpt>
      <trkpt lat="43.26826" lon="6.69344">
        <ele>14</ele>
        <time>2023-05-24T09:43:04.000Z</time>
      </trkpt>
      <trkpt lat="43.26824" lon="6.6935">
        <ele>13.7</ele>
        <time>2023-05-24T09:43:10.000Z</time>
      </trkpt>
      <trkpt lat="43.2682" lon="6.69354">
        <ele>13.7</ele>
        <time>2023-05-24T09:43:15.000Z</time>
      </trkpt>
      <trkpt lat="43.26817" lon="6.6936">
        <ele>13.8</ele>
        <time>2023-05-24T09:43:20.000Z</time>
      </trkpt>
      <trkpt lat="43.26814" lon="6.69366">
        <ele>13.8</ele>
        <time>2023-05-24T09:43:26.000Z</time>
      </trkpt>
      <trkpt lat="43.26814" lon="6.69373">
        <ele>13.8</ele>
        <time>2023-05-24T09:43:31.000Z</time>
      </trkpt>
      <trkpt lat="43.26814" lon="6.69379">
        <ele>13.9</ele>
        <time>2023-05-24T09:43:36.000Z</time>
      </trkpt>
      <trkpt lat="43.26812" lon="6.69385">
        <ele>13.7</ele>
        <time>2023-05-24T09:43:41.000Z</time>
      </trkpt>
      <trkpt lat="43.26809" lon="6.69391">
        <ele>13.5</ele>
        <time>2023-05-24T09:43:46.000Z</time>
      </trkpt>
      <trkpt lat="43.26807" lon="6.69398">
        <ele>13.2</ele>
        <time>2023-05-24T09:43:52.000Z</time>
      </trkpt>
      <trkpt lat="43.26803" lon="6.69402">
        <ele>13</ele>
        <time>2023-05-24T09:43:57.000Z</time>
      </trkpt>
      <trkpt lat="43.26799" lon="6.69407">
        <ele>12.8</ele>
        <time>2023-05-24T09:44:03.000Z</time>
      </trkpt>
      <trkpt lat="43.26795" lon="6.6941">
        <ele>12.3</ele>
        <time>2023-05-24T09:44:09.000Z</time>
      </trkpt>
      <trkpt lat="43.26791" lon="6.69414">
        <ele>11.7</ele>
        <time>2023-05-24T09:44:16.000Z</time>
      </trkpt>
      <trkpt lat="43.26786" lon="6.69418">
        <ele>11.3</ele>
        <time>2023-05-24T09:44:22.000Z</time>
      </trkpt>
      <trkpt lat="43.26783" lon="6.69422">
        <ele>10.8</ele>
        <time>2023-05-24T09:44:30.000Z</time>
      </trkpt>
      <trkpt lat="43.26778" lon="6.69425">
        <ele>10.4</ele>
        <time>2023-05-24T09:44:39.000Z</time>
      </trkpt>
      <trkpt lat="43.26773" lon="6.69425">
        <ele>10.1</ele>
        <time>2023-05-24T09:44:46.000Z</time>
      </trkpt>
      <trkpt lat="43.26769" lon="6.69426">
        <ele>9.8</ele>
        <time>2023-05-24T09:44:54.000Z</time>
      </trkpt>
      <trkpt lat="43.26764" lon="6.69428">
        <ele>9.6</ele>
        <time>2023-05-24T09:45:00.000Z</time>
      </trkpt>
      <trkpt lat="43.2676" lon="6.69431">
        <ele>9.6</ele>
        <time>2023-05-24T09:45:06.000Z</time>
      </trkpt>
      <trkpt lat="43.26755" lon="6.69434">
        <ele>9.8</ele>
        <time>2023-05-24T09:45:12.000Z</time>
      </trkpt>
      <trkpt lat="43.26751" lon="6.69437">
        <ele>9.9</ele>
        <time>2023-05-24T09:45:17.000Z</time>
      </trkpt>
      <trkpt lat="43.26747" lon="6.69441">
        <ele>10.1</ele>
        <time>2023-05-24T09:45:23.000Z</time>
      </trkpt>
      <trkpt lat="43.26743" lon="6.69444">
        <ele>10.2</ele>
        <time>2023-05-24T09:45:28.000Z</time>
      </trkpt>
      <trkpt lat="43.26738" lon="6.69448">
        <ele>10.3</ele>
        <time>2023-05-24T09:45:35.000Z</time>
      </trkpt>
      <trkpt lat="43.26734" lon="6.69453">
        <ele>10.4</ele>
        <time>2023-05-24T09:45:41.000Z</time>
      </trkpt>
      <trkpt lat="43.26729" lon="6.69457">
        <ele>10.6</ele>
        <time>2023-05-24T09:45:46.000Z</time>
      </trkpt>
      <trkpt lat="43.26726" lon="6.69461">
        <ele>10.6</ele>
        <time>2023-05-24T09:45:51.000Z</time>
      </trkpt>
      <trkpt lat="43.26721" lon="6.69465">
        <ele>10.6</ele>
        <time>2023-05-24T09:45:55.000Z</time>
      </trkpt>
      <trkpt lat="43.26717" lon="6.6947">
        <ele>10.5</ele>
        <time>2023-05-24T09:46:00.000Z</time>
      </trkpt>
      <trkpt lat="43.26714" lon="6.69475">
        <ele>10.6</ele>
        <time>2023-05-24T09:46:05.000Z</time>
      </trkpt>
      <trkpt lat="43.2671" lon="6.69479">
        <ele>10.7</ele>
        <time>2023-05-24T09:46:10.000Z</time>
      </trkpt>
      <trkpt lat="43.26707" lon="6.69485">
        <ele>10.8</ele>
        <time>2023-05-24T09:46:15.000Z</time>
      </trkpt>
      <trkpt lat="43.26703" lon="6.69488">
        <ele>10.7</ele>
        <time>2023-05-24T09:46:21.000Z</time>
      </trkpt>
      <trkpt lat="43.267" lon="6.69493">
        <ele>10.7</ele>
        <time>2023-05-24T09:46:26.000Z</time>
      </trkpt>
      <trkpt lat="43.26697" lon="6.69498">
        <ele>10.6</ele>
        <time>2023-05-24T09:46:31.000Z</time>
      </trkpt>
      <trkpt lat="43.26694" lon="6.69503">
        <ele>10.6</ele>
        <time>2023-05-24T09:46:36.000Z</time>
      </trkpt>
      <trkpt lat="43.2669" lon="6.69509">
        <ele>10.5</ele>
        <time>2023-05-24T09:46:41.000Z</time>
      </trkpt>
      <trkpt lat="43.26687" lon="6.69514">
        <ele>10.8</ele>
        <time>2023-05-24T09:46:46.000Z</time>
      </trkpt>
      <trkpt lat="43.26684" lon="6.69519">
        <ele>10.9</ele>
        <time>2023-05-24T09:46:50.000Z</time>
      </trkpt>
      <trkpt lat="43.2668" lon="6.69524">
        <ele>10.9</ele>
        <time>2023-05-24T09:46:55.000Z</time>
      </trkpt>
      <trkpt lat="43.26677" lon="6.69529">
        <ele>10.8</ele>
        <time>2023-05-24T09:47:00.000Z</time>
      </trkpt>
      <trkpt lat="43.26673" lon="6.69533">
        <ele>10.7</ele>
        <time>2023-05-24T09:47:05.000Z</time>
      </trkpt>
      <trkpt lat="43.2667" lon="6.69539">
        <ele>10.7</ele>
        <time>2023-05-24T09:47:10.000Z</time>
      </trkpt>
      <trkpt lat="43.26667" lon="6.69543">
        <ele>10.7</ele>
        <time>2023-05-24T09:47:15.000Z</time>
      </trkpt>
      <trkpt lat="43.26663" lon="6.69548">
        <ele>10.8</ele>
        <time>2023-05-24T09:47:21.000Z</time>
      </trkpt>
      <trkpt lat="43.26664" lon="6.69554">
        <ele>11</ele>
        <time>2023-05-24T09:47:57.000Z</time>
      </trkpt>
      <trkpt lat="43.26662" lon="6.6956">
        <ele>11.1</ele>
        <time>2023-05-24T09:48:05.000Z</time>
      </trkpt>
      <trkpt lat="43.26659" lon="6.69565">
        <ele>11.2</ele>
        <time>2023-05-24T09:48:12.000Z</time>
      </trkpt>
      <trkpt lat="43.26657" lon="6.69572">
        <ele>11.1</ele>
        <time>2023-05-24T09:48:18.000Z</time>
      </trkpt>
      <trkpt lat="43.26655" lon="6.69577">
        <ele>11.2</ele>
        <time>2023-05-24T09:48:25.000Z</time>
      </trkpt>
      <trkpt lat="43.26653" lon="6.69584">
        <ele>11.4</ele>
        <time>2023-05-24T09:48:34.000Z</time>
      </trkpt>
      <trkpt lat="43.26652" lon="6.6959">
        <ele>11.3</ele>
        <time>2023-05-24T09:48:39.000Z</time>
      </trkpt>
      <trkpt lat="43.26651" lon="6.69596">
        <ele>11.1</ele>
        <time>2023-05-24T09:48:43.000Z</time>
      </trkpt>
      <trkpt lat="43.26651" lon="6.69603">
        <ele>11</ele>
        <time>2023-05-24T09:48:48.000Z</time>
      </trkpt>
      <trkpt lat="43.26649" lon="6.69609">
        <ele>10.9</ele>
        <time>2023-05-24T09:48:54.000Z</time>
      </trkpt>
      <trkpt lat="43.26648" lon="6.69615">
        <ele>10.9</ele>
        <time>2023-05-24T09:49:00.000Z</time>
      </trkpt>
      <trkpt lat="43.26648" lon="6.69621">
        <ele>10.8</ele>
        <time>2023-05-24T09:49:08.000Z</time>
      </trkpt>
      <trkpt lat="43.26645" lon="6.69626">
        <ele>10.7</ele>
        <time>2023-05-24T09:49:21.000Z</time>
      </trkpt>
      <trkpt lat="43.26646" lon="6.69633">
        <ele>10.6</ele>
        <time>2023-05-24T09:49:39.000Z</time>
      </trkpt>
      <trkpt lat="43.26648" lon="6.69638">
        <ele>10.3</ele>
        <time>2023-05-24T09:49:46.000Z</time>
      </trkpt>
      <trkpt lat="43.26649" lon="6.69645">
        <ele>10.1</ele>
        <time>2023-05-24T09:49:51.000Z</time>
      </trkpt>
      <trkpt lat="43.26649" lon="6.69651">
        <ele>10</ele>
        <time>2023-05-24T09:49:57.000Z</time>
      </trkpt>
      <trkpt lat="43.26649" lon="6.69658">
        <ele>9.9</ele>
        <time>2023-05-24T09:50:03.000Z</time>
      </trkpt>
      <trkpt lat="43.26648" lon="6.69664">
        <ele>10</ele>
        <time>2023-05-24T09:50:08.000Z</time>
      </trkpt>
      <trkpt lat="43.26648" lon="6.69671">
        <ele>10</ele>
        <time>2023-05-24T09:50:13.000Z</time>
      </trkpt>
      <trkpt lat="43.26648" lon="6.69678">
        <ele>9.8</ele>
        <time>2023-05-24T09:50:19.000Z</time>
      </trkpt>
      <trkpt lat="43.26648" lon="6.69685">
        <ele>9.7</ele>
        <time>2023-05-24T09:50:25.000Z</time>
      </trkpt>
      <trkpt lat="43.26648" lon="6.69692">
        <ele>9.7</ele>
        <time>2023-05-24T09:50:31.000Z</time>
      </trkpt>
      <trkpt lat="43.26648" lon="6.69699">
        <ele>9.7</ele>
        <time>2023-05-24T09:50:38.000Z</time>
      </trkpt>
      <trkpt lat="43.26649" lon="6.69706">
        <ele>9.8</ele>
        <time>2023-05-24T09:50:45.000Z</time>
      </trkpt>
      <trkpt lat="43.2665" lon="6.69712">
        <ele>9.8</ele>
        <time>2023-05-24T09:50:52.000Z</time>
      </trkpt>
      <trkpt lat="43.26651" lon="6.69718">
        <ele>9.8</ele>
        <time>2023-05-24T09:50:57.000Z</time>
      </trkpt>
      <trkpt lat="43.26652" lon="6.69726">
        <ele>9.8</ele>
        <time>2023-05-24T09:51:03.000Z</time>
      </trkpt>
      <trkpt lat="43.26652" lon="6.69733">
        <ele>9.8</ele>
        <time>2023-05-24T09:51:10.000Z</time>
      </trkpt>
      <trkpt lat="43.2665" lon="6.69739">
        <ele>9.9</ele>
        <time>2023-05-24T09:51:17.000Z</time>
      </trkpt>
      <trkpt lat="43.26647" lon="6.69744">
        <ele>10.1</ele>
        <time>2023-05-24T09:51:24.000Z</time>
      </trkpt>
      <trkpt lat="43.26644" lon="6.6975">
        <ele>10.2</ele>
        <time>2023-05-24T09:51:31.000Z</time>
      </trkpt>
      <trkpt lat="43.2664" lon="6.69753">
        <ele>10.1</ele>
        <time>2023-05-24T09:51:39.000Z</time>
      </trkpt>
      <trkpt lat="43.26636" lon="6.69756">
        <ele>9.9</ele>
        <time>2023-05-24T09:52:15.000Z</time>
      </trkpt>
      <trkpt lat="43.26631" lon="6.69756">
        <ele>10.2</ele>
        <time>2023-05-24T09:53:38.000Z</time>
      </trkpt>
      <trkpt lat="43.26627" lon="6.69755">
        <ele>10.1</ele>
        <time>2023-05-24T09:53:44.000Z</time>
      </trkpt>
      <trkpt lat="43.26623" lon="6.69752">
        <ele>10</ele>
        <time>2023-05-24T09:53:51.000Z</time>
      </trkpt>
      <trkpt lat="43.26619" lon="6.69748">
        <ele>10</ele>
        <time>2023-05-24T09:53:59.000Z</time>
      </trkpt>
      <trkpt lat="43.26615" lon="6.69744">
        <ele>10</ele>
        <time>2023-05-24T09:54:07.000Z</time>
      </trkpt>
      <trkpt lat="43.2661" lon="6.69742">
        <ele>10.1</ele>
        <time>2023-05-24T09:54:19.000Z</time>
      </trkpt>
      <trkpt lat="43.26605" lon="6.69739">
        <ele>10.5</ele>
        <time>2023-05-24T09:54:26.000Z</time>
      </trkpt>
      <trkpt lat="43.26601" lon="6.69737">
        <ele>10.8</ele>
        <time>2023-05-24T09:54:31.000Z</time>
      </trkpt>
      <trkpt lat="43.26597" lon="6.69734">
        <ele>11.4</ele>
        <time>2023-05-24T09:54:42.000Z</time>
      </trkpt>
      <trkpt lat="43.26593" lon="6.6973">
        <ele>11.7</ele>
        <time>2023-05-24T09:54:49.000Z</time>
      </trkpt>
      <trkpt lat="43.26589" lon="6.69728">
        <ele>11.9</ele>
        <time>2023-05-24T09:54:57.000Z</time>
      </trkpt>
      <trkpt lat="43.26585" lon="6.69724">
        <ele>12.3</ele>
        <time>2023-05-24T09:55:03.000Z</time>
      </trkpt>
      <trkpt lat="43.26582" lon="6.69719">
        <ele>12.5</ele>
        <time>2023-05-24T09:55:08.000Z</time>
      </trkpt>
      <trkpt lat="43.26578" lon="6.69714">
        <ele>12.9</ele>
        <time>2023-05-24T09:55:14.000Z</time>
      </trkpt>
      <trkpt lat="43.26574" lon="6.69709">
        <ele>13.2</ele>
        <time>2023-05-24T09:55:20.000Z</time>
      </trkpt>
      <trkpt lat="43.2657" lon="6.69705">
        <ele>13.5</ele>
        <time>2023-05-24T09:55:26.000Z</time>
      </trkpt>
      <trkpt lat="43.26565" lon="6.69703">
        <ele>13.7</ele>
        <time>2023-05-24T09:55:37.000Z</time>
      </trkpt>
      <trkpt lat="43.2656" lon="6.697">
        <ele>13.5</ele>
        <time>2023-05-24T09:55:42.000Z</time>
      </trkpt>
      <trkpt lat="43.26556" lon="6.69698">
        <ele>13.3</ele>
        <time>2023-05-24T09:55:47.000Z</time>
      </trkpt>
      <trkpt lat="43.2655" lon="6.69697">
        <ele>13.2</ele>
        <time>2023-05-24T09:55:52.000Z</time>
      </trkpt>
      <trkpt lat="43.26545" lon="6.69696">
        <ele>12.9</ele>
        <time>2023-05-24T09:55:57.000Z</time>
      </trkpt>
      <trkpt lat="43.2654" lon="6.69695">
        <ele>12.7</ele>
        <time>2023-05-24T09:56:01.000Z</time>
      </trkpt>
      <trkpt lat="43.26535" lon="6.69693">
        <ele>12.5</ele>
        <time>2023-05-24T09:56:06.000Z</time>
      </trkpt>
      <trkpt lat="43.2653" lon="6.69692">
        <ele>12.3</ele>
        <time>2023-05-24T09:56:11.000Z</time>
      </trkpt>
      <trkpt lat="43.26525" lon="6.69691">
        <ele>12.3</ele>
        <time>2023-05-24T09:56:16.000Z</time>
      </trkpt>
      <trkpt lat="43.2652" lon="6.6969">
        <ele>12.5</ele>
        <time>2023-05-24T09:56:22.000Z</time>
      </trkpt>
      <trkpt lat="43.26515" lon="6.69689">
        <ele>12.5</ele>
        <time>2023-05-24T09:56:27.000Z</time>
      </trkpt>
      <trkpt lat="43.26511" lon="6.69688">
        <ele>12.5</ele>
        <time>2023-05-24T09:56:32.000Z</time>
      </trkpt>
      <trkpt lat="43.26506" lon="6.69686">
        <ele>12.7</ele>
        <time>2023-05-24T09:56:39.000Z</time>
      </trkpt>
      <trkpt lat="43.26501" lon="6.69686">
        <ele>13</ele>
        <time>2023-05-24T09:56:48.000Z</time>
      </trkpt>
      <trkpt lat="43.26497" lon="6.69686">
        <ele>13</ele>
        <time>2023-05-24T09:56:55.000Z</time>
      </trkpt>
      <trkpt lat="43.26492" lon="6.69685">
        <ele>12.7</ele>
        <time>2023-05-24T09:57:01.000Z</time>
      </trkpt>
      <trkpt lat="43.26487" lon="6.69683">
        <ele>12.6</ele>
        <time>2023-05-24T09:57:10.000Z</time>
      </trkpt>
      <trkpt lat="43.26482" lon="6.69683">
        <ele>12.9</ele>
        <time>2023-05-24T09:57:16.000Z</time>
      </trkpt>
      <trkpt lat="43.26478" lon="6.69682">
        <ele>13.2</ele>
        <time>2023-05-24T09:57:23.000Z</time>
      </trkpt>
      <trkpt lat="43.26473" lon="6.69682">
        <ele>13.3</ele>
        <time>2023-05-24T09:57:31.000Z</time>
      </trkpt>
      <trkpt lat="43.26468" lon="6.69683">
        <ele>13.3</ele>
        <time>2023-05-24T09:57:37.000Z</time>
      </trkpt>
      <trkpt lat="43.26463" lon="6.69685">
        <ele>13.2</ele>
        <time>2023-05-24T09:57:44.000Z</time>
      </trkpt>
      <trkpt lat="43.26458" lon="6.69686">
        <ele>13.2</ele>
        <time>2023-05-24T09:57:49.000Z</time>
      </trkpt>
      <trkpt lat="43.26453" lon="6.69687">
        <ele>13.5</ele>
        <time>2023-05-24T09:57:54.000Z</time>
      </trkpt>
      <trkpt lat="43.26448" lon="6.69688">
        <ele>13.7</ele>
        <time>2023-05-24T09:57:59.000Z</time>
      </trkpt>
      <trkpt lat="43.26443" lon="6.69689">
        <ele>14</ele>
        <time>2023-05-24T09:58:06.000Z</time>
      </trkpt>
      <trkpt lat="43.26438" lon="6.6969">
        <ele>14.2</ele>
        <time>2023-05-24T09:58:11.000Z</time>
      </trkpt>
      <trkpt lat="43.26434" lon="6.69694">
        <ele>14</ele>
        <time>2023-05-24T09:58:17.000Z</time>
      </trkpt>
      <trkpt lat="43.2643" lon="6.69698">
        <ele>13.8</ele>
        <time>2023-05-24T09:58:22.000Z</time>
      </trkpt>
      <trkpt lat="43.26424" lon="6.69698">
        <ele>13.6</ele>
        <time>2023-05-24T09:58:27.000Z</time>
      </trkpt>
      <trkpt lat="43.26419" lon="6.69696">
        <ele>13.4</ele>
        <time>2023-05-24T09:58:32.000Z</time>
      </trkpt>
      <trkpt lat="43.26415" lon="6.69695">
        <ele>13.3</ele>
        <time>2023-05-24T09:58:37.000Z</time>
      </trkpt>
      <trkpt lat="43.2641" lon="6.69694">
        <ele>13.2</ele>
        <time>2023-05-24T09:58:42.000Z</time>
      </trkpt>
      <trkpt lat="43.26405" lon="6.6969">
        <ele>13.2</ele>
        <time>2023-05-24T09:58:48.000Z</time>
      </trkpt>
      <trkpt lat="43.264" lon="6.69688">
        <ele>13.1</ele>
        <time>2023-05-24T09:58:54.000Z</time>
      </trkpt>
      <trkpt lat="43.26396" lon="6.69687">
        <ele>12.9</ele>
        <time>2023-05-24T09:58:59.000Z</time>
      </trkpt>
      <trkpt lat="43.2639" lon="6.69685">
        <ele>12.6</ele>
        <time>2023-05-24T09:59:05.000Z</time>
      </trkpt>
      <trkpt lat="43.26385" lon="6.69685">
        <ele>12.5</ele>
        <time>2023-05-24T09:59:10.000Z</time>
      </trkpt>
      <trkpt lat="43.2638" lon="6.69684">
        <ele>12.7</ele>
        <time>2023-05-24T09:59:15.000Z</time>
      </trkpt>
      <trkpt lat="43.26375" lon="6.69684">
        <ele>12.8</ele>
        <time>2023-05-24T09:59:21.000Z</time>
      </trkpt>
      <trkpt lat="43.26369" lon="6.69682">
        <ele>12.9</ele>
        <time>2023-05-24T09:59:26.000Z</time>
      </trkpt>
      <trkpt lat="43.26365" lon="6.6968">
        <ele>13</ele>
        <time>2023-05-24T09:59:31.000Z</time>
      </trkpt>
      <trkpt lat="43.2636" lon="6.69678">
        <ele>12.8</ele>
        <time>2023-05-24T09:59:35.000Z</time>
      </trkpt>
      <trkpt lat="43.26355" lon="6.69676">
        <ele>12.7</ele>
        <time>2023-05-24T09:59:41.000Z</time>
      </trkpt>
      <trkpt lat="43.2635" lon="6.69674">
        <ele>12.8</ele>
        <time>2023-05-24T09:59:47.000Z</time>
      </trkpt>
      <trkpt lat="43.26346" lon="6.69671">
        <ele>12.8</ele>
        <time>2023-05-24T09:59:52.000Z</time>
      </trkpt>
      <trkpt lat="43.26342" lon="6.69666">
        <ele>12.9</ele>
        <time>2023-05-24T09:59:57.000Z</time>
      </trkpt>
      <trkpt lat="43.26337" lon="6.69663">
        <ele>13</ele>
        <time>2023-05-24T10:00:02.000Z</time>
      </trkpt>
      <trkpt lat="43.26333" lon="6.69659">
        <ele>13.1</ele>
        <time>2023-05-24T10:00:08.000Z</time>
      </trkpt>
      <trkpt lat="43.2633" lon="6.69654">
        <ele>13.3</ele>
        <time>2023-05-24T10:00:14.000Z</time>
      </trkpt>
      <trkpt lat="43.26326" lon="6.69649">
        <ele>13.4</ele>
        <time>2023-05-24T10:00:20.000Z</time>
      </trkpt>
      <trkpt lat="43.26323" lon="6.69644">
        <ele>13.7</ele>
        <time>2023-05-24T10:00:27.000Z</time>
      </trkpt>
      <trkpt lat="43.26319" lon="6.6964">
        <ele>14.1</ele>
        <time>2023-05-24T10:00:35.000Z</time>
      </trkpt>
      <trkpt lat="43.26314" lon="6.69641">
        <ele>14.7</ele>
        <time>2023-05-24T10:02:39.000Z</time>
      </trkpt>
      <trkpt lat="43.26312" lon="6.69634">
        <ele>14.5</ele>
        <time>2023-05-24T10:03:14.000Z</time>
      </trkpt>
      <trkpt lat="43.26309" lon="6.69629">
        <ele>14.2</ele>
        <time>2023-05-24T10:03:26.000Z</time>
      </trkpt>
      <trkpt lat="43.26305" lon="6.69624">
        <ele>14.2</ele>
        <time>2023-05-24T10:03:32.000Z</time>
      </trkpt>
      <trkpt lat="43.26301" lon="6.69619">
        <ele>14</ele>
        <time>2023-05-24T10:03:37.000Z</time>
      </trkpt>
      <trkpt lat="43.26297" lon="6.69615">
        <ele>13.8</ele>
        <time>2023-05-24T10:03:42.000Z</time>
      </trkpt>
      <trkpt lat="43.26293" lon="6.69611">
        <ele>13.5</ele>
        <time>2023-05-24T10:03:47.000Z</time>
      </trkpt>
      <trkpt lat="43.26291" lon="6.69605">
        <ele>13.4</ele>
        <time>2023-05-24T10:03:52.000Z</time>
      </trkpt>
      <trkpt lat="43.26291" lon="6.69599">
        <ele>13</ele>
        <time>2023-05-24T10:03:58.000Z</time>
      </trkpt>
      <trkpt lat="43.26288" lon="6.69594">
        <ele>12.6</ele>
        <time>2023-05-24T10:04:04.000Z</time>
      </trkpt>
      <trkpt lat="43.26284" lon="6.6959">
        <ele>12.4</ele>
        <time>2023-05-24T10:04:09.000Z</time>
      </trkpt>
      <trkpt lat="43.2628" lon="6.69584">
        <ele>12.2</ele>
        <time>2023-05-24T10:04:15.000Z</time>
      </trkpt>
      <trkpt lat="43.26277" lon="6.69579">
        <ele>12.1</ele>
        <time>2023-05-24T10:04:20.000Z</time>
      </trkpt>
      <trkpt lat="43.26274" lon="6.69573">
        <ele>12</ele>
        <time>2023-05-24T10:04:25.000Z</time>
      </trkpt>
      <trkpt lat="43.26271" lon="6.69569">
        <ele>12</ele>
        <time>2023-05-24T10:04:31.000Z</time>
      </trkpt>
      <trkpt lat="43.26269" lon="6.69563">
        <ele>12</ele>
        <time>2023-05-24T10:04:39.000Z</time>
      </trkpt>
      <trkpt lat="43.26266" lon="6.69558">
        <ele>12.3</ele>
        <time>2023-05-24T10:04:46.000Z</time>
      </trkpt>
      <trkpt lat="43.26263" lon="6.69552">
        <ele>12.6</ele>
        <time>2023-05-24T10:04:53.000Z</time>
      </trkpt>
      <trkpt lat="43.26259" lon="6.69548">
        <ele>12.9</ele>
        <time>2023-05-24T10:04:59.000Z</time>
      </trkpt>
      <trkpt lat="43.26253" lon="6.69546">
        <ele>13</ele>
        <time>2023-05-24T10:05:07.000Z</time>
      </trkpt>
      <trkpt lat="43.26249" lon="6.69546">
        <ele>12.9</ele>
        <time>2023-05-24T10:05:11.000Z</time>
      </trkpt>
      <trkpt lat="43.26244" lon="6.69545">
        <ele>12.8</ele>
        <time>2023-05-24T10:05:16.000Z</time>
      </trkpt>
      <trkpt lat="43.26239" lon="6.69546">
        <ele>12.8</ele>
        <time>2023-05-24T10:05:21.000Z</time>
      </trkpt>
      <trkpt lat="43.26235" lon="6.69548">
        <ele>12.9</ele>
        <time>2023-05-24T10:05:26.000Z</time>
      </trkpt>
      <trkpt lat="43.2623" lon="6.6955">
        <ele>12.9</ele>
        <time>2023-05-24T10:05:33.000Z</time>
      </trkpt>
      <trkpt lat="43.26226" lon="6.69552">
        <ele>12.4</ele>
        <time>2023-05-24T10:05:43.000Z</time>
      </trkpt>
      <trkpt lat="43.26221" lon="6.69553">
        <ele>12.2</ele>
        <time>2023-05-24T10:05:50.000Z</time>
      </trkpt>
      <trkpt lat="43.26216" lon="6.69554">
        <ele>12.2</ele>
        <time>2023-05-24T10:05:55.000Z</time>
      </trkpt>
      <trkpt lat="43.26211" lon="6.69555">
        <ele>12.2</ele>
        <time>2023-05-24T10:06:00.000Z</time>
      </trkpt>
      <trkpt lat="43.26207" lon="6.69556">
        <ele>12.5</ele>
        <time>2023-05-24T10:06:06.000Z</time>
      </trkpt>
      <trkpt lat="43.26202" lon="6.69556">
        <ele>12.8</ele>
        <time>2023-05-24T10:06:12.000Z</time>
      </trkpt>
      <trkpt lat="43.26196" lon="6.69556">
        <ele>12.9</ele>
        <time>2023-05-24T10:06:17.000Z</time>
      </trkpt>
      <trkpt lat="43.26191" lon="6.69557">
        <ele>12.8</ele>
        <time>2023-05-24T10:06:21.000Z</time>
      </trkpt>
      <trkpt lat="43.26186" lon="6.69556">
        <ele>12.7</ele>
        <time>2023-05-24T10:06:27.000Z</time>
      </trkpt>
      <trkpt lat="43.26182" lon="6.69553">
        <ele>12.7</ele>
        <time>2023-05-24T10:06:32.000Z</time>
      </trkpt>
      <trkpt lat="43.26178" lon="6.6955">
        <ele>12.8</ele>
        <time>2023-05-24T10:06:37.000Z</time>
      </trkpt>
      <trkpt lat="43.26175" lon="6.69545">
        <ele>13.1</ele>
        <time>2023-05-24T10:06:44.000Z</time>
      </trkpt>
      <trkpt lat="43.26175" lon="6.69538">
        <ele>13.2</ele>
        <time>2023-05-24T10:06:49.000Z</time>
      </trkpt>
      <trkpt lat="43.26175" lon="6.69531">
        <ele>13.4</ele>
        <time>2023-05-24T10:06:55.000Z</time>
      </trkpt>
      <trkpt lat="43.26174" lon="6.69524">
        <ele>13.7</ele>
        <time>2023-05-24T10:07:01.000Z</time>
      </trkpt>
      <trkpt lat="43.26173" lon="6.69517">
        <ele>14</ele>
        <time>2023-05-24T10:07:06.000Z</time>
      </trkpt>
      <trkpt lat="43.2617" lon="6.69512">
        <ele>14.2</ele>
        <time>2023-05-24T10:07:10.000Z</time>
      </trkpt>
      <trkpt lat="43.26169" lon="6.69505">
        <ele>14.3</ele>
        <time>2023-05-24T10:07:14.000Z</time>
      </trkpt>
      <trkpt lat="43.26167" lon="6.69498">
        <ele>14.5</ele>
        <time>2023-05-24T10:07:20.000Z</time>
      </trkpt>
      <trkpt lat="43.26167" lon="6.69492">
        <ele>14.7</ele>
        <time>2023-05-24T10:07:25.000Z</time>
      </trkpt>
      <trkpt lat="43.26163" lon="6.69487">
        <ele>14.6</ele>
        <time>2023-05-24T10:07:30.000Z</time>
      </trkpt>
      <trkpt lat="43.2616" lon="6.69481">
        <ele>14.7</ele>
        <time>2023-05-24T10:07:37.000Z</time>
      </trkpt>
      <trkpt lat="43.26156" lon="6.69478">
        <ele>14.7</ele>
        <time>2023-05-24T10:07:43.000Z</time>
      </trkpt>
      <trkpt lat="43.26152" lon="6.6948">
        <ele>14.8</ele>
        <time>2023-05-24T10:10:28.000Z</time>
      </trkpt>
      <trkpt lat="43.26156" lon="6.69476">
        <ele>14.8</ele>
        <time>2023-05-24T10:12:52.000Z</time>
      </trkpt>
      <trkpt lat="43.26159" lon="6.69471">
        <ele>15</ele>
        <time>2023-05-24T10:12:58.000Z</time>
      </trkpt>
      <trkpt lat="43.26159" lon="6.69465">
        <ele>15.2</ele>
        <time>2023-05-24T10:13:03.000Z</time>
      </trkpt>
      <trkpt lat="43.26159" lon="6.69458">
        <ele>15.4</ele>
        <time>2023-05-24T10:13:09.000Z</time>
      </trkpt>
      <trkpt lat="43.2616" lon="6.69451">
        <ele>15.5</ele>
        <time>2023-05-24T10:13:15.000Z</time>
      </trkpt>
      <trkpt lat="43.26161" lon="6.69445">
        <ele>15.6</ele>
        <time>2023-05-24T10:13:21.000Z</time>
      </trkpt>
      <trkpt lat="43.2616" lon="6.69439">
        <ele>15.6</ele>
        <time>2023-05-24T10:13:29.000Z</time>
      </trkpt>
      <trkpt lat="43.26158" lon="6.69433">
        <ele>15.6</ele>
        <time>2023-05-24T10:13:33.000Z</time>
      </trkpt>
      <trkpt lat="43.26155" lon="6.69428">
        <ele>15.5</ele>
        <time>2023-05-24T10:13:37.000Z</time>
      </trkpt>
      <trkpt lat="43.26153" lon="6.69422">
        <ele>15.6</ele>
        <time>2023-05-24T10:13:43.000Z</time>
      </trkpt>
      <trkpt lat="43.2615" lon="6.69417">
        <ele>16</ele>
        <time>2023-05-24T10:13:48.000Z</time>
      </trkpt>
      <trkpt lat="43.26149" lon="6.69411">
        <ele>16.7</ele>
        <time>2023-05-24T10:13:55.000Z</time>
      </trkpt>
      <trkpt lat="43.26146" lon="6.69405">
        <ele>17.1</ele>
        <time>2023-05-24T10:14:00.000Z</time>
      </trkpt>
      <trkpt lat="43.26143" lon="6.694">
        <ele>17.5</ele>
        <time>2023-05-24T10:14:05.000Z</time>
      </trkpt>
      <trkpt lat="43.26141" lon="6.69394">
        <ele>17.7</ele>
        <time>2023-05-24T10:14:11.000Z</time>
      </trkpt>
      <trkpt lat="43.26139" lon="6.69387">
        <ele>18</ele>
        <time>2023-05-24T10:14:16.000Z</time>
      </trkpt>
      <trkpt lat="43.26137" lon="6.69382">
        <ele>18.1</ele>
        <time>2023-05-24T10:14:21.000Z</time>
      </trkpt>
      <trkpt lat="43.26133" lon="6.69377">
        <ele>18.1</ele>
        <time>2023-05-24T10:14:26.000Z</time>
      </trkpt>
      <trkpt lat="43.26132" lon="6.69371">
        <ele>18</ele>
        <time>2023-05-24T10:14:31.000Z</time>
      </trkpt>
      <trkpt lat="43.2613" lon="6.69364">
        <ele>17.8</ele>
        <time>2023-05-24T10:14:36.000Z</time>
      </trkpt>
      <trkpt lat="43.26128" lon="6.69358">
        <ele>17.6</ele>
        <time>2023-05-24T10:14:42.000Z</time>
      </trkpt>
      <trkpt lat="43.26125" lon="6.69353">
        <ele>17.5</ele>
        <time>2023-05-24T10:14:47.000Z</time>
      </trkpt>
      <trkpt lat="43.26121" lon="6.69349">
        <ele>17.1</ele>
        <time>2023-05-24T10:14:52.000Z</time>
      </trkpt>
      <trkpt lat="43.26117" lon="6.69346">
        <ele>16</ele>
        <time>2023-05-24T10:14:58.000Z</time>
      </trkpt>
      <trkpt lat="43.26112" lon="6.69344">
        <ele>15.1</ele>
        <time>2023-05-24T10:15:04.000Z</time>
      </trkpt>
      <trkpt lat="43.26108" lon="6.69341">
        <ele>14.2</ele>
        <time>2023-05-24T10:15:16.000Z</time>
      </trkpt>
      <trkpt lat="43.26105" lon="6.69336">
        <ele>13.3</ele>
        <time>2023-05-24T10:15:29.000Z</time>
      </trkpt>
      <trkpt lat="43.26101" lon="6.69332">
        <ele>12.8</ele>
        <time>2023-05-24T10:15:34.000Z</time>
      </trkpt>
      <trkpt lat="43.26097" lon="6.69329">
        <ele>12.3</ele>
        <time>2023-05-24T10:15:39.000Z</time>
      </trkpt>
      <trkpt lat="43.26093" lon="6.69325">
        <ele>12</ele>
        <time>2023-05-24T10:15:44.000Z</time>
      </trkpt>
      <trkpt lat="43.26088" lon="6.69321">
        <ele>11.7</ele>
        <time>2023-05-24T10:15:49.000Z</time>
      </trkpt>
      <trkpt lat="43.26084" lon="6.69318">
        <ele>11.5</ele>
        <time>2023-05-24T10:15:53.000Z</time>
      </trkpt>
      <trkpt lat="43.2608" lon="6.69315">
        <ele>11.2</ele>
        <time>2023-05-24T10:15:57.000Z</time>
      </trkpt>
      <trkpt lat="43.26075" lon="6.69311">
        <ele>10.7</ele>
        <time>2023-05-24T10:16:02.000Z</time>
      </trkpt>
      <trkpt lat="43.26071" lon="6.69308">
        <ele>10.5</ele>
        <time>2023-05-24T10:16:06.000Z</time>
      </trkpt>
      <trkpt lat="43.26067" lon="6.69304">
        <ele>10.6</ele>
        <time>2023-05-24T10:16:11.000Z</time>
      </trkpt>
      <trkpt lat="43.26062" lon="6.69301">
        <ele>10.7</ele>
        <time>2023-05-24T10:16:16.000Z</time>
      </trkpt>
      <trkpt lat="43.26058" lon="6.69297">
        <ele>10.7</ele>
        <time>2023-05-24T10:16:21.000Z</time>
      </trkpt>
      <trkpt lat="43.26054" lon="6.69294">
        <ele>10.8</ele>
        <time>2023-05-24T10:16:25.000Z</time>
      </trkpt>
      <trkpt lat="43.26049" lon="6.6929">
        <ele>10.8</ele>
        <time>2023-05-24T10:16:30.000Z</time>
      </trkpt>
      <trkpt lat="43.26044" lon="6.69286">
        <ele>10.8</ele>
        <time>2023-05-24T10:16:35.000Z</time>
      </trkpt>
      <trkpt lat="43.2604" lon="6.69284">
        <ele>10.9</ele>
        <time>2023-05-24T10:16:40.000Z</time>
      </trkpt>
      <trkpt lat="43.26036" lon="6.69281">
        <ele>10.9</ele>
        <time>2023-05-24T10:16:45.000Z</time>
      </trkpt>
      <trkpt lat="43.26032" lon="6.69278">
        <ele>10.9</ele>
        <time>2023-05-24T10:16:50.000Z</time>
      </trkpt>
      <trkpt lat="43.26027" lon="6.69275">
        <ele>10.9</ele>
        <time>2023-05-24T10:16:55.000Z</time>
      </trkpt>
      <trkpt lat="43.26022" lon="6.69273">
        <ele>10.9</ele>
        <time>2023-05-24T10:16:59.000Z</time>
      </trkpt>
      <trkpt lat="43.26018" lon="6.6927">
        <ele>10.8</ele>
        <time>2023-05-24T10:17:04.000Z</time>
      </trkpt>
      <trkpt lat="43.26013" lon="6.69267">
        <ele>10.8</ele>
        <time>2023-05-24T10:17:09.000Z</time>
      </trkpt>
      <trkpt lat="43.26008" lon="6.69265">
        <ele>10.8</ele>
        <time>2023-05-24T10:17:14.000Z</time>
      </trkpt>
      <trkpt lat="43.26003" lon="6.69261">
        <ele>10.8</ele>
        <time>2023-05-24T10:17:19.000Z</time>
      </trkpt>
      <trkpt lat="43.25999" lon="6.69259">
        <ele>10.7</ele>
        <time>2023-05-24T10:17:24.000Z</time>
      </trkpt>
      <trkpt lat="43.25994" lon="6.69256">
        <ele>10.7</ele>
        <time>2023-05-24T10:17:29.000Z</time>
      </trkpt>
      <trkpt lat="43.2599" lon="6.69253">
        <ele>10.7</ele>
        <time>2023-05-24T10:17:35.000Z</time>
      </trkpt>
      <trkpt lat="43.25986" lon="6.69249">
        <ele>10.7</ele>
        <time>2023-05-24T10:17:41.000Z</time>
      </trkpt>
      <trkpt lat="43.25982" lon="6.69244">
        <ele>10.7</ele>
        <time>2023-05-24T10:17:47.000Z</time>
      </trkpt>
      <trkpt lat="43.25979" lon="6.69239">
        <ele>10.7</ele>
        <time>2023-05-24T10:17:53.000Z</time>
      </trkpt>
      <trkpt lat="43.25975" lon="6.69235">
        <ele>10.8</ele>
        <time>2023-05-24T10:17:59.000Z</time>
      </trkpt>
      <trkpt lat="43.25969" lon="6.69233">
        <ele>10.8</ele>
        <time>2023-05-24T10:18:05.000Z</time>
      </trkpt>
      <trkpt lat="43.25964" lon="6.69231">
        <ele>10.7</ele>
        <time>2023-05-24T10:18:10.000Z</time>
      </trkpt>
      <trkpt lat="43.25959" lon="6.6923">
        <ele>10.7</ele>
        <time>2023-05-24T10:18:15.000Z</time>
      </trkpt>
      <trkpt lat="43.25954" lon="6.69229">
        <ele>10.7</ele>
        <time>2023-05-24T10:18:20.000Z</time>
      </trkpt>
      <trkpt lat="43.25949" lon="6.69228">
        <ele>10.7</ele>
        <time>2023-05-24T10:18:25.000Z</time>
      </trkpt>
      <trkpt lat="43.25944" lon="6.69227">
        <ele>10.6</ele>
        <time>2023-05-24T10:18:30.000Z</time>
      </trkpt>
      <trkpt lat="43.25939" lon="6.69226">
        <ele>10.6</ele>
        <time>2023-05-24T10:18:36.000Z</time>
      </trkpt>
      <trkpt lat="43.25934" lon="6.69226">
        <ele>10.5</ele>
        <time>2023-05-24T10:18:42.000Z</time>
      </trkpt>
      <trkpt lat="43.25929" lon="6.69226">
        <ele>10.5</ele>
        <time>2023-05-24T10:18:48.000Z</time>
      </trkpt>
      <trkpt lat="43.25925" lon="6.69223">
        <ele>10.6</ele>
        <time>2023-05-24T10:18:55.000Z</time>
      </trkpt>
      <trkpt lat="43.25921" lon="6.69219">
        <ele>10.7</ele>
        <time>2023-05-24T10:19:02.000Z</time>
      </trkpt>
      <trkpt lat="43.25917" lon="6.69216">
        <ele>10.7</ele>
        <time>2023-05-24T10:19:09.000Z</time>
      </trkpt>
      <trkpt lat="43.25913" lon="6.69212">
        <ele>10.8</ele>
        <time>2023-05-24T10:19:21.000Z</time>
      </trkpt>
      <trkpt lat="43.25908" lon="6.69211">
        <ele>10.9</ele>
        <time>2023-05-24T10:19:37.000Z</time>
      </trkpt>
      <trkpt lat="43.25904" lon="6.69209">
        <ele>10.9</ele>
        <time>2023-05-24T10:19:48.000Z</time>
      </trkpt>
      <trkpt lat="43.25899" lon="6.6921">
        <ele>11</ele>
        <time>2023-05-24T10:19:57.000Z</time>
      </trkpt>
      <trkpt lat="43.25896" lon="6.69215">
        <ele>11.1</ele>
        <time>2023-05-24T10:20:12.000Z</time>
      </trkpt>
      <trkpt lat="43.25898" lon="6.69209">
        <ele>11.6</ele>
        <time>2023-05-24T10:20:32.000Z</time>
      </trkpt>
      <trkpt lat="43.25895" lon="6.69205">
        <ele>11.7</ele>
        <time>2023-05-24T10:22:27.000Z</time>
      </trkpt>
      <trkpt lat="43.25899" lon="6.69205">
        <ele>10.9</ele>
        <time>2023-05-24T10:36:53.000Z</time>
      </trkpt>
      <trkpt lat="43.25895" lon="6.69208">
        <ele>10.7</ele>
        <time>2023-05-24T10:39:05.000Z</time>
      </trkpt>
      <trkpt lat="43.25899" lon="6.69204">
        <ele>11.7</ele>
        <time>2023-05-24T10:49:53.000Z</time>
      </trkpt>
      <trkpt lat="43.25896" lon="6.69199">
        <ele>12</ele>
        <time>2023-05-24T11:02:28.000Z</time>
      </trkpt>
      <trkpt lat="43.259" lon="6.69195">
        <ele>11.4</ele>
        <time>2023-05-24T11:08:56.000Z</time>
      </trkpt>
      <trkpt lat="43.25899" lon="6.69202">
        <ele>11.5</ele>
        <time>2023-05-24T11:10:04.000Z</time>
      </trkpt>
      <trkpt lat="43.25899" lon="6.69208">
        <ele>11.5</ele>
        <time>2023-05-24T11:14:06.000Z</time>
      </trkpt>
      <trkpt lat="43.25898" lon="6.69214">
        <ele>12.1</ele>
        <time>2023-05-24T11:14:58.000Z</time>
      </trkpt>
      <trkpt lat="43.25895" lon="6.6922">
        <ele>12.2</ele>
        <time>2023-05-24T11:15:06.000Z</time>
      </trkpt>
      <trkpt lat="43.2589" lon="6.69223">
        <ele>12.2</ele>
        <time>2023-05-24T11:15:12.000Z</time>
      </trkpt>
      <trkpt lat="43.25885" lon="6.69223">
        <ele>12.2</ele>
        <time>2023-05-24T11:15:19.000Z</time>
      </trkpt>
      <trkpt lat="43.2588" lon="6.69222">
        <ele>12.2</ele>
        <time>2023-05-24T11:15:26.000Z</time>
      </trkpt>
      <trkpt lat="43.25875" lon="6.6922">
        <ele>12.2</ele>
        <time>2023-05-24T11:15:33.000Z</time>
      </trkpt>
      <trkpt lat="43.2587" lon="6.69217">
        <ele>12.2</ele>
        <time>2023-05-24T11:15:39.000Z</time>
      </trkpt>
      <trkpt lat="43.25865" lon="6.69214">
        <ele>12.2</ele>
        <time>2023-05-24T11:15:45.000Z</time>
      </trkpt>
      <trkpt lat="43.2586" lon="6.69211">
        <ele>12</ele>
        <time>2023-05-24T11:15:51.000Z</time>
      </trkpt>
      <trkpt lat="43.25856" lon="6.69211">
        <ele>11.9</ele>
        <time>2023-05-24T11:15:56.000Z</time>
      </trkpt>
      <trkpt lat="43.25851" lon="6.69211">
        <ele>11.8</ele>
        <time>2023-05-24T11:16:01.000Z</time>
      </trkpt>
      <trkpt lat="43.25846" lon="6.6921">
        <ele>11.8</ele>
        <time>2023-05-24T11:16:06.000Z</time>
      </trkpt>
      <trkpt lat="43.25842" lon="6.69208">
        <ele>11.8</ele>
        <time>2023-05-24T11:16:11.000Z</time>
      </trkpt>
      <trkpt lat="43.25837" lon="6.69207">
        <ele>11.7</ele>
        <time>2023-05-24T11:16:16.000Z</time>
      </trkpt>
      <trkpt lat="43.25832" lon="6.69205">
        <ele>11.7</ele>
        <time>2023-05-24T11:16:22.000Z</time>
      </trkpt>
      <trkpt lat="43.25827" lon="6.69204">
        <ele>11.7</ele>
        <time>2023-05-24T11:16:27.000Z</time>
      </trkpt>
      <trkpt lat="43.25822" lon="6.69203">
        <ele>11.8</ele>
        <time>2023-05-24T11:16:39.000Z</time>
      </trkpt>
      <trkpt lat="43.25817" lon="6.69202">
        <ele>11.9</ele>
        <time>2023-05-24T11:16:44.000Z</time>
      </trkpt>
      <trkpt lat="43.25812" lon="6.692">
        <ele>11.9</ele>
        <time>2023-05-24T11:16:49.000Z</time>
      </trkpt>
      <trkpt lat="43.25808" lon="6.69199">
        <ele>11.9</ele>
        <time>2023-05-24T11:16:53.000Z</time>
      </trkpt>
      <trkpt lat="43.25803" lon="6.69199">
        <ele>11.8</ele>
        <time>2023-05-24T11:16:58.000Z</time>
      </trkpt>
      <trkpt lat="43.25798" lon="6.69197">
        <ele>11.8</ele>
        <time>2023-05-24T11:17:03.000Z</time>
      </trkpt>
      <trkpt lat="43.25792" lon="6.69195">
        <ele>11.8</ele>
        <time>2023-05-24T11:17:08.000Z</time>
      </trkpt>
      <trkpt lat="43.25788" lon="6.69193">
        <ele>11.8</ele>
        <time>2023-05-24T11:17:12.000Z</time>
      </trkpt>
      <trkpt lat="43.25784" lon="6.69191">
        <ele>11.8</ele>
        <time>2023-05-24T11:17:16.000Z</time>
      </trkpt>
      <trkpt lat="43.25779" lon="6.69189">
        <ele>11.8</ele>
        <time>2023-05-24T11:17:20.000Z</time>
      </trkpt>
      <trkpt lat="43.25774" lon="6.69186">
        <ele>11.8</ele>
        <time>2023-05-24T11:17:25.000Z</time>
      </trkpt>
      <trkpt lat="43.2577" lon="6.69184">
        <ele>11.8</ele>
        <time>2023-05-24T11:17:29.000Z</time>
      </trkpt>
      <trkpt lat="43.25765" lon="6.69182">
        <ele>11.8</ele>
        <time>2023-05-24T11:17:33.000Z</time>
      </trkpt>
      <trkpt lat="43.2576" lon="6.6918">
        <ele>11.8</ele>
        <time>2023-05-24T11:17:38.000Z</time>
      </trkpt>
      <trkpt lat="43.25755" lon="6.69179">
        <ele>11.8</ele>
        <time>2023-05-24T11:17:42.000Z</time>
      </trkpt>
      <trkpt lat="43.25751" lon="6.69178">
        <ele>11.8</ele>
        <time>2023-05-24T11:17:46.000Z</time>
      </trkpt>
      <trkpt lat="43.25746" lon="6.69176">
        <ele>11.8</ele>
        <time>2023-05-24T11:17:51.000Z</time>
      </trkpt>
      <trkpt lat="43.25741" lon="6.69173">
        <ele>11.8</ele>
        <time>2023-05-24T11:17:56.000Z</time>
      </trkpt>
      <trkpt lat="43.25735" lon="6.69171">
        <ele>11.8</ele>
        <time>2023-05-24T11:18:01.000Z</time>
      </trkpt>
      <trkpt lat="43.2573" lon="6.6917">
        <ele>11.8</ele>
        <time>2023-05-24T11:18:06.000Z</time>
      </trkpt>
      <trkpt lat="43.25725" lon="6.69169">
        <ele>11.7</ele>
        <time>2023-05-24T11:18:11.000Z</time>
      </trkpt>
      <trkpt lat="43.25721" lon="6.69166">
        <ele>11.7</ele>
        <time>2023-05-24T11:18:17.000Z</time>
      </trkpt>
      <trkpt lat="43.25717" lon="6.69161">
        <ele>11.6</ele>
        <time>2023-05-24T11:18:28.000Z</time>
      </trkpt>
      <trkpt lat="43.25713" lon="6.69159">
        <ele>11.6</ele>
        <time>2023-05-24T11:18:33.000Z</time>
      </trkpt>
      <trkpt lat="43.25709" lon="6.69155">
        <ele>11.6</ele>
        <time>2023-05-24T11:18:38.000Z</time>
      </trkpt>
      <trkpt lat="43.25705" lon="6.69152">
        <ele>11.6</ele>
        <time>2023-05-24T11:18:43.000Z</time>
      </trkpt>
      <trkpt lat="43.25702" lon="6.69146">
        <ele>11.6</ele>
        <time>2023-05-24T11:18:49.000Z</time>
      </trkpt>
      <trkpt lat="43.25701" lon="6.6914">
        <ele>11.6</ele>
        <time>2023-05-24T11:18:55.000Z</time>
      </trkpt>
      <trkpt lat="43.25699" lon="6.69133">
        <ele>11.6</ele>
        <time>2023-05-24T11:19:01.000Z</time>
      </trkpt>
      <trkpt lat="43.25698" lon="6.69126">
        <ele>11.6</ele>
        <time>2023-05-24T11:19:07.000Z</time>
      </trkpt>
      <trkpt lat="43.25694" lon="6.6912">
        <ele>11.6</ele>
        <time>2023-05-24T11:19:17.000Z</time>
      </trkpt>
      <trkpt lat="43.25691" lon="6.69115">
        <ele>11.6</ele>
        <time>2023-05-24T11:19:22.000Z</time>
      </trkpt>
      <trkpt lat="43.25689" lon="6.69109">
        <ele>11.6</ele>
        <time>2023-05-24T11:19:27.000Z</time>
      </trkpt>
      <trkpt lat="43.25687" lon="6.69102">
        <ele>11.6</ele>
        <time>2023-05-24T11:19:32.000Z</time>
      </trkpt>
      <trkpt lat="43.25686" lon="6.69096">
        <ele>11.6</ele>
        <time>2023-05-24T11:19:38.000Z</time>
      </trkpt>
      <trkpt lat="43.25683" lon="6.6909">
        <ele>11.6</ele>
        <time>2023-05-24T11:19:43.000Z</time>
      </trkpt>
      <trkpt lat="43.25681" lon="6.69085">
        <ele>11.7</ele>
        <time>2023-05-24T11:19:49.000Z</time>
      </trkpt>
      <trkpt lat="43.25678" lon="6.6908">
        <ele>11.7</ele>
        <time>2023-05-24T11:19:55.000Z</time>
      </trkpt>
      <trkpt lat="43.25675" lon="6.69075">
        <ele>11.7</ele>
        <time>2023-05-24T11:20:01.000Z</time>
      </trkpt>
      <trkpt lat="43.25671" lon="6.6907">
        <ele>12.6</ele>
        <time>2023-05-24T11:20:12.000Z</time>
      </trkpt>
      <trkpt lat="43.2567" lon="6.69063">
        <ele>13.3</ele>
        <time>2023-05-24T11:20:19.000Z</time>
      </trkpt>
      <trkpt lat="43.25672" lon="6.69057">
        <ele>13.7</ele>
        <time>2023-05-24T11:20:24.000Z</time>
      </trkpt>
      <trkpt lat="43.25674" lon="6.69051">
        <ele>14.1</ele>
        <time>2023-05-24T11:20:29.000Z</time>
      </trkpt>
      <trkpt lat="43.25677" lon="6.69045">
        <ele>14.5</ele>
        <time>2023-05-24T11:20:35.000Z</time>
      </trkpt>
      <trkpt lat="43.2568" lon="6.6904">
        <ele>14.7</ele>
        <time>2023-05-24T11:20:40.000Z</time>
      </trkpt>
      <trkpt lat="43.2568" lon="6.69033">
        <ele>14.9</ele>
        <time>2023-05-24T11:20:45.000Z</time>
      </trkpt>
      <trkpt lat="43.25679" lon="6.69026">
        <ele>15.2</ele>
        <time>2023-05-24T11:20:50.000Z</time>
      </trkpt>
      <trkpt lat="43.25676" lon="6.69021">
        <ele>15.4</ele>
        <time>2023-05-24T11:20:55.000Z</time>
      </trkpt>
      <trkpt lat="43.25671" lon="6.69018">
        <ele>15.6</ele>
        <time>2023-05-24T11:21:00.000Z</time>
      </trkpt>
      <trkpt lat="43.25667" lon="6.69015">
        <ele>15.8</ele>
        <time>2023-05-24T11:21:04.000Z</time>
      </trkpt>
      <trkpt lat="43.25663" lon="6.69011">
        <ele>15.9</ele>
        <time>2023-05-24T11:21:09.000Z</time>
      </trkpt>
      <trkpt lat="43.25658" lon="6.69007">
        <ele>15.9</ele>
        <time>2023-05-24T11:21:14.000Z</time>
      </trkpt>
      <trkpt lat="43.25654" lon="6.69003">
        <ele>16</ele>
        <time>2023-05-24T11:21:19.000Z</time>
      </trkpt>
      <trkpt lat="43.2565" lon="6.68999">
        <ele>16.1</ele>
        <time>2023-05-24T11:21:24.000Z</time>
      </trkpt>
      <trkpt lat="43.25647" lon="6.68994">
        <ele>16.3</ele>
        <time>2023-05-24T11:21:36.000Z</time>
      </trkpt>
      <trkpt lat="43.25643" lon="6.68991">
        <ele>17.1</ele>
        <time>2023-05-24T11:22:58.000Z</time>
      </trkpt>
      <trkpt lat="43.25639" lon="6.68987">
        <ele>17.1</ele>
        <time>2023-05-24T11:23:03.000Z</time>
      </trkpt>
      <trkpt lat="43.25635" lon="6.68982">
        <ele>17.1</ele>
        <time>2023-05-24T11:23:08.000Z</time>
      </trkpt>
      <trkpt lat="43.25631" lon="6.68978">
        <ele>17.1</ele>
        <time>2023-05-24T11:23:14.000Z</time>
      </trkpt>
      <trkpt lat="43.25626" lon="6.68975">
        <ele>17.2</ele>
        <time>2023-05-24T11:23:20.000Z</time>
      </trkpt>
      <trkpt lat="43.25621" lon="6.68974">
        <ele>17.3</ele>
        <time>2023-05-24T11:23:25.000Z</time>
      </trkpt>
      <trkpt lat="43.25617" lon="6.68971">
        <ele>17.4</ele>
        <time>2023-05-24T11:23:30.000Z</time>
      </trkpt>
      <trkpt lat="43.25612" lon="6.68969">
        <ele>17.5</ele>
        <time>2023-05-24T11:23:35.000Z</time>
      </trkpt>
      <trkpt lat="43.25608" lon="6.68966">
        <ele>17.7</ele>
        <time>2023-05-24T11:23:40.000Z</time>
      </trkpt>
      <trkpt lat="43.25603" lon="6.68964">
        <ele>17.8</ele>
        <time>2023-05-24T11:23:46.000Z</time>
      </trkpt>
      <trkpt lat="43.25598" lon="6.6896">
        <ele>18</ele>
        <time>2023-05-24T11:23:52.000Z</time>
      </trkpt>
      <trkpt lat="43.25594" lon="6.68959">
        <ele>18.3</ele>
        <time>2023-05-24T11:23:57.000Z</time>
      </trkpt>
      <trkpt lat="43.25589" lon="6.68959">
        <ele>18.6</ele>
        <time>2023-05-24T11:24:02.000Z</time>
      </trkpt>
      <trkpt lat="43.25584" lon="6.68961">
        <ele>18.8</ele>
        <time>2023-05-24T11:24:07.000Z</time>
      </trkpt>
      <trkpt lat="43.25581" lon="6.68966">
        <ele>18.9</ele>
        <time>2023-05-24T11:24:12.000Z</time>
      </trkpt>
      <trkpt lat="43.25579" lon="6.68972">
        <ele>19</ele>
        <time>2023-05-24T11:24:17.000Z</time>
      </trkpt>
      <trkpt lat="43.25577" lon="6.68978">
        <ele>18.9</ele>
        <time>2023-05-24T11:24:22.000Z</time>
      </trkpt>
      <trkpt lat="43.25575" lon="6.68984">
        <ele>18.9</ele>
        <time>2023-05-24T11:24:27.000Z</time>
      </trkpt>
      <trkpt lat="43.25573" lon="6.68991">
        <ele>18.7</ele>
        <time>2023-05-24T11:24:32.000Z</time>
      </trkpt>
      <trkpt lat="43.25572" lon="6.68997">
        <ele>18.5</ele>
        <time>2023-05-24T11:24:36.000Z</time>
      </trkpt>
      <trkpt lat="43.2557" lon="6.69004">
        <ele>18.4</ele>
        <time>2023-05-24T11:24:41.000Z</time>
      </trkpt>
      <trkpt lat="43.25568" lon="6.69011">
        <ele>18.1</ele>
        <time>2023-05-24T11:24:46.000Z</time>
      </trkpt>
      <trkpt lat="43.25566" lon="6.69017">
        <ele>17.6</ele>
        <time>2023-05-24T11:24:51.000Z</time>
      </trkpt>
      <trkpt lat="43.25563" lon="6.69023">
        <ele>17.2</ele>
        <time>2023-05-24T11:24:56.000Z</time>
      </trkpt>
      <trkpt lat="43.25559" lon="6.69027">
        <ele>16.7</ele>
        <time>2023-05-24T11:25:01.000Z</time>
      </trkpt>
      <trkpt lat="43.25554" lon="6.69027">
        <ele>16.2</ele>
        <time>2023-05-24T11:25:06.000Z</time>
      </trkpt>
      <trkpt lat="43.25548" lon="6.69026">
        <ele>15.7</ele>
        <time>2023-05-24T11:25:11.000Z</time>
      </trkpt>
      <trkpt lat="43.25543" lon="6.69027">
        <ele>15.5</ele>
        <time>2023-05-24T11:25:15.000Z</time>
      </trkpt>
      <trkpt lat="43.25538" lon="6.69027">
        <ele>15.1</ele>
        <time>2023-05-24T11:25:20.000Z</time>
      </trkpt>
      <trkpt lat="43.25534" lon="6.69027">
        <ele>14.9</ele>
        <time>2023-05-24T11:25:24.000Z</time>
      </trkpt>
      <trkpt lat="43.25528" lon="6.69027">
        <ele>14.6</ele>
        <time>2023-05-24T11:25:29.000Z</time>
      </trkpt>
      <trkpt lat="43.25523" lon="6.69028">
        <ele>14.5</ele>
        <time>2023-05-24T11:25:34.000Z</time>
      </trkpt>
      <trkpt lat="43.25518" lon="6.69031">
        <ele>14.3</ele>
        <time>2023-05-24T11:25:39.000Z</time>
      </trkpt>
      <trkpt lat="43.25513" lon="6.69034">
        <ele>14.2</ele>
        <time>2023-05-24T11:25:44.000Z</time>
      </trkpt>
      <trkpt lat="43.25508" lon="6.69036">
        <ele>14.2</ele>
        <time>2023-05-24T11:25:49.000Z</time>
      </trkpt>
      <trkpt lat="43.25503" lon="6.69037">
        <ele>14.1</ele>
        <time>2023-05-24T11:25:54.000Z</time>
      </trkpt>
      <trkpt lat="43.25498" lon="6.69037">
        <ele>14.1</ele>
        <time>2023-05-24T11:25:58.000Z</time>
      </trkpt>
      <trkpt lat="43.25493" lon="6.69037">
        <ele>14</ele>
        <time>2023-05-24T11:26:02.000Z</time>
      </trkpt>
      <trkpt lat="43.25488" lon="6.69037">
        <ele>14</ele>
        <time>2023-05-24T11:26:07.000Z</time>
      </trkpt>
      <trkpt lat="43.25483" lon="6.69038">
        <ele>14</ele>
        <time>2023-05-24T11:26:11.000Z</time>
      </trkpt>
      <trkpt lat="43.25479" lon="6.6904">
        <ele>14</ele>
        <time>2023-05-24T11:26:15.000Z</time>
      </trkpt>
      <trkpt lat="43.25474" lon="6.69041">
        <ele>14</ele>
        <time>2023-05-24T11:26:19.000Z</time>
      </trkpt>
      <trkpt lat="43.25469" lon="6.6904">
        <ele>13.9</ele>
        <time>2023-05-24T11:26:24.000Z</time>
      </trkpt>
      <trkpt lat="43.25464" lon="6.69039">
        <ele>13.9</ele>
        <time>2023-05-24T11:26:28.000Z</time>
      </trkpt>
      <trkpt lat="43.25459" lon="6.69039">
        <ele>13.9</ele>
        <time>2023-05-24T11:26:32.000Z</time>
      </trkpt>
      <trkpt lat="43.25455" lon="6.69038">
        <ele>13.8</ele>
        <time>2023-05-24T11:26:36.000Z</time>
      </trkpt>
      <trkpt lat="43.2545" lon="6.69036">
        <ele>13.6</ele>
        <time>2023-05-24T11:26:41.000Z</time>
      </trkpt>
      <trkpt lat="43.25445" lon="6.69032">
        <ele>13.5</ele>
        <time>2023-05-24T11:26:46.000Z</time>
      </trkpt>
      <trkpt lat="43.2544" lon="6.69029">
        <ele>13.4</ele>
        <time>2023-05-24T11:26:50.000Z</time>
      </trkpt>
      <trkpt lat="43.25435" lon="6.69027">
        <ele>13.4</ele>
        <time>2023-05-24T11:26:55.000Z</time>
      </trkpt>
      <trkpt lat="43.25431" lon="6.69026">
        <ele>13.3</ele>
        <time>2023-05-24T11:26:59.000Z</time>
      </trkpt>
      <trkpt lat="43.25426" lon="6.69026">
        <ele>13.3</ele>
        <time>2023-05-24T11:27:03.000Z</time>
      </trkpt>
      <trkpt lat="43.25421" lon="6.69025">
        <ele>13.3</ele>
        <time>2023-05-24T11:27:08.000Z</time>
      </trkpt>
      <trkpt lat="43.25416" lon="6.69024">
        <ele>13.4</ele>
        <time>2023-05-24T11:27:14.000Z</time>
      </trkpt>
      <trkpt lat="43.25411" lon="6.69024">
        <ele>13.5</ele>
        <time>2023-05-24T11:27:19.000Z</time>
      </trkpt>
      <trkpt lat="43.25405" lon="6.69023">
        <ele>13.7</ele>
        <time>2023-05-24T11:27:24.000Z</time>
      </trkpt>
      <trkpt lat="43.25401" lon="6.69023">
        <ele>13.8</ele>
        <time>2023-05-24T11:27:29.000Z</time>
      </trkpt>
      <trkpt lat="43.25396" lon="6.69025">
        <ele>14</ele>
        <time>2023-05-24T11:27:35.000Z</time>
      </trkpt>
      <trkpt lat="43.25391" lon="6.69028">
        <ele>14.2</ele>
        <time>2023-05-24T11:27:40.000Z</time>
      </trkpt>
      <trkpt lat="43.25387" lon="6.69032">
        <ele>14.3</ele>
        <time>2023-05-24T11:27:45.000Z</time>
      </trkpt>
      <trkpt lat="43.25382" lon="6.69036">
        <ele>14.6</ele>
        <time>2023-05-24T11:27:50.000Z</time>
      </trkpt>
      <trkpt lat="43.25378" lon="6.69039">
        <ele>14.9</ele>
        <time>2023-05-24T11:27:55.000Z</time>
      </trkpt>
      <trkpt lat="43.25373" lon="6.69041">
        <ele>15.2</ele>
        <time>2023-05-24T11:28:01.000Z</time>
      </trkpt>
      <trkpt lat="43.25371" lon="6.69047">
        <ele>15.4</ele>
        <time>2023-05-24T11:28:07.000Z</time>
      </trkpt>
      <trkpt lat="43.25367" lon="6.69051">
        <ele>15.3</ele>
        <time>2023-05-24T11:28:14.000Z</time>
      </trkpt>
      <trkpt lat="43.25362" lon="6.69048">
        <ele>15.1</ele>
        <time>2023-05-24T11:28:19.000Z</time>
      </trkpt>
      <trkpt lat="43.25359" lon="6.69044">
        <ele>15</ele>
        <time>2023-05-24T11:28:24.000Z</time>
      </trkpt>
      <trkpt lat="43.25354" lon="6.69047">
        <ele>14.9</ele>
        <time>2023-05-24T11:28:29.000Z</time>
      </trkpt>
      <trkpt lat="43.2535" lon="6.69052">
        <ele>14.8</ele>
        <time>2023-05-24T11:28:35.000Z</time>
      </trkpt>
      <trkpt lat="43.25345" lon="6.69055">
        <ele>14.9</ele>
        <time>2023-05-24T11:28:42.000Z</time>
      </trkpt>
      <trkpt lat="43.25341" lon="6.69055">
        <ele>15.1</ele>
        <time>2023-05-24T11:28:47.000Z</time>
      </trkpt>
      <trkpt lat="43.25336" lon="6.69054">
        <ele>15.4</ele>
        <time>2023-05-24T11:28:53.000Z</time>
      </trkpt>
      <trkpt lat="43.25331" lon="6.69056">
        <ele>15.6</ele>
        <time>2023-05-24T11:28:58.000Z</time>
      </trkpt>
      <trkpt lat="43.25327" lon="6.6906">
        <ele>15.7</ele>
        <time>2023-05-24T11:29:04.000Z</time>
      </trkpt>
      <trkpt lat="43.25324" lon="6.69066">
        <ele>15.8</ele>
        <time>2023-05-24T11:29:09.000Z</time>
      </trkpt>
      <trkpt lat="43.25321" lon="6.69072">
        <ele>15.7</ele>
        <time>2023-05-24T11:29:14.000Z</time>
      </trkpt>
      <trkpt lat="43.25316" lon="6.69075">
        <ele>15.6</ele>
        <time>2023-05-24T11:29:19.000Z</time>
      </trkpt>
      <trkpt lat="43.25311" lon="6.69075">
        <ele>15.6</ele>
        <time>2023-05-24T11:29:26.000Z</time>
      </trkpt>
      <trkpt lat="43.25307" lon="6.69073">
        <ele>16.1</ele>
        <time>2023-05-24T11:29:33.000Z</time>
      </trkpt>
      <trkpt lat="43.25305" lon="6.69079">
        <ele>17.2</ele>
        <time>2023-05-24T11:29:49.000Z</time>
      </trkpt>
      <trkpt lat="43.25301" lon="6.69083">
        <ele>18</ele>
        <time>2023-05-24T11:30:04.000Z</time>
      </trkpt>
      <trkpt lat="43.25299" lon="6.69077">
        <ele>19.2</ele>
        <time>2023-05-24T11:30:46.000Z</time>
      </trkpt>
      <trkpt lat="43.25298" lon="6.6907">
        <ele>19.3</ele>
        <time>2023-05-24T11:30:52.000Z</time>
      </trkpt>
      <trkpt lat="43.25294" lon="6.69066">
        <ele>19.5</ele>
        <time>2023-05-24T11:30:59.000Z</time>
      </trkpt>
      <trkpt lat="43.2529" lon="6.69066">
        <ele>20.2</ele>
        <time>2023-05-24T11:31:12.000Z</time>
      </trkpt>
      <trkpt lat="43.25285" lon="6.69064">
        <ele>21</ele>
        <time>2023-05-24T11:31:21.000Z</time>
      </trkpt>
      <trkpt lat="43.25281" lon="6.69061">
        <ele>21.5</ele>
        <time>2023-05-24T11:31:27.000Z</time>
      </trkpt>
      <trkpt lat="43.25277" lon="6.69057">
        <ele>21.9</ele>
        <time>2023-05-24T11:31:32.000Z</time>
      </trkpt>
      <trkpt lat="43.25273" lon="6.69053">
        <ele>22.4</ele>
        <time>2023-05-24T11:31:37.000Z</time>
      </trkpt>
      <trkpt lat="43.25269" lon="6.69048">
        <ele>22.9</ele>
        <time>2023-05-24T11:31:44.000Z</time>
      </trkpt>
      <trkpt lat="43.25266" lon="6.69044">
        <ele>23.3</ele>
        <time>2023-05-24T11:31:49.000Z</time>
      </trkpt>
      <trkpt lat="43.25262" lon="6.69039">
        <ele>23.8</ele>
        <time>2023-05-24T11:31:55.000Z</time>
      </trkpt>
      <trkpt lat="43.25258" lon="6.69035">
        <ele>24.1</ele>
        <time>2023-05-24T11:32:01.000Z</time>
      </trkpt>
      <trkpt lat="43.25255" lon="6.69029">
        <ele>24.4</ele>
        <time>2023-05-24T11:32:08.000Z</time>
      </trkpt>
      <trkpt lat="43.25252" lon="6.69023">
        <ele>24.5</ele>
        <time>2023-05-24T11:32:14.000Z</time>
      </trkpt>
      <trkpt lat="43.25247" lon="6.69019">
        <ele>24.6</ele>
        <time>2023-05-24T11:32:25.000Z</time>
      </trkpt>
      <trkpt lat="43.25244" lon="6.69015">
        <ele>24.7</ele>
        <time>2023-05-24T11:32:35.000Z</time>
      </trkpt>
      <trkpt lat="43.25241" lon="6.69009">
        <ele>24.7</ele>
        <time>2023-05-24T11:32:43.000Z</time>
      </trkpt>
      <trkpt lat="43.25237" lon="6.69007">
        <ele>24.7</ele>
        <time>2023-05-24T11:33:07.000Z</time>
      </trkpt>
      <trkpt lat="43.25238" lon="6.69001">
        <ele>23.8</ele>
        <time>2023-05-24T11:36:08.000Z</time>
      </trkpt>
      <trkpt lat="43.25237" lon="6.69007">
        <ele>23.8</ele>
        <time>2023-05-24T11:37:29.000Z</time>
      </trkpt>
      <trkpt lat="43.2524" lon="6.69011">
        <ele>23.8</ele>
        <time>2023-05-24T11:38:02.000Z</time>
      </trkpt>
      <trkpt lat="43.25242" lon="6.69018">
        <ele>23.8</ele>
        <time>2023-05-24T11:38:13.000Z</time>
      </trkpt>
      <trkpt lat="43.25244" lon="6.69024">
        <ele>23.9</ele>
        <time>2023-05-24T11:38:19.000Z</time>
      </trkpt>
      <trkpt lat="43.25247" lon="6.69029">
        <ele>24.1</ele>
        <time>2023-05-24T11:38:25.000Z</time>
      </trkpt>
      <trkpt lat="43.2525" lon="6.69033">
        <ele>24.2</ele>
        <time>2023-05-24T11:38:32.000Z</time>
      </trkpt>
      <trkpt lat="43.25254" lon="6.69038">
        <ele>24.2</ele>
        <time>2023-05-24T11:38:37.000Z</time>
      </trkpt>
      <trkpt lat="43.25258" lon="6.69043">
        <ele>24.2</ele>
        <time>2023-05-24T11:38:44.000Z</time>
      </trkpt>
      <trkpt lat="43.25262" lon="6.69048">
        <ele>24</ele>
        <time>2023-05-24T11:38:49.000Z</time>
      </trkpt>
      <trkpt lat="43.25265" lon="6.69052">
        <ele>23.9</ele>
        <time>2023-05-24T11:38:53.000Z</time>
      </trkpt>
      <trkpt lat="43.25269" lon="6.69058">
        <ele>23.7</ele>
        <time>2023-05-24T11:38:59.000Z</time>
      </trkpt>
      <trkpt lat="43.25273" lon="6.69062">
        <ele>23.7</ele>
        <time>2023-05-24T11:39:04.000Z</time>
      </trkpt>
      <trkpt lat="43.25277" lon="6.69066">
        <ele>23.7</ele>
        <time>2023-05-24T11:39:09.000Z</time>
      </trkpt>
      <trkpt lat="43.25282" lon="6.69067">
        <ele>23.7</ele>
        <time>2023-05-24T11:39:15.000Z</time>
      </trkpt>
      <trkpt lat="43.25287" lon="6.69068">
        <ele>23.6</ele>
        <time>2023-05-24T11:39:21.000Z</time>
      </trkpt>
      <trkpt lat="43.25292" lon="6.69066">
        <ele>23.3</ele>
        <time>2023-05-24T11:39:26.000Z</time>
      </trkpt>
      <trkpt lat="43.25296" lon="6.69072">
        <ele>22.7</ele>
        <time>2023-05-24T11:39:32.000Z</time>
      </trkpt>
      <trkpt lat="43.25297" lon="6.69078">
        <ele>22.4</ele>
        <time>2023-05-24T11:39:37.000Z</time>
      </trkpt>
      <trkpt lat="43.25298" lon="6.69084">
        <ele>21.9</ele>
        <time>2023-05-24T11:39:44.000Z</time>
      </trkpt>
      <trkpt lat="43.25294" lon="6.69086">
        <ele>21.3</ele>
        <time>2023-05-24T11:39:54.000Z</time>
      </trkpt>
      <trkpt lat="43.25289" lon="6.69085">
        <ele>21</ele>
        <time>2023-05-24T11:40:00.000Z</time>
      </trkpt>
      <trkpt lat="43.25285" lon="6.69082">
        <ele>20.7</ele>
        <time>2023-05-24T11:40:06.000Z</time>
      </trkpt>
      <trkpt lat="43.2528" lon="6.69079">
        <ele>20.4</ele>
        <time>2023-05-24T11:40:13.000Z</time>
      </trkpt>
      <trkpt lat="43.25277" lon="6.69075">
        <ele>20.2</ele>
        <time>2023-05-24T11:40:19.000Z</time>
      </trkpt>
      <trkpt lat="43.25273" lon="6.6907">
        <ele>20.2</ele>
        <time>2023-05-24T11:40:26.000Z</time>
      </trkpt>
      <trkpt lat="43.25269" lon="6.69067">
        <ele>20.1</ele>
        <time>2023-05-24T11:40:32.000Z</time>
      </trkpt>
      <trkpt lat="43.25264" lon="6.69068">
        <ele>20</ele>
        <time>2023-05-24T11:40:37.000Z</time>
      </trkpt>
      <trkpt lat="43.2526" lon="6.69063">
        <ele>19.7</ele>
        <time>2023-05-24T11:40:42.000Z</time>
      </trkpt>
      <trkpt lat="43.25256" lon="6.6906">
        <ele>19.5</ele>
        <time>2023-05-24T11:40:47.000Z</time>
      </trkpt>
      <trkpt lat="43.25251" lon="6.69058">
        <ele>19.2</ele>
        <time>2023-05-24T11:40:53.000Z</time>
      </trkpt>
      <trkpt lat="43.25247" lon="6.69055">
        <ele>18.9</ele>
        <time>2023-05-24T11:40:59.000Z</time>
      </trkpt>
      <trkpt lat="43.25243" lon="6.69052">
        <ele>18.6</ele>
        <time>2023-05-24T11:41:04.000Z</time>
      </trkpt>
      <trkpt lat="43.2524" lon="6.69047">
        <ele>18.4</ele>
        <time>2023-05-24T11:41:09.000Z</time>
      </trkpt>
      <trkpt lat="43.25236" lon="6.69043">
        <ele>18.2</ele>
        <time>2023-05-24T11:41:13.000Z</time>
      </trkpt>
      <trkpt lat="43.25233" lon="6.69037">
        <ele>18</ele>
        <time>2023-05-24T11:41:18.000Z</time>
      </trkpt>
      <trkpt lat="43.2523" lon="6.69032">
        <ele>17.9</ele>
        <time>2023-05-24T11:41:24.000Z</time>
      </trkpt>
      <trkpt lat="43.25227" lon="6.69026">
        <ele>17.8</ele>
        <time>2023-05-24T11:41:29.000Z</time>
      </trkpt>
      <trkpt lat="43.25224" lon="6.69022">
        <ele>17.7</ele>
        <time>2023-05-24T11:41:34.000Z</time>
      </trkpt>
      <trkpt lat="43.25221" lon="6.69017">
        <ele>17.7</ele>
        <time>2023-05-24T11:41:39.000Z</time>
      </trkpt>
      <trkpt lat="43.25218" lon="6.69011">
        <ele>17.6</ele>
        <time>2023-05-24T11:41:44.000Z</time>
      </trkpt>
      <trkpt lat="43.25215" lon="6.69006">
        <ele>17.6</ele>
        <time>2023-05-24T11:41:50.000Z</time>
      </trkpt>
      <trkpt lat="43.25212" lon="6.69002">
        <ele>17.4</ele>
        <time>2023-05-24T11:41:56.000Z</time>
      </trkpt>
      <trkpt lat="43.25208" lon="6.68998">
        <ele>16.7</ele>
        <time>2023-05-24T11:42:05.000Z</time>
      </trkpt>
      <trkpt lat="43.25206" lon="6.68992">
        <ele>15.7</ele>
        <time>2023-05-24T11:42:14.000Z</time>
      </trkpt>
      <trkpt lat="43.25205" lon="6.68985">
        <ele>15.3</ele>
        <time>2023-05-24T11:42:23.000Z</time>
      </trkpt>
      <trkpt lat="43.25203" lon="6.6898">
        <ele>15.1</ele>
        <time>2023-05-24T11:42:29.000Z</time>
      </trkpt>
      <trkpt lat="43.25205" lon="6.68975">
        <ele>15.1</ele>
        <time>2023-05-24T11:42:36.000Z</time>
      </trkpt>
      <trkpt lat="43.25205" lon="6.68968">
        <ele>15.3</ele>
        <time>2023-05-24T11:42:43.000Z</time>
      </trkpt>
      <trkpt lat="43.25204" lon="6.68961">
        <ele>15.4</ele>
        <time>2023-05-24T11:42:48.000Z</time>
      </trkpt>
      <trkpt lat="43.25204" lon="6.68955">
        <ele>15.5</ele>
        <time>2023-05-24T11:42:52.000Z</time>
      </trkpt>
      <trkpt lat="43.25204" lon="6.68949">
        <ele>15.6</ele>
        <time>2023-05-24T11:43:00.000Z</time>
      </trkpt>
      <trkpt lat="43.25206" lon="6.68942">
        <ele>15.7</ele>
        <time>2023-05-24T11:43:07.000Z</time>
      </trkpt>
      <trkpt lat="43.25203" lon="6.68936">
        <ele>15.8</ele>
        <time>2023-05-24T11:43:15.000Z</time>
      </trkpt>
      <trkpt lat="43.252" lon="6.68931">
        <ele>15.8</ele>
        <time>2023-05-24T11:43:21.000Z</time>
      </trkpt>
      <trkpt lat="43.25199" lon="6.68925">
        <ele>15.6</ele>
        <time>2023-05-24T11:43:29.000Z</time>
      </trkpt>
      <trkpt lat="43.25197" lon="6.68919">
        <ele>15.4</ele>
        <time>2023-05-24T11:43:39.000Z</time>
      </trkpt>
      <trkpt lat="43.25195" lon="6.68912">
        <ele>15.3</ele>
        <time>2023-05-24T11:43:47.000Z</time>
      </trkpt>
      <trkpt lat="43.25193" lon="6.68906">
        <ele>15.1</ele>
        <time>2023-05-24T11:43:52.000Z</time>
      </trkpt>
      <trkpt lat="43.25191" lon="6.689">
        <ele>15</ele>
        <time>2023-05-24T11:43:57.000Z</time>
      </trkpt>
      <trkpt lat="43.25189" lon="6.68894">
        <ele>15</ele>
        <time>2023-05-24T11:44:03.000Z</time>
      </trkpt>
      <trkpt lat="43.25186" lon="6.68888">
        <ele>15.2</ele>
        <time>2023-05-24T11:44:13.000Z</time>
      </trkpt>
      <trkpt lat="43.25189" lon="6.68882">
        <ele>16</ele>
        <time>2023-05-24T11:44:22.000Z</time>
      </trkpt>
      <trkpt lat="43.25192" lon="6.68878">
        <ele>17.2</ele>
        <time>2023-05-24T11:44:31.000Z</time>
      </trkpt>
      <trkpt lat="43.25193" lon="6.68871">
        <ele>18.1</ele>
        <time>2023-05-24T11:44:42.000Z</time>
      </trkpt>
      <trkpt lat="43.25191" lon="6.68865">
        <ele>18.5</ele>
        <time>2023-05-24T11:44:47.000Z</time>
      </trkpt>
      <trkpt lat="43.2519" lon="6.68859">
        <ele>19.1</ele>
        <time>2023-05-24T11:44:55.000Z</time>
      </trkpt>
      <trkpt lat="43.25187" lon="6.68853">
        <ele>19.8</ele>
        <time>2023-05-24T11:45:03.000Z</time>
      </trkpt>
      <trkpt lat="43.25187" lon="6.68847">
        <ele>20.2</ele>
        <time>2023-05-24T11:45:10.000Z</time>
      </trkpt>
      <trkpt lat="43.25187" lon="6.68841">
        <ele>20.5</ele>
        <time>2023-05-24T11:45:16.000Z</time>
      </trkpt>
      <trkpt lat="43.25187" lon="6.68834">
        <ele>20.6</ele>
        <time>2023-05-24T11:45:22.000Z</time>
      </trkpt>
      <trkpt lat="43.25186" lon="6.68827">
        <ele>20.9</ele>
        <time>2023-05-24T11:45:29.000Z</time>
      </trkpt>
      <trkpt lat="43.25186" lon="6.68821">
        <ele>21.3</ele>
        <time>2023-05-24T11:45:37.000Z</time>
      </trkpt>
      <trkpt lat="43.25186" lon="6.68814">
        <ele>21.7</ele>
        <time>2023-05-24T11:45:42.000Z</time>
      </trkpt>
      <trkpt lat="43.25186" lon="6.68807">
        <ele>22.3</ele>
        <time>2023-05-24T11:45:49.000Z</time>
      </trkpt>
      <trkpt lat="43.25186" lon="6.688">
        <ele>22.7</ele>
        <time>2023-05-24T11:45:55.000Z</time>
      </trkpt>
      <trkpt lat="43.25186" lon="6.68794">
        <ele>23.3</ele>
        <time>2023-05-24T11:46:04.000Z</time>
      </trkpt>
      <trkpt lat="43.25185" lon="6.68787">
        <ele>24.2</ele>
        <time>2023-05-24T11:46:13.000Z</time>
      </trkpt>
      <trkpt lat="43.25183" lon="6.68781">
        <ele>24.6</ele>
        <time>2023-05-24T11:46:18.000Z</time>
      </trkpt>
      <trkpt lat="43.2518" lon="6.68775">
        <ele>25.2</ele>
        <time>2023-05-24T11:46:24.000Z</time>
      </trkpt>
      <trkpt lat="43.25178" lon="6.68769">
        <ele>25.6</ele>
        <time>2023-05-24T11:46:31.000Z</time>
      </trkpt>
      <trkpt lat="43.25177" lon="6.68762">
        <ele>25.9</ele>
        <time>2023-05-24T11:46:39.000Z</time>
      </trkpt>
      <trkpt lat="43.25177" lon="6.68756">
        <ele>26</ele>
        <time>2023-05-24T11:46:51.000Z</time>
      </trkpt>
      <trkpt lat="43.25173" lon="6.68752">
        <ele>26.1</ele>
        <time>2023-05-24T11:47:02.000Z</time>
      </trkpt>
      <trkpt lat="43.25169" lon="6.68748">
        <ele>25.6</ele>
        <time>2023-05-24T11:47:10.000Z</time>
      </trkpt>
      <trkpt lat="43.25167" lon="6.68742">
        <ele>24.5</ele>
        <time>2023-05-24T11:47:23.000Z</time>
      </trkpt>
      <trkpt lat="43.25168" lon="6.68736">
        <ele>23.2</ele>
        <time>2023-05-24T11:47:35.000Z</time>
      </trkpt>
      <trkpt lat="43.25171" lon="6.6873">
        <ele>22.6</ele>
        <time>2023-05-24T11:47:41.000Z</time>
      </trkpt>
      <trkpt lat="43.25168" lon="6.68724">
        <ele>22</ele>
        <time>2023-05-24T11:47:47.000Z</time>
      </trkpt>
      <trkpt lat="43.25166" lon="6.68718">
        <ele>21.5</ele>
        <time>2023-05-24T11:47:52.000Z</time>
      </trkpt>
      <trkpt lat="43.25164" lon="6.68712">
        <ele>21.1</ele>
        <time>2023-05-24T11:47:59.000Z</time>
      </trkpt>
      <trkpt lat="43.25163" lon="6.68706">
        <ele>20.8</ele>
        <time>2023-05-24T11:48:09.000Z</time>
      </trkpt>
      <trkpt lat="43.25163" lon="6.68698">
        <ele>20.5</ele>
        <time>2023-05-24T11:48:16.000Z</time>
      </trkpt>
      <trkpt lat="43.25164" lon="6.68692">
        <ele>20.3</ele>
        <time>2023-05-24T11:48:24.000Z</time>
      </trkpt>
      <trkpt lat="43.25164" lon="6.68686">
        <ele>20.6</ele>
        <time>2023-05-24T11:48:32.000Z</time>
      </trkpt>
      <trkpt lat="43.25163" lon="6.68679">
        <ele>21.4</ele>
        <time>2023-05-24T11:48:42.000Z</time>
      </trkpt>
      <trkpt lat="43.25166" lon="6.68674">
        <ele>21.8</ele>
        <time>2023-05-24T11:48:51.000Z</time>
      </trkpt>
      <trkpt lat="43.25168" lon="6.68668">
        <ele>22.6</ele>
        <time>2023-05-24T11:49:02.000Z</time>
      </trkpt>
      <trkpt lat="43.25168" lon="6.68662">
        <ele>23.5</ele>
        <time>2023-05-24T11:49:13.000Z</time>
      </trkpt>
      <trkpt lat="43.25169" lon="6.68655">
        <ele>23.5</ele>
        <time>2023-05-24T11:49:31.000Z</time>
      </trkpt>
      <trkpt lat="43.25169" lon="6.68649">
        <ele>21.9</ele>
        <time>2023-05-24T11:50:41.000Z</time>
      </trkpt>
      <trkpt lat="43.25169" lon="6.68642">
        <ele>21.7</ele>
        <time>2023-05-24T11:51:15.000Z</time>
      </trkpt>
      <trkpt lat="43.2517" lon="6.68636">
        <ele>21.6</ele>
        <time>2023-05-24T11:51:22.000Z</time>
      </trkpt>
      <trkpt lat="43.25172" lon="6.6863">
        <ele>21.5</ele>
        <time>2023-05-24T11:51:30.000Z</time>
      </trkpt>
      <trkpt lat="43.2517" lon="6.68624">
        <ele>22</ele>
        <time>2023-05-24T11:51:41.000Z</time>
      </trkpt>
      <trkpt lat="43.2517" lon="6.68618">
        <ele>22.8</ele>
        <time>2023-05-24T11:51:50.000Z</time>
      </trkpt>
      <trkpt lat="43.25169" lon="6.68611">
        <ele>23.3</ele>
        <time>2023-05-24T11:52:02.000Z</time>
      </trkpt>
      <trkpt lat="43.25169" lon="6.68605">
        <ele>23.3</ele>
        <time>2023-05-24T11:52:08.000Z</time>
      </trkpt>
      <trkpt lat="43.25168" lon="6.68599">
        <ele>23.2</ele>
        <time>2023-05-24T11:52:13.000Z</time>
      </trkpt>
      <trkpt lat="43.25164" lon="6.68595">
        <ele>22.5</ele>
        <time>2023-05-24T11:52:24.000Z</time>
      </trkpt>
      <trkpt lat="43.25162" lon="6.68589">
        <ele>21.3</ele>
        <time>2023-05-24T11:52:34.000Z</time>
      </trkpt>
      <trkpt lat="43.25159" lon="6.68584">
        <ele>20.7</ele>
        <time>2023-05-24T11:52:40.000Z</time>
      </trkpt>
      <trkpt lat="43.25156" lon="6.68579">
        <ele>20.1</ele>
        <time>2023-05-24T11:52:53.000Z</time>
      </trkpt>
      <trkpt lat="43.25155" lon="6.68572">
        <ele>20</ele>
        <time>2023-05-24T11:53:02.000Z</time>
      </trkpt>
      <trkpt lat="43.25153" lon="6.68566">
        <ele>20.2</ele>
        <time>2023-05-24T11:53:11.000Z</time>
      </trkpt>
      <trkpt lat="43.25151" lon="6.6856">
        <ele>20.3</ele>
        <time>2023-05-24T11:53:19.000Z</time>
      </trkpt>
      <trkpt lat="43.2515" lon="6.68553">
        <ele>20.4</ele>
        <time>2023-05-24T11:53:25.000Z</time>
      </trkpt>
      <trkpt lat="43.25149" lon="6.68545">
        <ele>20.3</ele>
        <time>2023-05-24T11:53:31.000Z</time>
      </trkpt>
      <trkpt lat="43.25148" lon="6.68539">
        <ele>20.2</ele>
        <time>2023-05-24T11:53:36.000Z</time>
      </trkpt>
      <trkpt lat="43.25147" lon="6.68532">
        <ele>20.1</ele>
        <time>2023-05-24T11:53:41.000Z</time>
      </trkpt>
      <trkpt lat="43.25146" lon="6.68526">
        <ele>20</ele>
        <time>2023-05-24T11:53:46.000Z</time>
      </trkpt>
      <trkpt lat="43.25146" lon="6.68519">
        <ele>20</ele>
        <time>2023-05-24T11:53:51.000Z</time>
      </trkpt>
      <trkpt lat="43.25145" lon="6.68512">
        <ele>19.9</ele>
        <time>2023-05-24T11:53:57.000Z</time>
      </trkpt>
      <trkpt lat="43.25143" lon="6.68506">
        <ele>19.9</ele>
        <time>2023-05-24T11:54:03.000Z</time>
      </trkpt>
      <trkpt lat="43.2514" lon="6.68501">
        <ele>19.9</ele>
        <time>2023-05-24T11:54:10.000Z</time>
      </trkpt>
      <trkpt lat="43.25138" lon="6.68496">
        <ele>19.5</ele>
        <time>2023-05-24T11:54:18.000Z</time>
      </trkpt>
      <trkpt lat="43.25135" lon="6.68491">
        <ele>19.2</ele>
        <time>2023-05-24T11:54:28.000Z</time>
      </trkpt>
      <trkpt lat="43.25133" lon="6.68485">
        <ele>19.8</ele>
        <time>2023-05-24T11:54:41.000Z</time>
      </trkpt>
      <trkpt lat="43.25132" lon="6.68478">
        <ele>20.3</ele>
        <time>2023-05-24T11:54:47.000Z</time>
      </trkpt>
      <trkpt lat="43.2513" lon="6.68472">
        <ele>21</ele>
        <time>2023-05-24T11:54:54.000Z</time>
      </trkpt>
      <trkpt lat="43.25125" lon="6.68468">
        <ele>21.4</ele>
        <time>2023-05-24T11:55:00.000Z</time>
      </trkpt>
      <trkpt lat="43.25122" lon="6.68463">
        <ele>21.6</ele>
        <time>2023-05-24T11:55:05.000Z</time>
      </trkpt>
      <trkpt lat="43.25119" lon="6.68457">
        <ele>21.6</ele>
        <time>2023-05-24T11:55:10.000Z</time>
      </trkpt>
      <trkpt lat="43.25117" lon="6.68451">
        <ele>21.4</ele>
        <time>2023-05-24T11:55:15.000Z</time>
      </trkpt>
      <trkpt lat="43.25116" lon="6.68445">
        <ele>21.3</ele>
        <time>2023-05-24T11:55:20.000Z</time>
      </trkpt>
      <trkpt lat="43.25114" lon="6.68439">
        <ele>21.1</ele>
        <time>2023-05-24T11:55:25.000Z</time>
      </trkpt>
      <trkpt lat="43.25111" lon="6.68434">
        <ele>21</ele>
        <time>2023-05-24T11:55:37.000Z</time>
      </trkpt>
      <trkpt lat="43.25109" lon="6.68428">
        <ele>21.1</ele>
        <time>2023-05-24T11:55:43.000Z</time>
      </trkpt>
      <trkpt lat="43.25107" lon="6.68421">
        <ele>21.1</ele>
        <time>2023-05-24T11:55:47.000Z</time>
      </trkpt>
      <trkpt lat="43.25104" lon="6.68416">
        <ele>21.2</ele>
        <time>2023-05-24T11:55:51.000Z</time>
      </trkpt>
      <trkpt lat="43.25101" lon="6.68411">
        <ele>21.2</ele>
        <time>2023-05-24T11:55:57.000Z</time>
      </trkpt>
      <trkpt lat="43.25098" lon="6.68407">
        <ele>20.9</ele>
        <time>2023-05-24T11:56:03.000Z</time>
      </trkpt>
      <trkpt lat="43.25095" lon="6.68401">
        <ele>20.6</ele>
        <time>2023-05-24T11:56:08.000Z</time>
      </trkpt>
      <trkpt lat="43.2509" lon="6.68398">
        <ele>20.4</ele>
        <time>2023-05-24T11:56:13.000Z</time>
      </trkpt>
      <trkpt lat="43.25089" lon="6.68392">
        <ele>19.9</ele>
        <time>2023-05-24T11:56:18.000Z</time>
      </trkpt>
      <trkpt lat="43.25088" lon="6.68386">
        <ele>19.5</ele>
        <time>2023-05-24T11:56:24.000Z</time>
      </trkpt>
      <trkpt lat="43.25085" lon="6.68381">
        <ele>18.7</ele>
        <time>2023-05-24T11:56:37.000Z</time>
      </trkpt>
      <trkpt lat="43.25082" lon="6.68376">
        <ele>18.3</ele>
        <time>2023-05-24T11:56:49.000Z</time>
      </trkpt>
      <trkpt lat="43.25079" lon="6.68371">
        <ele>18.2</ele>
        <time>2023-05-24T11:56:56.000Z</time>
      </trkpt>
      <trkpt lat="43.25079" lon="6.68364">
        <ele>18.4</ele>
        <time>2023-05-24T11:57:05.000Z</time>
      </trkpt>
      <trkpt lat="43.2508" lon="6.68358">
        <ele>18.9</ele>
        <time>2023-05-24T11:57:13.000Z</time>
      </trkpt>
      <trkpt lat="43.25081" lon="6.68352">
        <ele>19.1</ele>
        <time>2023-05-24T11:57:19.000Z</time>
      </trkpt>
      <trkpt lat="43.2508" lon="6.68345">
        <ele>19.5</ele>
        <time>2023-05-24T11:57:25.000Z</time>
      </trkpt>
      <trkpt lat="43.2508" lon="6.68339">
        <ele>19.9</ele>
        <time>2023-05-24T11:57:30.000Z</time>
      </trkpt>
      <trkpt lat="43.25079" lon="6.68332">
        <ele>20.2</ele>
        <time>2023-05-24T11:57:35.000Z</time>
      </trkpt>
      <trkpt lat="43.25081" lon="6.68326">
        <ele>20.5</ele>
        <time>2023-05-24T11:57:41.000Z</time>
      </trkpt>
      <trkpt lat="43.25081" lon="6.68319">
        <ele>20.5</ele>
        <time>2023-05-24T11:57:52.000Z</time>
      </trkpt>
      <trkpt lat="43.25077" lon="6.68316">
        <ele>20.1</ele>
        <time>2023-05-24T11:58:00.000Z</time>
      </trkpt>
      <trkpt lat="43.25072" lon="6.68314">
        <ele>19.4</ele>
        <time>2023-05-24T11:58:08.000Z</time>
      </trkpt>
      <trkpt lat="43.25067" lon="6.68315">
        <ele>18.5</ele>
        <time>2023-05-24T11:58:15.000Z</time>
      </trkpt>
      <trkpt lat="43.25063" lon="6.68312">
        <ele>17.3</ele>
        <time>2023-05-24T11:58:23.000Z</time>
      </trkpt>
      <trkpt lat="43.25058" lon="6.6831">
        <ele>16.4</ele>
        <time>2023-05-24T11:58:29.000Z</time>
      </trkpt>
      <trkpt lat="43.25055" lon="6.68304">
        <ele>15.7</ele>
        <time>2023-05-24T11:58:35.000Z</time>
      </trkpt>
      <trkpt lat="43.25052" lon="6.68299">
        <ele>15.1</ele>
        <time>2023-05-24T11:58:42.000Z</time>
      </trkpt>
      <trkpt lat="43.25047" lon="6.68298">
        <ele>14.9</ele>
        <time>2023-05-24T11:58:49.000Z</time>
      </trkpt>
      <trkpt lat="43.25043" lon="6.68297">
        <ele>15</ele>
        <time>2023-05-24T11:58:57.000Z</time>
      </trkpt>
      <trkpt lat="43.25038" lon="6.68295">
        <ele>16.2</ele>
        <time>2023-05-24T11:59:08.000Z</time>
      </trkpt>
      <trkpt lat="43.25034" lon="6.6829">
        <ele>17.4</ele>
        <time>2023-05-24T11:59:18.000Z</time>
      </trkpt>
      <trkpt lat="43.2503" lon="6.68286">
        <ele>18</ele>
        <time>2023-05-24T11:59:24.000Z</time>
      </trkpt>
      <trkpt lat="43.25027" lon="6.68281">
        <ele>18.4</ele>
        <time>2023-05-24T11:59:29.000Z</time>
      </trkpt>
      <trkpt lat="43.25023" lon="6.68277">
        <ele>18.6</ele>
        <time>2023-05-24T11:59:34.000Z</time>
      </trkpt>
      <trkpt lat="43.25019" lon="6.68277">
        <ele>18.8</ele>
        <time>2023-05-24T11:59:40.000Z</time>
      </trkpt>
      <trkpt lat="43.25014" lon="6.68279">
        <ele>18.8</ele>
        <time>2023-05-24T11:59:44.000Z</time>
      </trkpt>
      <trkpt lat="43.2501" lon="6.68281">
        <ele>18.8</ele>
        <time>2023-05-24T11:59:50.000Z</time>
      </trkpt>
      <trkpt lat="43.25005" lon="6.68282">
        <ele>18.7</ele>
        <time>2023-05-24T12:00:01.000Z</time>
      </trkpt>
      <trkpt lat="43.25001" lon="6.68278">
        <ele>18.2</ele>
        <time>2023-05-24T12:00:08.000Z</time>
      </trkpt>
      <trkpt lat="43.24996" lon="6.68276">
        <ele>17.9</ele>
        <time>2023-05-24T12:00:13.000Z</time>
      </trkpt>
      <trkpt lat="43.24992" lon="6.68272">
        <ele>17.5</ele>
        <time>2023-05-24T12:00:19.000Z</time>
      </trkpt>
      <trkpt lat="43.24988" lon="6.68268">
        <ele>17.3</ele>
        <time>2023-05-24T12:00:24.000Z</time>
      </trkpt>
      <trkpt lat="43.24984" lon="6.68264">
        <ele>17.1</ele>
        <time>2023-05-24T12:00:29.000Z</time>
      </trkpt>
      <trkpt lat="43.24979" lon="6.6826">
        <ele>16.9</ele>
        <time>2023-05-24T12:00:34.000Z</time>
      </trkpt>
      <trkpt lat="43.24974" lon="6.68256">
        <ele>16.7</ele>
        <time>2023-05-24T12:00:39.000Z</time>
      </trkpt>
      <trkpt lat="43.2497" lon="6.68252">
        <ele>16.7</ele>
        <time>2023-05-24T12:00:44.000Z</time>
      </trkpt>
      <trkpt lat="43.24966" lon="6.68247">
        <ele>16.6</ele>
        <time>2023-05-24T12:00:50.000Z</time>
      </trkpt>
      <trkpt lat="43.24965" lon="6.68241">
        <ele>16.6</ele>
        <time>2023-05-24T12:00:56.000Z</time>
      </trkpt>
      <trkpt lat="43.24965" lon="6.68234">
        <ele>16.7</ele>
        <time>2023-05-24T12:01:01.000Z</time>
      </trkpt>
      <trkpt lat="43.24966" lon="6.68227">
        <ele>16.6</ele>
        <time>2023-05-24T12:01:06.000Z</time>
      </trkpt>
      <trkpt lat="43.24965" lon="6.6822">
        <ele>16.6</ele>
        <time>2023-05-24T12:01:12.000Z</time>
      </trkpt>
      <trkpt lat="43.24964" lon="6.68213">
        <ele>16.5</ele>
        <time>2023-05-24T12:01:17.000Z</time>
      </trkpt>
      <trkpt lat="43.24961" lon="6.68208">
        <ele>16.4</ele>
        <time>2023-05-24T12:01:22.000Z</time>
      </trkpt>
      <trkpt lat="43.24957" lon="6.68204">
        <ele>16.3</ele>
        <time>2023-05-24T12:01:27.000Z</time>
      </trkpt>
      <trkpt lat="43.24953" lon="6.68201">
        <ele>16.2</ele>
        <time>2023-05-24T12:01:32.000Z</time>
      </trkpt>
      <trkpt lat="43.24948" lon="6.68198">
        <ele>16.2</ele>
        <time>2023-05-24T12:01:37.000Z</time>
      </trkpt>
      <trkpt lat="43.24944" lon="6.68195">
        <ele>16.1</ele>
        <time>2023-05-24T12:01:43.000Z</time>
      </trkpt>
      <trkpt lat="43.2494" lon="6.68191">
        <ele>15.8</ele>
        <time>2023-05-24T12:01:48.000Z</time>
      </trkpt>
      <trkpt lat="43.24935" lon="6.68187">
        <ele>15.3</ele>
        <time>2023-05-24T12:01:54.000Z</time>
      </trkpt>
      <trkpt lat="43.24931" lon="6.68184">
        <ele>15.1</ele>
        <time>2023-05-24T12:01:59.000Z</time>
      </trkpt>
      <trkpt lat="43.24926" lon="6.68182">
        <ele>15.1</ele>
        <time>2023-05-24T12:02:04.000Z</time>
      </trkpt>
      <trkpt lat="43.24921" lon="6.6818">
        <ele>15</ele>
        <time>2023-05-24T12:02:09.000Z</time>
      </trkpt>
      <trkpt lat="43.24917" lon="6.68176">
        <ele>15</ele>
        <time>2023-05-24T12:02:14.000Z</time>
      </trkpt>
      <trkpt lat="43.24912" lon="6.68173">
        <ele>14.9</ele>
        <time>2023-05-24T12:02:20.000Z</time>
      </trkpt>
      <trkpt lat="43.24907" lon="6.6817">
        <ele>14.9</ele>
        <time>2023-05-24T12:02:25.000Z</time>
      </trkpt>
      <trkpt lat="43.24904" lon="6.68166">
        <ele>14.8</ele>
        <time>2023-05-24T12:02:29.000Z</time>
      </trkpt>
      <trkpt lat="43.24901" lon="6.68159">
        <ele>14.7</ele>
        <time>2023-05-24T12:02:34.000Z</time>
      </trkpt>
      <trkpt lat="43.249" lon="6.68153">
        <ele>14.5</ele>
        <time>2023-05-24T12:02:39.000Z</time>
      </trkpt>
      <trkpt lat="43.24897" lon="6.68147">
        <ele>14.5</ele>
        <time>2023-05-24T12:02:45.000Z</time>
      </trkpt>
      <trkpt lat="43.24895" lon="6.68141">
        <ele>14.4</ele>
        <time>2023-05-24T12:02:50.000Z</time>
      </trkpt>
      <trkpt lat="43.24892" lon="6.68134">
        <ele>14.5</ele>
        <time>2023-05-24T12:02:55.000Z</time>
      </trkpt>
      <trkpt lat="43.2489" lon="6.68128">
        <ele>14.5</ele>
        <time>2023-05-24T12:03:00.000Z</time>
      </trkpt>
      <trkpt lat="43.24888" lon="6.68121">
        <ele>14.6</ele>
        <time>2023-05-24T12:03:05.000Z</time>
      </trkpt>
      <trkpt lat="43.24886" lon="6.68115">
        <ele>14.6</ele>
        <time>2023-05-24T12:03:10.000Z</time>
      </trkpt>
      <trkpt lat="43.24884" lon="6.68109">
        <ele>14.7</ele>
        <time>2023-05-24T12:03:17.000Z</time>
      </trkpt>
      <trkpt lat="43.24884" lon="6.68102">
        <ele>14.7</ele>
        <time>2023-05-24T12:03:24.000Z</time>
      </trkpt>
      <trkpt lat="43.24882" lon="6.68097">
        <ele>15.2</ele>
        <time>2023-05-24T12:03:42.000Z</time>
      </trkpt>
      <trkpt lat="43.24879" lon="6.68092">
        <ele>15.7</ele>
        <time>2023-05-24T12:04:51.000Z</time>
      </trkpt>
      <trkpt lat="43.24877" lon="6.68086">
        <ele>15.5</ele>
        <time>2023-05-24T12:05:32.000Z</time>
      </trkpt>
      <trkpt lat="43.24875" lon="6.68081">
        <ele>14.5</ele>
        <time>2023-05-24T12:06:02.000Z</time>
      </trkpt>
      <trkpt lat="43.2487" lon="6.68082">
        <ele>14</ele>
        <time>2023-05-24T12:06:17.000Z</time>
      </trkpt>
      <trkpt lat="43.24868" lon="6.68087">
        <ele>12.9</ele>
        <time>2023-05-24T12:06:47.000Z</time>
      </trkpt>
      <trkpt lat="43.2487" lon="6.68082">
        <ele>12.5</ele>
        <time>2023-05-24T12:07:03.000Z</time>
      </trkpt>
      <trkpt lat="43.24874" lon="6.68086">
        <ele>13.2</ele>
        <time>2023-05-24T12:10:16.000Z</time>
      </trkpt>
      <trkpt lat="43.24878" lon="6.68088">
        <ele>13.9</ele>
        <time>2023-05-24T12:10:28.000Z</time>
      </trkpt>
      <trkpt lat="43.24881" lon="6.68084">
        <ele>16.2</ele>
        <time>2023-05-24T12:11:26.000Z</time>
      </trkpt>
      <trkpt lat="43.24884" lon="6.68078">
        <ele>16.4</ele>
        <time>2023-05-24T12:11:46.000Z</time>
      </trkpt>
      <trkpt lat="43.24884" lon="6.68072">
        <ele>16.4</ele>
        <time>2023-05-24T12:11:53.000Z</time>
      </trkpt>
      <trkpt lat="43.24885" lon="6.68066">
        <ele>16.8</ele>
        <time>2023-05-24T12:12:18.000Z</time>
      </trkpt>
      <trkpt lat="43.24885" lon="6.6806">
        <ele>16.9</ele>
        <time>2023-05-24T12:12:28.000Z</time>
      </trkpt>
      <trkpt lat="43.24883" lon="6.68053">
        <ele>16.9</ele>
        <time>2023-05-24T12:12:33.000Z</time>
      </trkpt>
      <trkpt lat="43.2488" lon="6.68048">
        <ele>17</ele>
        <time>2023-05-24T12:12:39.000Z</time>
      </trkpt>
      <trkpt lat="43.24877" lon="6.68041">
        <ele>17</ele>
        <time>2023-05-24T12:12:44.000Z</time>
      </trkpt>
      <trkpt lat="43.24876" lon="6.68035">
        <ele>17</ele>
        <time>2023-05-24T12:12:49.000Z</time>
      </trkpt>
      <trkpt lat="43.24875" lon="6.68027">
        <ele>17.4</ele>
        <time>2023-05-24T12:12:55.000Z</time>
      </trkpt>
      <trkpt lat="43.24873" lon="6.6802">
        <ele>17.8</ele>
        <time>2023-05-24T12:13:02.000Z</time>
      </trkpt>
      <trkpt lat="43.24872" lon="6.68013">
        <ele>18</ele>
        <time>2023-05-24T12:13:07.000Z</time>
      </trkpt>
      <trkpt lat="43.24871" lon="6.68006">
        <ele>18.1</ele>
        <time>2023-05-24T12:13:11.000Z</time>
      </trkpt>
      <trkpt lat="43.24869" lon="6.68">
        <ele>18.2</ele>
        <time>2023-05-24T12:13:15.000Z</time>
      </trkpt>
      <trkpt lat="43.24866" lon="6.67994">
        <ele>18.3</ele>
        <time>2023-05-24T12:13:20.000Z</time>
      </trkpt>
      <trkpt lat="43.24862" lon="6.67991">
        <ele>18.4</ele>
        <time>2023-05-24T12:13:24.000Z</time>
      </trkpt>
      <trkpt lat="43.24859" lon="6.67986">
        <ele>18.5</ele>
        <time>2023-05-24T12:13:30.000Z</time>
      </trkpt>
      <trkpt lat="43.24855" lon="6.67981">
        <ele>18.6</ele>
        <time>2023-05-24T12:13:37.000Z</time>
      </trkpt>
      <trkpt lat="43.24852" lon="6.67977">
        <ele>18.7</ele>
        <time>2023-05-24T12:13:42.000Z</time>
      </trkpt>
      <trkpt lat="43.24848" lon="6.67974">
        <ele>18.9</ele>
        <time>2023-05-24T12:13:48.000Z</time>
      </trkpt>
      <trkpt lat="43.24843" lon="6.67973">
        <ele>19</ele>
        <time>2023-05-24T12:13:52.000Z</time>
      </trkpt>
      <trkpt lat="43.24839" lon="6.67968">
        <ele>19</ele>
        <time>2023-05-24T12:13:56.000Z</time>
      </trkpt>
      <trkpt lat="43.24836" lon="6.67963">
        <ele>19.1</ele>
        <time>2023-05-24T12:14:01.000Z</time>
      </trkpt>
      <trkpt lat="43.24832" lon="6.67959">
        <ele>19.1</ele>
        <time>2023-05-24T12:14:05.000Z</time>
      </trkpt>
      <trkpt lat="43.24827" lon="6.67955">
        <ele>19.1</ele>
        <time>2023-05-24T12:14:10.000Z</time>
      </trkpt>
      <trkpt lat="43.24823" lon="6.67953">
        <ele>19.1</ele>
        <time>2023-05-24T12:14:14.000Z</time>
      </trkpt>
      <trkpt lat="43.24819" lon="6.6795">
        <ele>19.1</ele>
        <time>2023-05-24T12:14:18.000Z</time>
      </trkpt>
      <trkpt lat="43.24814" lon="6.67947">
        <ele>19.1</ele>
        <time>2023-05-24T12:14:24.000Z</time>
      </trkpt>
      <trkpt lat="43.24809" lon="6.67944">
        <ele>19.1</ele>
        <time>2023-05-24T12:14:29.000Z</time>
      </trkpt>
      <trkpt lat="43.24805" lon="6.67941">
        <ele>19.1</ele>
        <time>2023-05-24T12:14:34.000Z</time>
      </trkpt>
      <trkpt lat="43.24801" lon="6.67938">
        <ele>19.1</ele>
        <time>2023-05-24T12:14:39.000Z</time>
      </trkpt>
      <trkpt lat="43.24798" lon="6.67933">
        <ele>18.8</ele>
        <time>2023-05-24T12:14:44.000Z</time>
      </trkpt>
      <trkpt lat="43.24794" lon="6.6793">
        <ele>18.6</ele>
        <time>2023-05-24T12:14:48.000Z</time>
      </trkpt>
      <trkpt lat="43.2479" lon="6.67926">
        <ele>18.5</ele>
        <time>2023-05-24T12:14:53.000Z</time>
      </trkpt>
      <trkpt lat="43.24787" lon="6.67922">
        <ele>18.3</ele>
        <time>2023-05-24T12:14:58.000Z</time>
      </trkpt>
      <trkpt lat="43.24784" lon="6.67917">
        <ele>18.4</ele>
        <time>2023-05-24T12:15:03.000Z</time>
      </trkpt>
      <trkpt lat="43.2478" lon="6.67914">
        <ele>18.8</ele>
        <time>2023-05-24T12:15:08.000Z</time>
      </trkpt>
      <trkpt lat="43.24778" lon="6.67907">
        <ele>19.3</ele>
        <time>2023-05-24T12:15:14.000Z</time>
      </trkpt>
      <trkpt lat="43.24775" lon="6.67901">
        <ele>19.6</ele>
        <time>2023-05-24T12:15:19.000Z</time>
      </trkpt>
      <trkpt lat="43.24771" lon="6.67897">
        <ele>19.8</ele>
        <time>2023-05-24T12:15:23.000Z</time>
      </trkpt>
      <trkpt lat="43.24766" lon="6.67893">
        <ele>19.9</ele>
        <time>2023-05-24T12:15:27.000Z</time>
      </trkpt>
      <trkpt lat="43.24762" lon="6.67889">
        <ele>20</ele>
        <time>2023-05-24T12:15:31.000Z</time>
      </trkpt>
      <trkpt lat="43.24758" lon="6.67885">
        <ele>20.1</ele>
        <time>2023-05-24T12:15:36.000Z</time>
      </trkpt>
      <trkpt lat="43.24754" lon="6.67881">
        <ele>20.2</ele>
        <time>2023-05-24T12:15:41.000Z</time>
      </trkpt>
      <trkpt lat="43.24749" lon="6.67876">
        <ele>20.2</ele>
        <time>2023-05-24T12:15:45.000Z</time>
      </trkpt>
      <trkpt lat="43.24745" lon="6.67871">
        <ele>20.3</ele>
        <time>2023-05-24T12:15:50.000Z</time>
      </trkpt>
      <trkpt lat="43.24741" lon="6.67868">
        <ele>20.3</ele>
        <time>2023-05-24T12:15:54.000Z</time>
      </trkpt>
      <trkpt lat="43.24737" lon="6.67864">
        <ele>20.3</ele>
        <time>2023-05-24T12:16:00.000Z</time>
      </trkpt>
      <trkpt lat="43.24733" lon="6.6786">
        <ele>20.4</ele>
        <time>2023-05-24T12:16:05.000Z</time>
      </trkpt>
      <trkpt lat="43.24728" lon="6.67856">
        <ele>20.5</ele>
        <time>2023-05-24T12:16:10.000Z</time>
      </trkpt>
      <trkpt lat="43.24724" lon="6.67852">
        <ele>20.6</ele>
        <time>2023-05-24T12:16:14.000Z</time>
      </trkpt>
      <trkpt lat="43.24719" lon="6.6785">
        <ele>20.7</ele>
        <time>2023-05-24T12:16:18.000Z</time>
      </trkpt>
      <trkpt lat="43.24715" lon="6.6785">
        <ele>20.8</ele>
        <time>2023-05-24T12:16:22.000Z</time>
      </trkpt>
      <trkpt lat="43.2471" lon="6.67849">
        <ele>20.8</ele>
        <time>2023-05-24T12:16:26.000Z</time>
      </trkpt>
      <trkpt lat="43.24706" lon="6.67846">
        <ele>20.9</ele>
        <time>2023-05-24T12:16:30.000Z</time>
      </trkpt>
      <trkpt lat="43.24701" lon="6.67843">
        <ele>21</ele>
        <time>2023-05-24T12:16:34.000Z</time>
      </trkpt>
      <trkpt lat="43.24698" lon="6.67839">
        <ele>21.2</ele>
        <time>2023-05-24T12:16:39.000Z</time>
      </trkpt>
      <trkpt lat="43.24693" lon="6.67835">
        <ele>21.5</ele>
        <time>2023-05-24T12:16:45.000Z</time>
      </trkpt>
      <trkpt lat="43.24691" lon="6.67829">
        <ele>22.2</ele>
        <time>2023-05-24T12:16:51.000Z</time>
      </trkpt>
      <trkpt lat="43.24688" lon="6.67824">
        <ele>22.9</ele>
        <time>2023-05-24T12:16:57.000Z</time>
      </trkpt>
      <trkpt lat="43.24685" lon="6.67819">
        <ele>23.6</ele>
        <time>2023-05-24T12:17:03.000Z</time>
      </trkpt>
      <trkpt lat="43.24681" lon="6.67814">
        <ele>24.5</ele>
        <time>2023-05-24T12:17:09.000Z</time>
      </trkpt>
      <trkpt lat="43.24678" lon="6.67808">
        <ele>25.5</ele>
        <time>2023-05-24T12:17:16.000Z</time>
      </trkpt>
      <trkpt lat="43.24675" lon="6.67802">
        <ele>26.3</ele>
        <time>2023-05-24T12:17:22.000Z</time>
      </trkpt>
      <trkpt lat="43.24671" lon="6.67799">
        <ele>26.9</ele>
        <time>2023-05-24T12:17:28.000Z</time>
      </trkpt>
      <trkpt lat="43.24669" lon="6.67792">
        <ele>27.9</ele>
        <time>2023-05-24T12:17:35.000Z</time>
      </trkpt>
      <trkpt lat="43.24666" lon="6.67787">
        <ele>28.4</ele>
        <time>2023-05-24T12:17:40.000Z</time>
      </trkpt>
      <trkpt lat="43.24663" lon="6.67782">
        <ele>28.9</ele>
        <time>2023-05-24T12:17:45.000Z</time>
      </trkpt>
      <trkpt lat="43.24658" lon="6.67778">
        <ele>29.2</ele>
        <time>2023-05-24T12:17:50.000Z</time>
      </trkpt>
      <trkpt lat="43.24653" lon="6.67776">
        <ele>29.4</ele>
        <time>2023-05-24T12:17:54.000Z</time>
      </trkpt>
      <trkpt lat="43.24649" lon="6.67772">
        <ele>29.6</ele>
        <time>2023-05-24T12:17:59.000Z</time>
      </trkpt>
      <trkpt lat="43.24645" lon="6.67768">
        <ele>29.9</ele>
        <time>2023-05-24T12:18:04.000Z</time>
      </trkpt>
      <trkpt lat="43.2464" lon="6.67765">
        <ele>30.2</ele>
        <time>2023-05-24T12:18:09.000Z</time>
      </trkpt>
      <trkpt lat="43.24637" lon="6.6776">
        <ele>30.5</ele>
        <time>2023-05-24T12:18:14.000Z</time>
      </trkpt>
      <trkpt lat="43.24633" lon="6.67754">
        <ele>30.8</ele>
        <time>2023-05-24T12:18:19.000Z</time>
      </trkpt>
      <trkpt lat="43.24629" lon="6.67749">
        <ele>31.2</ele>
        <time>2023-05-24T12:18:24.000Z</time>
      </trkpt>
      <trkpt lat="43.24626" lon="6.67744">
        <ele>31.5</ele>
        <time>2023-05-24T12:18:28.000Z</time>
      </trkpt>
      <trkpt lat="43.24623" lon="6.67739">
        <ele>31.7</ele>
        <time>2023-05-24T12:18:32.000Z</time>
      </trkpt>
      <trkpt lat="43.24618" lon="6.67734">
        <ele>32</ele>
        <time>2023-05-24T12:18:37.000Z</time>
      </trkpt>
      <trkpt lat="43.24614" lon="6.6773">
        <ele>32.2</ele>
        <time>2023-05-24T12:18:42.000Z</time>
      </trkpt>
      <trkpt lat="43.24612" lon="6.67726">
        <ele>32.5</ele>
        <time>2023-05-24T12:18:47.000Z</time>
      </trkpt>
      <trkpt lat="43.24608" lon="6.67721">
        <ele>32.8</ele>
        <time>2023-05-24T12:18:52.000Z</time>
      </trkpt>
      <trkpt lat="43.24605" lon="6.67716">
        <ele>33.1</ele>
        <time>2023-05-24T12:18:56.000Z</time>
      </trkpt>
      <trkpt lat="43.24601" lon="6.67712">
        <ele>33.4</ele>
        <time>2023-05-24T12:19:00.000Z</time>
      </trkpt>
      <trkpt lat="43.24597" lon="6.67709">
        <ele>33.6</ele>
        <time>2023-05-24T12:19:05.000Z</time>
      </trkpt>
      <trkpt lat="43.24592" lon="6.67706">
        <ele>33.8</ele>
        <time>2023-05-24T12:19:09.000Z</time>
      </trkpt>
      <trkpt lat="43.24588" lon="6.67702">
        <ele>33.9</ele>
        <time>2023-05-24T12:19:13.000Z</time>
      </trkpt>
      <trkpt lat="43.24584" lon="6.67699">
        <ele>33.9</ele>
        <time>2023-05-24T12:19:17.000Z</time>
      </trkpt>
      <trkpt lat="43.24579" lon="6.67696">
        <ele>33.8</ele>
        <time>2023-05-24T12:19:21.000Z</time>
      </trkpt>
      <trkpt lat="43.24575" lon="6.67694">
        <ele>33.7</ele>
        <time>2023-05-24T12:19:25.000Z</time>
      </trkpt>
      <trkpt lat="43.24571" lon="6.67691">
        <ele>33.3</ele>
        <time>2023-05-24T12:19:33.000Z</time>
      </trkpt>
      <trkpt lat="43.24566" lon="6.67687">
        <ele>33.1</ele>
        <time>2023-05-24T12:19:38.000Z</time>
      </trkpt>
      <trkpt lat="43.24561" lon="6.67684">
        <ele>32.8</ele>
        <time>2023-05-24T12:19:43.000Z</time>
      </trkpt>
      <trkpt lat="43.24558" lon="6.67679">
        <ele>32.7</ele>
        <time>2023-05-24T12:19:47.000Z</time>
      </trkpt>
      <trkpt lat="43.24554" lon="6.67674">
        <ele>32.6</ele>
        <time>2023-05-24T12:19:52.000Z</time>
      </trkpt>
      <trkpt lat="43.24552" lon="6.67668">
        <ele>32.5</ele>
        <time>2023-05-24T12:19:57.000Z</time>
      </trkpt>
      <trkpt lat="43.24548" lon="6.67662">
        <ele>32.4</ele>
        <time>2023-05-24T12:20:02.000Z</time>
      </trkpt>
      <trkpt lat="43.24545" lon="6.67658">
        <ele>32.1</ele>
        <time>2023-05-24T12:20:08.000Z</time>
      </trkpt>
      <trkpt lat="43.24541" lon="6.67654">
        <ele>31.6</ele>
        <time>2023-05-24T12:20:16.000Z</time>
      </trkpt>
      <trkpt lat="43.24538" lon="6.67649">
        <ele>31.1</ele>
        <time>2023-05-24T12:20:21.000Z</time>
      </trkpt>
      <trkpt lat="43.24534" lon="6.67647">
        <ele>30.8</ele>
        <time>2023-05-24T12:20:25.000Z</time>
      </trkpt>
      <trkpt lat="43.24531" lon="6.67642">
        <ele>30.6</ele>
        <time>2023-05-24T12:20:29.000Z</time>
      </trkpt>
      <trkpt lat="43.24528" lon="6.67637">
        <ele>30.3</ele>
        <time>2023-05-24T12:20:36.000Z</time>
      </trkpt>
      <trkpt lat="43.24524" lon="6.67632">
        <ele>30.2</ele>
        <time>2023-05-24T12:20:42.000Z</time>
      </trkpt>
      <trkpt lat="43.24523" lon="6.67626">
        <ele>30.1</ele>
        <time>2023-05-24T12:20:49.000Z</time>
      </trkpt>
      <trkpt lat="43.24522" lon="6.67619">
        <ele>30.5</ele>
        <time>2023-05-24T12:20:58.000Z</time>
      </trkpt>
      <trkpt lat="43.24519" lon="6.67613">
        <ele>31.3</ele>
        <time>2023-05-24T12:21:11.000Z</time>
      </trkpt>
      <trkpt lat="43.24522" lon="6.67608">
        <ele>32.9</ele>
        <time>2023-05-24T12:22:12.000Z</time>
      </trkpt>
      <trkpt lat="43.24521" lon="6.67602">
        <ele>33.2</ele>
        <time>2023-05-24T12:22:20.000Z</time>
      </trkpt>
      <trkpt lat="43.24522" lon="6.67595">
        <ele>33.5</ele>
        <time>2023-05-24T12:22:28.000Z</time>
      </trkpt>
      <trkpt lat="43.24521" lon="6.67589">
        <ele>34.8</ele>
        <time>2023-05-24T12:22:59.000Z</time>
      </trkpt>
      <trkpt lat="43.24522" lon="6.67583">
        <ele>35.5</ele>
        <time>2023-05-24T12:23:15.000Z</time>
      </trkpt>
      <trkpt lat="43.24523" lon="6.67576">
        <ele>36</ele>
        <time>2023-05-24T12:23:23.000Z</time>
      </trkpt>
      <trkpt lat="43.24523" lon="6.67569">
        <ele>36.8</ele>
        <time>2023-05-24T12:23:31.000Z</time>
      </trkpt>
      <trkpt lat="43.24523" lon="6.67563">
        <ele>37.8</ele>
        <time>2023-05-24T12:23:39.000Z</time>
      </trkpt>
      <trkpt lat="43.24523" lon="6.67557">
        <ele>38.9</ele>
        <time>2023-05-24T12:23:47.000Z</time>
      </trkpt>
      <trkpt lat="43.24523" lon="6.6755">
        <ele>39.9</ele>
        <time>2023-05-24T12:23:55.000Z</time>
      </trkpt>
      <trkpt lat="43.24525" lon="6.67544">
        <ele>40.5</ele>
        <time>2023-05-24T12:24:02.000Z</time>
      </trkpt>
      <trkpt lat="43.24527" lon="6.67538">
        <ele>41.5</ele>
        <time>2023-05-24T12:24:10.000Z</time>
      </trkpt>
      <trkpt lat="43.2453" lon="6.67532">
        <ele>42</ele>
        <time>2023-05-24T12:24:15.000Z</time>
      </trkpt>
      <trkpt lat="43.24532" lon="6.67526">
        <ele>42.5</ele>
        <time>2023-05-24T12:24:21.000Z</time>
      </trkpt>
      <trkpt lat="43.24535" lon="6.67521">
        <ele>42.8</ele>
        <time>2023-05-24T12:24:26.000Z</time>
      </trkpt>
      <trkpt lat="43.24538" lon="6.67516">
        <ele>43.1</ele>
        <time>2023-05-24T12:24:31.000Z</time>
      </trkpt>
      <trkpt lat="43.24543" lon="6.67511">
        <ele>43.3</ele>
        <time>2023-05-24T12:24:37.000Z</time>
      </trkpt>
      <trkpt lat="43.24547" lon="6.67508">
        <ele>43.6</ele>
        <time>2023-05-24T12:24:45.000Z</time>
      </trkpt>
      <trkpt lat="43.24551" lon="6.67505">
        <ele>43.9</ele>
        <time>2023-05-24T12:24:51.000Z</time>
      </trkpt>
      <trkpt lat="43.24555" lon="6.67502">
        <ele>44.2</ele>
        <time>2023-05-24T12:24:57.000Z</time>
      </trkpt>
      <trkpt lat="43.24559" lon="6.67498">
        <ele>44.4</ele>
        <time>2023-05-24T12:25:03.000Z</time>
      </trkpt>
      <trkpt lat="43.24564" lon="6.67494">
        <ele>44.6</ele>
        <time>2023-05-24T12:25:09.000Z</time>
      </trkpt>
      <trkpt lat="43.24568" lon="6.67492">
        <ele>45</ele>
        <time>2023-05-24T12:25:15.000Z</time>
      </trkpt>
      <trkpt lat="43.24573" lon="6.67489">
        <ele>45.6</ele>
        <time>2023-05-24T12:25:22.000Z</time>
      </trkpt>
      <trkpt lat="43.24578" lon="6.67487">
        <ele>46.1</ele>
        <time>2023-05-24T12:25:29.000Z</time>
      </trkpt>
      <trkpt lat="43.24583" lon="6.67486">
        <ele>46.5</ele>
        <time>2023-05-24T12:25:35.000Z</time>
      </trkpt>
      <trkpt lat="43.24588" lon="6.67485">
        <ele>47.2</ele>
        <time>2023-05-24T12:25:42.000Z</time>
      </trkpt>
      <trkpt lat="43.24593" lon="6.67485">
        <ele>47.7</ele>
        <time>2023-05-24T12:25:50.000Z</time>
      </trkpt>
      <trkpt lat="43.24598" lon="6.67485">
        <ele>48.4</ele>
        <time>2023-05-24T12:25:57.000Z</time>
      </trkpt>
      <trkpt lat="43.24603" lon="6.67485">
        <ele>49.1</ele>
        <time>2023-05-24T12:26:04.000Z</time>
      </trkpt>
      <trkpt lat="43.24607" lon="6.67487">
        <ele>49.7</ele>
        <time>2023-05-24T12:26:12.000Z</time>
      </trkpt>
      <trkpt lat="43.24612" lon="6.6749">
        <ele>50.2</ele>
        <time>2023-05-24T12:26:20.000Z</time>
      </trkpt>
      <trkpt lat="43.24616" lon="6.67493">
        <ele>50.4</ele>
        <time>2023-05-24T12:26:25.000Z</time>
      </trkpt>
      <trkpt lat="43.24621" lon="6.67495">
        <ele>50.7</ele>
        <time>2023-05-24T12:26:31.000Z</time>
      </trkpt>
      <trkpt lat="43.24626" lon="6.67498">
        <ele>51</ele>
        <time>2023-05-24T12:26:37.000Z</time>
      </trkpt>
      <trkpt lat="43.2463" lon="6.675">
        <ele>51.5</ele>
        <time>2023-05-24T12:26:43.000Z</time>
      </trkpt>
      <trkpt lat="43.24634" lon="6.67505">
        <ele>52.1</ele>
        <time>2023-05-24T12:26:50.000Z</time>
      </trkpt>
      <trkpt lat="43.24637" lon="6.67509">
        <ele>52.6</ele>
        <time>2023-05-24T12:26:56.000Z</time>
      </trkpt>
      <trkpt lat="43.24642" lon="6.67511">
        <ele>53.1</ele>
        <time>2023-05-24T12:27:02.000Z</time>
      </trkpt>
      <trkpt lat="43.24646" lon="6.67514">
        <ele>53.7</ele>
        <time>2023-05-24T12:27:09.000Z</time>
      </trkpt>
      <trkpt lat="43.24651" lon="6.67516">
        <ele>54.3</ele>
        <time>2023-05-24T12:27:15.000Z</time>
      </trkpt>
      <trkpt lat="43.24656" lon="6.67517">
        <ele>54.9</ele>
        <time>2023-05-24T12:27:21.000Z</time>
      </trkpt>
      <trkpt lat="43.24661" lon="6.67518">
        <ele>55.3</ele>
        <time>2023-05-24T12:27:27.000Z</time>
      </trkpt>
      <trkpt lat="43.24666" lon="6.6752">
        <ele>55.8</ele>
        <time>2023-05-24T12:27:33.000Z</time>
      </trkpt>
      <trkpt lat="43.24671" lon="6.67522">
        <ele>56.3</ele>
        <time>2023-05-24T12:27:39.000Z</time>
      </trkpt>
      <trkpt lat="43.24675" lon="6.67524">
        <ele>56.8</ele>
        <time>2023-05-24T12:27:45.000Z</time>
      </trkpt>
      <trkpt lat="43.2468" lon="6.67525">
        <ele>57.3</ele>
        <time>2023-05-24T12:27:51.000Z</time>
      </trkpt>
      <trkpt lat="43.24685" lon="6.67527">
        <ele>57.8</ele>
        <time>2023-05-24T12:27:57.000Z</time>
      </trkpt>
      <trkpt lat="43.24689" lon="6.67529">
        <ele>58.3</ele>
        <time>2023-05-24T12:28:03.000Z</time>
      </trkpt>
      <trkpt lat="43.24694" lon="6.6753">
        <ele>58.7</ele>
        <time>2023-05-24T12:28:09.000Z</time>
      </trkpt>
      <trkpt lat="43.24699" lon="6.67532">
        <ele>59</ele>
        <time>2023-05-24T12:28:15.000Z</time>
      </trkpt>
      <trkpt lat="43.24703" lon="6.67534">
        <ele>59.4</ele>
        <time>2023-05-24T12:28:21.000Z</time>
      </trkpt>
      <trkpt lat="43.24707" lon="6.67536">
        <ele>59.8</ele>
        <time>2023-05-24T12:28:27.000Z</time>
      </trkpt>
      <trkpt lat="43.24712" lon="6.67538">
        <ele>60.4</ele>
        <time>2023-05-24T12:28:33.000Z</time>
      </trkpt>
      <trkpt lat="43.24716" lon="6.6754">
        <ele>61</ele>
        <time>2023-05-24T12:28:40.000Z</time>
      </trkpt>
      <trkpt lat="43.24721" lon="6.67543">
        <ele>61.7</ele>
        <time>2023-05-24T12:28:47.000Z</time>
      </trkpt>
      <trkpt lat="43.24725" lon="6.67545">
        <ele>62.2</ele>
        <time>2023-05-24T12:28:53.000Z</time>
      </trkpt>
      <trkpt lat="43.2473" lon="6.67548">
        <ele>62.9</ele>
        <time>2023-05-24T12:29:00.000Z</time>
      </trkpt>
      <trkpt lat="43.24735" lon="6.6755">
        <ele>63.7</ele>
        <time>2023-05-24T12:29:06.000Z</time>
      </trkpt>
      <trkpt lat="43.24739" lon="6.67551">
        <ele>64.3</ele>
        <time>2023-05-24T12:29:12.000Z</time>
      </trkpt>
      <trkpt lat="43.24744" lon="6.67552">
        <ele>64.8</ele>
        <time>2023-05-24T12:29:18.000Z</time>
      </trkpt>
      <trkpt lat="43.24749" lon="6.67553">
        <ele>65.2</ele>
        <time>2023-05-24T12:29:25.000Z</time>
      </trkpt>
      <trkpt lat="43.24754" lon="6.67555">
        <ele>65.5</ele>
        <time>2023-05-24T12:29:31.000Z</time>
      </trkpt>
      <trkpt lat="43.24758" lon="6.67558">
        <ele>66</ele>
        <time>2023-05-24T12:29:37.000Z</time>
      </trkpt>
      <trkpt lat="43.24763" lon="6.6756">
        <ele>66.5</ele>
        <time>2023-05-24T12:29:43.000Z</time>
      </trkpt>
      <trkpt lat="43.24768" lon="6.6756">
        <ele>67</ele>
        <time>2023-05-24T12:29:48.000Z</time>
      </trkpt>
      <trkpt lat="43.24773" lon="6.67559">
        <ele>67.4</ele>
        <time>2023-05-24T12:29:53.000Z</time>
      </trkpt>
      <trkpt lat="43.24779" lon="6.67559">
        <ele>68</ele>
        <time>2023-05-24T12:30:00.000Z</time>
      </trkpt>
      <trkpt lat="43.24783" lon="6.67557">
        <ele>68.3</ele>
        <time>2023-05-24T12:30:05.000Z</time>
      </trkpt>
      <trkpt lat="43.24788" lon="6.67554">
        <ele>68.7</ele>
        <time>2023-05-24T12:30:10.000Z</time>
      </trkpt>
      <trkpt lat="43.24791" lon="6.67549">
        <ele>69</ele>
        <time>2023-05-24T12:30:14.000Z</time>
      </trkpt>
      <trkpt lat="43.24793" lon="6.67544">
        <ele>69.3</ele>
        <time>2023-05-24T12:30:18.000Z</time>
      </trkpt>
      <trkpt lat="43.24795" lon="6.67537">
        <ele>69.8</ele>
        <time>2023-05-24T12:30:23.000Z</time>
      </trkpt>
      <trkpt lat="43.24798" lon="6.67531">
        <ele>70.2</ele>
        <time>2023-05-24T12:30:28.000Z</time>
      </trkpt>
      <trkpt lat="43.248" lon="6.67524">
        <ele>70.4</ele>
        <time>2023-05-24T12:30:33.000Z</time>
      </trkpt>
      <trkpt lat="43.24803" lon="6.67518">
        <ele>70.8</ele>
        <time>2023-05-24T12:30:38.000Z</time>
      </trkpt>
      <trkpt lat="43.24805" lon="6.67511">
        <ele>71.3</ele>
        <time>2023-05-24T12:30:43.000Z</time>
      </trkpt>
      <trkpt lat="43.24808" lon="6.67505">
        <ele>71.8</ele>
        <time>2023-05-24T12:30:48.000Z</time>
      </trkpt>
      <trkpt lat="43.24812" lon="6.67501">
        <ele>72.3</ele>
        <time>2023-05-24T12:30:52.000Z</time>
      </trkpt>
      <trkpt lat="43.24815" lon="6.67496">
        <ele>72.6</ele>
        <time>2023-05-24T12:30:56.000Z</time>
      </trkpt>
      <trkpt lat="43.24818" lon="6.67491">
        <ele>73.1</ele>
        <time>2023-05-24T12:31:01.000Z</time>
      </trkpt>
      <trkpt lat="43.24823" lon="6.67487">
        <ele>73.6</ele>
        <time>2023-05-24T12:31:06.000Z</time>
      </trkpt>
      <trkpt lat="43.24827" lon="6.67483">
        <ele>74.1</ele>
        <time>2023-05-24T12:31:11.000Z</time>
      </trkpt>
      <trkpt lat="43.24831" lon="6.6748">
        <ele>74.6</ele>
        <time>2023-05-24T12:31:16.000Z</time>
      </trkpt>
      <trkpt lat="43.24836" lon="6.67476">
        <ele>75.1</ele>
        <time>2023-05-24T12:31:21.000Z</time>
      </trkpt>
      <trkpt lat="43.24841" lon="6.67473">
        <ele>75.5</ele>
        <time>2023-05-24T12:31:26.000Z</time>
      </trkpt>
      <trkpt lat="43.24845" lon="6.6747">
        <ele>76</ele>
        <time>2023-05-24T12:31:30.000Z</time>
      </trkpt>
      <trkpt lat="43.24849" lon="6.67469">
        <ele>76.5</ele>
        <time>2023-05-24T12:31:35.000Z</time>
      </trkpt>
      <trkpt lat="43.24854" lon="6.67466">
        <ele>76.9</ele>
        <time>2023-05-24T12:31:41.000Z</time>
      </trkpt>
      <trkpt lat="43.24859" lon="6.67465">
        <ele>77.5</ele>
        <time>2023-05-24T12:31:46.000Z</time>
      </trkpt>
      <trkpt lat="43.24864" lon="6.67464">
        <ele>77.9</ele>
        <time>2023-05-24T12:31:51.000Z</time>
      </trkpt>
      <trkpt lat="43.24869" lon="6.67463">
        <ele>78.3</ele>
        <time>2023-05-24T12:31:56.000Z</time>
      </trkpt>
      <trkpt lat="43.24873" lon="6.67462">
        <ele>78.7</ele>
        <time>2023-05-24T12:32:00.000Z</time>
      </trkpt>
      <trkpt lat="43.24878" lon="6.67463">
        <ele>79.1</ele>
        <time>2023-05-24T12:32:05.000Z</time>
      </trkpt>
      <trkpt lat="43.24883" lon="6.67463">
        <ele>79.3</ele>
        <time>2023-05-24T12:32:09.000Z</time>
      </trkpt>
      <trkpt lat="43.24887" lon="6.67464">
        <ele>79.7</ele>
        <time>2023-05-24T12:32:14.000Z</time>
      </trkpt>
      <trkpt lat="43.24892" lon="6.67465">
        <ele>80.1</ele>
        <time>2023-05-24T12:32:18.000Z</time>
      </trkpt>
      <trkpt lat="43.24897" lon="6.67466">
        <ele>80.5</ele>
        <time>2023-05-24T12:32:22.000Z</time>
      </trkpt>
      <trkpt lat="43.24901" lon="6.67468">
        <ele>80.9</ele>
        <time>2023-05-24T12:32:27.000Z</time>
      </trkpt>
      <trkpt lat="43.24906" lon="6.67471">
        <ele>81.3</ele>
        <time>2023-05-24T12:32:32.000Z</time>
      </trkpt>
      <trkpt lat="43.2491" lon="6.67475">
        <ele>82</ele>
        <time>2023-05-24T12:32:37.000Z</time>
      </trkpt>
      <trkpt lat="43.24913" lon="6.6748">
        <ele>83</ele>
        <time>2023-05-24T12:32:44.000Z</time>
      </trkpt>
      <trkpt lat="43.24913" lon="6.67487">
        <ele>83.9</ele>
        <time>2023-05-24T12:32:51.000Z</time>
      </trkpt>
      <trkpt lat="43.24915" lon="6.67494">
        <ele>85.1</ele>
        <time>2023-05-24T12:32:57.000Z</time>
      </trkpt>
      <trkpt lat="43.24917" lon="6.67499">
        <ele>86</ele>
        <time>2023-05-24T12:33:03.000Z</time>
      </trkpt>
      <trkpt lat="43.24921" lon="6.67503">
        <ele>86.8</ele>
        <time>2023-05-24T12:33:08.000Z</time>
      </trkpt>
      <trkpt lat="43.24925" lon="6.67508">
        <ele>87.6</ele>
        <time>2023-05-24T12:33:14.000Z</time>
      </trkpt>
      <trkpt lat="43.24929" lon="6.67511">
        <ele>88.8</ele>
        <time>2023-05-24T12:33:21.000Z</time>
      </trkpt>
      <trkpt lat="43.24933" lon="6.67514">
        <ele>89.3</ele>
        <time>2023-05-24T12:33:25.000Z</time>
      </trkpt>
      <trkpt lat="43.24937" lon="6.67519">
        <ele>89.7</ele>
        <time>2023-05-24T12:33:29.000Z</time>
      </trkpt>
      <trkpt lat="43.24942" lon="6.67522">
        <ele>90.1</ele>
        <time>2023-05-24T12:33:34.000Z</time>
      </trkpt>
      <trkpt lat="43.24946" lon="6.67525">
        <ele>90.5</ele>
        <time>2023-05-24T12:33:39.000Z</time>
      </trkpt>
      <trkpt lat="43.24951" lon="6.67529">
        <ele>90.8</ele>
        <time>2023-05-24T12:33:44.000Z</time>
      </trkpt>
      <trkpt lat="43.24954" lon="6.67533">
        <ele>91.1</ele>
        <time>2023-05-24T12:33:49.000Z</time>
      </trkpt>
      <trkpt lat="43.24958" lon="6.67539">
        <ele>91.5</ele>
        <time>2023-05-24T12:33:54.000Z</time>
      </trkpt>
      <trkpt lat="43.24962" lon="6.67542">
        <ele>91.9</ele>
        <time>2023-05-24T12:33:58.000Z</time>
      </trkpt>
      <trkpt lat="43.24965" lon="6.67546">
        <ele>92.3</ele>
        <time>2023-05-24T12:34:03.000Z</time>
      </trkpt>
      <trkpt lat="43.24969" lon="6.67551">
        <ele>92.7</ele>
        <time>2023-05-24T12:34:09.000Z</time>
      </trkpt>
      <trkpt lat="43.24974" lon="6.67555">
        <ele>93</ele>
        <time>2023-05-24T12:34:13.000Z</time>
      </trkpt>
      <trkpt lat="43.24979" lon="6.67557">
        <ele>93.4</ele>
        <time>2023-05-24T12:34:18.000Z</time>
      </trkpt>
      <trkpt lat="43.24984" lon="6.67557">
        <ele>93.6</ele>
        <time>2023-05-24T12:34:22.000Z</time>
      </trkpt>
      <trkpt lat="43.24989" lon="6.67557">
        <ele>93.9</ele>
        <time>2023-05-24T12:34:26.000Z</time>
      </trkpt>
      <trkpt lat="43.24994" lon="6.67557">
        <ele>94.1</ele>
        <time>2023-05-24T12:34:30.000Z</time>
      </trkpt>
      <trkpt lat="43.25" lon="6.67556">
        <ele>94.3</ele>
        <time>2023-05-24T12:34:35.000Z</time>
      </trkpt>
      <trkpt lat="43.25004" lon="6.67556">
        <ele>94.6</ele>
        <time>2023-05-24T12:34:39.000Z</time>
      </trkpt>
      <trkpt lat="43.25009" lon="6.67556">
        <ele>94.8</ele>
        <time>2023-05-24T12:34:43.000Z</time>
      </trkpt>
      <trkpt lat="43.25013" lon="6.67557">
        <ele>94.9</ele>
        <time>2023-05-24T12:34:47.000Z</time>
      </trkpt>
      <trkpt lat="43.25018" lon="6.67557">
        <ele>95.2</ele>
        <time>2023-05-24T12:34:51.000Z</time>
      </trkpt>
      <trkpt lat="43.25023" lon="6.67556">
        <ele>95.4</ele>
        <time>2023-05-24T12:34:55.000Z</time>
      </trkpt>
      <trkpt lat="43.25027" lon="6.67556">
        <ele>95.5</ele>
        <time>2023-05-24T12:34:59.000Z</time>
      </trkpt>
      <trkpt lat="43.25033" lon="6.67556">
        <ele>95.6</ele>
        <time>2023-05-24T12:35:03.000Z</time>
      </trkpt>
      <trkpt lat="43.25038" lon="6.67556">
        <ele>95.7</ele>
        <time>2023-05-24T12:35:07.000Z</time>
      </trkpt>
      <trkpt lat="43.25042" lon="6.67556">
        <ele>95.8</ele>
        <time>2023-05-24T12:35:11.000Z</time>
      </trkpt>
      <trkpt lat="43.25047" lon="6.67556">
        <ele>95.8</ele>
        <time>2023-05-24T12:35:15.000Z</time>
      </trkpt>
      <trkpt lat="43.25052" lon="6.67557">
        <ele>95.9</ele>
        <time>2023-05-24T12:35:19.000Z</time>
      </trkpt>
      <trkpt lat="43.25057" lon="6.67559">
        <ele>96</ele>
        <time>2023-05-24T12:35:24.000Z</time>
      </trkpt>
      <trkpt lat="43.25061" lon="6.67561">
        <ele>96</ele>
        <time>2023-05-24T12:35:28.000Z</time>
      </trkpt>
      <trkpt lat="43.25066" lon="6.67564">
        <ele>96.1</ele>
        <time>2023-05-24T12:35:33.000Z</time>
      </trkpt>
      <trkpt lat="43.25069" lon="6.67568">
        <ele>96.5</ele>
        <time>2023-05-24T12:36:05.000Z</time>
      </trkpt>
      <trkpt lat="43.25072" lon="6.67573">
        <ele>96.8</ele>
        <time>2023-05-24T12:37:22.000Z</time>
      </trkpt>
      <trkpt lat="43.25077" lon="6.67574">
        <ele>97</ele>
        <time>2023-05-24T12:37:37.000Z</time>
      </trkpt>
      <trkpt lat="43.25074" lon="6.6758">
        <ele>97.1</ele>
        <time>2023-05-24T12:38:04.000Z</time>
      </trkpt>
      <trkpt lat="43.2507" lon="6.67579">
        <ele>97.1</ele>
        <time>2023-05-24T12:38:30.000Z</time>
      </trkpt>
      <trkpt lat="43.25075" lon="6.67579">
        <ele>97.2</ele>
        <time>2023-05-24T12:38:47.000Z</time>
      </trkpt>
      <trkpt lat="43.25079" lon="6.67582">
        <ele>97.4</ele>
        <time>2023-05-24T12:38:57.000Z</time>
      </trkpt>
      <trkpt lat="43.25084" lon="6.67583">
        <ele>97.6</ele>
        <time>2023-05-24T12:39:03.000Z</time>
      </trkpt>
      <trkpt lat="43.25088" lon="6.67585">
        <ele>97.8</ele>
        <time>2023-05-24T12:39:09.000Z</time>
      </trkpt>
      <trkpt lat="43.25093" lon="6.67588">
        <ele>97.9</ele>
        <time>2023-05-24T12:39:14.000Z</time>
      </trkpt>
      <trkpt lat="43.25097" lon="6.6759">
        <ele>98.2</ele>
        <time>2023-05-24T12:39:19.000Z</time>
      </trkpt>
      <trkpt lat="43.25102" lon="6.67592">
        <ele>98.4</ele>
        <time>2023-05-24T12:39:24.000Z</time>
      </trkpt>
      <trkpt lat="43.25107" lon="6.67594">
        <ele>98.5</ele>
        <time>2023-05-24T12:39:29.000Z</time>
      </trkpt>
      <trkpt lat="43.25112" lon="6.67596">
        <ele>98.8</ele>
        <time>2023-05-24T12:39:35.000Z</time>
      </trkpt>
      <trkpt lat="43.25117" lon="6.67599">
        <ele>99.1</ele>
        <time>2023-05-24T12:39:40.000Z</time>
      </trkpt>
      <trkpt lat="43.25122" lon="6.67601">
        <ele>99.3</ele>
        <time>2023-05-24T12:39:45.000Z</time>
      </trkpt>
      <trkpt lat="43.25128" lon="6.67601">
        <ele>99.5</ele>
        <time>2023-05-24T12:39:50.000Z</time>
      </trkpt>
      <trkpt lat="43.25133" lon="6.67602">
        <ele>99.6</ele>
        <time>2023-05-24T12:39:54.000Z</time>
      </trkpt>
      <trkpt lat="43.25138" lon="6.67603">
        <ele>99.7</ele>
        <time>2023-05-24T12:39:59.000Z</time>
      </trkpt>
      <trkpt lat="43.25143" lon="6.67604">
        <ele>99.8</ele>
        <time>2023-05-24T12:40:03.000Z</time>
      </trkpt>
      <trkpt lat="43.25147" lon="6.67604">
        <ele>99.8</ele>
        <time>2023-05-24T12:40:07.000Z</time>
      </trkpt>
      <trkpt lat="43.25152" lon="6.67605">
        <ele>99.8</ele>
        <time>2023-05-24T12:40:11.000Z</time>
      </trkpt>
      <trkpt lat="43.25157" lon="6.67605">
        <ele>99.7</ele>
        <time>2023-05-24T12:40:15.000Z</time>
      </trkpt>
      <trkpt lat="43.25161" lon="6.67606">
        <ele>99.7</ele>
        <time>2023-05-24T12:40:19.000Z</time>
      </trkpt>
      <trkpt lat="43.25166" lon="6.67606">
        <ele>99.7</ele>
        <time>2023-05-24T12:40:23.000Z</time>
      </trkpt>
      <trkpt lat="43.25171" lon="6.67606">
        <ele>99.6</ele>
        <time>2023-05-24T12:40:28.000Z</time>
      </trkpt>
      <trkpt lat="43.25176" lon="6.67605">
        <ele>99.5</ele>
        <time>2023-05-24T12:40:33.000Z</time>
      </trkpt>
      <trkpt lat="43.25182" lon="6.67607">
        <ele>99.4</ele>
        <time>2023-05-24T12:40:39.000Z</time>
      </trkpt>
      <trkpt lat="43.25186" lon="6.67609">
        <ele>99.4</ele>
        <time>2023-05-24T12:40:44.000Z</time>
      </trkpt>
      <trkpt lat="43.2519" lon="6.67611">
        <ele>99.3</ele>
        <time>2023-05-24T12:40:48.000Z</time>
      </trkpt>
      <trkpt lat="43.25196" lon="6.67612">
        <ele>99</ele>
        <time>2023-05-24T12:40:53.000Z</time>
      </trkpt>
      <trkpt lat="43.25201" lon="6.67615">
        <ele>98.8</ele>
        <time>2023-05-24T12:40:58.000Z</time>
      </trkpt>
      <trkpt lat="43.25206" lon="6.67617">
        <ele>98.5</ele>
        <time>2023-05-24T12:41:02.000Z</time>
      </trkpt>
      <trkpt lat="43.2521" lon="6.67617">
        <ele>98.3</ele>
        <time>2023-05-24T12:41:06.000Z</time>
      </trkpt>
      <trkpt lat="43.25216" lon="6.67617">
        <ele>98.1</ele>
        <time>2023-05-24T12:41:11.000Z</time>
      </trkpt>
      <trkpt lat="43.25221" lon="6.67619">
        <ele>97.7</ele>
        <time>2023-05-24T12:41:16.000Z</time>
      </trkpt>
      <trkpt lat="43.25226" lon="6.6762">
        <ele>97.2</ele>
        <time>2023-05-24T12:41:21.000Z</time>
      </trkpt>
      <trkpt lat="43.25231" lon="6.67622">
        <ele>96.9</ele>
        <time>2023-05-24T12:41:26.000Z</time>
      </trkpt>
      <trkpt lat="43.25236" lon="6.67623">
        <ele>96.6</ele>
        <time>2023-05-24T12:41:30.000Z</time>
      </trkpt>
      <trkpt lat="43.25241" lon="6.67624">
        <ele>96.3</ele>
        <time>2023-05-24T12:41:34.000Z</time>
      </trkpt>
      <trkpt lat="43.25245" lon="6.67625">
        <ele>96</ele>
        <time>2023-05-24T12:41:38.000Z</time>
      </trkpt>
      <trkpt lat="43.25251" lon="6.67628">
        <ele>95.5</ele>
        <time>2023-05-24T12:41:43.000Z</time>
      </trkpt>
      <trkpt lat="43.25255" lon="6.6763">
        <ele>95.2</ele>
        <time>2023-05-24T12:41:47.000Z</time>
      </trkpt>
      <trkpt lat="43.2526" lon="6.67632">
        <ele>94.9</ele>
        <time>2023-05-24T12:41:51.000Z</time>
      </trkpt>
      <trkpt lat="43.25264" lon="6.67634">
        <ele>94.7</ele>
        <time>2023-05-24T12:41:55.000Z</time>
      </trkpt>
      <trkpt lat="43.25269" lon="6.67635">
        <ele>94.5</ele>
        <time>2023-05-24T12:41:59.000Z</time>
      </trkpt>
      <trkpt lat="43.25274" lon="6.67636">
        <ele>94.4</ele>
        <time>2023-05-24T12:42:03.000Z</time>
      </trkpt>
      <trkpt lat="43.25278" lon="6.67636">
        <ele>94.2</ele>
        <time>2023-05-24T12:42:08.000Z</time>
      </trkpt>
      <trkpt lat="43.25283" lon="6.67634">
        <ele>94</ele>
        <time>2023-05-24T12:42:14.000Z</time>
      </trkpt>
      <trkpt lat="43.25285" lon="6.67628">
        <ele>93.8</ele>
        <time>2023-05-24T12:42:19.000Z</time>
      </trkpt>
      <trkpt lat="43.25286" lon="6.6762">
        <ele>93.7</ele>
        <time>2023-05-24T12:42:24.000Z</time>
      </trkpt>
      <trkpt lat="43.25286" lon="6.67614">
        <ele>93.6</ele>
        <time>2023-05-24T12:42:28.000Z</time>
      </trkpt>
      <trkpt lat="43.25287" lon="6.67608">
        <ele>93.5</ele>
        <time>2023-05-24T12:42:32.000Z</time>
      </trkpt>
      <trkpt lat="43.25288" lon="6.67602">
        <ele>93.5</ele>
        <time>2023-05-24T12:42:36.000Z</time>
      </trkpt>
      <trkpt lat="43.25289" lon="6.67595">
        <ele>93.5</ele>
        <time>2023-05-24T12:42:40.000Z</time>
      </trkpt>
      <trkpt lat="43.25291" lon="6.67589">
        <ele>93.4</ele>
        <time>2023-05-24T12:42:44.000Z</time>
      </trkpt>
      <trkpt lat="43.25293" lon="6.67583">
        <ele>93.4</ele>
        <time>2023-05-24T12:42:49.000Z</time>
      </trkpt>
      <trkpt lat="43.25297" lon="6.67577">
        <ele>93.4</ele>
        <time>2023-05-24T12:42:54.000Z</time>
      </trkpt>
      <trkpt lat="43.253" lon="6.67573">
        <ele>93.4</ele>
        <time>2023-05-24T12:43:00.000Z</time>
      </trkpt>
      <trkpt lat="43.25304" lon="6.67568">
        <ele>93.3</ele>
        <time>2023-05-24T12:43:05.000Z</time>
      </trkpt>
      <trkpt lat="43.25308" lon="6.67563">
        <ele>93.3</ele>
        <time>2023-05-24T12:43:09.000Z</time>
      </trkpt>
      <trkpt lat="43.25311" lon="6.67559">
        <ele>92.9</ele>
        <time>2023-05-24T12:43:14.000Z</time>
      </trkpt>
      <trkpt lat="43.25315" lon="6.67553">
        <ele>92.6</ele>
        <time>2023-05-24T12:43:19.000Z</time>
      </trkpt>
      <trkpt lat="43.25319" lon="6.6755">
        <ele>92.3</ele>
        <time>2023-05-24T12:43:23.000Z</time>
      </trkpt>
      <trkpt lat="43.25323" lon="6.67546">
        <ele>92</ele>
        <time>2023-05-24T12:43:27.000Z</time>
      </trkpt>
      <trkpt lat="43.25327" lon="6.67542">
        <ele>91.7</ele>
        <time>2023-05-24T12:43:31.000Z</time>
      </trkpt>
      <trkpt lat="43.25331" lon="6.67538">
        <ele>91.4</ele>
        <time>2023-05-24T12:43:35.000Z</time>
      </trkpt>
      <trkpt lat="43.25335" lon="6.67534">
        <ele>91.1</ele>
        <time>2023-05-24T12:43:39.000Z</time>
      </trkpt>
      <trkpt lat="43.25339" lon="6.6753">
        <ele>90.9</ele>
        <time>2023-05-24T12:43:43.000Z</time>
      </trkpt>
      <trkpt lat="43.25343" lon="6.67527">
        <ele>90.5</ele>
        <time>2023-05-24T12:43:47.000Z</time>
      </trkpt>
      <trkpt lat="43.25348" lon="6.67524">
        <ele>90.3</ele>
        <time>2023-05-24T12:43:51.000Z</time>
      </trkpt>
      <trkpt lat="43.25353" lon="6.67521">
        <ele>89.9</ele>
        <time>2023-05-24T12:43:56.000Z</time>
      </trkpt>
      <trkpt lat="43.25358" lon="6.67518">
        <ele>89.7</ele>
        <time>2023-05-24T12:44:00.000Z</time>
      </trkpt>
      <trkpt lat="43.25361" lon="6.67513">
        <ele>89.4</ele>
        <time>2023-05-24T12:44:04.000Z</time>
      </trkpt>
      <trkpt lat="43.25366" lon="6.67509">
        <ele>88.8</ele>
        <time>2023-05-24T12:44:09.000Z</time>
      </trkpt>
      <trkpt lat="43.25369" lon="6.67504">
        <ele>88.4</ele>
        <time>2023-05-24T12:44:14.000Z</time>
      </trkpt>
      <trkpt lat="43.25373" lon="6.675">
        <ele>88</ele>
        <time>2023-05-24T12:44:19.000Z</time>
      </trkpt>
      <trkpt lat="43.25377" lon="6.67495">
        <ele>87.7</ele>
        <time>2023-05-24T12:44:24.000Z</time>
      </trkpt>
      <trkpt lat="43.25382" lon="6.67491">
        <ele>87.5</ele>
        <time>2023-05-24T12:44:29.000Z</time>
      </trkpt>
      <trkpt lat="43.25386" lon="6.67486">
        <ele>87.4</ele>
        <time>2023-05-24T12:44:33.000Z</time>
      </trkpt>
      <trkpt lat="43.25389" lon="6.67482">
        <ele>87.3</ele>
        <time>2023-05-24T12:44:36.000Z</time>
      </trkpt>
      <trkpt lat="43.25393" lon="6.67478">
        <ele>87.2</ele>
        <time>2023-05-24T12:44:39.000Z</time>
      </trkpt>
      <trkpt lat="43.25396" lon="6.67473">
        <ele>87</ele>
        <time>2023-05-24T12:44:43.000Z</time>
      </trkpt>
      <trkpt lat="43.254" lon="6.67467">
        <ele>86.9</ele>
        <time>2023-05-24T12:44:47.000Z</time>
      </trkpt>
      <trkpt lat="43.25402" lon="6.67462">
        <ele>86.7</ele>
        <time>2023-05-24T12:44:52.000Z</time>
      </trkpt>
      <trkpt lat="43.25406" lon="6.67457">
        <ele>86.6</ele>
        <time>2023-05-24T12:44:56.000Z</time>
      </trkpt>
      <trkpt lat="43.25408" lon="6.67451">
        <ele>86.3</ele>
        <time>2023-05-24T12:45:01.000Z</time>
      </trkpt>
      <trkpt lat="43.25412" lon="6.67446">
        <ele>86</ele>
        <time>2023-05-24T12:45:06.000Z</time>
      </trkpt>
      <trkpt lat="43.25415" lon="6.67441">
        <ele>85.7</ele>
        <time>2023-05-24T12:45:10.000Z</time>
      </trkpt>
      <trkpt lat="43.25417" lon="6.67436">
        <ele>85.5</ele>
        <time>2023-05-24T12:45:14.000Z</time>
      </trkpt>
      <trkpt lat="43.2542" lon="6.6743">
        <ele>85.2</ele>
        <time>2023-05-24T12:45:18.000Z</time>
      </trkpt>
      <trkpt lat="43.25423" lon="6.67425">
        <ele>85</ele>
        <time>2023-05-24T12:45:22.000Z</time>
      </trkpt>
      <trkpt lat="43.25426" lon="6.67419">
        <ele>84.9</ele>
        <time>2023-05-24T12:45:26.000Z</time>
      </trkpt>
      <trkpt lat="43.25431" lon="6.67415">
        <ele>84.6</ele>
        <time>2023-05-24T12:45:31.000Z</time>
      </trkpt>
      <trkpt lat="43.25436" lon="6.6741">
        <ele>84.2</ele>
        <time>2023-05-24T12:45:36.000Z</time>
      </trkpt>
      <trkpt lat="43.25439" lon="6.67406">
        <ele>84</ele>
        <time>2023-05-24T12:45:41.000Z</time>
      </trkpt>
      <trkpt lat="43.25443" lon="6.67401">
        <ele>83.7</ele>
        <time>2023-05-24T12:45:45.000Z</time>
      </trkpt>
      <trkpt lat="43.25447" lon="6.67394">
        <ele>83.5</ele>
        <time>2023-05-24T12:45:49.000Z</time>
      </trkpt>
      <trkpt lat="43.25449" lon="6.67388">
        <ele>83.3</ele>
        <time>2023-05-24T12:45:53.000Z</time>
      </trkpt>
      <trkpt lat="43.25453" lon="6.67383">
        <ele>83</ele>
        <time>2023-05-24T12:45:58.000Z</time>
      </trkpt>
      <trkpt lat="43.25456" lon="6.67378">
        <ele>82.8</ele>
        <time>2023-05-24T12:46:02.000Z</time>
      </trkpt>
      <trkpt lat="43.2546" lon="6.67373">
        <ele>82.6</ele>
        <time>2023-05-24T12:46:06.000Z</time>
      </trkpt>
      <trkpt lat="43.25465" lon="6.67369">
        <ele>82.3</ele>
        <time>2023-05-24T12:46:11.000Z</time>
      </trkpt>
      <trkpt lat="43.25469" lon="6.67367">
        <ele>82.2</ele>
        <time>2023-05-24T12:46:15.000Z</time>
      </trkpt>
      <trkpt lat="43.25475" lon="6.67367">
        <ele>82.1</ele>
        <time>2023-05-24T12:46:20.000Z</time>
      </trkpt>
      <trkpt lat="43.25479" lon="6.67366">
        <ele>82.1</ele>
        <time>2023-05-24T12:46:24.000Z</time>
      </trkpt>
      <trkpt lat="43.25484" lon="6.67364">
        <ele>82.1</ele>
        <time>2023-05-24T12:46:28.000Z</time>
      </trkpt>
      <trkpt lat="43.25488" lon="6.6736">
        <ele>82.1</ele>
        <time>2023-05-24T12:46:32.000Z</time>
      </trkpt>
      <trkpt lat="43.25489" lon="6.67353">
        <ele>82.2</ele>
        <time>2023-05-24T12:46:36.000Z</time>
      </trkpt>
      <trkpt lat="43.25493" lon="6.67348">
        <ele>82.2</ele>
        <time>2023-05-24T12:46:41.000Z</time>
      </trkpt>
      <trkpt lat="43.25497" lon="6.67344">
        <ele>82.2</ele>
        <time>2023-05-24T12:46:46.000Z</time>
      </trkpt>
      <trkpt lat="43.25501" lon="6.67339">
        <ele>82.2</ele>
        <time>2023-05-24T12:46:50.000Z</time>
      </trkpt>
      <trkpt lat="43.25505" lon="6.67334">
        <ele>82.2</ele>
        <time>2023-05-24T12:46:54.000Z</time>
      </trkpt>
      <trkpt lat="43.25508" lon="6.67329">
        <ele>82.2</ele>
        <time>2023-05-24T12:46:58.000Z</time>
      </trkpt>
      <trkpt lat="43.25511" lon="6.67323">
        <ele>82.2</ele>
        <time>2023-05-24T12:47:02.000Z</time>
      </trkpt>
      <trkpt lat="43.25514" lon="6.67318">
        <ele>82.2</ele>
        <time>2023-05-24T12:47:06.000Z</time>
      </trkpt>
      <trkpt lat="43.25517" lon="6.67313">
        <ele>82.2</ele>
        <time>2023-05-24T12:47:10.000Z</time>
      </trkpt>
      <trkpt lat="43.2552" lon="6.67308">
        <ele>82.2</ele>
        <time>2023-05-24T12:47:14.000Z</time>
      </trkpt>
      <trkpt lat="43.25524" lon="6.67302">
        <ele>82.2</ele>
        <time>2023-05-24T12:47:19.000Z</time>
      </trkpt>
      <trkpt lat="43.25527" lon="6.67296">
        <ele>82.3</ele>
        <time>2023-05-24T12:47:24.000Z</time>
      </trkpt>
      <trkpt lat="43.25531" lon="6.6729">
        <ele>82.5</ele>
        <time>2023-05-24T12:47:29.000Z</time>
      </trkpt>
      <trkpt lat="43.25534" lon="6.67285">
        <ele>82.5</ele>
        <time>2023-05-24T12:47:33.000Z</time>
      </trkpt>
      <trkpt lat="43.25537" lon="6.6728">
        <ele>82.6</ele>
        <time>2023-05-24T12:47:37.000Z</time>
      </trkpt>
      <trkpt lat="43.25539" lon="6.67275">
        <ele>82.6</ele>
        <time>2023-05-24T12:47:40.900Z</time>
      </trkpt>
      <trkpt lat="43.25542" lon="6.67269">
        <ele>82.7</ele>
        <time>2023-05-24T12:47:46.000Z</time>
      </trkpt>
      <trkpt lat="43.25542" lon="6.67263">
        <ele>83.3</ele>
        <time>2023-05-24T12:48:08.000Z</time>
      </trkpt>
      <trkpt lat="43.25543" lon="6.67256">
        <ele>83.4</ele>
        <time>2023-05-24T12:48:12.000Z</time>
      </trkpt>
      <trkpt lat="43.25545" lon="6.6725">
        <ele>83.5</ele>
        <time>2023-05-24T12:48:17.000Z</time>
      </trkpt>
      <trkpt lat="43.25547" lon="6.67244">
        <ele>83.5</ele>
        <time>2023-05-24T12:48:22.000Z</time>
      </trkpt>
      <trkpt lat="43.2555" lon="6.67238">
        <ele>83.7</ele>
        <time>2023-05-24T12:48:27.000Z</time>
      </trkpt>
      <trkpt lat="43.25552" lon="6.67231">
        <ele>83.8</ele>
        <time>2023-05-24T12:48:32.000Z</time>
      </trkpt>
      <trkpt lat="43.25553" lon="6.67224">
        <ele>83.9</ele>
        <time>2023-05-24T12:48:37.000Z</time>
      </trkpt>
      <trkpt lat="43.25555" lon="6.67218">
        <ele>84</ele>
        <time>2023-05-24T12:48:42.000Z</time>
      </trkpt>
      <trkpt lat="43.25557" lon="6.67211">
        <ele>83.9</ele>
        <time>2023-05-24T12:48:47.000Z</time>
      </trkpt>
      <trkpt lat="43.25559" lon="6.67204">
        <ele>83.8</ele>
        <time>2023-05-24T12:48:52.000Z</time>
      </trkpt>
      <trkpt lat="43.25561" lon="6.67199">
        <ele>83.8</ele>
        <time>2023-05-24T12:48:56.000Z</time>
      </trkpt>
      <trkpt lat="43.25563" lon="6.67193">
        <ele>83.7</ele>
        <time>2023-05-24T12:49:00.000Z</time>
      </trkpt>
      <trkpt lat="43.25564" lon="6.67187">
        <ele>83.6</ele>
        <time>2023-05-24T12:49:04.000Z</time>
      </trkpt>
      <trkpt lat="43.25567" lon="6.67181">
        <ele>83.5</ele>
        <time>2023-05-24T12:49:08.000Z</time>
      </trkpt>
      <trkpt lat="43.25569" lon="6.67175">
        <ele>83.5</ele>
        <time>2023-05-24T12:49:12.000Z</time>
      </trkpt>
      <trkpt lat="43.25571" lon="6.67168">
        <ele>83.4</ele>
        <time>2023-05-24T12:49:16.000Z</time>
      </trkpt>
      <trkpt lat="43.25573" lon="6.67162">
        <ele>83.4</ele>
        <time>2023-05-24T12:49:20.000Z</time>
      </trkpt>
      <trkpt lat="43.25575" lon="6.67157">
        <ele>83.3</ele>
        <time>2023-05-24T12:49:24.000Z</time>
      </trkpt>
      <trkpt lat="43.25578" lon="6.67151">
        <ele>82.9</ele>
        <time>2023-05-24T12:49:28.000Z</time>
      </trkpt>
      <trkpt lat="43.25581" lon="6.67146">
        <ele>82.5</ele>
        <time>2023-05-24T12:49:32.000Z</time>
      </trkpt>
      <trkpt lat="43.25585" lon="6.6714">
        <ele>81.8</ele>
        <time>2023-05-24T12:49:36.000Z</time>
      </trkpt>
      <trkpt lat="43.25587" lon="6.67134">
        <ele>81.2</ele>
        <time>2023-05-24T12:49:40.000Z</time>
      </trkpt>
      <trkpt lat="43.2559" lon="6.67127">
        <ele>80.6</ele>
        <time>2023-05-24T12:49:44.000Z</time>
      </trkpt>
      <trkpt lat="43.25592" lon="6.67121">
        <ele>79.8</ele>
        <time>2023-05-24T12:49:49.000Z</time>
      </trkpt>
      <trkpt lat="43.25595" lon="6.67115">
        <ele>78.9</ele>
        <time>2023-05-24T12:49:55.000Z</time>
      </trkpt>
      <trkpt lat="43.25598" lon="6.67109">
        <ele>78.3</ele>
        <time>2023-05-24T12:49:59.000Z</time>
      </trkpt>
      <trkpt lat="43.256" lon="6.67104">
        <ele>77.9</ele>
        <time>2023-05-24T12:50:03.000Z</time>
      </trkpt>
      <trkpt lat="43.25602" lon="6.67098">
        <ele>77.4</ele>
        <time>2023-05-24T12:50:08.000Z</time>
      </trkpt>
      <trkpt lat="43.25606" lon="6.67092">
        <ele>77</ele>
        <time>2023-05-24T12:50:12.000Z</time>
      </trkpt>
      <trkpt lat="43.25608" lon="6.67086">
        <ele>76.5</ele>
        <time>2023-05-24T12:50:16.000Z</time>
      </trkpt>
      <trkpt lat="43.2561" lon="6.6708">
        <ele>76.1</ele>
        <time>2023-05-24T12:50:20.000Z</time>
      </trkpt>
      <trkpt lat="43.25614" lon="6.67074">
        <ele>75.8</ele>
        <time>2023-05-24T12:50:24.000Z</time>
      </trkpt>
      <trkpt lat="43.25615" lon="6.67068">
        <ele>75.4</ele>
        <time>2023-05-24T12:50:28.000Z</time>
      </trkpt>
      <trkpt lat="43.25618" lon="6.67063">
        <ele>75.1</ele>
        <time>2023-05-24T12:50:32.000Z</time>
      </trkpt>
      <trkpt lat="43.25619" lon="6.67057">
        <ele>74.8</ele>
        <time>2023-05-24T12:50:36.000Z</time>
      </trkpt>
      <trkpt lat="43.25621" lon="6.67051">
        <ele>74.4</ele>
        <time>2023-05-24T12:50:40.000Z</time>
      </trkpt>
      <trkpt lat="43.25624" lon="6.67045">
        <ele>73.9</ele>
        <time>2023-05-24T12:50:45.000Z</time>
      </trkpt>
      <trkpt lat="43.25626" lon="6.67039">
        <ele>73.4</ele>
        <time>2023-05-24T12:50:50.000Z</time>
      </trkpt>
      <trkpt lat="43.25628" lon="6.67032">
        <ele>72.9</ele>
        <time>2023-05-24T12:50:55.000Z</time>
      </trkpt>
      <trkpt lat="43.2563" lon="6.67026">
        <ele>72.5</ele>
        <time>2023-05-24T12:50:59.000Z</time>
      </trkpt>
      <trkpt lat="43.25632" lon="6.6702">
        <ele>72.2</ele>
        <time>2023-05-24T12:51:03.000Z</time>
      </trkpt>
      <trkpt lat="43.25635" lon="6.67014">
        <ele>71.8</ele>
        <time>2023-05-24T12:51:08.000Z</time>
      </trkpt>
      <trkpt lat="43.25638" lon="6.67009">
        <ele>71.5</ele>
        <time>2023-05-24T12:51:13.000Z</time>
      </trkpt>
      <trkpt lat="43.25639" lon="6.67003">
        <ele>71.3</ele>
        <time>2023-05-24T12:51:17.000Z</time>
      </trkpt>
      <trkpt lat="43.25642" lon="6.66996">
        <ele>71.1</ele>
        <time>2023-05-24T12:51:22.000Z</time>
      </trkpt>
      <trkpt lat="43.25644" lon="6.66991">
        <ele>70.9</ele>
        <time>2023-05-24T12:51:25.000Z</time>
      </trkpt>
      <trkpt lat="43.25648" lon="6.66985">
        <ele>70.8</ele>
        <time>2023-05-24T12:51:29.000Z</time>
      </trkpt>
      <trkpt lat="43.25651" lon="6.6698">
        <ele>70.6</ele>
        <time>2023-05-24T12:51:33.000Z</time>
      </trkpt>
      <trkpt lat="43.25655" lon="6.66977">
        <ele>70.5</ele>
        <time>2023-05-24T12:51:38.000Z</time>
      </trkpt>
      <trkpt lat="43.25658" lon="6.6697">
        <ele>70.3</ele>
        <time>2023-05-24T12:51:44.000Z</time>
      </trkpt>
      <trkpt lat="43.25661" lon="6.66964">
        <ele>70.2</ele>
        <time>2023-05-24T12:51:48.000Z</time>
      </trkpt>
      <trkpt lat="43.25664" lon="6.66957">
        <ele>70.2</ele>
        <time>2023-05-24T12:51:52.000Z</time>
      </trkpt>
      <trkpt lat="43.25667" lon="6.66951">
        <ele>70.1</ele>
        <time>2023-05-24T12:51:56.000Z</time>
      </trkpt>
      <trkpt lat="43.25671" lon="6.66946">
        <ele>70.1</ele>
        <time>2023-05-24T12:52:00.000Z</time>
      </trkpt>
      <trkpt lat="43.25673" lon="6.6694">
        <ele>70.1</ele>
        <time>2023-05-24T12:52:03.000Z</time>
      </trkpt>
      <trkpt lat="43.25676" lon="6.66933">
        <ele>70.1</ele>
        <time>2023-05-24T12:52:07.000Z</time>
      </trkpt>
      <trkpt lat="43.25678" lon="6.66927">
        <ele>70.1</ele>
        <time>2023-05-24T12:52:10.000Z</time>
      </trkpt>
      <trkpt lat="43.25681" lon="6.66922">
        <ele>70.1</ele>
        <time>2023-05-24T12:52:14.000Z</time>
      </trkpt>
      <trkpt lat="43.25684" lon="6.66916">
        <ele>70.1</ele>
        <time>2023-05-24T12:52:18.000Z</time>
      </trkpt>
      <trkpt lat="43.25687" lon="6.6691">
        <ele>70.1</ele>
        <time>2023-05-24T12:52:22.000Z</time>
      </trkpt>
      <trkpt lat="43.2569" lon="6.66905">
        <ele>70.1</ele>
        <time>2023-05-24T12:52:26.000Z</time>
      </trkpt>
      <trkpt lat="43.25693" lon="6.66899">
        <ele>70.2</ele>
        <time>2023-05-24T12:52:30.000Z</time>
      </trkpt>
      <trkpt lat="43.25696" lon="6.66894">
        <ele>70.2</ele>
        <time>2023-05-24T12:52:34.000Z</time>
      </trkpt>
      <trkpt lat="43.25699" lon="6.66889">
        <ele>70.3</ele>
        <time>2023-05-24T12:52:38.000Z</time>
      </trkpt>
      <trkpt lat="43.25701" lon="6.66883">
        <ele>70.4</ele>
        <time>2023-05-24T12:52:42.000Z</time>
      </trkpt>
      <trkpt lat="43.25704" lon="6.66878">
        <ele>70.5</ele>
        <time>2023-05-24T12:52:46.000Z</time>
      </trkpt>
      <trkpt lat="43.25707" lon="6.66872">
        <ele>70.8</ele>
        <time>2023-05-24T12:52:51.000Z</time>
      </trkpt>
      <trkpt lat="43.2571" lon="6.66867">
        <ele>71</ele>
        <time>2023-05-24T12:52:55.000Z</time>
      </trkpt>
      <trkpt lat="43.25712" lon="6.6686">
        <ele>71.1</ele>
        <time>2023-05-24T12:53:00.000Z</time>
      </trkpt>
      <trkpt lat="43.25715" lon="6.66855">
        <ele>71.2</ele>
        <time>2023-05-24T12:53:05.000Z</time>
      </trkpt>
      <trkpt lat="43.25717" lon="6.66849">
        <ele>71.3</ele>
        <time>2023-05-24T12:53:11.000Z</time>
      </trkpt>
      <trkpt lat="43.2572" lon="6.66844">
        <ele>71.5</ele>
        <time>2023-05-24T12:53:17.000Z</time>
      </trkpt>
      <trkpt lat="43.25722" lon="6.66838">
        <ele>71.9</ele>
        <time>2023-05-24T12:53:28.000Z</time>
      </trkpt>
      <trkpt lat="43.25725" lon="6.66832">
        <ele>72.2</ele>
        <time>2023-05-24T12:53:41.000Z</time>
      </trkpt>
      <trkpt lat="43.25728" lon="6.66826">
        <ele>72.2</ele>
        <time>2023-05-24T12:53:47.000Z</time>
      </trkpt>
      <trkpt lat="43.25731" lon="6.6682">
        <ele>72.3</ele>
        <time>2023-05-24T12:53:52.000Z</time>
      </trkpt>
      <trkpt lat="43.25734" lon="6.66815">
        <ele>72.3</ele>
        <time>2023-05-24T12:53:57.000Z</time>
      </trkpt>
      <trkpt lat="43.25736" lon="6.66809">
        <ele>72.3</ele>
        <time>2023-05-24T12:54:02.000Z</time>
      </trkpt>
      <trkpt lat="43.25739" lon="6.66803">
        <ele>72.5</ele>
        <time>2023-05-24T12:54:08.000Z</time>
      </trkpt>
      <trkpt lat="43.25742" lon="6.66798">
        <ele>72.5</ele>
        <time>2023-05-24T12:54:12.000Z</time>
      </trkpt>
      <trkpt lat="43.25745" lon="6.66791">
        <ele>72.5</ele>
        <time>2023-05-24T12:54:17.000Z</time>
      </trkpt>
      <trkpt lat="43.25747" lon="6.66786">
        <ele>72.5</ele>
        <time>2023-05-24T12:54:21.000Z</time>
      </trkpt>
      <trkpt lat="43.25749" lon="6.66779">
        <ele>72.5</ele>
        <time>2023-05-24T12:54:26.000Z</time>
      </trkpt>
      <trkpt lat="43.25751" lon="6.66773">
        <ele>72.5</ele>
        <time>2023-05-24T12:54:31.000Z</time>
      </trkpt>
      <trkpt lat="43.25755" lon="6.66767">
        <ele>72.5</ele>
        <time>2023-05-24T12:54:35.000Z</time>
      </trkpt>
      <trkpt lat="43.25758" lon="6.66762">
        <ele>72.5</ele>
        <time>2023-05-24T12:54:39.000Z</time>
      </trkpt>
      <trkpt lat="43.25761" lon="6.66757">
        <ele>72.5</ele>
        <time>2023-05-24T12:54:43.000Z</time>
      </trkpt>
      <trkpt lat="43.25764" lon="6.66751">
        <ele>72.5</ele>
        <time>2023-05-24T12:54:47.000Z</time>
      </trkpt>
      <trkpt lat="43.25767" lon="6.66747">
        <ele>72.5</ele>
        <time>2023-05-24T12:54:51.000Z</time>
      </trkpt>
      <trkpt lat="43.25772" lon="6.66742">
        <ele>72.5</ele>
        <time>2023-05-24T12:54:56.000Z</time>
      </trkpt>
      <trkpt lat="43.25775" lon="6.66737">
        <ele>72.5</ele>
        <time>2023-05-24T12:55:00.000Z</time>
      </trkpt>
      <trkpt lat="43.25778" lon="6.66731">
        <ele>72.4</ele>
        <time>2023-05-24T12:55:04.000Z</time>
      </trkpt>
      <trkpt lat="43.25781" lon="6.66725">
        <ele>72.4</ele>
        <time>2023-05-24T12:55:09.000Z</time>
      </trkpt>
      <trkpt lat="43.25784" lon="6.66719">
        <ele>72.3</ele>
        <time>2023-05-24T12:55:15.000Z</time>
      </trkpt>
      <trkpt lat="43.25787" lon="6.66713">
        <ele>72.3</ele>
        <time>2023-05-24T12:55:21.000Z</time>
      </trkpt>
      <trkpt lat="43.2579" lon="6.66708">
        <ele>72.4</ele>
        <time>2023-05-24T12:55:26.000Z</time>
      </trkpt>
      <trkpt lat="43.25793" lon="6.66702">
        <ele>72.4</ele>
        <time>2023-05-24T12:55:31.000Z</time>
      </trkpt>
      <trkpt lat="43.25794" lon="6.66696">
        <ele>72.4</ele>
        <time>2023-05-24T12:55:35.000Z</time>
      </trkpt>
      <trkpt lat="43.25797" lon="6.6669">
        <ele>72.5</ele>
        <time>2023-05-24T12:55:41.000Z</time>
      </trkpt>
      <trkpt lat="43.25801" lon="6.66685">
        <ele>72.6</ele>
        <time>2023-05-24T12:55:46.000Z</time>
      </trkpt>
      <trkpt lat="43.25804" lon="6.6668">
        <ele>72.7</ele>
        <time>2023-05-24T12:55:50.000Z</time>
      </trkpt>
      <trkpt lat="43.25807" lon="6.66675">
        <ele>72.8</ele>
        <time>2023-05-24T12:55:54.000Z</time>
      </trkpt>
      <trkpt lat="43.2581" lon="6.66669">
        <ele>72.9</ele>
        <time>2023-05-24T12:55:58.000Z</time>
      </trkpt>
      <trkpt lat="43.25813" lon="6.66663">
        <ele>72.9</ele>
        <time>2023-05-24T12:56:02.000Z</time>
      </trkpt>
      <trkpt lat="43.25817" lon="6.66658">
        <ele>73</ele>
        <time>2023-05-24T12:56:06.000Z</time>
      </trkpt>
      <trkpt lat="43.25821" lon="6.66652">
        <ele>73</ele>
        <time>2023-05-24T12:56:11.000Z</time>
      </trkpt>
      <trkpt lat="43.25824" lon="6.66646">
        <ele>73</ele>
        <time>2023-05-24T12:56:16.000Z</time>
      </trkpt>
      <trkpt lat="43.25827" lon="6.66642">
        <ele>73.1</ele>
        <time>2023-05-24T12:56:20.000Z</time>
      </trkpt>
      <trkpt lat="43.25831" lon="6.66637">
        <ele>73.1</ele>
        <time>2023-05-24T12:56:24.000Z</time>
      </trkpt>
      <trkpt lat="43.25834" lon="6.66632">
        <ele>73.1</ele>
        <time>2023-05-24T12:56:28.000Z</time>
      </trkpt>
      <trkpt lat="43.25837" lon="6.66626">
        <ele>73.1</ele>
        <time>2023-05-24T12:56:33.000Z</time>
      </trkpt>
      <trkpt lat="43.25839" lon="6.6662">
        <ele>73.1</ele>
        <time>2023-05-24T12:56:39.000Z</time>
      </trkpt>
      <trkpt lat="43.25842" lon="6.66615">
        <ele>73.1</ele>
        <time>2023-05-24T12:56:43.000Z</time>
      </trkpt>
      <trkpt lat="43.25845" lon="6.66609">
        <ele>73.1</ele>
        <time>2023-05-24T12:56:47.000Z</time>
      </trkpt>
      <trkpt lat="43.25848" lon="6.66603">
        <ele>73.1</ele>
        <time>2023-05-24T12:56:51.000Z</time>
      </trkpt>
      <trkpt lat="43.2585" lon="6.66598">
        <ele>73.1</ele>
        <time>2023-05-24T12:56:55.000Z</time>
      </trkpt>
      <trkpt lat="43.25853" lon="6.66592">
        <ele>73</ele>
        <time>2023-05-24T12:57:00.000Z</time>
      </trkpt>
      <trkpt lat="43.25856" lon="6.66587">
        <ele>72.9</ele>
        <time>2023-05-24T12:57:04.000Z</time>
      </trkpt>
      <trkpt lat="43.25859" lon="6.66582">
        <ele>72.9</ele>
        <time>2023-05-24T12:57:08.000Z</time>
      </trkpt>
      <trkpt lat="43.25862" lon="6.66577">
        <ele>72.9</ele>
        <time>2023-05-24T12:57:12.000Z</time>
      </trkpt>
      <trkpt lat="43.25864" lon="6.6657">
        <ele>72.9</ele>
        <time>2023-05-24T12:57:17.000Z</time>
      </trkpt>
      <trkpt lat="43.25866" lon="6.66564">
        <ele>72.9</ele>
        <time>2023-05-24T12:57:22.000Z</time>
      </trkpt>
      <trkpt lat="43.25869" lon="6.66557">
        <ele>72.9</ele>
        <time>2023-05-24T12:57:27.000Z</time>
      </trkpt>
      <trkpt lat="43.25872" lon="6.66552">
        <ele>72.9</ele>
        <time>2023-05-24T12:57:31.000Z</time>
      </trkpt>
      <trkpt lat="43.25875" lon="6.66546">
        <ele>72.7</ele>
        <time>2023-05-24T12:57:35.000Z</time>
      </trkpt>
      <trkpt lat="43.25878" lon="6.6654">
        <ele>72.5</ele>
        <time>2023-05-24T12:57:38.000Z</time>
      </trkpt>
      <trkpt lat="43.2588" lon="6.66534">
        <ele>72.2</ele>
        <time>2023-05-24T12:57:42.000Z</time>
      </trkpt>
      <trkpt lat="43.25884" lon="6.66529">
        <ele>72</ele>
        <time>2023-05-24T12:57:47.000Z</time>
      </trkpt>
      <trkpt lat="43.25886" lon="6.66523">
        <ele>71.7</ele>
        <time>2023-05-24T12:57:52.000Z</time>
      </trkpt>
      <trkpt lat="43.25889" lon="6.66517">
        <ele>71.3</ele>
        <time>2023-05-24T12:57:58.000Z</time>
      </trkpt>
      <trkpt lat="43.25893" lon="6.66511">
        <ele>70.8</ele>
        <time>2023-05-24T12:58:03.000Z</time>
      </trkpt>
      <trkpt lat="43.25897" lon="6.66506">
        <ele>70.5</ele>
        <time>2023-05-24T12:58:07.000Z</time>
      </trkpt>
      <trkpt lat="43.25901" lon="6.66501">
        <ele>70.2</ele>
        <time>2023-05-24T12:58:11.000Z</time>
      </trkpt>
      <trkpt lat="43.25904" lon="6.66496">
        <ele>69.7</ele>
        <time>2023-05-24T12:58:17.000Z</time>
      </trkpt>
      <trkpt lat="43.25907" lon="6.66491">
        <ele>69</ele>
        <time>2023-05-24T12:58:23.000Z</time>
      </trkpt>
      <trkpt lat="43.2591" lon="6.66486">
        <ele>68.5</ele>
        <time>2023-05-24T12:58:27.000Z</time>
      </trkpt>
      <trkpt lat="43.25914" lon="6.66481">
        <ele>67.8</ele>
        <time>2023-05-24T12:58:32.000Z</time>
      </trkpt>
      <trkpt lat="43.25918" lon="6.66477">
        <ele>67.2</ele>
        <time>2023-05-24T12:58:37.000Z</time>
      </trkpt>
      <trkpt lat="43.25922" lon="6.66473">
        <ele>66.5</ele>
        <time>2023-05-24T12:58:42.000Z</time>
      </trkpt>
      <trkpt lat="43.25927" lon="6.66469">
        <ele>65.8</ele>
        <time>2023-05-24T12:58:47.000Z</time>
      </trkpt>
      <trkpt lat="43.25932" lon="6.66467">
        <ele>65</ele>
        <time>2023-05-24T12:58:52.000Z</time>
      </trkpt>
      <trkpt lat="43.25936" lon="6.66463">
        <ele>64.3</ele>
        <time>2023-05-24T12:58:57.000Z</time>
      </trkpt>
      <trkpt lat="43.25941" lon="6.6646">
        <ele>63.5</ele>
        <time>2023-05-24T12:59:02.000Z</time>
      </trkpt>
      <trkpt lat="43.25946" lon="6.66458">
        <ele>62.7</ele>
        <time>2023-05-24T12:59:07.000Z</time>
      </trkpt>
      <trkpt lat="43.25951" lon="6.66455">
        <ele>62.1</ele>
        <time>2023-05-24T12:59:11.000Z</time>
      </trkpt>
      <trkpt lat="43.25956" lon="6.66452">
        <ele>61.4</ele>
        <time>2023-05-24T12:59:15.000Z</time>
      </trkpt>
      <trkpt lat="43.25961" lon="6.66449">
        <ele>60.7</ele>
        <time>2023-05-24T12:59:19.000Z</time>
      </trkpt>
      <trkpt lat="43.25965" lon="6.66447">
        <ele>59.9</ele>
        <time>2023-05-24T12:59:24.000Z</time>
      </trkpt>
      <trkpt lat="43.25969" lon="6.66444">
        <ele>59.1</ele>
        <time>2023-05-24T12:59:29.000Z</time>
      </trkpt>
      <trkpt lat="43.25974" lon="6.66443">
        <ele>58.1</ele>
        <time>2023-05-24T12:59:35.000Z</time>
      </trkpt>
      <trkpt lat="43.25979" lon="6.66442">
        <ele>57.3</ele>
        <time>2023-05-24T12:59:41.000Z</time>
      </trkpt>
      <trkpt lat="43.25984" lon="6.66439">
        <ele>56.8</ele>
        <time>2023-05-24T12:59:44.000Z</time>
      </trkpt>
      <trkpt lat="43.25989" lon="6.66437">
        <ele>56.3</ele>
        <time>2023-05-24T12:59:47.000Z</time>
      </trkpt>
      <trkpt lat="43.25995" lon="6.66435">
        <ele>55.7</ele>
        <time>2023-05-24T12:59:51.000Z</time>
      </trkpt>
      <trkpt lat="43.26001" lon="6.66433">
        <ele>54.7</ele>
        <time>2023-05-24T12:59:57.000Z</time>
      </trkpt>
      <trkpt lat="43.26005" lon="6.6643">
        <ele>54.1</ele>
        <time>2023-05-24T13:00:01.000Z</time>
      </trkpt>
      <trkpt lat="43.2601" lon="6.66427">
        <ele>53.6</ele>
        <time>2023-05-24T13:00:05.000Z</time>
      </trkpt>
      <trkpt lat="43.26015" lon="6.66425">
        <ele>52.9</ele>
        <time>2023-05-24T13:00:11.000Z</time>
      </trkpt>
      <trkpt lat="43.2602" lon="6.66423">
        <ele>52.6</ele>
        <time>2023-05-24T13:00:15.000Z</time>
      </trkpt>
      <trkpt lat="43.26026" lon="6.6642">
        <ele>52.3</ele>
        <time>2023-05-24T13:00:19.000Z</time>
      </trkpt>
      <trkpt lat="43.2603" lon="6.66416">
        <ele>51.8</ele>
        <time>2023-05-24T13:00:24.000Z</time>
      </trkpt>
      <trkpt lat="43.26033" lon="6.6641">
        <ele>51.6</ele>
        <time>2023-05-24T13:00:28.000Z</time>
      </trkpt>
      <trkpt lat="43.26036" lon="6.66404">
        <ele>51.4</ele>
        <time>2023-05-24T13:00:31.000Z</time>
      </trkpt>
      <trkpt lat="43.2604" lon="6.66398">
        <ele>51.2</ele>
        <time>2023-05-24T13:00:34.000Z</time>
      </trkpt>
      <trkpt lat="43.26044" lon="6.66393">
        <ele>50.8</ele>
        <time>2023-05-24T13:00:37.000Z</time>
      </trkpt>
      <trkpt lat="43.26048" lon="6.66388">
        <ele>50.5</ele>
        <time>2023-05-24T13:00:40.000Z</time>
      </trkpt>
      <trkpt lat="43.26051" lon="6.66383">
        <ele>50.2</ele>
        <time>2023-05-24T13:00:43.000Z</time>
      </trkpt>
      <trkpt lat="43.26054" lon="6.66377">
        <ele>49.8</ele>
        <time>2023-05-24T13:00:47.000Z</time>
      </trkpt>
      <trkpt lat="43.26056" lon="6.6637">
        <ele>49.4</ele>
        <time>2023-05-24T13:00:51.000Z</time>
      </trkpt>
      <trkpt lat="43.26059" lon="6.66363">
        <ele>49</ele>
        <time>2023-05-24T13:00:55.000Z</time>
      </trkpt>
      <trkpt lat="43.26061" lon="6.66357">
        <ele>48.6</ele>
        <time>2023-05-24T13:00:59.000Z</time>
      </trkpt>
      <trkpt lat="43.26063" lon="6.66351">
        <ele>48.1</ele>
        <time>2023-05-24T13:01:03.000Z</time>
      </trkpt>
      <trkpt lat="43.26064" lon="6.66344">
        <ele>47.6</ele>
        <time>2023-05-24T13:01:07.000Z</time>
      </trkpt>
      <trkpt lat="43.26065" lon="6.66338">
        <ele>47.1</ele>
        <time>2023-05-24T13:01:11.000Z</time>
      </trkpt>
      <trkpt lat="43.26067" lon="6.66332">
        <ele>46.7</ele>
        <time>2023-05-24T13:01:15.000Z</time>
      </trkpt>
      <trkpt lat="43.26068" lon="6.66324">
        <ele>46.3</ele>
        <time>2023-05-24T13:01:19.000Z</time>
      </trkpt>
      <trkpt lat="43.26067" lon="6.66317">
        <ele>46</ele>
        <time>2023-05-24T13:01:23.000Z</time>
      </trkpt>
      <trkpt lat="43.26068" lon="6.66311">
        <ele>45.7</ele>
        <time>2023-05-24T13:01:27.000Z</time>
      </trkpt>
      <trkpt lat="43.26067" lon="6.66304">
        <ele>45.4</ele>
        <time>2023-05-24T13:01:31.000Z</time>
      </trkpt>
      <trkpt lat="43.2607" lon="6.66298">
        <ele>45.1</ele>
        <time>2023-05-24T13:01:35.000Z</time>
      </trkpt>
      <trkpt lat="43.26072" lon="6.66292">
        <ele>44.8</ele>
        <time>2023-05-24T13:01:39.000Z</time>
      </trkpt>
      <trkpt lat="43.26072" lon="6.66285">
        <ele>44.4</ele>
        <time>2023-05-24T13:01:43.000Z</time>
      </trkpt>
      <trkpt lat="43.26073" lon="6.66278">
        <ele>43.9</ele>
        <time>2023-05-24T13:01:47.000Z</time>
      </trkpt>
      <trkpt lat="43.26073" lon="6.66271">
        <ele>43.5</ele>
        <time>2023-05-24T13:01:51.000Z</time>
      </trkpt>
      <trkpt lat="43.26074" lon="6.66264">
        <ele>43</ele>
        <time>2023-05-24T13:01:55.000Z</time>
      </trkpt>
      <trkpt lat="43.26075" lon="6.66257">
        <ele>42.6</ele>
        <time>2023-05-24T13:01:59.000Z</time>
      </trkpt>
      <trkpt lat="43.26078" lon="6.66251">
        <ele>42.1</ele>
        <time>2023-05-24T13:02:03.000Z</time>
      </trkpt>
      <trkpt lat="43.2608" lon="6.66244">
        <ele>41.5</ele>
        <time>2023-05-24T13:02:08.000Z</time>
      </trkpt>
      <trkpt lat="43.26082" lon="6.66238">
        <ele>40.9</ele>
        <time>2023-05-24T13:02:13.000Z</time>
      </trkpt>
      <trkpt lat="43.26083" lon="6.66231">
        <ele>40.4</ele>
        <time>2023-05-24T13:02:17.000Z</time>
      </trkpt>
      <trkpt lat="43.26085" lon="6.66225">
        <ele>39.5</ele>
        <time>2023-05-24T13:02:22.000Z</time>
      </trkpt>
      <trkpt lat="43.26087" lon="6.66219">
        <ele>38.9</ele>
        <time>2023-05-24T13:02:26.000Z</time>
      </trkpt>
      <trkpt lat="43.2609" lon="6.66215">
        <ele>38.5</ele>
        <time>2023-05-24T13:02:30.000Z</time>
      </trkpt>
      <trkpt lat="43.26093" lon="6.66208">
        <ele>37.9</ele>
        <time>2023-05-24T13:02:35.000Z</time>
      </trkpt>
      <trkpt lat="43.26096" lon="6.66202">
        <ele>37.4</ele>
        <time>2023-05-24T13:02:39.000Z</time>
      </trkpt>
      <trkpt lat="43.26098" lon="6.66196">
        <ele>36.9</ele>
        <time>2023-05-24T13:02:43.000Z</time>
      </trkpt>
      <trkpt lat="43.26101" lon="6.66192">
        <ele>36.4</ele>
        <time>2023-05-24T13:02:47.000Z</time>
      </trkpt>
      <trkpt lat="43.26104" lon="6.66187">
        <ele>36</ele>
        <time>2023-05-24T13:02:51.000Z</time>
      </trkpt>
      <trkpt lat="43.26107" lon="6.66182">
        <ele>35.7</ele>
        <time>2023-05-24T13:02:55.000Z</time>
      </trkpt>
      <trkpt lat="43.26109" lon="6.66176">
        <ele>35.3</ele>
        <time>2023-05-24T13:02:59.000Z</time>
      </trkpt>
      <trkpt lat="43.26112" lon="6.6617">
        <ele>35</ele>
        <time>2023-05-24T13:03:03.000Z</time>
      </trkpt>
      <trkpt lat="43.26114" lon="6.66163">
        <ele>34.8</ele>
        <time>2023-05-24T13:03:07.000Z</time>
      </trkpt>
      <trkpt lat="43.26117" lon="6.66157">
        <ele>34.6</ele>
        <time>2023-05-24T13:03:11.000Z</time>
      </trkpt>
      <trkpt lat="43.26118" lon="6.6615">
        <ele>34.4</ele>
        <time>2023-05-24T13:03:15.000Z</time>
      </trkpt>
      <trkpt lat="43.26119" lon="6.66144">
        <ele>34.3</ele>
        <time>2023-05-24T13:03:19.000Z</time>
      </trkpt>
      <trkpt lat="43.26122" lon="6.66137">
        <ele>34.2</ele>
        <time>2023-05-24T13:03:23.000Z</time>
      </trkpt>
      <trkpt lat="43.26123" lon="6.66131">
        <ele>34</ele>
        <time>2023-05-24T13:03:27.000Z</time>
      </trkpt>
      <trkpt lat="43.26124" lon="6.66124">
        <ele>33.8</ele>
        <time>2023-05-24T13:03:31.000Z</time>
      </trkpt>
      <trkpt lat="43.26126" lon="6.66117">
        <ele>33.7</ele>
        <time>2023-05-24T13:03:35.000Z</time>
      </trkpt>
      <trkpt lat="43.26126" lon="6.66111">
        <ele>33.5</ele>
        <time>2023-05-24T13:03:39.000Z</time>
      </trkpt>
      <trkpt lat="43.26124" lon="6.66104">
        <ele>33.4</ele>
        <time>2023-05-24T13:03:43.000Z</time>
      </trkpt>
      <trkpt lat="43.26123" lon="6.66096">
        <ele>33.4</ele>
        <time>2023-05-24T13:03:47.000Z</time>
      </trkpt>
      <trkpt lat="43.26122" lon="6.6609">
        <ele>33.3</ele>
        <time>2023-05-24T13:03:51.000Z</time>
      </trkpt>
      <trkpt lat="43.26121" lon="6.66082">
        <ele>33.3</ele>
        <time>2023-05-24T13:03:56.000Z</time>
      </trkpt>
      <trkpt lat="43.26121" lon="6.66075">
        <ele>33.4</ele>
        <time>2023-05-24T13:04:01.000Z</time>
      </trkpt>
      <trkpt lat="43.26121" lon="6.66067">
        <ele>33.4</ele>
        <time>2023-05-24T13:04:06.000Z</time>
      </trkpt>
      <trkpt lat="43.26122" lon="6.66061">
        <ele>33.5</ele>
        <time>2023-05-24T13:04:10.000Z</time>
      </trkpt>
      <trkpt lat="43.26122" lon="6.66054">
        <ele>33.5</ele>
        <time>2023-05-24T13:04:14.000Z</time>
      </trkpt>
      <trkpt lat="43.26122" lon="6.66047">
        <ele>33.6</ele>
        <time>2023-05-24T13:04:18.000Z</time>
      </trkpt>
      <trkpt lat="43.2612" lon="6.66039">
        <ele>33.7</ele>
        <time>2023-05-24T13:04:22.000Z</time>
      </trkpt>
      <trkpt lat="43.2612" lon="6.66032">
        <ele>33.7</ele>
        <time>2023-05-24T13:04:29.000Z</time>
      </trkpt>
      <trkpt lat="43.26119" lon="6.66026">
        <ele>33.7</ele>
        <time>2023-05-24T13:04:33.000Z</time>
      </trkpt>
      <trkpt lat="43.2612" lon="6.66019">
        <ele>33.8</ele>
        <time>2023-05-24T13:04:38.000Z</time>
      </trkpt>
      <trkpt lat="43.26123" lon="6.66013">
        <ele>33.8</ele>
        <time>2023-05-24T13:04:42.000Z</time>
      </trkpt>
      <trkpt lat="43.26125" lon="6.66007">
        <ele>33.9</ele>
        <time>2023-05-24T13:04:47.000Z</time>
      </trkpt>
      <trkpt lat="43.26127" lon="6.66">
        <ele>34.1</ele>
        <time>2023-05-24T13:04:52.000Z</time>
      </trkpt>
      <trkpt lat="43.26129" lon="6.65994">
        <ele>34.2</ele>
        <time>2023-05-24T13:04:56.000Z</time>
      </trkpt>
      <trkpt lat="43.26132" lon="6.65988">
        <ele>34.3</ele>
        <time>2023-05-24T13:05:00.000Z</time>
      </trkpt>
      <trkpt lat="43.26134" lon="6.65982">
        <ele>34.4</ele>
        <time>2023-05-24T13:05:05.000Z</time>
      </trkpt>
      <trkpt lat="43.26137" lon="6.65976">
        <ele>34.5</ele>
        <time>2023-05-24T13:05:10.000Z</time>
      </trkpt>
      <trkpt lat="43.26139" lon="6.6597">
        <ele>34.6</ele>
        <time>2023-05-24T13:05:15.000Z</time>
      </trkpt>
      <trkpt lat="43.26142" lon="6.65964">
        <ele>34.7</ele>
        <time>2023-05-24T13:05:19.000Z</time>
      </trkpt>
      <trkpt lat="43.26144" lon="6.65958">
        <ele>34.8</ele>
        <time>2023-05-24T13:05:23.000Z</time>
      </trkpt>
      <trkpt lat="43.26146" lon="6.65952">
        <ele>34.9</ele>
        <time>2023-05-24T13:05:28.000Z</time>
      </trkpt>
      <trkpt lat="43.26149" lon="6.65947">
        <ele>35</ele>
        <time>2023-05-24T13:05:32.000Z</time>
      </trkpt>
      <trkpt lat="43.26151" lon="6.65941">
        <ele>35.1</ele>
        <time>2023-05-24T13:05:37.000Z</time>
      </trkpt>
      <trkpt lat="43.26156" lon="6.65936">
        <ele>35.2</ele>
        <time>2023-05-24T13:05:42.000Z</time>
      </trkpt>
      <trkpt lat="43.26159" lon="6.65932">
        <ele>35.3</ele>
        <time>2023-05-24T13:05:46.000Z</time>
      </trkpt>
      <trkpt lat="43.26163" lon="6.65929">
        <ele>35.3</ele>
        <time>2023-05-24T13:05:50.000Z</time>
      </trkpt>
      <trkpt lat="43.26167" lon="6.65924">
        <ele>35.1</ele>
        <time>2023-05-24T13:05:55.000Z</time>
      </trkpt>
      <trkpt lat="43.26171" lon="6.65919">
        <ele>35</ele>
        <time>2023-05-24T13:05:59.000Z</time>
      </trkpt>
      <trkpt lat="43.26175" lon="6.65914">
        <ele>34.8</ele>
        <time>2023-05-24T13:06:03.000Z</time>
      </trkpt>
      <trkpt lat="43.26178" lon="6.65908">
        <ele>34.6</ele>
        <time>2023-05-24T13:06:07.000Z</time>
      </trkpt>
      <trkpt lat="43.2618" lon="6.65902">
        <ele>34.4</ele>
        <time>2023-05-24T13:06:12.000Z</time>
      </trkpt>
      <trkpt lat="43.26181" lon="6.65895">
        <ele>34.2</ele>
        <time>2023-05-24T13:06:17.000Z</time>
      </trkpt>
      <trkpt lat="43.26183" lon="6.65889">
        <ele>34</ele>
        <time>2023-05-24T13:06:21.000Z</time>
      </trkpt>
      <trkpt lat="43.26185" lon="6.65883">
        <ele>33.7</ele>
        <time>2023-05-24T13:06:25.000Z</time>
      </trkpt>
      <trkpt lat="43.26187" lon="6.65877">
        <ele>33.4</ele>
        <time>2023-05-24T13:06:29.000Z</time>
      </trkpt>
      <trkpt lat="43.26189" lon="6.6587">
        <ele>33.1</ele>
        <time>2023-05-24T13:06:34.000Z</time>
      </trkpt>
      <trkpt lat="43.26192" lon="6.65865">
        <ele>32.9</ele>
        <time>2023-05-24T13:06:37.000Z</time>
      </trkpt>
      <trkpt lat="43.26195" lon="6.6586">
        <ele>32.6</ele>
        <time>2023-05-24T13:06:41.000Z</time>
      </trkpt>
      <trkpt lat="43.26197" lon="6.65855">
        <ele>32.4</ele>
        <time>2023-05-24T13:06:45.000Z</time>
      </trkpt>
      <trkpt lat="43.26199" lon="6.65849">
        <ele>32.1</ele>
        <time>2023-05-24T13:06:49.000Z</time>
      </trkpt>
      <trkpt lat="43.26202" lon="6.65842">
        <ele>31.7</ele>
        <time>2023-05-24T13:06:55.000Z</time>
      </trkpt>
      <trkpt lat="43.26203" lon="6.65836">
        <ele>31.4</ele>
        <time>2023-05-24T13:07:00.000Z</time>
      </trkpt>
      <trkpt lat="43.26205" lon="6.6583">
        <ele>31</ele>
        <time>2023-05-24T13:07:04.000Z</time>
      </trkpt>
      <trkpt lat="43.26208" lon="6.65825">
        <ele>30</ele>
        <time>2023-05-24T13:07:11.000Z</time>
      </trkpt>
      <trkpt lat="43.26212" lon="6.6582">
        <ele>29.2</ele>
        <time>2023-05-24T13:07:17.000Z</time>
      </trkpt>
      <trkpt lat="43.26215" lon="6.65815">
        <ele>28.6</ele>
        <time>2023-05-24T13:07:21.000Z</time>
      </trkpt>
      <trkpt lat="43.2622" lon="6.65815">
        <ele>28</ele>
        <time>2023-05-24T13:07:26.000Z</time>
      </trkpt>
      <trkpt lat="43.26224" lon="6.65816">
        <ele>27.2</ele>
        <time>2023-05-24T13:07:31.000Z</time>
      </trkpt>
      <trkpt lat="43.26229" lon="6.65817">
        <ele>26.4</ele>
        <time>2023-05-24T13:07:36.000Z</time>
      </trkpt>
      <trkpt lat="43.26234" lon="6.65819">
        <ele>25.8</ele>
        <time>2023-05-24T13:07:41.000Z</time>
      </trkpt>
      <trkpt lat="43.26239" lon="6.6582">
        <ele>25.2</ele>
        <time>2023-05-24T13:07:46.000Z</time>
      </trkpt>
      <trkpt lat="43.26243" lon="6.65821">
        <ele>24.8</ele>
        <time>2023-05-24T13:07:50.000Z</time>
      </trkpt>
      <trkpt lat="43.26249" lon="6.65824">
        <ele>24.2</ele>
        <time>2023-05-24T13:07:55.000Z</time>
      </trkpt>
      <trkpt lat="43.26254" lon="6.65827">
        <ele>23.7</ele>
        <time>2023-05-24T13:08:00.000Z</time>
      </trkpt>
      <trkpt lat="43.26258" lon="6.6583">
        <ele>23.3</ele>
        <time>2023-05-24T13:08:05.000Z</time>
      </trkpt>
      <trkpt lat="43.26263" lon="6.65831">
        <ele>23.1</ele>
        <time>2023-05-24T13:08:09.000Z</time>
      </trkpt>
      <trkpt lat="43.26268" lon="6.6583">
        <ele>22.9</ele>
        <time>2023-05-24T13:08:13.000Z</time>
      </trkpt>
      <trkpt lat="43.26273" lon="6.65827">
        <ele>22.7</ele>
        <time>2023-05-24T13:08:17.000Z</time>
      </trkpt>
      <trkpt lat="43.26277" lon="6.65823">
        <ele>22.5</ele>
        <time>2023-05-24T13:08:21.000Z</time>
      </trkpt>
      <trkpt lat="43.26281" lon="6.65818">
        <ele>22.3</ele>
        <time>2023-05-24T13:08:25.000Z</time>
      </trkpt>
      <trkpt lat="43.26286" lon="6.65814">
        <ele>22</ele>
        <time>2023-05-24T13:08:29.000Z</time>
      </trkpt>
      <trkpt lat="43.2629" lon="6.6581">
        <ele>21.8</ele>
        <time>2023-05-24T13:08:32.000Z</time>
      </trkpt>
      <trkpt lat="43.26293" lon="6.65805">
        <ele>21.6</ele>
        <time>2023-05-24T13:08:35.000Z</time>
      </trkpt>
      <trkpt lat="43.26296" lon="6.65799">
        <ele>21.4</ele>
        <time>2023-05-24T13:08:39.000Z</time>
      </trkpt>
      <trkpt lat="43.26299" lon="6.65793">
        <ele>21.2</ele>
        <time>2023-05-24T13:08:43.000Z</time>
      </trkpt>
      <trkpt lat="43.26301" lon="6.65787">
        <ele>21.1</ele>
        <time>2023-05-24T13:08:47.000Z</time>
      </trkpt>
      <trkpt lat="43.26303" lon="6.65781">
        <ele>21.1</ele>
        <time>2023-05-24T13:08:51.000Z</time>
      </trkpt>
      <trkpt lat="43.26305" lon="6.65775">
        <ele>21</ele>
        <time>2023-05-24T13:08:55.000Z</time>
      </trkpt>
      <trkpt lat="43.26307" lon="6.65768">
        <ele>21</ele>
        <time>2023-05-24T13:09:00.000Z</time>
      </trkpt>
      <trkpt lat="43.2631" lon="6.65762">
        <ele>20.9</ele>
        <time>2023-05-24T13:09:05.000Z</time>
      </trkpt>
      <trkpt lat="43.26311" lon="6.65755">
        <ele>20.9</ele>
        <time>2023-05-24T13:09:10.000Z</time>
      </trkpt>
      <trkpt lat="43.26313" lon="6.65749">
        <ele>20.8</ele>
        <time>2023-05-24T13:09:15.000Z</time>
      </trkpt>
      <trkpt lat="43.26314" lon="6.65742">
        <ele>20.7</ele>
        <time>2023-05-24T13:09:20.000Z</time>
      </trkpt>
      <trkpt lat="43.26317" lon="6.65736">
        <ele>20.6</ele>
        <time>2023-05-24T13:09:26.000Z</time>
      </trkpt>
      <trkpt lat="43.26319" lon="6.6573">
        <ele>20.5</ele>
        <time>2023-05-24T13:09:30.000Z</time>
      </trkpt>
      <trkpt lat="43.2632" lon="6.65723">
        <ele>20.5</ele>
        <time>2023-05-24T13:09:35.000Z</time>
      </trkpt>
      <trkpt lat="43.26321" lon="6.65715">
        <ele>20.5</ele>
        <time>2023-05-24T13:09:40.000Z</time>
      </trkpt>
      <trkpt lat="43.26322" lon="6.65709">
        <ele>20.5</ele>
        <time>2023-05-24T13:09:44.000Z</time>
      </trkpt>
      <trkpt lat="43.26324" lon="6.65702">
        <ele>20.5</ele>
        <time>2023-05-24T13:09:48.000Z</time>
      </trkpt>
      <trkpt lat="43.26326" lon="6.65696">
        <ele>20.5</ele>
        <time>2023-05-24T13:09:52.000Z</time>
      </trkpt>
      <trkpt lat="43.26327" lon="6.6569">
        <ele>20.5</ele>
        <time>2023-05-24T13:09:56.000Z</time>
      </trkpt>
      <trkpt lat="43.26328" lon="6.65684">
        <ele>20.5</ele>
        <time>2023-05-24T13:10:00.000Z</time>
      </trkpt>
      <trkpt lat="43.2633" lon="6.65677">
        <ele>20.5</ele>
        <time>2023-05-24T13:10:04.000Z</time>
      </trkpt>
      <trkpt lat="43.26332" lon="6.65671">
        <ele>20.6</ele>
        <time>2023-05-24T13:10:09.000Z</time>
      </trkpt>
      <trkpt lat="43.26335" lon="6.65666">
        <ele>20.6</ele>
        <time>2023-05-24T13:10:13.000Z</time>
      </trkpt>
      <trkpt lat="43.26337" lon="6.6566">
        <ele>20.6</ele>
        <time>2023-05-24T13:10:17.000Z</time>
      </trkpt>
      <trkpt lat="43.26339" lon="6.65654">
        <ele>20.7</ele>
        <time>2023-05-24T13:10:22.000Z</time>
      </trkpt>
      <trkpt lat="43.26341" lon="6.65648">
        <ele>20.8</ele>
        <time>2023-05-24T13:10:26.000Z</time>
      </trkpt>
      <trkpt lat="43.26343" lon="6.65641">
        <ele>21</ele>
        <time>2023-05-24T13:10:31.000Z</time>
      </trkpt>
      <trkpt lat="43.26346" lon="6.65635">
        <ele>21.1</ele>
        <time>2023-05-24T13:10:36.000Z</time>
      </trkpt>
      <trkpt lat="43.26347" lon="6.65628">
        <ele>21.3</ele>
        <time>2023-05-24T13:10:41.000Z</time>
      </trkpt>
      <trkpt lat="43.26349" lon="6.65622">
        <ele>21.5</ele>
        <time>2023-05-24T13:10:46.000Z</time>
      </trkpt>
      <trkpt lat="43.26353" lon="6.65617">
        <ele>21.7</ele>
        <time>2023-05-24T13:10:51.000Z</time>
      </trkpt>
      <trkpt lat="43.26356" lon="6.65611">
        <ele>21.8</ele>
        <time>2023-05-24T13:10:56.000Z</time>
      </trkpt>
      <trkpt lat="43.2636" lon="6.65608">
        <ele>21.9</ele>
        <time>2023-05-24T13:11:00.000Z</time>
      </trkpt>
      <trkpt lat="43.26363" lon="6.65603">
        <ele>22</ele>
        <time>2023-05-24T13:11:04.000Z</time>
      </trkpt>
      <trkpt lat="43.26366" lon="6.65597">
        <ele>22.1</ele>
        <time>2023-05-24T13:11:09.000Z</time>
      </trkpt>
      <trkpt lat="43.26369" lon="6.65592">
        <ele>22.1</ele>
        <time>2023-05-24T13:11:14.000Z</time>
      </trkpt>
      <trkpt lat="43.26372" lon="6.65585">
        <ele>22.2</ele>
        <time>2023-05-24T13:11:19.000Z</time>
      </trkpt>
      <trkpt lat="43.26376" lon="6.6558">
        <ele>22.4</ele>
        <time>2023-05-24T13:11:24.000Z</time>
      </trkpt>
      <trkpt lat="43.26379" lon="6.65574">
        <ele>22.5</ele>
        <time>2023-05-24T13:11:29.000Z</time>
      </trkpt>
      <trkpt lat="43.26382" lon="6.65569">
        <ele>22.6</ele>
        <time>2023-05-24T13:11:33.000Z</time>
      </trkpt>
      <trkpt lat="43.26385" lon="6.65563">
        <ele>22.7</ele>
        <time>2023-05-24T13:11:38.000Z</time>
      </trkpt>
      <trkpt lat="43.26388" lon="6.65559">
        <ele>22.8</ele>
        <time>2023-05-24T13:11:42.000Z</time>
      </trkpt>
      <trkpt lat="43.26392" lon="6.65554">
        <ele>22.9</ele>
        <time>2023-05-24T13:11:47.000Z</time>
      </trkpt>
      <trkpt lat="43.26394" lon="6.65547">
        <ele>23</ele>
        <time>2023-05-24T13:11:52.000Z</time>
      </trkpt>
      <trkpt lat="43.26398" lon="6.65542">
        <ele>23.1</ele>
        <time>2023-05-24T13:11:57.000Z</time>
      </trkpt>
      <trkpt lat="43.26402" lon="6.65537">
        <ele>23.2</ele>
        <time>2023-05-24T13:12:03.000Z</time>
      </trkpt>
      <trkpt lat="43.26406" lon="6.65533">
        <ele>23.3</ele>
        <time>2023-05-24T13:12:08.000Z</time>
      </trkpt>
      <trkpt lat="43.2641" lon="6.65529">
        <ele>23.4</ele>
        <time>2023-05-24T13:12:14.000Z</time>
      </trkpt>
      <trkpt lat="43.26413" lon="6.65523">
        <ele>23.4</ele>
        <time>2023-05-24T13:12:18.000Z</time>
      </trkpt>
      <trkpt lat="43.26417" lon="6.65518">
        <ele>23.4</ele>
        <time>2023-05-24T13:12:23.000Z</time>
      </trkpt>
      <trkpt lat="43.26421" lon="6.65514">
        <ele>23.4</ele>
        <time>2023-05-24T13:12:28.000Z</time>
      </trkpt>
      <trkpt lat="43.26425" lon="6.6551">
        <ele>23.5</ele>
        <time>2023-05-24T13:12:33.000Z</time>
      </trkpt>
      <trkpt lat="43.26429" lon="6.65507">
        <ele>23.6</ele>
        <time>2023-05-24T13:12:38.000Z</time>
      </trkpt>
      <trkpt lat="43.26434" lon="6.65505">
        <ele>23.8</ele>
        <time>2023-05-24T13:12:43.000Z</time>
      </trkpt>
      <trkpt lat="43.26439" lon="6.65502">
        <ele>24</ele>
        <time>2023-05-24T13:12:49.000Z</time>
      </trkpt>
      <trkpt lat="43.26443" lon="6.655">
        <ele>24.1</ele>
        <time>2023-05-24T13:12:54.000Z</time>
      </trkpt>
      <trkpt lat="43.26447" lon="6.65496">
        <ele>24.2</ele>
        <time>2023-05-24T13:12:58.000Z</time>
      </trkpt>
      <trkpt lat="43.26452" lon="6.65491">
        <ele>24.2</ele>
        <time>2023-05-24T13:13:02.000Z</time>
      </trkpt>
      <trkpt lat="43.26456" lon="6.65487">
        <ele>24.2</ele>
        <time>2023-05-24T13:13:06.000Z</time>
      </trkpt>
      <trkpt lat="43.26461" lon="6.65482">
        <ele>24.2</ele>
        <time>2023-05-24T13:13:10.000Z</time>
      </trkpt>
      <trkpt lat="43.26465" lon="6.65478">
        <ele>24.2</ele>
        <time>2023-05-24T13:13:14.000Z</time>
      </trkpt>
      <trkpt lat="43.26468" lon="6.65474">
        <ele>24.1</ele>
        <time>2023-05-24T13:13:18.000Z</time>
      </trkpt>
      <trkpt lat="43.26472" lon="6.65469">
        <ele>24</ele>
        <time>2023-05-24T13:13:22.000Z</time>
      </trkpt>
      <trkpt lat="43.26475" lon="6.65463">
        <ele>23.9</ele>
        <time>2023-05-24T13:13:26.000Z</time>
      </trkpt>
      <trkpt lat="43.26478" lon="6.65458">
        <ele>23.9</ele>
        <time>2023-05-24T13:13:29.000Z</time>
      </trkpt>
      <trkpt lat="43.26481" lon="6.65453">
        <ele>24</ele>
        <time>2023-05-24T13:13:33.000Z</time>
      </trkpt>
      <trkpt lat="43.26485" lon="6.65447">
        <ele>24</ele>
        <time>2023-05-24T13:13:38.000Z</time>
      </trkpt>
      <trkpt lat="43.26487" lon="6.65442">
        <ele>24</ele>
        <time>2023-05-24T13:13:42.000Z</time>
      </trkpt>
      <trkpt lat="43.26489" lon="6.65435">
        <ele>24</ele>
        <time>2023-05-24T13:13:46.000Z</time>
      </trkpt>
      <trkpt lat="43.26491" lon="6.65429">
        <ele>24.1</ele>
        <time>2023-05-24T13:13:50.000Z</time>
      </trkpt>
      <trkpt lat="43.26493" lon="6.65422">
        <ele>24.1</ele>
        <time>2023-05-24T13:13:54.000Z</time>
      </trkpt>
      <trkpt lat="43.26494" lon="6.65416">
        <ele>24.2</ele>
        <time>2023-05-24T13:13:58.000Z</time>
      </trkpt>
      <trkpt lat="43.26495" lon="6.6541">
        <ele>24.4</ele>
        <time>2023-05-24T13:14:02.000Z</time>
      </trkpt>
      <trkpt lat="43.26497" lon="6.65403">
        <ele>24.4</ele>
        <time>2023-05-24T13:14:07.000Z</time>
      </trkpt>
      <trkpt lat="43.26498" lon="6.65395">
        <ele>24.5</ele>
        <time>2023-05-24T13:14:12.000Z</time>
      </trkpt>
      <trkpt lat="43.26499" lon="6.65388">
        <ele>24.5</ele>
        <time>2023-05-24T13:14:17.000Z</time>
      </trkpt>
      <trkpt lat="43.26501" lon="6.65383">
        <ele>24.5</ele>
        <time>2023-05-24T13:14:21.000Z</time>
      </trkpt>
      <trkpt lat="43.26505" lon="6.65378">
        <ele>24.5</ele>
        <time>2023-05-24T13:14:25.000Z</time>
      </trkpt>
      <trkpt lat="43.26508" lon="6.65372">
        <ele>24.6</ele>
        <time>2023-05-24T13:14:30.000Z</time>
      </trkpt>
      <trkpt lat="43.26512" lon="6.65368">
        <ele>24.7</ele>
        <time>2023-05-24T13:14:35.000Z</time>
      </trkpt>
      <trkpt lat="43.26516" lon="6.65364">
        <ele>24.8</ele>
        <time>2023-05-24T13:14:40.000Z</time>
      </trkpt>
      <trkpt lat="43.26521" lon="6.65362">
        <ele>24.8</ele>
        <time>2023-05-24T13:14:45.000Z</time>
      </trkpt>
      <trkpt lat="43.26525" lon="6.65359">
        <ele>24.9</ele>
        <time>2023-05-24T13:14:49.000Z</time>
      </trkpt>
      <trkpt lat="43.2653" lon="6.65357">
        <ele>24.9</ele>
        <time>2023-05-24T13:14:54.000Z</time>
      </trkpt>
      <trkpt lat="43.26536" lon="6.65355">
        <ele>24.9</ele>
        <time>2023-05-24T13:14:59.000Z</time>
      </trkpt>
      <trkpt lat="43.26541" lon="6.65352">
        <ele>24.9</ele>
        <time>2023-05-24T13:15:04.000Z</time>
      </trkpt>
      <trkpt lat="43.26545" lon="6.6535">
        <ele>24.9</ele>
        <time>2023-05-24T13:15:09.000Z</time>
      </trkpt>
      <trkpt lat="43.2655" lon="6.65346">
        <ele>24.9</ele>
        <time>2023-05-24T13:15:15.000Z</time>
      </trkpt>
      <trkpt lat="43.26555" lon="6.65345">
        <ele>24.9</ele>
        <time>2023-05-24T13:15:20.000Z</time>
      </trkpt>
      <trkpt lat="43.26561" lon="6.65344">
        <ele>25</ele>
        <time>2023-05-24T13:15:25.000Z</time>
      </trkpt>
      <trkpt lat="43.26565" lon="6.65343">
        <ele>25.2</ele>
        <time>2023-05-24T13:15:30.000Z</time>
      </trkpt>
      <trkpt lat="43.2657" lon="6.65343">
        <ele>25.5</ele>
        <time>2023-05-24T13:15:35.000Z</time>
      </trkpt>
      <trkpt lat="43.26575" lon="6.65344">
        <ele>25.9</ele>
        <time>2023-05-24T13:15:42.000Z</time>
      </trkpt>
      <trkpt lat="43.26578" lon="6.65337">
        <ele>26.4</ele>
        <time>2023-05-24T13:15:50.000Z</time>
      </trkpt>
      <trkpt lat="43.26581" lon="6.65331">
        <ele>26.6</ele>
        <time>2023-05-24T13:15:54.000Z</time>
      </trkpt>
      <trkpt lat="43.26585" lon="6.6533">
        <ele>26.9</ele>
        <time>2023-05-24T13:15:59.000Z</time>
      </trkpt>
      <trkpt lat="43.2659" lon="6.65328">
        <ele>27.2</ele>
        <time>2023-05-24T13:16:03.000Z</time>
      </trkpt>
      <trkpt lat="43.26595" lon="6.65326">
        <ele>27.4</ele>
        <time>2023-05-24T13:16:07.000Z</time>
      </trkpt>
      <trkpt lat="43.26598" lon="6.6532">
        <ele>27.6</ele>
        <time>2023-05-24T13:16:11.000Z</time>
      </trkpt>
      <trkpt lat="43.26599" lon="6.65314">
        <ele>28.1</ele>
        <time>2023-05-24T13:16:25.000Z</time>
      </trkpt>
      <trkpt lat="43.26603" lon="6.65311">
        <ele>28.6</ele>
        <time>2023-05-24T13:16:41.000Z</time>
      </trkpt>
      <trkpt lat="43.26608" lon="6.65312">
        <ele>28.7</ele>
        <time>2023-05-24T13:16:46.000Z</time>
      </trkpt>
      <trkpt lat="43.26613" lon="6.65312">
        <ele>28.9</ele>
        <time>2023-05-24T13:17:30.000Z</time>
      </trkpt>
      <trkpt lat="43.26613" lon="6.65305">
        <ele>29</ele>
        <time>2023-05-24T13:17:38.000Z</time>
      </trkpt>
      <trkpt lat="43.26612" lon="6.65299">
        <ele>29</ele>
        <time>2023-05-24T13:17:42.000Z</time>
      </trkpt>
      <trkpt lat="43.2661" lon="6.65291">
        <ele>29.1</ele>
        <time>2023-05-24T13:17:47.000Z</time>
      </trkpt>
      <trkpt lat="43.26608" lon="6.65286">
        <ele>29.3</ele>
        <time>2023-05-24T13:17:51.000Z</time>
      </trkpt>
      <trkpt lat="43.26608" lon="6.65278">
        <ele>29.7</ele>
        <time>2023-05-24T13:17:56.000Z</time>
      </trkpt>
      <trkpt lat="43.26608" lon="6.65272">
        <ele>30</ele>
        <time>2023-05-24T13:18:00.000Z</time>
      </trkpt>
      <trkpt lat="43.26609" lon="6.65265">
        <ele>30.4</ele>
        <time>2023-05-24T13:18:05.000Z</time>
      </trkpt>
      <trkpt lat="43.2661" lon="6.65257">
        <ele>30.9</ele>
        <time>2023-05-24T13:18:10.000Z</time>
      </trkpt>
      <trkpt lat="43.26611" lon="6.6525">
        <ele>31.4</ele>
        <time>2023-05-24T13:18:15.000Z</time>
      </trkpt>
      <trkpt lat="43.26611" lon="6.65244">
        <ele>31.7</ele>
        <time>2023-05-24T13:18:19.000Z</time>
      </trkpt>
      <trkpt lat="43.26612" lon="6.65237">
        <ele>31.9</ele>
        <time>2023-05-24T13:18:23.000Z</time>
      </trkpt>
      <trkpt lat="43.26613" lon="6.65231">
        <ele>32</ele>
        <time>2023-05-24T13:18:27.000Z</time>
      </trkpt>
      <trkpt lat="43.26614" lon="6.65225">
        <ele>32.2</ele>
        <time>2023-05-24T13:18:31.000Z</time>
      </trkpt>
      <trkpt lat="43.26615" lon="6.65219">
        <ele>32.5</ele>
        <time>2023-05-24T13:18:35.000Z</time>
      </trkpt>
      <trkpt lat="43.26616" lon="6.65213">
        <ele>32.8</ele>
        <time>2023-05-24T13:18:39.000Z</time>
      </trkpt>
      <trkpt lat="43.26618" lon="6.65206">
        <ele>33</ele>
        <time>2023-05-24T13:18:43.000Z</time>
      </trkpt>
      <trkpt lat="43.26619" lon="6.652">
        <ele>33.2</ele>
        <time>2023-05-24T13:18:47.000Z</time>
      </trkpt>
      <trkpt lat="43.26619" lon="6.65193">
        <ele>33.4</ele>
        <time>2023-05-24T13:18:51.000Z</time>
      </trkpt>
      <trkpt lat="43.26621" lon="6.65186">
        <ele>33.6</ele>
        <time>2023-05-24T13:18:55.000Z</time>
      </trkpt>
      <trkpt lat="43.26622" lon="6.6518">
        <ele>33.9</ele>
        <time>2023-05-24T13:18:59.000Z</time>
      </trkpt>
      <trkpt lat="43.26623" lon="6.65174">
        <ele>34.1</ele>
        <time>2023-05-24T13:19:03.000Z</time>
      </trkpt>
      <trkpt lat="43.26624" lon="6.65166">
        <ele>34.3</ele>
        <time>2023-05-24T13:19:08.000Z</time>
      </trkpt>
      <trkpt lat="43.26625" lon="6.6516">
        <ele>34.6</ele>
        <time>2023-05-24T13:19:12.000Z</time>
      </trkpt>
      <trkpt lat="43.26626" lon="6.65153">
        <ele>34.8</ele>
        <time>2023-05-24T13:19:17.000Z</time>
      </trkpt>
      <trkpt lat="43.26627" lon="6.65146">
        <ele>35</ele>
        <time>2023-05-24T13:19:22.000Z</time>
      </trkpt>
      <trkpt lat="43.26629" lon="6.65139">
        <ele>35.1</ele>
        <time>2023-05-24T13:19:27.000Z</time>
      </trkpt>
      <trkpt lat="43.26631" lon="6.65133">
        <ele>35.3</ele>
        <time>2023-05-24T13:19:31.000Z</time>
      </trkpt>
      <trkpt lat="43.26632" lon="6.65126">
        <ele>35.5</ele>
        <time>2023-05-24T13:19:36.000Z</time>
      </trkpt>
      <trkpt lat="43.26635" lon="6.65121">
        <ele>35.8</ele>
        <time>2023-05-24T13:19:42.000Z</time>
      </trkpt>
      <trkpt lat="43.26638" lon="6.65116">
        <ele>36.1</ele>
        <time>2023-05-24T13:19:46.000Z</time>
      </trkpt>
      <trkpt lat="43.26641" lon="6.65111">
        <ele>36.2</ele>
        <time>2023-05-24T13:19:50.000Z</time>
      </trkpt>
      <trkpt lat="43.26643" lon="6.65105">
        <ele>36.4</ele>
        <time>2023-05-24T13:19:54.000Z</time>
      </trkpt>
      <trkpt lat="43.26645" lon="6.65099">
        <ele>36.5</ele>
        <time>2023-05-24T13:19:58.000Z</time>
      </trkpt>
      <trkpt lat="43.26646" lon="6.65093">
        <ele>36.6</ele>
        <time>2023-05-24T13:20:02.000Z</time>
      </trkpt>
      <trkpt lat="43.26648" lon="6.65086">
        <ele>36.6</ele>
        <time>2023-05-24T13:20:07.000Z</time>
      </trkpt>
      <trkpt lat="43.2665" lon="6.65079">
        <ele>36.7</ele>
        <time>2023-05-24T13:20:12.000Z</time>
      </trkpt>
      <trkpt lat="43.26652" lon="6.65072">
        <ele>36.8</ele>
        <time>2023-05-24T13:20:17.000Z</time>
      </trkpt>
      <trkpt lat="43.26654" lon="6.65066">
        <ele>36.9</ele>
        <time>2023-05-24T13:20:22.000Z</time>
      </trkpt>
      <trkpt lat="43.26657" lon="6.6506">
        <ele>36.9</ele>
        <time>2023-05-24T13:20:27.000Z</time>
      </trkpt>
      <trkpt lat="43.26655" lon="6.65053">
        <ele>36.9</ele>
        <time>2023-05-24T13:20:33.000Z</time>
      </trkpt>
      <trkpt lat="43.26655" lon="6.65045">
        <ele>37</ele>
        <time>2023-05-24T13:20:38.000Z</time>
      </trkpt>
      <trkpt lat="43.26655" lon="6.65038">
        <ele>37</ele>
        <time>2023-05-24T13:20:42.000Z</time>
      </trkpt>
      <trkpt lat="43.26656" lon="6.65032">
        <ele>37</ele>
        <time>2023-05-24T13:20:46.000Z</time>
      </trkpt>
      <trkpt lat="43.26657" lon="6.65025">
        <ele>37</ele>
        <time>2023-05-24T13:20:50.000Z</time>
      </trkpt>
      <trkpt lat="43.26658" lon="6.65018">
        <ele>37.2</ele>
        <time>2023-05-24T13:20:55.000Z</time>
      </trkpt>
      <trkpt lat="43.26658" lon="6.65011">
        <ele>37.4</ele>
        <time>2023-05-24T13:21:00.000Z</time>
      </trkpt>
      <trkpt lat="43.26659" lon="6.65003">
        <ele>37.5</ele>
        <time>2023-05-24T13:21:05.000Z</time>
      </trkpt>
      <trkpt lat="43.26661" lon="6.64997">
        <ele>37.6</ele>
        <time>2023-05-24T13:21:10.000Z</time>
      </trkpt>
      <trkpt lat="43.26663" lon="6.6499">
        <ele>37.7</ele>
        <time>2023-05-24T13:21:14.000Z</time>
      </trkpt>
      <trkpt lat="43.26666" lon="6.64985">
        <ele>37.7</ele>
        <time>2023-05-24T13:21:18.000Z</time>
      </trkpt>
      <trkpt lat="43.26668" lon="6.64978">
        <ele>37.7</ele>
        <time>2023-05-24T13:21:22.000Z</time>
      </trkpt>
      <trkpt lat="43.26671" lon="6.64973">
        <ele>37.8</ele>
        <time>2023-05-24T13:21:26.000Z</time>
      </trkpt>
      <trkpt lat="43.26672" lon="6.64966">
        <ele>37.8</ele>
        <time>2023-05-24T13:21:30.000Z</time>
      </trkpt>
      <trkpt lat="43.26674" lon="6.64961">
        <ele>37.8</ele>
        <time>2023-05-24T13:21:34.000Z</time>
      </trkpt>
      <trkpt lat="43.26676" lon="6.64954">
        <ele>37.8</ele>
        <time>2023-05-24T13:21:38.000Z</time>
      </trkpt>
      <trkpt lat="43.26678" lon="6.64948">
        <ele>37.8</ele>
        <time>2023-05-24T13:21:42.000Z</time>
      </trkpt>
      <trkpt lat="43.2668" lon="6.64942">
        <ele>37.8</ele>
        <time>2023-05-24T13:21:46.000Z</time>
      </trkpt>
      <trkpt lat="43.26683" lon="6.64935">
        <ele>37.9</ele>
        <time>2023-05-24T13:21:50.000Z</time>
      </trkpt>
      <trkpt lat="43.26685" lon="6.64929">
        <ele>38</ele>
        <time>2023-05-24T13:21:54.000Z</time>
      </trkpt>
      <trkpt lat="43.26687" lon="6.64922">
        <ele>38.1</ele>
        <time>2023-05-24T13:21:58.000Z</time>
      </trkpt>
      <trkpt lat="43.26688" lon="6.64915">
        <ele>38.1</ele>
        <time>2023-05-24T13:22:03.000Z</time>
      </trkpt>
      <trkpt lat="43.26691" lon="6.64909">
        <ele>38.2</ele>
        <time>2023-05-24T13:22:07.000Z</time>
      </trkpt>
      <trkpt lat="43.26693" lon="6.64902">
        <ele>38.2</ele>
        <time>2023-05-24T13:22:11.000Z</time>
      </trkpt>
      <trkpt lat="43.26695" lon="6.64896">
        <ele>38.2</ele>
        <time>2023-05-24T13:22:15.000Z</time>
      </trkpt>
      <trkpt lat="43.26699" lon="6.64891">
        <ele>38.3</ele>
        <time>2023-05-24T13:22:19.000Z</time>
      </trkpt>
      <trkpt lat="43.26703" lon="6.64885">
        <ele>38.4</ele>
        <time>2023-05-24T13:22:24.000Z</time>
      </trkpt>
      <trkpt lat="43.26705" lon="6.64879">
        <ele>38.5</ele>
        <time>2023-05-24T13:22:28.000Z</time>
      </trkpt>
      <trkpt lat="43.26707" lon="6.64873">
        <ele>38.6</ele>
        <time>2023-05-24T13:22:33.000Z</time>
      </trkpt>
      <trkpt lat="43.26711" lon="6.64867">
        <ele>38.7</ele>
        <time>2023-05-24T13:22:37.000Z</time>
      </trkpt>
      <trkpt lat="43.26715" lon="6.64862">
        <ele>38.7</ele>
        <time>2023-05-24T13:22:41.000Z</time>
      </trkpt>
      <trkpt lat="43.26717" lon="6.64856">
        <ele>38.8</ele>
        <time>2023-05-24T13:22:45.000Z</time>
      </trkpt>
      <trkpt lat="43.2672" lon="6.64849">
        <ele>38.9</ele>
        <time>2023-05-24T13:22:50.000Z</time>
      </trkpt>
      <trkpt lat="43.26723" lon="6.64843">
        <ele>38.9</ele>
        <time>2023-05-24T13:22:54.000Z</time>
      </trkpt>
      <trkpt lat="43.26727" lon="6.64839">
        <ele>39</ele>
        <time>2023-05-24T13:22:58.000Z</time>
      </trkpt>
      <trkpt lat="43.2673" lon="6.64835">
        <ele>39.1</ele>
        <time>2023-05-24T13:23:02.000Z</time>
      </trkpt>
      <trkpt lat="43.26733" lon="6.64829">
        <ele>39.2</ele>
        <time>2023-05-24T13:23:06.000Z</time>
      </trkpt>
      <trkpt lat="43.26735" lon="6.64824">
        <ele>39.3</ele>
        <time>2023-05-24T13:23:10.000Z</time>
      </trkpt>
      <trkpt lat="43.26737" lon="6.64816">
        <ele>39.3</ele>
        <time>2023-05-24T13:23:14.000Z</time>
      </trkpt>
      <trkpt lat="43.2674" lon="6.6481">
        <ele>39.3</ele>
        <time>2023-05-24T13:23:18.000Z</time>
      </trkpt>
      <trkpt lat="43.26742" lon="6.64803">
        <ele>39.4</ele>
        <time>2023-05-24T13:23:23.000Z</time>
      </trkpt>
      <trkpt lat="43.26745" lon="6.64797">
        <ele>39.5</ele>
        <time>2023-05-24T13:23:27.000Z</time>
      </trkpt>
      <trkpt lat="43.26748" lon="6.64791">
        <ele>39.5</ele>
        <time>2023-05-24T13:23:31.000Z</time>
      </trkpt>
      <trkpt lat="43.2675" lon="6.64785">
        <ele>39.5</ele>
        <time>2023-05-24T13:23:35.000Z</time>
      </trkpt>
      <trkpt lat="43.26753" lon="6.64779">
        <ele>39.5</ele>
        <time>2023-05-24T13:23:39.000Z</time>
      </trkpt>
      <trkpt lat="43.26756" lon="6.64774">
        <ele>39.6</ele>
        <time>2023-05-24T13:23:43.000Z</time>
      </trkpt>
      <trkpt lat="43.26759" lon="6.64768">
        <ele>39.6</ele>
        <time>2023-05-24T13:23:48.000Z</time>
      </trkpt>
      <trkpt lat="43.26762" lon="6.64763">
        <ele>39.6</ele>
        <time>2023-05-24T13:23:52.000Z</time>
      </trkpt>
      <trkpt lat="43.26764" lon="6.64757">
        <ele>39.6</ele>
        <time>2023-05-24T13:23:56.000Z</time>
      </trkpt>
      <trkpt lat="43.26767" lon="6.64751">
        <ele>39.6</ele>
        <time>2023-05-24T13:24:01.000Z</time>
      </trkpt>
      <trkpt lat="43.2677" lon="6.64745">
        <ele>39.6</ele>
        <time>2023-05-24T13:24:06.000Z</time>
      </trkpt>
      <trkpt lat="43.26773" lon="6.6474">
        <ele>39.6</ele>
        <time>2023-05-24T13:24:10.000Z</time>
      </trkpt>
      <trkpt lat="43.26775" lon="6.64734">
        <ele>39.5</ele>
        <time>2023-05-24T13:24:14.000Z</time>
      </trkpt>
      <trkpt lat="43.26778" lon="6.64727">
        <ele>39.4</ele>
        <time>2023-05-24T13:24:18.000Z</time>
      </trkpt>
      <trkpt lat="43.26781" lon="6.64722">
        <ele>39.3</ele>
        <time>2023-05-24T13:24:22.000Z</time>
      </trkpt>
      <trkpt lat="43.26782" lon="6.64714">
        <ele>39.1</ele>
        <time>2023-05-24T13:24:27.000Z</time>
      </trkpt>
      <trkpt lat="43.26785" lon="6.64709">
        <ele>39</ele>
        <time>2023-05-24T13:24:32.000Z</time>
      </trkpt>
      <trkpt lat="43.26788" lon="6.64704">
        <ele>38.8</ele>
        <time>2023-05-24T13:24:38.000Z</time>
      </trkpt>
      <trkpt lat="43.26792" lon="6.64698">
        <ele>38.8</ele>
        <time>2023-05-24T13:24:43.000Z</time>
      </trkpt>
      <trkpt lat="43.26795" lon="6.64694">
        <ele>38.6</ele>
        <time>2023-05-24T13:24:47.000Z</time>
      </trkpt>
      <trkpt lat="43.26799" lon="6.64688">
        <ele>38.5</ele>
        <time>2023-05-24T13:24:52.000Z</time>
      </trkpt>
      <trkpt lat="43.26802" lon="6.64683">
        <ele>38.2</ele>
        <time>2023-05-24T13:24:57.000Z</time>
      </trkpt>
      <trkpt lat="43.26807" lon="6.64683">
        <ele>38</ele>
        <time>2023-05-24T13:25:05.000Z</time>
      </trkpt>
      <trkpt lat="43.26811" lon="6.64687">
        <ele>37.9</ele>
        <time>2023-05-24T13:25:10.000Z</time>
      </trkpt>
      <trkpt lat="43.26815" lon="6.64691">
        <ele>37.8</ele>
        <time>2023-05-24T13:25:15.000Z</time>
      </trkpt>
      <trkpt lat="43.2682" lon="6.64695">
        <ele>37.8</ele>
        <time>2023-05-24T13:25:19.000Z</time>
      </trkpt>
      <trkpt lat="43.26824" lon="6.64698">
        <ele>37.9</ele>
        <time>2023-05-24T13:25:23.000Z</time>
      </trkpt>
      <trkpt lat="43.26828" lon="6.64702">
        <ele>38</ele>
        <time>2023-05-24T13:25:27.000Z</time>
      </trkpt>
      <trkpt lat="43.26832" lon="6.64706">
        <ele>38.1</ele>
        <time>2023-05-24T13:25:32.000Z</time>
      </trkpt>
      <trkpt lat="43.26836" lon="6.6471">
        <ele>38.2</ele>
        <time>2023-05-24T13:25:36.000Z</time>
      </trkpt>
      <trkpt lat="43.2684" lon="6.64714">
        <ele>38.6</ele>
        <time>2023-05-24T13:25:41.000Z</time>
      </trkpt>
      <trkpt lat="43.26844" lon="6.64718">
        <ele>38.9</ele>
        <time>2023-05-24T13:25:46.000Z</time>
      </trkpt>
      <trkpt lat="43.26848" lon="6.64722">
        <ele>39.2</ele>
        <time>2023-05-24T13:25:51.000Z</time>
      </trkpt>
      <trkpt lat="43.26853" lon="6.64726">
        <ele>39.4</ele>
        <time>2023-05-24T13:25:56.000Z</time>
      </trkpt>
      <trkpt lat="43.26857" lon="6.6473">
        <ele>39.7</ele>
        <time>2023-05-24T13:26:01.000Z</time>
      </trkpt>
      <trkpt lat="43.26861" lon="6.64734">
        <ele>40.1</ele>
        <time>2023-05-24T13:26:06.000Z</time>
      </trkpt>
      <trkpt lat="43.26866" lon="6.64736">
        <ele>40.6</ele>
        <time>2023-05-24T13:26:11.000Z</time>
      </trkpt>
      <trkpt lat="43.26871" lon="6.64738">
        <ele>41.1</ele>
        <time>2023-05-24T13:26:16.000Z</time>
      </trkpt>
      <trkpt lat="43.26875" lon="6.6474">
        <ele>41.5</ele>
        <time>2023-05-24T13:26:20.000Z</time>
      </trkpt>
      <trkpt lat="43.2688" lon="6.64741">
        <ele>41.9</ele>
        <time>2023-05-24T13:26:24.000Z</time>
      </trkpt>
      <trkpt lat="43.26885" lon="6.64742">
        <ele>42.3</ele>
        <time>2023-05-24T13:26:29.000Z</time>
      </trkpt>
      <trkpt lat="43.2689" lon="6.64743">
        <ele>42.6</ele>
        <time>2023-05-24T13:26:34.000Z</time>
      </trkpt>
      <trkpt lat="43.26896" lon="6.64743">
        <ele>42.9</ele>
        <time>2023-05-24T13:26:39.000Z</time>
      </trkpt>
      <trkpt lat="43.26901" lon="6.64743">
        <ele>43.1</ele>
        <time>2023-05-24T13:26:44.000Z</time>
      </trkpt>
      <trkpt lat="43.26907" lon="6.64743">
        <ele>43.2</ele>
        <time>2023-05-24T13:26:49.000Z</time>
      </trkpt>
      <trkpt lat="43.26912" lon="6.64743">
        <ele>43.3</ele>
        <time>2023-05-24T13:26:54.000Z</time>
      </trkpt>
      <trkpt lat="43.26918" lon="6.64742">
        <ele>43.3</ele>
        <time>2023-05-24T13:26:59.000Z</time>
      </trkpt>
      <trkpt lat="43.26923" lon="6.64741">
        <ele>43.4</ele>
        <time>2023-05-24T13:27:05.000Z</time>
      </trkpt>
      <trkpt lat="43.26927" lon="6.64739">
        <ele>43.4</ele>
        <time>2023-05-24T13:27:11.000Z</time>
      </trkpt>
      <trkpt lat="43.26931" lon="6.64733">
        <ele>43.3</ele>
        <time>2023-05-24T13:27:16.000Z</time>
      </trkpt>
      <trkpt lat="43.26932" lon="6.64727">
        <ele>43.3</ele>
        <time>2023-05-24T13:27:20.000Z</time>
      </trkpt>
      <trkpt lat="43.26935" lon="6.64721">
        <ele>43.2</ele>
        <time>2023-05-24T13:27:24.000Z</time>
      </trkpt>
      <trkpt lat="43.26939" lon="6.64716">
        <ele>43.2</ele>
        <time>2023-05-24T13:27:28.000Z</time>
      </trkpt>
      <trkpt lat="43.26942" lon="6.64711">
        <ele>43</ele>
        <time>2023-05-24T13:27:32.000Z</time>
      </trkpt>
      <trkpt lat="43.26944" lon="6.64705">
        <ele>42.9</ele>
        <time>2023-05-24T13:27:36.000Z</time>
      </trkpt>
      <trkpt lat="43.26947" lon="6.647">
        <ele>42.7</ele>
        <time>2023-05-24T13:27:40.000Z</time>
      </trkpt>
      <trkpt lat="43.2695" lon="6.64695">
        <ele>42.6</ele>
        <time>2023-05-24T13:27:44.000Z</time>
      </trkpt>
      <trkpt lat="43.26953" lon="6.6469">
        <ele>42.6</ele>
        <time>2023-05-24T13:27:48.000Z</time>
      </trkpt>
      <trkpt lat="43.26956" lon="6.64684">
        <ele>42.5</ele>
        <time>2023-05-24T13:27:52.000Z</time>
      </trkpt>
      <trkpt lat="43.2696" lon="6.6468">
        <ele>42.5</ele>
        <time>2023-05-24T13:27:56.000Z</time>
      </trkpt>
      <trkpt lat="43.26963" lon="6.64674">
        <ele>42.4</ele>
        <time>2023-05-24T13:28:00.000Z</time>
      </trkpt>
      <trkpt lat="43.26966" lon="6.64668">
        <ele>42.4</ele>
        <time>2023-05-24T13:28:04.000Z</time>
      </trkpt>
      <trkpt lat="43.26968" lon="6.64662">
        <ele>42.4</ele>
        <time>2023-05-24T13:28:08.000Z</time>
      </trkpt>
      <trkpt lat="43.26972" lon="6.64657">
        <ele>42.4</ele>
        <time>2023-05-24T13:28:13.000Z</time>
      </trkpt>
      <trkpt lat="43.26975" lon="6.6465">
        <ele>42.4</ele>
        <time>2023-05-24T13:28:18.000Z</time>
      </trkpt>
      <trkpt lat="43.26977" lon="6.64644">
        <ele>42.4</ele>
        <time>2023-05-24T13:28:22.000Z</time>
      </trkpt>
      <trkpt lat="43.26979" lon="6.64639">
        <ele>42.4</ele>
        <time>2023-05-24T13:28:26.000Z</time>
      </trkpt>
      <trkpt lat="43.26981" lon="6.64633">
        <ele>42.4</ele>
        <time>2023-05-24T13:28:30.000Z</time>
      </trkpt>
      <trkpt lat="43.26983" lon="6.64627">
        <ele>42.4</ele>
        <time>2023-05-24T13:28:34.000Z</time>
      </trkpt>
      <trkpt lat="43.26985" lon="6.64621">
        <ele>42.3</ele>
        <time>2023-05-24T13:28:38.000Z</time>
      </trkpt>
      <trkpt lat="43.26986" lon="6.64614">
        <ele>42.3</ele>
        <time>2023-05-24T13:28:42.000Z</time>
      </trkpt>
      <trkpt lat="43.26989" lon="6.64609">
        <ele>42.4</ele>
        <time>2023-05-24T13:28:48.000Z</time>
      </trkpt>
      <trkpt lat="43.26993" lon="6.64611">
        <ele>42.5</ele>
        <time>2023-05-24T13:28:55.000Z</time>
      </trkpt>
      <trkpt lat="43.26992" lon="6.64617">
        <ele>43.4</ele>
        <time>2023-05-24T13:29:24.000Z</time>
      </trkpt>
      <trkpt lat="43.26996" lon="6.64622">
        <ele>43.5</ele>
        <time>2023-05-24T13:29:33.000Z</time>
      </trkpt>
      <trkpt lat="43.27001" lon="6.64624">
        <ele>43.5</ele>
        <time>2023-05-24T13:29:39.000Z</time>
      </trkpt>
      <trkpt lat="43.27005" lon="6.64628">
        <ele>43.6</ele>
        <time>2023-05-24T13:29:47.000Z</time>
      </trkpt>
      <trkpt lat="43.27006" lon="6.64634">
        <ele>43.4</ele>
        <time>2023-05-24T13:29:56.000Z</time>
      </trkpt>
      <trkpt lat="43.27006" lon="6.64641">
        <ele>43</ele>
        <time>2023-05-24T13:30:02.000Z</time>
      </trkpt>
      <trkpt lat="43.27009" lon="6.64647">
        <ele>42.3</ele>
        <time>2023-05-24T13:30:08.000Z</time>
      </trkpt>
      <trkpt lat="43.27011" lon="6.64654">
        <ele>41.4</ele>
        <time>2023-05-24T13:30:14.000Z</time>
      </trkpt>
      <trkpt lat="43.27014" lon="6.64659">
        <ele>40.7</ele>
        <time>2023-05-24T13:30:19.000Z</time>
      </trkpt>
      <trkpt lat="43.27016" lon="6.64665">
        <ele>39.8</ele>
        <time>2023-05-24T13:30:25.000Z</time>
      </trkpt>
      <trkpt lat="43.27018" lon="6.6467">
        <ele>38.5</ele>
        <time>2023-05-24T13:30:34.000Z</time>
      </trkpt>
      <trkpt lat="43.27021" lon="6.64676">
        <ele>37.5</ele>
        <time>2023-05-24T13:30:41.000Z</time>
      </trkpt>
      <trkpt lat="43.27024" lon="6.64682">
        <ele>36.7</ele>
        <time>2023-05-24T13:30:46.000Z</time>
      </trkpt>
      <trkpt lat="43.27026" lon="6.64688">
        <ele>35.5</ele>
        <time>2023-05-24T13:30:53.000Z</time>
      </trkpt>
      <trkpt lat="43.27029" lon="6.64693">
        <ele>33.5</ele>
        <time>2023-05-24T13:31:04.000Z</time>
      </trkpt>
      <trkpt lat="43.27032" lon="6.64698">
        <ele>32.5</ele>
        <time>2023-05-24T13:31:10.000Z</time>
      </trkpt>
      <trkpt lat="43.27034" lon="6.64704">
        <ele>31.5</ele>
        <time>2023-05-24T13:31:16.000Z</time>
      </trkpt>
      <trkpt lat="43.27037" lon="6.64709">
        <ele>30.6</ele>
        <time>2023-05-24T13:31:21.000Z</time>
      </trkpt>
      <trkpt lat="43.2704" lon="6.64714">
        <ele>29.9</ele>
        <time>2023-05-24T13:31:26.000Z</time>
      </trkpt>
      <trkpt lat="43.27042" lon="6.6472">
        <ele>29.1</ele>
        <time>2023-05-24T13:31:32.000Z</time>
      </trkpt>
      <trkpt lat="43.27044" lon="6.64726">
        <ele>28.2</ele>
        <time>2023-05-24T13:31:39.000Z</time>
      </trkpt>
      <trkpt lat="43.27048" lon="6.64732">
        <ele>27.6</ele>
        <time>2023-05-24T13:31:44.000Z</time>
      </trkpt>
      <trkpt lat="43.2705" lon="6.64737">
        <ele>27.1</ele>
        <time>2023-05-24T13:31:48.000Z</time>
      </trkpt>
      <trkpt lat="43.27054" lon="6.64743">
        <ele>26.4</ele>
        <time>2023-05-24T13:31:53.000Z</time>
      </trkpt>
      <trkpt lat="43.27056" lon="6.64748">
        <ele>25.7</ele>
        <time>2023-05-24T13:31:58.000Z</time>
      </trkpt>
      <trkpt lat="43.27058" lon="6.64755">
        <ele>24.7</ele>
        <time>2023-05-24T13:32:05.000Z</time>
      </trkpt>
      <trkpt lat="43.27062" lon="6.64759">
        <ele>24.1</ele>
        <time>2023-05-24T13:32:10.000Z</time>
      </trkpt>
      <trkpt lat="43.27066" lon="6.64761">
        <ele>23.7</ele>
        <time>2023-05-24T13:32:14.000Z</time>
      </trkpt>
      <trkpt lat="43.27071" lon="6.64761">
        <ele>23.4</ele>
        <time>2023-05-24T13:32:18.000Z</time>
      </trkpt>
      <trkpt lat="43.27076" lon="6.64762">
        <ele>23.1</ele>
        <time>2023-05-24T13:32:22.000Z</time>
      </trkpt>
      <trkpt lat="43.27081" lon="6.64762">
        <ele>22.8</ele>
        <time>2023-05-24T13:32:26.000Z</time>
      </trkpt>
      <trkpt lat="43.27085" lon="6.64763">
        <ele>22.5</ele>
        <time>2023-05-24T13:32:30.000Z</time>
      </trkpt>
      <trkpt lat="43.27091" lon="6.64763">
        <ele>22.2</ele>
        <time>2023-05-24T13:32:35.000Z</time>
      </trkpt>
      <trkpt lat="43.27096" lon="6.64761">
        <ele>22.1</ele>
        <time>2023-05-24T13:32:40.000Z</time>
      </trkpt>
      <trkpt lat="43.27101" lon="6.6476">
        <ele>21.9</ele>
        <time>2023-05-24T13:32:45.000Z</time>
      </trkpt>
      <trkpt lat="43.27106" lon="6.64758">
        <ele>21.8</ele>
        <time>2023-05-24T13:32:50.000Z</time>
      </trkpt>
      <trkpt lat="43.2711" lon="6.64757">
        <ele>21.7</ele>
        <time>2023-05-24T13:32:55.000Z</time>
      </trkpt>
      <trkpt lat="43.27115" lon="6.64757">
        <ele>21.6</ele>
        <time>2023-05-24T13:33:00.000Z</time>
      </trkpt>
      <trkpt lat="43.2712" lon="6.64758">
        <ele>21.6</ele>
        <time>2023-05-24T13:33:05.000Z</time>
      </trkpt>
      <trkpt lat="43.27125" lon="6.64758">
        <ele>21.5</ele>
        <time>2023-05-24T13:33:10.000Z</time>
      </trkpt>
      <trkpt lat="43.27131" lon="6.64758">
        <ele>21.5</ele>
        <time>2023-05-24T13:33:15.000Z</time>
      </trkpt>
      <trkpt lat="43.27136" lon="6.64756">
        <ele>21.6</ele>
        <time>2023-05-24T13:33:20.000Z</time>
      </trkpt>
      <trkpt lat="43.2714" lon="6.64753">
        <ele>21.7</ele>
        <time>2023-05-24T13:33:25.000Z</time>
      </trkpt>
      <trkpt lat="43.27145" lon="6.64751">
        <ele>21.7</ele>
        <time>2023-05-24T13:33:30.000Z</time>
      </trkpt>
      <trkpt lat="43.2715" lon="6.6475">
        <ele>21.8</ele>
        <time>2023-05-24T13:33:35.000Z</time>
      </trkpt>
      <trkpt lat="43.27155" lon="6.64749">
        <ele>21.8</ele>
        <time>2023-05-24T13:33:40.000Z</time>
      </trkpt>
      <trkpt lat="43.27161" lon="6.64748">
        <ele>21.9</ele>
        <time>2023-05-24T13:33:45.000Z</time>
      </trkpt>
      <trkpt lat="43.27166" lon="6.64746">
        <ele>22</ele>
        <time>2023-05-24T13:33:50.000Z</time>
      </trkpt>
      <trkpt lat="43.27171" lon="6.64746">
        <ele>22.1</ele>
        <time>2023-05-24T13:33:56.000Z</time>
      </trkpt>
      <trkpt lat="43.27176" lon="6.64746">
        <ele>22.3</ele>
        <time>2023-05-24T13:34:02.000Z</time>
      </trkpt>
      <trkpt lat="43.27181" lon="6.64746">
        <ele>22.5</ele>
        <time>2023-05-24T13:34:08.000Z</time>
      </trkpt>
      <trkpt lat="43.27186" lon="6.64746">
        <ele>22.6</ele>
        <time>2023-05-24T13:34:13.000Z</time>
      </trkpt>
      <trkpt lat="43.27191" lon="6.64743">
        <ele>22.7</ele>
        <time>2023-05-24T13:34:19.000Z</time>
      </trkpt>
      <trkpt lat="43.27195" lon="6.6474">
        <ele>22.7</ele>
        <time>2023-05-24T13:35:01.000Z</time>
      </trkpt>
      <trkpt lat="43.27199" lon="6.64736">
        <ele>22.5</ele>
        <time>2023-05-24T13:35:07.000Z</time>
      </trkpt>
      <trkpt lat="43.27204" lon="6.64734">
        <ele>22.3</ele>
        <time>2023-05-24T13:35:15.000Z</time>
      </trkpt>
      <trkpt lat="43.27209" lon="6.64731">
        <ele>22.1</ele>
        <time>2023-05-24T13:35:22.000Z</time>
      </trkpt>
      <trkpt lat="43.27212" lon="6.64726">
        <ele>22</ele>
        <time>2023-05-24T13:35:29.000Z</time>
      </trkpt>
      <trkpt lat="43.27215" lon="6.64721">
        <ele>22</ele>
        <time>2023-05-24T13:35:34.000Z</time>
      </trkpt>
      <trkpt lat="43.27216" lon="6.64715">
        <ele>21.9</ele>
        <time>2023-05-24T13:35:43.000Z</time>
      </trkpt>
      <trkpt lat="43.27213" lon="6.64709">
        <ele>21.9</ele>
        <time>2023-05-24T13:35:50.000Z</time>
      </trkpt>
      <trkpt lat="43.27218" lon="6.64712">
        <ele>22.3</ele>
        <time>2023-05-24T13:36:05.000Z</time>
      </trkpt>
      <trkpt lat="43.27222" lon="6.6471">
        <ele>22.6</ele>
        <time>2023-05-24T13:36:16.000Z</time>
      </trkpt>
      <trkpt lat="43.27226" lon="6.64715">
        <ele>22.7</ele>
        <time>2023-05-24T13:36:23.000Z</time>
      </trkpt>
      <trkpt lat="43.27231" lon="6.64715">
        <ele>22.8</ele>
        <time>2023-05-24T13:36:33.000Z</time>
      </trkpt>
      <trkpt lat="43.27235" lon="6.64711">
        <ele>22.8</ele>
        <time>2023-05-24T13:36:43.000Z</time>
      </trkpt>
      <trkpt lat="43.27239" lon="6.64707">
        <ele>22.8</ele>
        <time>2023-05-24T13:36:51.000Z</time>
      </trkpt>
      <trkpt lat="43.27243" lon="6.64703">
        <ele>22.8</ele>
        <time>2023-05-24T13:37:10.000Z</time>
      </trkpt>
      <trkpt lat="43.27247" lon="6.64701">
        <ele>23</ele>
        <time>2023-05-24T13:37:33.000Z</time>
      </trkpt>
      <trkpt lat="43.27251" lon="6.64697">
        <ele>23.2</ele>
        <time>2023-05-24T13:37:43.000Z</time>
      </trkpt>
      <trkpt lat="43.27255" lon="6.64694">
        <ele>23.3</ele>
        <time>2023-05-24T13:37:52.000Z</time>
      </trkpt>
      <trkpt lat="43.27259" lon="6.64689">
        <ele>23.3</ele>
        <time>2023-05-24T13:38:00.000Z</time>
      </trkpt>
      <trkpt lat="43.27262" lon="6.64685">
        <ele>23.4</ele>
        <time>2023-05-24T13:38:07.000Z</time>
      </trkpt>
      <trkpt lat="43.27266" lon="6.6468">
        <ele>23.4</ele>
        <time>2023-05-24T13:38:14.000Z</time>
      </trkpt>
      <trkpt lat="43.2727" lon="6.64677">
        <ele>23.4</ele>
        <time>2023-05-24T13:38:24.000Z</time>
      </trkpt>
      <trkpt lat="43.27273" lon="6.64673">
        <ele>23.4</ele>
        <time>2023-05-24T13:38:31.000Z</time>
      </trkpt>
      <trkpt lat="43.27277" lon="6.64669">
        <ele>23.5</ele>
        <time>2023-05-24T13:38:38.000Z</time>
      </trkpt>
      <trkpt lat="43.27281" lon="6.64665">
        <ele>23.5</ele>
        <time>2023-05-24T13:38:47.000Z</time>
      </trkpt>
      <trkpt lat="43.27281" lon="6.64658">
        <ele>23.6</ele>
        <time>2023-05-24T13:38:57.000Z</time>
      </trkpt>
      <trkpt lat="43.2728" lon="6.64665">
        <ele>23.9</ele>
        <time>2023-05-24T13:39:16.000Z</time>
      </trkpt>
      <trkpt lat="43.27285" lon="6.64667">
        <ele>23.9</ele>
        <time>2023-05-24T13:39:24.000Z</time>
      </trkpt>
      <trkpt lat="43.2729" lon="6.64664">
        <ele>23.8</ele>
        <time>2023-05-24T13:39:30.000Z</time>
      </trkpt>
      <trkpt lat="43.27293" lon="6.64661">
        <ele>23.9</ele>
        <time>2023-05-24T13:39:37.000Z</time>
      </trkpt>
      <trkpt lat="43.27298" lon="6.64657">
        <ele>24</ele>
        <time>2023-05-24T13:39:44.000Z</time>
      </trkpt>
      <trkpt lat="43.27302" lon="6.64654">
        <ele>24.1</ele>
        <time>2023-05-24T13:39:50.000Z</time>
      </trkpt>
      <trkpt lat="43.27306" lon="6.6465">
        <ele>24.1</ele>
        <time>2023-05-24T13:39:57.000Z</time>
      </trkpt>
      <trkpt lat="43.2731" lon="6.64647">
        <ele>24.2</ele>
        <time>2023-05-24T13:40:03.000Z</time>
      </trkpt>
      <trkpt lat="43.27314" lon="6.64643">
        <ele>24.2</ele>
        <time>2023-05-24T13:40:10.000Z</time>
      </trkpt>
      <trkpt lat="43.27318" lon="6.6464">
        <ele>24.2</ele>
        <time>2023-05-24T13:40:16.000Z</time>
      </trkpt>
      <trkpt lat="43.27322" lon="6.64636">
        <ele>24.2</ele>
        <time>2023-05-24T13:40:25.000Z</time>
      </trkpt>
      <trkpt lat="43.27326" lon="6.64632">
        <ele>24.2</ele>
        <time>2023-05-24T13:40:33.000Z</time>
      </trkpt>
      <trkpt lat="43.2733" lon="6.64629">
        <ele>24.3</ele>
        <time>2023-05-24T13:40:42.000Z</time>
      </trkpt>
      <trkpt lat="43.27327" lon="6.64624">
        <ele>24.6</ele>
        <time>2023-05-24T13:41:14.000Z</time>
      </trkpt>
      <trkpt lat="43.27324" lon="6.64619">
        <ele>24.9</ele>
        <time>2023-05-24T13:41:26.000Z</time>
      </trkpt>
      <trkpt lat="43.2732" lon="6.64616">
        <ele>25.3</ele>
        <time>2023-05-24T13:41:39.000Z</time>
      </trkpt>
      <trkpt lat="43.27315" lon="6.64619">
        <ele>25.8</ele>
        <time>2023-05-24T13:42:00.000Z</time>
      </trkpt>
      <trkpt lat="43.27311" lon="6.64622">
        <ele>25.8</ele>
        <time>2023-05-24T13:42:08.000Z</time>
      </trkpt>
      <trkpt lat="43.27307" lon="6.64626">
        <ele>25.9</ele>
        <time>2023-05-24T13:42:17.000Z</time>
      </trkpt>
      <trkpt lat="43.27303" lon="6.6463">
        <ele>25.9</ele>
        <time>2023-05-24T13:42:23.000Z</time>
      </trkpt>
      <trkpt lat="43.273" lon="6.64634">
        <ele>25.9</ele>
        <time>2023-05-24T13:42:32.000Z</time>
      </trkpt>
      <trkpt lat="43.27296" lon="6.64639">
        <ele>25.9</ele>
        <time>2023-05-24T13:42:40.000Z</time>
      </trkpt>
      <trkpt lat="43.27292" lon="6.64642">
        <ele>25.9</ele>
        <time>2023-05-24T13:42:46.000Z</time>
      </trkpt>
      <trkpt lat="43.27288" lon="6.64645">
        <ele>25.9</ele>
        <time>2023-05-24T13:42:52.000Z</time>
      </trkpt>
      <trkpt lat="43.27284" lon="6.64648">
        <ele>25.8</ele>
        <time>2023-05-24T13:42:58.000Z</time>
      </trkpt>
      <trkpt lat="43.2728" lon="6.64652">
        <ele>25.7</ele>
        <time>2023-05-24T13:43:03.000Z</time>
      </trkpt>
      <trkpt lat="43.27276" lon="6.64656">
        <ele>25.5</ele>
        <time>2023-05-24T13:43:07.000Z</time>
      </trkpt>
      <trkpt lat="43.27272" lon="6.6466">
        <ele>25.2</ele>
        <time>2023-05-24T13:43:12.000Z</time>
      </trkpt>
      <trkpt lat="43.27268" lon="6.64664">
        <ele>24.9</ele>
        <time>2023-05-24T13:43:18.000Z</time>
      </trkpt>
      <trkpt lat="43.27264" lon="6.64669">
        <ele>24.6</ele>
        <time>2023-05-24T13:43:23.000Z</time>
      </trkpt>
      <trkpt lat="43.2726" lon="6.64673">
        <ele>24.5</ele>
        <time>2023-05-24T13:43:28.000Z</time>
      </trkpt>
      <trkpt lat="43.27257" lon="6.64677">
        <ele>24.3</ele>
        <time>2023-05-24T13:43:34.000Z</time>
      </trkpt>
      <trkpt lat="43.27252" lon="6.64679">
        <ele>24</ele>
        <time>2023-05-24T13:43:50.000Z</time>
      </trkpt>
      <trkpt lat="43.27248" lon="6.64682">
        <ele>23.9</ele>
        <time>2023-05-24T13:44:03.000Z</time>
      </trkpt>
      <trkpt lat="43.27245" lon="6.64686">
        <ele>23.9</ele>
        <time>2023-05-24T13:44:11.000Z</time>
      </trkpt>
      <trkpt lat="43.2724" lon="6.6469">
        <ele>23.9</ele>
        <time>2023-05-24T13:44:17.000Z</time>
      </trkpt>
      <trkpt lat="43.27236" lon="6.64692">
        <ele>23.9</ele>
        <time>2023-05-24T13:44:21.000Z</time>
      </trkpt>
      <trkpt lat="43.27232" lon="6.64696">
        <ele>23.8</ele>
        <time>2023-05-24T13:44:27.000Z</time>
      </trkpt>
      <trkpt lat="43.27228" lon="6.647">
        <ele>23.7</ele>
        <time>2023-05-24T13:44:35.000Z</time>
      </trkpt>
      <trkpt lat="43.27224" lon="6.64703">
        <ele>23.7</ele>
        <time>2023-05-24T13:44:40.000Z</time>
      </trkpt>
      <trkpt lat="43.2722" lon="6.64707">
        <ele>23.6</ele>
        <time>2023-05-24T13:44:48.000Z</time>
      </trkpt>
      <trkpt lat="43.27217" lon="6.64703">
        <ele>23.5</ele>
        <time>2023-05-24T13:44:54.000Z</time>
      </trkpt>
      <trkpt lat="43.27214" lon="6.64708">
        <ele>23.4</ele>
        <time>2023-05-24T13:45:01.000Z</time>
      </trkpt>
      <trkpt lat="43.27215" lon="6.64715">
        <ele>23.1</ele>
        <time>2023-05-24T13:45:08.000Z</time>
      </trkpt>
      <trkpt lat="43.27211" lon="6.6472">
        <ele>22.7</ele>
        <time>2023-05-24T13:45:14.000Z</time>
      </trkpt>
      <trkpt lat="43.27207" lon="6.64725">
        <ele>22.5</ele>
        <time>2023-05-24T13:45:20.000Z</time>
      </trkpt>
      <trkpt lat="43.27202" lon="6.64728">
        <ele>22.3</ele>
        <time>2023-05-24T13:45:26.000Z</time>
      </trkpt>
      <trkpt lat="43.27198" lon="6.64732">
        <ele>22.2</ele>
        <time>2023-05-24T13:45:32.000Z</time>
      </trkpt>
      <trkpt lat="43.27193" lon="6.64735">
        <ele>22.1</ele>
        <time>2023-05-24T13:45:38.000Z</time>
      </trkpt>
      <trkpt lat="43.27189" lon="6.64738">
        <ele>21.9</ele>
        <time>2023-05-24T13:45:44.000Z</time>
      </trkpt>
      <trkpt lat="43.27184" lon="6.64739">
        <ele>21.9</ele>
        <time>2023-05-24T13:45:49.000Z</time>
      </trkpt>
      <trkpt lat="43.2718" lon="6.6474">
        <ele>22</ele>
        <time>2023-05-24T13:45:55.000Z</time>
      </trkpt>
      <trkpt lat="43.27175" lon="6.6474">
        <ele>22.3</ele>
        <time>2023-05-24T13:46:03.000Z</time>
      </trkpt>
      <trkpt lat="43.2717" lon="6.64743">
        <ele>22.4</ele>
        <time>2023-05-24T13:46:08.000Z</time>
      </trkpt>
      <trkpt lat="43.27166" lon="6.64744">
        <ele>22.5</ele>
        <time>2023-05-24T13:46:16.000Z</time>
      </trkpt>
      <trkpt lat="43.27161" lon="6.64745">
        <ele>22.6</ele>
        <time>2023-05-24T13:46:21.000Z</time>
      </trkpt>
      <trkpt lat="43.27156" lon="6.64746">
        <ele>22.6</ele>
        <time>2023-05-24T13:46:27.000Z</time>
      </trkpt>
      <trkpt lat="43.27151" lon="6.64747">
        <ele>22.6</ele>
        <time>2023-05-24T13:46:33.000Z</time>
      </trkpt>
      <trkpt lat="43.27147" lon="6.6475">
        <ele>22.5</ele>
        <time>2023-05-24T13:46:40.000Z</time>
      </trkpt>
      <trkpt lat="43.27142" lon="6.64752">
        <ele>22.5</ele>
        <time>2023-05-24T13:46:46.000Z</time>
      </trkpt>
      <trkpt lat="43.27137" lon="6.64752">
        <ele>22.4</ele>
        <time>2023-05-24T13:46:52.000Z</time>
      </trkpt>
      <trkpt lat="43.27132" lon="6.64751">
        <ele>22.3</ele>
        <time>2023-05-24T13:46:57.000Z</time>
      </trkpt>
      <trkpt lat="43.27127" lon="6.64751">
        <ele>22.2</ele>
        <time>2023-05-24T13:47:01.000Z</time>
      </trkpt>
      <trkpt lat="43.27121" lon="6.64752">
        <ele>22</ele>
        <time>2023-05-24T13:47:06.000Z</time>
      </trkpt>
      <trkpt lat="43.27116" lon="6.64752">
        <ele>21.9</ele>
        <time>2023-05-24T13:47:10.000Z</time>
      </trkpt>
      <trkpt lat="43.27112" lon="6.64753">
        <ele>21.7</ele>
        <time>2023-05-24T13:47:14.000Z</time>
      </trkpt>
      <trkpt lat="43.27107" lon="6.64754">
        <ele>21.6</ele>
        <time>2023-05-24T13:47:18.000Z</time>
      </trkpt>
      <trkpt lat="43.27101" lon="6.64756">
        <ele>21.5</ele>
        <time>2023-05-24T13:47:23.000Z</time>
      </trkpt>
      <trkpt lat="43.27097" lon="6.64757">
        <ele>21.6</ele>
        <time>2023-05-24T13:47:27.000Z</time>
      </trkpt>
      <trkpt lat="43.27091" lon="6.64759">
        <ele>21.7</ele>
        <time>2023-05-24T13:47:34.000Z</time>
      </trkpt>
      <trkpt lat="43.27087" lon="6.64759">
        <ele>21.7</ele>
        <time>2023-05-24T13:47:38.000Z</time>
      </trkpt>
      <trkpt lat="43.27082" lon="6.64758">
        <ele>21.7</ele>
        <time>2023-05-24T13:47:42.000Z</time>
      </trkpt>
      <trkpt lat="43.27077" lon="6.64758">
        <ele>21.8</ele>
        <time>2023-05-24T13:47:46.000Z</time>
      </trkpt>
      <trkpt lat="43.27073" lon="6.64759">
        <ele>21.9</ele>
        <time>2023-05-24T13:47:50.000Z</time>
      </trkpt>
      <trkpt lat="43.27068" lon="6.6476">
        <ele>22.1</ele>
        <time>2023-05-24T13:47:56.000Z</time>
      </trkpt>
      <trkpt lat="43.27064" lon="6.64763">
        <ele>22.2</ele>
        <time>2023-05-24T13:48:02.000Z</time>
      </trkpt>
      <trkpt lat="43.27061" lon="6.64768">
        <ele>22.3</ele>
        <time>2023-05-24T13:48:08.000Z</time>
      </trkpt>
      <trkpt lat="43.27058" lon="6.64774">
        <ele>22.2</ele>
        <time>2023-05-24T13:48:13.000Z</time>
      </trkpt>
      <trkpt lat="43.27056" lon="6.6478">
        <ele>22</ele>
        <time>2023-05-24T13:48:18.000Z</time>
      </trkpt>
      <trkpt lat="43.27054" lon="6.64786">
        <ele>21.8</ele>
        <time>2023-05-24T13:48:22.000Z</time>
      </trkpt>
      <trkpt lat="43.27053" lon="6.64794">
        <ele>21.6</ele>
        <time>2023-05-24T13:48:27.000Z</time>
      </trkpt>
      <trkpt lat="43.27051" lon="6.648">
        <ele>21.3</ele>
        <time>2023-05-24T13:48:32.000Z</time>
      </trkpt>
      <trkpt lat="43.2705" lon="6.64806">
        <ele>21.1</ele>
        <time>2023-05-24T13:48:36.000Z</time>
      </trkpt>
      <trkpt lat="43.27051" lon="6.64813">
        <ele>21</ele>
        <time>2023-05-24T13:48:40.000Z</time>
      </trkpt>
      <trkpt lat="43.27051" lon="6.6482">
        <ele>20.8</ele>
        <time>2023-05-24T13:48:45.000Z</time>
      </trkpt>
      <trkpt lat="43.27051" lon="6.64827">
        <ele>20.6</ele>
        <time>2023-05-24T13:48:49.000Z</time>
      </trkpt>
      <trkpt lat="43.2705" lon="6.64833">
        <ele>20.4</ele>
        <time>2023-05-24T13:48:54.000Z</time>
      </trkpt>
      <trkpt lat="43.27048" lon="6.6484">
        <ele>20.2</ele>
        <time>2023-05-24T13:49:00.000Z</time>
      </trkpt>
      <trkpt lat="43.27045" lon="6.64845">
        <ele>20.1</ele>
        <time>2023-05-24T13:49:04.000Z</time>
      </trkpt>
      <trkpt lat="43.27043" lon="6.64852">
        <ele>20.2</ele>
        <time>2023-05-24T13:49:09.000Z</time>
      </trkpt>
      <trkpt lat="43.27044" lon="6.64858">
        <ele>20.3</ele>
        <time>2023-05-24T13:49:14.000Z</time>
      </trkpt>
      <trkpt lat="43.27045" lon="6.64864">
        <ele>20.5</ele>
        <time>2023-05-24T13:49:19.000Z</time>
      </trkpt>
      <trkpt lat="43.27047" lon="6.6487">
        <ele>20.9</ele>
        <time>2023-05-24T13:49:24.000Z</time>
      </trkpt>
      <trkpt lat="43.2705" lon="6.64875">
        <ele>21.1</ele>
        <time>2023-05-24T13:49:29.000Z</time>
      </trkpt>
      <trkpt lat="43.27053" lon="6.64881">
        <ele>21.3</ele>
        <time>2023-05-24T13:49:33.000Z</time>
      </trkpt>
      <trkpt lat="43.27057" lon="6.64887">
        <ele>21.7</ele>
        <time>2023-05-24T13:49:38.000Z</time>
      </trkpt>
      <trkpt lat="43.27058" lon="6.64893">
        <ele>21.9</ele>
        <time>2023-05-24T13:49:42.000Z</time>
      </trkpt>
      <trkpt lat="43.27059" lon="6.649">
        <ele>22</ele>
        <time>2023-05-24T13:49:46.000Z</time>
      </trkpt>
      <trkpt lat="43.27059" lon="6.64906">
        <ele>22.2</ele>
        <time>2023-05-24T13:49:50.000Z</time>
      </trkpt>
      <trkpt lat="43.27059" lon="6.64913">
        <ele>22.3</ele>
        <time>2023-05-24T13:49:54.000Z</time>
      </trkpt>
      <trkpt lat="43.27059" lon="6.6492">
        <ele>22.5</ele>
        <time>2023-05-24T13:49:58.000Z</time>
      </trkpt>
      <trkpt lat="43.27057" lon="6.64927">
        <ele>22.7</ele>
        <time>2023-05-24T13:50:03.000Z</time>
      </trkpt>
      <trkpt lat="43.27056" lon="6.64933">
        <ele>22.9</ele>
        <time>2023-05-24T13:50:08.000Z</time>
      </trkpt>
      <trkpt lat="43.27054" lon="6.6494">
        <ele>23</ele>
        <time>2023-05-24T13:50:13.000Z</time>
      </trkpt>
      <trkpt lat="43.27052" lon="6.64946">
        <ele>23.1</ele>
        <time>2023-05-24T13:50:18.000Z</time>
      </trkpt>
      <trkpt lat="43.2705" lon="6.64952">
        <ele>23.2</ele>
        <time>2023-05-24T13:50:23.000Z</time>
      </trkpt>
      <trkpt lat="43.27048" lon="6.64959">
        <ele>23.2</ele>
        <time>2023-05-24T13:50:28.000Z</time>
      </trkpt>
      <trkpt lat="43.27046" lon="6.64965">
        <ele>23.5</ele>
        <time>2023-05-24T13:50:33.000Z</time>
      </trkpt>
      <trkpt lat="43.27043" lon="6.64971">
        <ele>23.6</ele>
        <time>2023-05-24T13:50:38.000Z</time>
      </trkpt>
      <trkpt lat="43.27041" lon="6.64978">
        <ele>23.8</ele>
        <time>2023-05-24T13:50:43.000Z</time>
      </trkpt>
      <trkpt lat="43.2704" lon="6.64984">
        <ele>23.8</ele>
        <time>2023-05-24T13:50:47.000Z</time>
      </trkpt>
      <trkpt lat="43.27038" lon="6.64989">
        <ele>23.9</ele>
        <time>2023-05-24T13:50:51.000Z</time>
      </trkpt>
      <trkpt lat="43.27037" lon="6.64996">
        <ele>24</ele>
        <time>2023-05-24T13:50:56.000Z</time>
      </trkpt>
      <trkpt lat="43.27034" lon="6.65001">
        <ele>24</ele>
        <time>2023-05-24T13:51:01.000Z</time>
      </trkpt>
      <trkpt lat="43.27031" lon="6.65007">
        <ele>24</ele>
        <time>2023-05-24T13:51:06.000Z</time>
      </trkpt>
      <trkpt lat="43.27028" lon="6.65013">
        <ele>24.1</ele>
        <time>2023-05-24T13:51:11.000Z</time>
      </trkpt>
      <trkpt lat="43.27024" lon="6.65018">
        <ele>24.1</ele>
        <time>2023-05-24T13:51:16.000Z</time>
      </trkpt>
      <trkpt lat="43.27021" lon="6.65023">
        <ele>24.2</ele>
        <time>2023-05-24T13:51:20.000Z</time>
      </trkpt>
      <trkpt lat="43.27019" lon="6.65029">
        <ele>24.4</ele>
        <time>2023-05-24T13:51:25.000Z</time>
      </trkpt>
      <trkpt lat="43.27016" lon="6.65035">
        <ele>24.7</ele>
        <time>2023-05-24T13:51:30.000Z</time>
      </trkpt>
      <trkpt lat="43.27014" lon="6.65042">
        <ele>25</ele>
        <time>2023-05-24T13:51:35.000Z</time>
      </trkpt>
      <trkpt lat="43.27014" lon="6.65048">
        <ele>25.3</ele>
        <time>2023-05-24T13:51:40.000Z</time>
      </trkpt>
      <trkpt lat="43.27013" lon="6.65055">
        <ele>25.4</ele>
        <time>2023-05-24T13:51:45.000Z</time>
      </trkpt>
      <trkpt lat="43.27013" lon="6.65062">
        <ele>25.5</ele>
        <time>2023-05-24T13:51:50.000Z</time>
      </trkpt>
      <trkpt lat="43.27013" lon="6.65069">
        <ele>25.6</ele>
        <time>2023-05-24T13:51:55.000Z</time>
      </trkpt>
      <trkpt lat="43.27013" lon="6.65076">
        <ele>25.7</ele>
        <time>2023-05-24T13:52:00.000Z</time>
      </trkpt>
      <trkpt lat="43.27011" lon="6.65082">
        <ele>25.7</ele>
        <time>2023-05-24T13:52:04.000Z</time>
      </trkpt>
      <trkpt lat="43.2701" lon="6.65089">
        <ele>25.7</ele>
        <time>2023-05-24T13:52:09.000Z</time>
      </trkpt>
      <trkpt lat="43.27009" lon="6.65097">
        <ele>25.8</ele>
        <time>2023-05-24T13:52:14.000Z</time>
      </trkpt>
      <trkpt lat="43.27008" lon="6.65104">
        <ele>25.9</ele>
        <time>2023-05-24T13:52:19.000Z</time>
      </trkpt>
      <trkpt lat="43.27007" lon="6.6511">
        <ele>26</ele>
        <time>2023-05-24T13:52:24.000Z</time>
      </trkpt>
      <trkpt lat="43.27005" lon="6.65117">
        <ele>26.1</ele>
        <time>2023-05-24T13:52:29.000Z</time>
      </trkpt>
      <trkpt lat="43.27008" lon="6.65122">
        <ele>26.3</ele>
        <time>2023-05-24T13:52:35.000Z</time>
      </trkpt>
      <trkpt lat="43.27009" lon="6.65129">
        <ele>26.6</ele>
        <time>2023-05-24T13:52:44.000Z</time>
      </trkpt>
      <trkpt lat="43.27007" lon="6.65135">
        <ele>26.9</ele>
        <time>2023-05-24T13:52:51.000Z</time>
      </trkpt>
      <trkpt lat="43.27005" lon="6.65141">
        <ele>27.4</ele>
        <time>2023-05-24T13:52:57.000Z</time>
      </trkpt>
      <trkpt lat="43.27006" lon="6.65147">
        <ele>28</ele>
        <time>2023-05-24T13:53:06.000Z</time>
      </trkpt>
      <trkpt lat="43.27007" lon="6.65154">
        <ele>28.6</ele>
        <time>2023-05-24T13:53:16.000Z</time>
      </trkpt>
      <trkpt lat="43.27005" lon="6.6516">
        <ele>29</ele>
        <time>2023-05-24T13:53:23.000Z</time>
      </trkpt>
      <trkpt lat="43.27003" lon="6.65166">
        <ele>29.2</ele>
        <time>2023-05-24T13:53:28.000Z</time>
      </trkpt>
      <trkpt lat="43.27002" lon="6.65173">
        <ele>29.3</ele>
        <time>2023-05-24T13:53:34.000Z</time>
      </trkpt>
      <trkpt lat="43.27001" lon="6.6518">
        <ele>29.5</ele>
        <time>2023-05-24T13:53:39.000Z</time>
      </trkpt>
      <trkpt lat="43.27" lon="6.65187">
        <ele>30</ele>
        <time>2023-05-24T13:53:45.000Z</time>
      </trkpt>
      <trkpt lat="43.27001" lon="6.65193">
        <ele>30.4</ele>
        <time>2023-05-24T13:53:53.000Z</time>
      </trkpt>
      <trkpt lat="43.27004" lon="6.65199">
        <ele>30.6</ele>
        <time>2023-05-24T13:54:02.000Z</time>
      </trkpt>
      <trkpt lat="43.27008" lon="6.65202">
        <ele>30.1</ele>
        <time>2023-05-24T13:54:09.000Z</time>
      </trkpt>
      <trkpt lat="43.27011" lon="6.65207">
        <ele>29.9</ele>
        <time>2023-05-24T13:54:16.000Z</time>
      </trkpt>
      <trkpt lat="43.27013" lon="6.65212">
        <ele>29.6</ele>
        <time>2023-05-24T13:54:26.000Z</time>
      </trkpt>
      <trkpt lat="43.27015" lon="6.65219">
        <ele>28.5</ele>
        <time>2023-05-24T13:54:47.000Z</time>
      </trkpt>
      <trkpt lat="43.27019" lon="6.65222">
        <ele>27.1</ele>
        <time>2023-05-24T13:55:00.000Z</time>
      </trkpt>
      <trkpt lat="43.27023" lon="6.65224">
        <ele>24.6</ele>
        <time>2023-05-24T13:55:15.000Z</time>
      </trkpt>
      <trkpt lat="43.27027" lon="6.65228">
        <ele>23.1</ele>
        <time>2023-05-24T13:55:23.000Z</time>
      </trkpt>
      <trkpt lat="43.27031" lon="6.65232">
        <ele>21.8</ele>
        <time>2023-05-24T13:55:32.000Z</time>
      </trkpt>
      <trkpt lat="43.27032" lon="6.65238">
        <ele>21.2</ele>
        <time>2023-05-24T13:55:41.000Z</time>
      </trkpt>
      <trkpt lat="43.27033" lon="6.65244">
        <ele>20.9</ele>
        <time>2023-05-24T13:55:46.000Z</time>
      </trkpt>
      <trkpt lat="43.27033" lon="6.65251">
        <ele>20.8</ele>
        <time>2023-05-24T13:55:51.000Z</time>
      </trkpt>
      <trkpt lat="43.27033" lon="6.65258">
        <ele>20.7</ele>
        <time>2023-05-24T13:55:57.000Z</time>
      </trkpt>
      <trkpt lat="43.27032" lon="6.65264">
        <ele>20.7</ele>
        <time>2023-05-24T13:56:03.000Z</time>
      </trkpt>
      <trkpt lat="43.2703" lon="6.65271">
        <ele>20.9</ele>
        <time>2023-05-24T13:56:11.000Z</time>
      </trkpt>
      <trkpt lat="43.27028" lon="6.65277">
        <ele>21</ele>
        <time>2023-05-24T13:56:19.000Z</time>
      </trkpt>
      <trkpt lat="43.27026" lon="6.65283">
        <ele>21.3</ele>
        <time>2023-05-24T13:56:28.000Z</time>
      </trkpt>
      <trkpt lat="43.27024" lon="6.65289">
        <ele>21.8</ele>
        <time>2023-05-24T13:56:35.000Z</time>
      </trkpt>
      <trkpt lat="43.27024" lon="6.65296">
        <ele>22.4</ele>
        <time>2023-05-24T13:56:44.000Z</time>
      </trkpt>
      <trkpt lat="43.27022" lon="6.65302">
        <ele>22.4</ele>
        <time>2023-05-24T13:56:48.000Z</time>
      </trkpt>
      <trkpt lat="43.27021" lon="6.65309">
        <ele>22.5</ele>
        <time>2023-05-24T13:56:53.000Z</time>
      </trkpt>
      <trkpt lat="43.2702" lon="6.65315">
        <ele>22.5</ele>
        <time>2023-05-24T13:56:57.000Z</time>
      </trkpt>
      <trkpt lat="43.2702" lon="6.65321">
        <ele>22.5</ele>
        <time>2023-05-24T13:57:01.000Z</time>
      </trkpt>
      <trkpt lat="43.27019" lon="6.65327">
        <ele>22.6</ele>
        <time>2023-05-24T13:57:05.000Z</time>
      </trkpt>
      <trkpt lat="43.27016" lon="6.65335">
        <ele>22.5</ele>
        <time>2023-05-24T13:57:10.000Z</time>
      </trkpt>
      <trkpt lat="43.27015" lon="6.65341">
        <ele>22.4</ele>
        <time>2023-05-24T13:57:14.000Z</time>
      </trkpt>
      <trkpt lat="43.27014" lon="6.65347">
        <ele>22.4</ele>
        <time>2023-05-24T13:57:18.000Z</time>
      </trkpt>
      <trkpt lat="43.27011" lon="6.65354">
        <ele>22.3</ele>
        <time>2023-05-24T13:57:23.000Z</time>
      </trkpt>
      <trkpt lat="43.27009" lon="6.65361">
        <ele>22.3</ele>
        <time>2023-05-24T13:57:28.000Z</time>
      </trkpt>
      <trkpt lat="43.27007" lon="6.65367">
        <ele>22.3</ele>
        <time>2023-05-24T13:57:33.000Z</time>
      </trkpt>
      <trkpt lat="43.27005" lon="6.65374">
        <ele>22.3</ele>
        <time>2023-05-24T13:57:40.000Z</time>
      </trkpt>
      <trkpt lat="43.27001" lon="6.65377">
        <ele>22.3</ele>
        <time>2023-05-24T13:57:47.000Z</time>
      </trkpt>
      <trkpt lat="43.26997" lon="6.65381">
        <ele>22.1</ele>
        <time>2023-05-24T13:57:53.000Z</time>
      </trkpt>
      <trkpt lat="43.26992" lon="6.65383">
        <ele>21.9</ele>
        <time>2023-05-24T13:58:00.000Z</time>
      </trkpt>
      <trkpt lat="43.26989" lon="6.65388">
        <ele>21.7</ele>
        <time>2023-05-24T13:58:06.000Z</time>
      </trkpt>
      <trkpt lat="43.26986" lon="6.65392">
        <ele>21.6</ele>
        <time>2023-05-24T13:58:11.000Z</time>
      </trkpt>
      <trkpt lat="43.26983" lon="6.65397">
        <ele>21.5</ele>
        <time>2023-05-24T13:58:16.000Z</time>
      </trkpt>
      <trkpt lat="43.26979" lon="6.65402">
        <ele>21.7</ele>
        <time>2023-05-24T13:58:22.000Z</time>
      </trkpt>
      <trkpt lat="43.26976" lon="6.65407">
        <ele>21.9</ele>
        <time>2023-05-24T13:58:29.000Z</time>
      </trkpt>
      <trkpt lat="43.26973" lon="6.65413">
        <ele>22.1</ele>
        <time>2023-05-24T13:58:34.000Z</time>
      </trkpt>
      <trkpt lat="43.2697" lon="6.65418">
        <ele>22.2</ele>
        <time>2023-05-24T13:58:39.000Z</time>
      </trkpt>
      <trkpt lat="43.26968" lon="6.65424">
        <ele>22.3</ele>
        <time>2023-05-24T13:58:44.000Z</time>
      </trkpt>
      <trkpt lat="43.26964" lon="6.6543">
        <ele>22.5</ele>
        <time>2023-05-24T13:58:50.000Z</time>
      </trkpt>
      <trkpt lat="43.2696" lon="6.65434">
        <ele>22.5</ele>
        <time>2023-05-24T13:58:55.000Z</time>
      </trkpt>
      <trkpt lat="43.26956" lon="6.65438">
        <ele>22.5</ele>
        <time>2023-05-24T13:59:01.000Z</time>
      </trkpt>
      <trkpt lat="43.26952" lon="6.6544">
        <ele>22.5</ele>
        <time>2023-05-24T13:59:06.000Z</time>
      </trkpt>
      <trkpt lat="43.26948" lon="6.65443">
        <ele>22.4</ele>
        <time>2023-05-24T13:59:11.000Z</time>
      </trkpt>
      <trkpt lat="43.26943" lon="6.65446">
        <ele>22.3</ele>
        <time>2023-05-24T13:59:16.000Z</time>
      </trkpt>
      <trkpt lat="43.26938" lon="6.65448">
        <ele>22.2</ele>
        <time>2023-05-24T13:59:20.000Z</time>
      </trkpt>
      <trkpt lat="43.26933" lon="6.65448">
        <ele>22.1</ele>
        <time>2023-05-24T13:59:26.000Z</time>
      </trkpt>
      <trkpt lat="43.26929" lon="6.6545">
        <ele>22.3</ele>
        <time>2023-05-24T13:59:31.000Z</time>
      </trkpt>
      <trkpt lat="43.26925" lon="6.65453">
        <ele>22.4</ele>
        <time>2023-05-24T13:59:35.000Z</time>
      </trkpt>
      <trkpt lat="43.26921" lon="6.65458">
        <ele>22.5</ele>
        <time>2023-05-24T13:59:40.000Z</time>
      </trkpt>
      <trkpt lat="43.26919" lon="6.65465">
        <ele>22.6</ele>
        <time>2023-05-24T13:59:47.000Z</time>
      </trkpt>
      <trkpt lat="43.26917" lon="6.65471">
        <ele>22.4</ele>
        <time>2023-05-24T13:59:51.000Z</time>
      </trkpt>
      <trkpt lat="43.26916" lon="6.65477">
        <ele>22.3</ele>
        <time>2023-05-24T13:59:55.000Z</time>
      </trkpt>
      <trkpt lat="43.26914" lon="6.65484">
        <ele>22</ele>
        <time>2023-05-24T14:00:00.000Z</time>
      </trkpt>
      <trkpt lat="43.26912" lon="6.65489">
        <ele>21.6</ele>
        <time>2023-05-24T14:00:05.000Z</time>
      </trkpt>
      <trkpt lat="43.26908" lon="6.65493">
        <ele>21.3</ele>
        <time>2023-05-24T14:00:09.000Z</time>
      </trkpt>
      <trkpt lat="43.26905" lon="6.65497">
        <ele>21</ele>
        <time>2023-05-24T14:00:13.000Z</time>
      </trkpt>
      <trkpt lat="43.26901" lon="6.65502">
        <ele>20.7</ele>
        <time>2023-05-24T14:00:18.000Z</time>
      </trkpt>
      <trkpt lat="43.26898" lon="6.65507">
        <ele>20.5</ele>
        <time>2023-05-24T14:00:22.000Z</time>
      </trkpt>
      <trkpt lat="43.26895" lon="6.65512">
        <ele>20.3</ele>
        <time>2023-05-24T14:00:27.000Z</time>
      </trkpt>
      <trkpt lat="43.26891" lon="6.65517">
        <ele>20.1</ele>
        <time>2023-05-24T14:00:31.000Z</time>
      </trkpt>
      <trkpt lat="43.26888" lon="6.65522">
        <ele>20</ele>
        <time>2023-05-24T14:00:35.000Z</time>
      </trkpt>
      <trkpt lat="43.26885" lon="6.65527">
        <ele>19.9</ele>
        <time>2023-05-24T14:00:39.000Z</time>
      </trkpt>
      <trkpt lat="43.26883" lon="6.65532">
        <ele>19.8</ele>
        <time>2023-05-24T14:00:43.000Z</time>
      </trkpt>
      <trkpt lat="43.2688" lon="6.65537">
        <ele>19.8</ele>
        <time>2023-05-24T14:00:47.000Z</time>
      </trkpt>
      <trkpt lat="43.26877" lon="6.65542">
        <ele>19.7</ele>
        <time>2023-05-24T14:00:51.000Z</time>
      </trkpt>
      <trkpt lat="43.26874" lon="6.65548">
        <ele>19.7</ele>
        <time>2023-05-24T14:00:55.000Z</time>
      </trkpt>
      <trkpt lat="43.26871" lon="6.65552">
        <ele>19.6</ele>
        <time>2023-05-24T14:00:59.000Z</time>
      </trkpt>
      <trkpt lat="43.26869" lon="6.65558">
        <ele>19.5</ele>
        <time>2023-05-24T14:01:03.000Z</time>
      </trkpt>
      <trkpt lat="43.26866" lon="6.65563">
        <ele>19.4</ele>
        <time>2023-05-24T14:01:07.000Z</time>
      </trkpt>
      <trkpt lat="43.26863" lon="6.65567">
        <ele>19.3</ele>
        <time>2023-05-24T14:01:11.000Z</time>
      </trkpt>
      <trkpt lat="43.26861" lon="6.65574">
        <ele>19.3</ele>
        <time>2023-05-24T14:01:16.000Z</time>
      </trkpt>
      <trkpt lat="43.26858" lon="6.6558">
        <ele>19.2</ele>
        <time>2023-05-24T14:01:21.000Z</time>
      </trkpt>
      <trkpt lat="43.26855" lon="6.65585">
        <ele>19.1</ele>
        <time>2023-05-24T14:01:25.000Z</time>
      </trkpt>
      <trkpt lat="43.26852" lon="6.6559">
        <ele>19</ele>
        <time>2023-05-24T14:01:29.000Z</time>
      </trkpt>
      <trkpt lat="43.26849" lon="6.65596">
        <ele>19.1</ele>
        <time>2023-05-24T14:01:34.000Z</time>
      </trkpt>
      <trkpt lat="43.26847" lon="6.65601">
        <ele>19.2</ele>
        <time>2023-05-24T14:01:41.000Z</time>
      </trkpt>
      <trkpt lat="43.26842" lon="6.65603">
        <ele>19.4</ele>
        <time>2023-05-24T14:01:49.000Z</time>
      </trkpt>
      <trkpt lat="43.26837" lon="6.65604">
        <ele>19.8</ele>
        <time>2023-05-24T14:01:55.000Z</time>
      </trkpt>
      <trkpt lat="43.26833" lon="6.65605">
        <ele>20</ele>
        <time>2023-05-24T14:01:59.000Z</time>
      </trkpt>
      <trkpt lat="43.26828" lon="6.65607">
        <ele>20.3</ele>
        <time>2023-05-24T14:02:03.000Z</time>
      </trkpt>
      <trkpt lat="43.26823" lon="6.6561">
        <ele>20.6</ele>
        <time>2023-05-24T14:02:08.000Z</time>
      </trkpt>
      <trkpt lat="43.26818" lon="6.65613">
        <ele>20.7</ele>
        <time>2023-05-24T14:02:13.000Z</time>
      </trkpt>
      <trkpt lat="43.26813" lon="6.65614">
        <ele>20.9</ele>
        <time>2023-05-24T14:02:21.000Z</time>
      </trkpt>
      <trkpt lat="43.26808" lon="6.65616">
        <ele>20.9</ele>
        <time>2023-05-24T14:02:25.000Z</time>
      </trkpt>
      <trkpt lat="43.26803" lon="6.65618">
        <ele>21</ele>
        <time>2023-05-24T14:02:29.000Z</time>
      </trkpt>
      <trkpt lat="43.26798" lon="6.65622">
        <ele>21</ele>
        <time>2023-05-24T14:02:33.000Z</time>
      </trkpt>
      <trkpt lat="43.26794" lon="6.65625">
        <ele>21</ele>
        <time>2023-05-24T14:02:38.000Z</time>
      </trkpt>
      <trkpt lat="43.26789" lon="6.65628">
        <ele>21</ele>
        <time>2023-05-24T14:02:42.000Z</time>
      </trkpt>
      <trkpt lat="43.26785" lon="6.65632">
        <ele>21.1</ele>
        <time>2023-05-24T14:02:46.000Z</time>
      </trkpt>
      <trkpt lat="43.26781" lon="6.65635">
        <ele>21.1</ele>
        <time>2023-05-24T14:02:50.000Z</time>
      </trkpt>
      <trkpt lat="43.26776" lon="6.65638">
        <ele>21.1</ele>
        <time>2023-05-24T14:02:54.000Z</time>
      </trkpt>
      <trkpt lat="43.26772" lon="6.65642">
        <ele>21.1</ele>
        <time>2023-05-24T14:03:00.000Z</time>
      </trkpt>
      <trkpt lat="43.26768" lon="6.65645">
        <ele>21.1</ele>
        <time>2023-05-24T14:03:06.000Z</time>
      </trkpt>
      <trkpt lat="43.26763" lon="6.65648">
        <ele>21</ele>
        <time>2023-05-24T14:03:11.000Z</time>
      </trkpt>
      <trkpt lat="43.26759" lon="6.65651">
        <ele>20.9</ele>
        <time>2023-05-24T14:03:15.000Z</time>
      </trkpt>
      <trkpt lat="43.26755" lon="6.65653">
        <ele>20.9</ele>
        <time>2023-05-24T14:03:22.000Z</time>
      </trkpt>
      <trkpt lat="43.26752" lon="6.65658">
        <ele>20.8</ele>
        <time>2023-05-24T14:03:38.000Z</time>
      </trkpt>
      <trkpt lat="43.2675" lon="6.65664">
        <ele>20.6</ele>
        <time>2023-05-24T14:03:48.000Z</time>
      </trkpt>
      <trkpt lat="43.26748" lon="6.65671">
        <ele>20.2</ele>
        <time>2023-05-24T14:03:56.000Z</time>
      </trkpt>
      <trkpt lat="43.26745" lon="6.65677">
        <ele>19.7</ele>
        <time>2023-05-24T14:04:01.000Z</time>
      </trkpt>
      <trkpt lat="43.26743" lon="6.65683">
        <ele>19.3</ele>
        <time>2023-05-24T14:04:06.000Z</time>
      </trkpt>
      <trkpt lat="43.26739" lon="6.65688">
        <ele>19.1</ele>
        <time>2023-05-24T14:04:10.000Z</time>
      </trkpt>
      <trkpt lat="43.26736" lon="6.65692">
        <ele>18.8</ele>
        <time>2023-05-24T14:04:15.000Z</time>
      </trkpt>
      <trkpt lat="43.26732" lon="6.65697">
        <ele>18.6</ele>
        <time>2023-05-24T14:04:19.000Z</time>
      </trkpt>
      <trkpt lat="43.2673" lon="6.65703">
        <ele>18.4</ele>
        <time>2023-05-24T14:04:23.000Z</time>
      </trkpt>
      <trkpt lat="43.26729" lon="6.65709">
        <ele>18.3</ele>
        <time>2023-05-24T14:04:27.000Z</time>
      </trkpt>
      <trkpt lat="43.26727" lon="6.65716">
        <ele>18.2</ele>
        <time>2023-05-24T14:04:32.000Z</time>
      </trkpt>
      <trkpt lat="43.26725" lon="6.65722">
        <ele>18.1</ele>
        <time>2023-05-24T14:04:37.000Z</time>
      </trkpt>
      <trkpt lat="43.26723" lon="6.65729">
        <ele>18</ele>
        <time>2023-05-24T14:04:44.000Z</time>
      </trkpt>
      <trkpt lat="43.26721" lon="6.65735">
        <ele>18</ele>
        <time>2023-05-24T14:04:51.000Z</time>
      </trkpt>
      <trkpt lat="43.26719" lon="6.65741">
        <ele>18.2</ele>
        <time>2023-05-24T14:04:59.000Z</time>
      </trkpt>
      <trkpt lat="43.26718" lon="6.65747">
        <ele>18.5</ele>
        <time>2023-05-24T14:05:05.000Z</time>
      </trkpt>
      <trkpt lat="43.26716" lon="6.65754">
        <ele>18.7</ele>
        <time>2023-05-24T14:05:11.000Z</time>
      </trkpt>
      <trkpt lat="43.26713" lon="6.65759">
        <ele>18.7</ele>
        <time>2023-05-24T14:05:16.000Z</time>
      </trkpt>
      <trkpt lat="43.26709" lon="6.65765">
        <ele>18.8</ele>
        <time>2023-05-24T14:05:21.000Z</time>
      </trkpt>
      <trkpt lat="43.26706" lon="6.65771">
        <ele>18.8</ele>
        <time>2023-05-24T14:05:26.000Z</time>
      </trkpt>
      <trkpt lat="43.26708" lon="6.65778">
        <ele>18.8</ele>
        <time>2023-05-24T14:05:33.000Z</time>
      </trkpt>
      <trkpt lat="43.26711" lon="6.65784">
        <ele>18.8</ele>
        <time>2023-05-24T14:05:39.000Z</time>
      </trkpt>
      <trkpt lat="43.26707" lon="6.65789">
        <ele>18.8</ele>
        <time>2023-05-24T14:05:46.000Z</time>
      </trkpt>
      <trkpt lat="43.26704" lon="6.65795">
        <ele>18.7</ele>
        <time>2023-05-24T14:05:51.000Z</time>
      </trkpt>
      <trkpt lat="43.26701" lon="6.65801">
        <ele>18.7</ele>
        <time>2023-05-24T14:05:56.000Z</time>
      </trkpt>
      <trkpt lat="43.26699" lon="6.65807">
        <ele>18.7</ele>
        <time>2023-05-24T14:06:01.000Z</time>
      </trkpt>
      <trkpt lat="43.26696" lon="6.65813">
        <ele>18.7</ele>
        <time>2023-05-24T14:06:06.000Z</time>
      </trkpt>
      <trkpt lat="43.26694" lon="6.6582">
        <ele>18.6</ele>
        <time>2023-05-24T14:06:11.000Z</time>
      </trkpt>
      <trkpt lat="43.26692" lon="6.65826">
        <ele>18.6</ele>
        <time>2023-05-24T14:06:16.000Z</time>
      </trkpt>
      <trkpt lat="43.2669" lon="6.65832">
        <ele>18.6</ele>
        <time>2023-05-24T14:06:21.000Z</time>
      </trkpt>
      <trkpt lat="43.26688" lon="6.65838">
        <ele>18.6</ele>
        <time>2023-05-24T14:06:26.000Z</time>
      </trkpt>
      <trkpt lat="43.26687" lon="6.65845">
        <ele>18.5</ele>
        <time>2023-05-24T14:06:31.000Z</time>
      </trkpt>
      <trkpt lat="43.26685" lon="6.65851">
        <ele>18.4</ele>
        <time>2023-05-24T14:06:37.000Z</time>
      </trkpt>
      <trkpt lat="43.26681" lon="6.65856">
        <ele>18.3</ele>
        <time>2023-05-24T14:06:43.000Z</time>
      </trkpt>
      <trkpt lat="43.26678" lon="6.6586">
        <ele>18.3</ele>
        <time>2023-05-24T14:06:48.000Z</time>
      </trkpt>
      <trkpt lat="43.26674" lon="6.65864">
        <ele>18.5</ele>
        <time>2023-05-24T14:06:55.000Z</time>
      </trkpt>
      <trkpt lat="43.26669" lon="6.65866">
        <ele>18.6</ele>
        <time>2023-05-24T14:07:03.000Z</time>
      </trkpt>
      <trkpt lat="43.26664" lon="6.6587">
        <ele>18.7</ele>
        <time>2023-05-24T14:07:09.000Z</time>
      </trkpt>
      <trkpt lat="43.26662" lon="6.65877">
        <ele>18.8</ele>
        <time>2023-05-24T14:07:14.000Z</time>
      </trkpt>
      <trkpt lat="43.2666" lon="6.65884">
        <ele>18.8</ele>
        <time>2023-05-24T14:07:19.000Z</time>
      </trkpt>
      <trkpt lat="43.26657" lon="6.65889">
        <ele>18.8</ele>
        <time>2023-05-24T14:07:24.000Z</time>
      </trkpt>
      <trkpt lat="43.26654" lon="6.65894">
        <ele>18.8</ele>
        <time>2023-05-24T14:07:29.000Z</time>
      </trkpt>
      <trkpt lat="43.26652" lon="6.659">
        <ele>18.9</ele>
        <time>2023-05-24T14:07:35.000Z</time>
      </trkpt>
      <trkpt lat="43.2665" lon="6.65906">
        <ele>18.8</ele>
        <time>2023-05-24T14:07:42.000Z</time>
      </trkpt>
      <trkpt lat="43.26648" lon="6.65912">
        <ele>18.5</ele>
        <time>2023-05-24T14:07:48.000Z</time>
      </trkpt>
      <trkpt lat="43.26645" lon="6.65919">
        <ele>18.3</ele>
        <time>2023-05-24T14:07:53.000Z</time>
      </trkpt>
      <trkpt lat="43.26643" lon="6.65925">
        <ele>18.3</ele>
        <time>2023-05-24T14:07:58.000Z</time>
      </trkpt>
      <trkpt lat="43.2664" lon="6.65931">
        <ele>18.2</ele>
        <time>2023-05-24T14:08:03.000Z</time>
      </trkpt>
      <trkpt lat="43.26638" lon="6.65937">
        <ele>18.2</ele>
        <time>2023-05-24T14:08:08.000Z</time>
      </trkpt>
      <trkpt lat="43.26636" lon="6.65943">
        <ele>18.1</ele>
        <time>2023-05-24T14:08:13.000Z</time>
      </trkpt>
      <trkpt lat="43.26635" lon="6.65949">
        <ele>18.1</ele>
        <time>2023-05-24T14:08:19.000Z</time>
      </trkpt>
      <trkpt lat="43.26633" lon="6.65955">
        <ele>18.3</ele>
        <time>2023-05-24T14:08:26.000Z</time>
      </trkpt>
      <trkpt lat="43.26631" lon="6.65961">
        <ele>18.4</ele>
        <time>2023-05-24T14:08:34.000Z</time>
      </trkpt>
      <trkpt lat="43.26631" lon="6.65968">
        <ele>18.6</ele>
        <time>2023-05-24T14:08:54.000Z</time>
      </trkpt>
      <trkpt lat="43.26629" lon="6.65974">
        <ele>18.6</ele>
        <time>2023-05-24T14:09:03.000Z</time>
      </trkpt>
      <trkpt lat="43.26627" lon="6.6598">
        <ele>18.5</ele>
        <time>2023-05-24T14:09:10.000Z</time>
      </trkpt>
      <trkpt lat="43.26625" lon="6.65985">
        <ele>18.4</ele>
        <time>2023-05-24T14:09:17.000Z</time>
      </trkpt>
      <trkpt lat="43.26621" lon="6.65991">
        <ele>18.3</ele>
        <time>2023-05-24T14:09:23.000Z</time>
      </trkpt>
      <trkpt lat="43.2662" lon="6.65998">
        <ele>18.3</ele>
        <time>2023-05-24T14:09:29.000Z</time>
      </trkpt>
      <trkpt lat="43.26618" lon="6.66004">
        <ele>18.3</ele>
        <time>2023-05-24T14:09:34.000Z</time>
      </trkpt>
      <trkpt lat="43.26617" lon="6.6601">
        <ele>18.3</ele>
        <time>2023-05-24T14:09:39.000Z</time>
      </trkpt>
      <trkpt lat="43.26614" lon="6.66016">
        <ele>18.2</ele>
        <time>2023-05-24T14:09:44.000Z</time>
      </trkpt>
      <trkpt lat="43.26611" lon="6.6602">
        <ele>18.2</ele>
        <time>2023-05-24T14:09:49.000Z</time>
      </trkpt>
      <trkpt lat="43.26608" lon="6.66026">
        <ele>18.2</ele>
        <time>2023-05-24T14:09:55.000Z</time>
      </trkpt>
      <trkpt lat="43.26606" lon="6.66033">
        <ele>18.3</ele>
        <time>2023-05-24T14:10:01.000Z</time>
      </trkpt>
      <trkpt lat="43.26603" lon="6.66038">
        <ele>18.3</ele>
        <time>2023-05-24T14:10:07.000Z</time>
      </trkpt>
      <trkpt lat="43.26602" lon="6.66045">
        <ele>18.3</ele>
        <time>2023-05-24T14:10:13.000Z</time>
      </trkpt>
      <trkpt lat="43.266" lon="6.66051">
        <ele>18.4</ele>
        <time>2023-05-24T14:10:18.000Z</time>
      </trkpt>
      <trkpt lat="43.26597" lon="6.66058">
        <ele>18.4</ele>
        <time>2023-05-24T14:10:25.000Z</time>
      </trkpt>
      <trkpt lat="43.26594" lon="6.66063">
        <ele>18.4</ele>
        <time>2023-05-24T14:10:30.000Z</time>
      </trkpt>
      <trkpt lat="43.26591" lon="6.6607">
        <ele>18.4</ele>
        <time>2023-05-24T14:10:35.000Z</time>
      </trkpt>
      <trkpt lat="43.26588" lon="6.66076">
        <ele>18.5</ele>
        <time>2023-05-24T14:10:40.000Z</time>
      </trkpt>
      <trkpt lat="43.26586" lon="6.66082">
        <ele>18.6</ele>
        <time>2023-05-24T14:10:45.000Z</time>
      </trkpt>
      <trkpt lat="43.26585" lon="6.66088">
        <ele>18.8</ele>
        <time>2023-05-24T14:10:51.000Z</time>
      </trkpt>
      <trkpt lat="43.26581" lon="6.66094">
        <ele>18.9</ele>
        <time>2023-05-24T14:10:57.000Z</time>
      </trkpt>
      <trkpt lat="43.26579" lon="6.661">
        <ele>18.9</ele>
        <time>2023-05-24T14:11:03.000Z</time>
      </trkpt>
      <trkpt lat="43.26576" lon="6.66106">
        <ele>19</ele>
        <time>2023-05-24T14:11:09.000Z</time>
      </trkpt>
      <trkpt lat="43.26574" lon="6.66112">
        <ele>19</ele>
        <time>2023-05-24T14:11:16.000Z</time>
      </trkpt>
      <trkpt lat="43.26571" lon="6.66118">
        <ele>19.1</ele>
        <time>2023-05-24T14:11:21.000Z</time>
      </trkpt>
      <trkpt lat="43.26567" lon="6.66123">
        <ele>19.1</ele>
        <time>2023-05-24T14:11:26.000Z</time>
      </trkpt>
      <trkpt lat="43.26563" lon="6.66127">
        <ele>19.1</ele>
        <time>2023-05-24T14:11:31.000Z</time>
      </trkpt>
      <trkpt lat="43.2656" lon="6.66133">
        <ele>19.1</ele>
        <time>2023-05-24T14:11:36.000Z</time>
      </trkpt>
      <trkpt lat="43.26556" lon="6.66138">
        <ele>19.1</ele>
        <time>2023-05-24T14:11:41.000Z</time>
      </trkpt>
      <trkpt lat="43.26553" lon="6.66143">
        <ele>19.1</ele>
        <time>2023-05-24T14:11:46.000Z</time>
      </trkpt>
      <trkpt lat="43.2655" lon="6.66149">
        <ele>19.1</ele>
        <time>2023-05-24T14:11:52.000Z</time>
      </trkpt>
      <trkpt lat="43.26546" lon="6.66153">
        <ele>19</ele>
        <time>2023-05-24T14:11:57.000Z</time>
      </trkpt>
      <trkpt lat="43.26542" lon="6.66157">
        <ele>19</ele>
        <time>2023-05-24T14:12:03.000Z</time>
      </trkpt>
      <trkpt lat="43.26537" lon="6.6616">
        <ele>19</ele>
        <time>2023-05-24T14:12:08.000Z</time>
      </trkpt>
      <trkpt lat="43.26533" lon="6.66164">
        <ele>19</ele>
        <time>2023-05-24T14:12:12.000Z</time>
      </trkpt>
      <trkpt lat="43.2653" lon="6.66167">
        <ele>19.2</ele>
        <time>2023-05-24T14:12:16.000Z</time>
      </trkpt>
      <trkpt lat="43.26526" lon="6.66171">
        <ele>19.3</ele>
        <time>2023-05-24T14:12:21.000Z</time>
      </trkpt>
      <trkpt lat="43.26521" lon="6.66176">
        <ele>19.4</ele>
        <time>2023-05-24T14:12:27.000Z</time>
      </trkpt>
      <trkpt lat="43.26517" lon="6.6618">
        <ele>19.5</ele>
        <time>2023-05-24T14:12:32.000Z</time>
      </trkpt>
      <trkpt lat="43.26514" lon="6.66185">
        <ele>19.5</ele>
        <time>2023-05-24T14:12:37.000Z</time>
      </trkpt>
      <trkpt lat="43.26511" lon="6.6619">
        <ele>19.6</ele>
        <time>2023-05-24T14:12:42.000Z</time>
      </trkpt>
      <trkpt lat="43.26507" lon="6.66195">
        <ele>19.7</ele>
        <time>2023-05-24T14:12:47.000Z</time>
      </trkpt>
      <trkpt lat="43.26504" lon="6.66201">
        <ele>19.8</ele>
        <time>2023-05-24T14:12:53.000Z</time>
      </trkpt>
      <trkpt lat="43.26501" lon="6.66206">
        <ele>19.8</ele>
        <time>2023-05-24T14:12:57.000Z</time>
      </trkpt>
      <trkpt lat="43.26499" lon="6.66212">
        <ele>19.8</ele>
        <time>2023-05-24T14:13:02.000Z</time>
      </trkpt>
      <trkpt lat="43.26497" lon="6.66219">
        <ele>19.8</ele>
        <time>2023-05-24T14:13:07.000Z</time>
      </trkpt>
      <trkpt lat="43.26496" lon="6.66226">
        <ele>19.6</ele>
        <time>2023-05-24T14:13:12.000Z</time>
      </trkpt>
      <trkpt lat="43.26493" lon="6.66231">
        <ele>19.4</ele>
        <time>2023-05-24T14:13:17.000Z</time>
      </trkpt>
      <trkpt lat="43.26489" lon="6.66236">
        <ele>19.3</ele>
        <time>2023-05-24T14:13:22.000Z</time>
      </trkpt>
      <trkpt lat="43.26486" lon="6.66242">
        <ele>19.2</ele>
        <time>2023-05-24T14:13:27.000Z</time>
      </trkpt>
      <trkpt lat="43.26484" lon="6.66248">
        <ele>19.2</ele>
        <time>2023-05-24T14:13:32.000Z</time>
      </trkpt>
      <trkpt lat="43.26482" lon="6.66254">
        <ele>19.1</ele>
        <time>2023-05-24T14:13:37.000Z</time>
      </trkpt>
      <trkpt lat="43.26482" lon="6.66261">
        <ele>19.1</ele>
        <time>2023-05-24T14:13:43.000Z</time>
      </trkpt>
      <trkpt lat="43.26481" lon="6.66267">
        <ele>19.1</ele>
        <time>2023-05-24T14:13:48.000Z</time>
      </trkpt>
      <trkpt lat="43.26479" lon="6.66273">
        <ele>19</ele>
        <time>2023-05-24T14:13:53.000Z</time>
      </trkpt>
      <trkpt lat="43.26478" lon="6.6628">
        <ele>19</ele>
        <time>2023-05-24T14:13:58.000Z</time>
      </trkpt>
      <trkpt lat="43.26477" lon="6.66287">
        <ele>19</ele>
        <time>2023-05-24T14:14:03.000Z</time>
      </trkpt>
      <trkpt lat="43.26476" lon="6.66293">
        <ele>19.1</ele>
        <time>2023-05-24T14:14:08.000Z</time>
      </trkpt>
      <trkpt lat="43.26476" lon="6.663">
        <ele>19.1</ele>
        <time>2023-05-24T14:14:13.000Z</time>
      </trkpt>
      <trkpt lat="43.26475" lon="6.66306">
        <ele>19.1</ele>
        <time>2023-05-24T14:14:18.000Z</time>
      </trkpt>
      <trkpt lat="43.26475" lon="6.66313">
        <ele>19.1</ele>
        <time>2023-05-24T14:14:23.000Z</time>
      </trkpt>
      <trkpt lat="43.26474" lon="6.6632">
        <ele>19.1</ele>
        <time>2023-05-24T14:14:28.000Z</time>
      </trkpt>
      <trkpt lat="43.26474" lon="6.66327">
        <ele>19.1</ele>
        <time>2023-05-24T14:14:33.000Z</time>
      </trkpt>
      <trkpt lat="43.26474" lon="6.66335">
        <ele>19.1</ele>
        <time>2023-05-24T14:14:38.000Z</time>
      </trkpt>
      <trkpt lat="43.26474" lon="6.66342">
        <ele>19.1</ele>
        <time>2023-05-24T14:14:43.000Z</time>
      </trkpt>
      <trkpt lat="43.26474" lon="6.66348">
        <ele>19.1</ele>
        <time>2023-05-24T14:14:48.000Z</time>
      </trkpt>
      <trkpt lat="43.26473" lon="6.66355">
        <ele>19.1</ele>
        <time>2023-05-24T14:14:53.000Z</time>
      </trkpt>
      <trkpt lat="43.26472" lon="6.66361">
        <ele>19.1</ele>
        <time>2023-05-24T14:14:58.000Z</time>
      </trkpt>
      <trkpt lat="43.26472" lon="6.66368">
        <ele>19.1</ele>
        <time>2023-05-24T14:15:03.000Z</time>
      </trkpt>
      <trkpt lat="43.26473" lon="6.66375">
        <ele>19.2</ele>
        <time>2023-05-24T14:15:08.000Z</time>
      </trkpt>
      <trkpt lat="43.26473" lon="6.66382">
        <ele>19.3</ele>
        <time>2023-05-24T14:15:13.000Z</time>
      </trkpt>
      <trkpt lat="43.26472" lon="6.66388">
        <ele>19.4</ele>
        <time>2023-05-24T14:15:18.000Z</time>
      </trkpt>
      <trkpt lat="43.26471" lon="6.66395">
        <ele>19.5</ele>
        <time>2023-05-24T14:15:23.000Z</time>
      </trkpt>
      <trkpt lat="43.26471" lon="6.66402">
        <ele>19.7</ele>
        <time>2023-05-24T14:15:28.000Z</time>
      </trkpt>
      <trkpt lat="43.26471" lon="6.66409">
        <ele>19.8</ele>
        <time>2023-05-24T14:15:33.000Z</time>
      </trkpt>
      <trkpt lat="43.2647" lon="6.66415">
        <ele>19.9</ele>
        <time>2023-05-24T14:15:38.000Z</time>
      </trkpt>
      <trkpt lat="43.26471" lon="6.66422">
        <ele>20</ele>
        <time>2023-05-24T14:15:43.000Z</time>
      </trkpt>
      <trkpt lat="43.26471" lon="6.66429">
        <ele>20.1</ele>
        <time>2023-05-24T14:15:48.000Z</time>
      </trkpt>
      <trkpt lat="43.26471" lon="6.66436">
        <ele>20.2</ele>
        <time>2023-05-24T14:15:53.000Z</time>
      </trkpt>
      <trkpt lat="43.26472" lon="6.66442">
        <ele>20.3</ele>
        <time>2023-05-24T14:15:57.000Z</time>
      </trkpt>
      <trkpt lat="43.26472" lon="6.66449">
        <ele>20.3</ele>
        <time>2023-05-24T14:16:02.000Z</time>
      </trkpt>
      <trkpt lat="43.26473" lon="6.66456">
        <ele>20.4</ele>
        <time>2023-05-24T14:16:07.000Z</time>
      </trkpt>
      <trkpt lat="43.26473" lon="6.66464">
        <ele>20.3</ele>
        <time>2023-05-24T14:16:12.000Z</time>
      </trkpt>
      <trkpt lat="43.26474" lon="6.66471">
        <ele>20.2</ele>
        <time>2023-05-24T14:16:17.000Z</time>
      </trkpt>
      <trkpt lat="43.26474" lon="6.66478">
        <ele>20.1</ele>
        <time>2023-05-24T14:16:22.000Z</time>
      </trkpt>
      <trkpt lat="43.26474" lon="6.66485">
        <ele>20.1</ele>
        <time>2023-05-24T14:16:28.000Z</time>
      </trkpt>
      <trkpt lat="43.26473" lon="6.66491">
        <ele>20</ele>
        <time>2023-05-24T14:16:34.000Z</time>
      </trkpt>
      <trkpt lat="43.26471" lon="6.66497">
        <ele>20</ele>
        <time>2023-05-24T14:16:44.000Z</time>
      </trkpt>
      <trkpt lat="43.26467" lon="6.66501">
        <ele>19.9</ele>
        <time>2023-05-24T14:16:51.000Z</time>
      </trkpt>
      <trkpt lat="43.26464" lon="6.66506">
        <ele>19.9</ele>
        <time>2023-05-24T14:16:56.000Z</time>
      </trkpt>
      <trkpt lat="43.26466" lon="6.66513">
        <ele>19.9</ele>
        <time>2023-05-24T14:16:59.000Z</time>
      </trkpt>
      <trkpt lat="43.26468" lon="6.6652">
        <ele>20</ele>
        <time>2023-05-24T14:17:04.000Z</time>
      </trkpt>
      <trkpt lat="43.26471" lon="6.66525">
        <ele>20</ele>
        <time>2023-05-24T14:17:07.000Z</time>
      </trkpt>
      <trkpt lat="43.26473" lon="6.66531">
        <ele>20.1</ele>
        <time>2023-05-24T14:17:11.000Z</time>
      </trkpt>
      <trkpt lat="43.26476" lon="6.66538">
        <ele>20.1</ele>
        <time>2023-05-24T14:17:16.000Z</time>
      </trkpt>
      <trkpt lat="43.26479" lon="6.66544">
        <ele>20.2</ele>
        <time>2023-05-24T14:17:22.000Z</time>
      </trkpt>
      <trkpt lat="43.26482" lon="6.66551">
        <ele>20.2</ele>
        <time>2023-05-24T14:17:28.000Z</time>
      </trkpt>
      <trkpt lat="43.26482" lon="6.66557">
        <ele>20.2</ele>
        <time>2023-05-24T14:17:34.000Z</time>
      </trkpt>
      <trkpt lat="43.26485" lon="6.66564">
        <ele>20.2</ele>
        <time>2023-05-24T14:17:42.000Z</time>
      </trkpt>
      <trkpt lat="43.26486" lon="6.6657">
        <ele>20.2</ele>
        <time>2023-05-24T14:17:49.000Z</time>
      </trkpt>
      <trkpt lat="43.26489" lon="6.66576">
        <ele>20.2</ele>
        <time>2023-05-24T14:17:54.000Z</time>
      </trkpt>
      <trkpt lat="43.26493" lon="6.6658">
        <ele>20.2</ele>
        <time>2023-05-24T14:17:58.000Z</time>
      </trkpt>
      <trkpt lat="43.26497" lon="6.66585">
        <ele>20.3</ele>
        <time>2023-05-24T14:18:05.000Z</time>
      </trkpt>
      <trkpt lat="43.265" lon="6.6659">
        <ele>20.5</ele>
        <time>2023-05-24T14:18:14.000Z</time>
      </trkpt>
      <trkpt lat="43.26501" lon="6.66584">
        <ele>20.6</ele>
        <time>2023-05-24T14:18:56.000Z</time>
      </trkpt>
      <trkpt lat="43.26505" lon="6.66584">
        <ele>19.8</ele>
        <time>2023-05-24T14:19:53.000Z</time>
      </trkpt>
      <trkpt lat="43.26501" lon="6.66583">
        <ele>19.8</ele>
        <time>2023-05-24T14:20:33.000Z</time>
      </trkpt>
      <trkpt lat="43.26504" lon="6.66589">
        <ele>19.9</ele>
        <time>2023-05-24T14:21:11.000Z</time>
      </trkpt>
      <trkpt lat="43.26501" lon="6.66584">
        <ele>20</ele>
        <time>2023-05-24T14:21:23.000Z</time>
      </trkpt>
      <trkpt lat="43.26497" lon="6.66585">
        <ele>20</ele>
        <time>2023-05-24T14:21:59.000Z</time>
      </trkpt>
      <trkpt lat="43.26501" lon="6.66587">
        <ele>20</ele>
        <time>2023-05-24T14:22:11.000Z</time>
      </trkpt>
      <trkpt lat="43.26505" lon="6.6659">
        <ele>20</ele>
        <time>2023-05-24T14:22:20.000Z</time>
      </trkpt>
      <trkpt lat="43.26501" lon="6.66589">
        <ele>20</ele>
        <time>2023-05-24T14:22:45.000Z</time>
      </trkpt>
      <trkpt lat="43.26496" lon="6.66587">
        <ele>19.7</ele>
        <time>2023-05-24T14:23:10.000Z</time>
      </trkpt>
      <trkpt lat="43.26501" lon="6.66588">
        <ele>19.7</ele>
        <time>2023-05-24T14:23:23.000Z</time>
      </trkpt>
      <trkpt lat="43.26504" lon="6.66593">
        <ele>20.5</ele>
        <time>2023-05-24T14:24:09.000Z</time>
      </trkpt>
      <trkpt lat="43.26505" lon="6.66586">
        <ele>20.7</ele>
        <time>2023-05-24T14:24:39.000Z</time>
      </trkpt>
      <trkpt lat="43.26504" lon="6.66583">
        <ele>20.7</ele>
        <time>2023-05-24T14:24:50.000Z</time>
      </trkpt>
    </trkseg>
  </trk>
</gpx>